
Distance (Route):
Temperature : 0°C
Humidity : 0%
Pressure : 0hPa| Receiver | Frames | First received | Last received |
|---|---|---|---|
| MIELECB | 650 | 2026-09-01 23:20:44 | 2026-09-02 00:43:54 |
| SQ9PSP-11 | 237 | 2026-09-01 23:19:41 | 2026-09-02 00:43:51 |
| AKAW68 | 217 | 2026-09-01 23:17:34 | 2026-09-02 00:43:42 |
| OM5KV | 164 | 2026-09-01 23:59:47 | 2026-09-02 00:29:22 |
| AKAW682 | 147 | 2026-09-01 23:29:45 | 2026-09-02 00:43:48 |
| SP9KGR-15 | 137 | 2026-09-01 23:39:25 | 2026-09-02 00:31:08 |
| SQ9EZE-12 | 105 | 2026-09-01 23:20:45 | 2026-09-02 00:39:36 |
| OE3JTB-15 | 28 | 2026-09-02 00:04:12 | 2026-09-02 00:43:47 |
| SP8MDH-15 | 23 | 2026-09-02 00:21:57 | 2026-09-02 00:43:56 |
| Receiver | Date | Latitude | Longitude | Direction | Speed | Altitude | Climb | Temperature | Humidity | Pressure | Voltage | Killtimer | Uptime | BKT | XDATA |
|---|---|---|---|---|---|---|---|---|---|---|---|---|---|---|---|
| SP8MDH-15 | 2026-09-02 00:43:56 | 49.51357 | 21.62115 | 98° | 16km/h | 28182m | 83.7m/s | 0°C | 0% | 0hPa | 0V | 00:00:00 | 00:00:00 | 00:00:00 | |
| MIELECB | 2026-09-02 00:43:54 | 50.03785 | 21.81758 | 54° | 16km/h | 28176m | 6.2m/s | 0°C | 0% | 0hPa | 0V | 00:00:00 | 00:00:00 | 00:00:00 | |
| SQ9PSP-11 | 2026-09-02 00:43:51 | 50.03781 | 21.81751 | 234° | 5km/h | 28157m | 5.9m/s | 0°C | 0% | 0hPa | 0V | 00:00:00 | 00:00:00 | 00:00:00 | |
| AKAW682 | 2026-09-02 00:43:48 | 50.03796 | 21.81743 | 171° | 20km/h | 28137m | 3.8m/s | 0°C | 0% | 0hPa | 0V | 00:00:00 | 00:00:00 | 00:00:00 | |
| OE3JTB-15 | 2026-09-02 00:43:47 | 50.03801 | 21.81740 | 152° | 16km/h | 28131m | 5.9m/s | 0°C | 0% | 0hPa | 0V | 00:00:00 | 00:00:00 | 00:00:00 | |
| AKAW68 | 2026-09-02 00:43:42 | 50.03792 | 21.81708 | 94° | 24km/h | 28100m | 5.5m/s | 0°C | 0% | 0hPa | 0V | 00:00:00 | 00:00:00 | 00:00:00 | |
| MIELECB | 2026-09-02 00:43:37 | 50.03792 | 21.81690 | 68° | 20km/h | 28074m | 6.1m/s | 0°C | 0% | 0hPa | 0V | 00:00:00 | 00:00:00 | 00:00:00 | |
| SQ9PSP-11 | 2026-09-02 00:43:35 | 50.03788 | 21.81669 | 67° | 38km/h | 28061m | 4.2m/s | 0°C | 0% | 0hPa | 0V | 00:00:00 | 00:00:00 | 00:00:00 | |
| MIELECB | 2026-09-02 00:43:31 | 50.03771 | 21.81635 | 59° | 15km/h | 28042m | 7.2m/s | 0°C | 0% | 0hPa | 0V | 00:00:00 | 00:00:00 | 00:00:00 | |
| AKAW682 | 2026-09-02 00:43:28 | 50.03770 | 21.81621 | 109° | 7km/h | 28026m | 5.7m/s | 0°C | 0% | 0hPa | 0V | 00:00:00 | 00:00:00 | 00:00:00 | |
| MIELECB | 2026-09-02 00:43:26 | 50.03766 | 21.81614 | 30° | 24km/h | 28013m | 8.7m/s | 0°C | 0% | 0hPa | 0V | 00:00:00 | 00:00:00 | 00:00:00 | |
| AKAW68 | 2026-09-02 00:43:21 | 50.03745 | 21.81574 | 55° | 22km/h | 27978m | 6.4m/s | 0°C | 0% | 0hPa | 0V | 00:00:00 | 00:00:00 | 00:00:00 | |
| SQ9PSP-11 | 2026-09-02 00:43:20 | 50.03742 | 21.81570 | 40° | 20km/h | 27970m | 6.6m/s | 0°C | 0% | 0hPa | 0V | 00:00:00 | 00:00:00 | 00:00:00 | |
| OE3JTB-15 | 2026-09-02 00:43:18 | 50.03734 | 21.81565 | 10° | 13km/h | 27958m | 3.7m/s | 0°C | 0% | 0hPa | 0V | 00:00:00 | 00:00:00 | 00:00:00 | |
| MIELECB | 2026-09-02 00:43:14 | 50.03724 | 21.81543 | 52° | 13km/h | 27930m | 5.5m/s | 0°C | 0% | 0hPa | 0V | 00:00:00 | 00:00:00 | 00:00:00 | |
| MIELECB | 2026-09-02 00:43:08 | 50.03704 | 21.81529 | 49° | 11km/h | 27891m | 4.8m/s | 0°C | 0% | 0hPa | 0V | 00:00:00 | 00:00:00 | 00:00:00 | |
| AKAW682 | 2026-09-02 00:43:06 | 50.03697 | 21.81525 | 8° | 18km/h | 27880m | 6.3m/s | 0°C | 0% | 0hPa | 0V | 00:00:00 | 00:00:00 | 00:00:00 | |
| SQ9PSP-11 | 2026-09-02 00:43:04 | 50.03690 | 21.81523 | 30° | 13km/h | 27868m | 7.2m/s | 0°C | 0% | 0hPa | 0V | 00:00:00 | 00:00:00 | 00:00:00 | |
| MIELECB | 2026-09-02 00:43:02 | 50.03686 | 21.81515 | 66° | 7km/h | 27854m | 5.7m/s | 0°C | 0% | 0hPa | 0V | 00:00:00 | 00:00:00 | 00:00:00 | |
| AKAW68 | 2026-09-02 00:43:00 | 50.03684 | 21.81514 | 301° | 9km/h | 27840m | 5.9m/s | 0°C | 0% | 0hPa | 0V | 00:00:00 | 00:00:00 | 00:00:00 | |
| MIELECB | 2026-09-02 00:42:57 | 50.03682 | 21.81527 | 325° | 7km/h | 27824m | 6.8m/s | 0°C | 0% | 0hPa | 0V | 00:00:00 | 00:00:00 | 00:00:00 | |
| MIELECB | 2026-09-02 00:42:51 | 50.03678 | 21.81504 | 30° | 5km/h | 27787m | 6.2m/s | 0°C | 0% | 0hPa | 0V | 00:00:00 | 00:00:00 | 00:00:00 | |
| OE3JTB-15 | 2026-09-02 00:42:49 | 50.03679 | 21.81501 | 141° | 9km/h | 27777m | 5.8m/s | 0°C | 0% | 0hPa | 0V | 00:00:00 | 00:00:00 | 00:00:00 | |
| SQ9PSP-11 | 2026-09-02 00:42:48 | 50.03680 | 21.81498 | 98° | 11km/h | 27772m | 6.4m/s | 0°C | 0% | 0hPa | 0V | 00:00:00 | 00:00:00 | 00:00:00 | |
| AKAW682 | 2026-09-02 00:42:46 | 50.03680 | 21.81488 | 11° | 9km/h | 27758m | 7.5m/s | 0°C | 0% | 0hPa | 0V | 00:00:00 | 00:00:00 | 00:00:00 | |
| MIELECB | 2026-09-02 00:42:45 | 50.03677 | 21.81488 | 353° | 11km/h | 27750m | 5.8m/s | 0°C | 0% | 0hPa | 0V | 00:00:00 | 00:00:00 | 00:00:00 | |
| MIELECB | 2026-09-02 00:42:40 | 50.03677 | 21.81468 | 128° | 16km/h | 27725m | 6.3m/s | 0°C | 0% | 0hPa | 0V | 00:00:00 | 00:00:00 | 00:00:00 | |
| MIELECB | 2026-09-02 00:42:34 | 50.03667 | 21.81450 | 45° | 13km/h | 27690m | 5.6m/s | 0°C | 0% | 0hPa | 0V | 00:00:00 | 00:00:00 | 00:00:00 | |
| SQ9PSP-11 | 2026-09-02 00:42:33 | 50.03664 | 21.81447 | 34° | 13km/h | 27685m | 7.1m/s | 0°C | 0% | 0hPa | 0V | 00:00:00 | 00:00:00 | 00:00:00 | |
| MIELECB | 2026-09-02 00:42:29 | 50.03667 | 21.81433 | 147° | 24km/h | 27655m | 6.6m/s | 0°C | 0% | 0hPa | 0V | 00:00:00 | 00:00:00 | 00:00:00 | |
| AKAW682 | 2026-09-02 00:42:26 | 50.03672 | 21.81424 | 345° | 4km/h | 27639m | 7.7m/s | 0°C | 0% | 0hPa | 0V | 00:00:00 | 00:00:00 | 00:00:00 | |
| MIELECB | 2026-09-02 00:42:24 | 50.03666 | 21.81428 | 2° | 22km/h | 27625m | 5.1m/s | 0°C | 0% | 0hPa | 0V | 00:00:00 | 00:00:00 | 00:00:00 | |
| AKAW68 | 2026-09-02 00:42:19 | 50.03662 | 21.81398 | 173° | 13km/h | 27599m | 6.6m/s | 0°C | 0% | 0hPa | 0V | 00:00:00 | 00:00:00 | 00:00:00 | |
| MIELECB | 2026-09-02 00:42:18 | 50.03663 | 21.81399 | 251° | 7km/h | 27593m | 6.8m/s | 0°C | 0% | 0hPa | 0V | 00:00:00 | 00:00:00 | 00:00:00 | |
| MIELECB | 2026-09-02 00:42:13 | 50.03648 | 21.81393 | 37° | 33km/h | 27563m | 6.0m/s | 0°C | 0% | 0hPa | 0V | 00:00:00 | 00:00:00 | 00:00:00 | |
| MIELECB | 2026-09-02 00:42:07 | 50.03625 | 21.81367 | 99° | 15km/h | 27521m | 5.1m/s | 0°C | 0% | 0hPa | 0V | 00:00:00 | 00:00:00 | 00:00:00 | |
| AKAW682 | 2026-09-02 00:42:05 | 50.03622 | 21.81359 | 29° | 7km/h | 27511m | 6.8m/s | 0°C | 0% | 0hPa | 0V | 00:00:00 | 00:00:00 | 00:00:00 | |
| MIELECB | 2026-09-02 00:41:57 | 50.03601 | 21.81333 | 215° | 4km/h | 27455m | 3.9m/s | 0°C | 0% | 0hPa | 0V | 00:00:00 | 00:00:00 | 00:00:00 | |
| MIELECB | 2026-09-02 00:41:52 | 50.03592 | 21.81317 | 13° | 13km/h | 27423m | 7.4m/s | 0°C | 0% | 0hPa | 0V | 00:00:00 | 00:00:00 | 00:00:00 | |
| SQ9PSP-11 | 2026-09-02 00:41:46 | 50.03591 | 21.81305 | 80° | 16km/h | 27391m | 6.1m/s | 0°C | 0% | 0hPa | 0V | 00:00:00 | 00:00:00 | 00:00:00 | |
| MIELECB | 2026-09-02 00:41:45 | 50.03589 | 21.81298 | 63° | 11km/h | 27383m | 5.5m/s | 0°C | 0% | 0hPa | 0V | 00:00:00 | 00:00:00 | 00:00:00 | |
| MIELECB | 2026-09-02 00:41:40 | 50.03577 | 21.81293 | 52° | 16km/h | 27352m | 5.7m/s | 0°C | 0% | 0hPa | 0V | 00:00:00 | 00:00:00 | 00:00:00 | |
| AKAW68 | 2026-09-02 00:41:36 | 50.03574 | 21.81284 | 214° | 9km/h | 27327m | 3.6m/s | 0°C | 0% | 0hPa | 0V | 00:00:00 | 00:00:00 | 00:00:00 | |
| MIELECB | 2026-09-02 00:41:34 | 50.03575 | 21.81284 | 92° | 5km/h | 27317m | 4.2m/s | 0°C | 0% | 0hPa | 0V | 00:00:00 | 00:00:00 | 00:00:00 | |
| SQ9PSP-11 | 2026-09-02 00:41:30 | 50.03565 | 21.81275 | 11° | 20km/h | 27298m | 6.1m/s | 0°C | 0% | 0hPa | 0V | 00:00:00 | 00:00:00 | 00:00:00 | |
| MIELECB | 2026-09-02 00:41:29 | 50.03560 | 21.81273 | 17° | 24km/h | 27293m | 4.3m/s | 0°C | 0% | 0hPa | 0V | 00:00:00 | 00:00:00 | 00:00:00 | |
| MIELECB | 2026-09-02 00:41:24 | 50.03558 | 21.81255 | 216° | 7km/h | 27266m | 7.2m/s | 0°C | 0% | 0hPa | 0V | 00:00:00 | 00:00:00 | 00:00:00 | |
| MIELECB | 2026-09-02 00:41:18 | 50.03538 | 21.81260 | 10° | 18km/h | 27225m | 5.3m/s | 0°C | 0% | 0hPa | 0V | 00:00:00 | 00:00:00 | 00:00:00 | |
| AKAW68 | 2026-09-02 00:41:15 | 50.03534 | 21.81258 | 96° | 11km/h | 27207m | 7.5m/s | 0°C | 0% | 0hPa | 0V | 00:00:00 | 00:00:00 | 00:00:00 | |
| MIELECB | 2026-09-02 00:41:13 | 50.03535 | 21.81250 | 119° | 5km/h | 27198m | 3.4m/s | 0°C | 0% | 0hPa | 0V | 00:00:00 | 00:00:00 | 00:00:00 | |
| MIELECB | 2026-09-02 00:41:07 | 50.03503 | 21.81257 | 20° | 20km/h | 27162m | 4.8m/s | 0°C | 0% | 0hPa | 0V | 00:00:00 | 00:00:00 | 00:00:00 | |
| AKAW682 | 2026-09-02 00:41:04 | 50.03499 | 21.81251 | 230° | 9km/h | 27146m | 4.7m/s | 0°C | 0% | 0hPa | 0V | 00:00:00 | 00:00:00 | 00:00:00 | |
| MIELECB | 2026-09-02 00:41:02 | 50.03497 | 21.81256 | 332° | 11km/h | 27141m | 5.4m/s | 0°C | 0% | 0hPa | 0V | 00:00:00 | 00:00:00 | 00:00:00 | |
| SQ9PSP-11 | 2026-09-02 00:40:59 | 50.03481 | 21.81258 | 348° | 20km/h | 27125m | 5.0m/s | 0°C | 0% | 0hPa | 0V | 00:00:00 | 00:00:00 | 00:00:00 | |
| OE3JTB-15 | 2026-09-02 00:40:58 | 50.03476 | 21.81260 | 338° | 13km/h | 27119m | 7.0m/s | 0°C | 0% | 0hPa | 0V | 00:00:00 | 00:00:00 | 00:00:00 | |
| MIELECB | 2026-09-02 00:40:56 | 50.03469 | 21.81266 | 341° | 9km/h | 27106m | 6.0m/s | 0°C | 0% | 0hPa | 0V | 00:00:00 | 00:00:00 | 00:00:00 | |
| AKAW68 | 2026-09-02 00:40:54 | 50.03468 | 21.81267 | 102° | 5km/h | 27093m | 5.8m/s | 0°C | 0% | 0hPa | 0V | 00:00:00 | 00:00:00 | 00:00:00 | |
| MIELECB | 2026-09-02 00:40:51 | 50.03469 | 21.81267 | 218° | 9km/h | 27076m | 6.3m/s | 0°C | 0% | 0hPa | 0V | 00:00:00 | 00:00:00 | 00:00:00 | |
| MIELECB | 2026-09-02 00:40:45 | 50.03459 | 21.81279 | 351° | 5km/h | 27038m | 4.1m/s | 0°C | 0% | 0hPa | 0V | 00:00:00 | 00:00:00 | 00:00:00 | |
| SQ9PSP-11 | 2026-09-02 00:40:44 | 50.03459 | 21.81282 | 245° | 13km/h | 27033m | 6.2m/s | 0°C | 0% | 0hPa | 0V | 00:00:00 | 00:00:00 | 00:00:00 | |
| AKAW682 | 2026-09-02 00:40:42 | 50.03467 | 21.81288 | 189° | 24km/h | 27021m | 4.3m/s | 0°C | 0% | 0hPa | 0V | 00:00:00 | 00:00:00 | 00:00:00 | |
| MIELECB | 2026-09-02 00:40:40 | 50.03477 | 21.81283 | 149° | 22km/h | 27008m | 5.4m/s | 0°C | 0% | 0hPa | 0V | 00:00:00 | 00:00:00 | 00:00:00 | |
| MIELECB | 2026-09-02 00:40:34 | 50.03474 | 21.81283 | 123° | 5km/h | 26974m | 5.7m/s | 0°C | 0% | 0hPa | 0V | 00:00:00 | 00:00:00 | 00:00:00 | |
| AKAW68 | 2026-09-02 00:40:33 | 50.03477 | 21.81280 | 156° | 20km/h | 26967m | 6.0m/s | 0°C | 0% | 0hPa | 0V | 00:00:00 | 00:00:00 | 00:00:00 | |
| MIELECB | 2026-09-02 00:40:28 | 50.03506 | 21.81268 | 122° | 16km/h | 26931m | 6.7m/s | 0°C | 0% | 0hPa | 0V | 00:00:00 | 00:00:00 | 00:00:00 | |
| OE3JTB-15 | 2026-09-02 00:40:25 | 50.03508 | 21.81253 | 13° | 20km/h | 26912m | 5.8m/s | 0°C | 0% | 0hPa | 0V | 00:00:00 | 00:00:00 | 00:00:00 | |
| MIELECB | 2026-09-02 00:40:23 | 50.03509 | 21.81254 | 200° | 11km/h | 26900m | 3.8m/s | 0°C | 0% | 0hPa | 0V | 00:00:00 | 00:00:00 | 00:00:00 | |
| AKAW682 | 2026-09-02 00:40:21 | 50.03518 | 21.81254 | 159° | 24km/h | 26891m | 3.5m/s | 0°C | 0% | 0hPa | 0V | 00:00:00 | 00:00:00 | 00:00:00 | |
| MIELECB | 2026-09-02 00:40:18 | 50.03538 | 21.81245 | 168° | 31km/h | 26879m | 4.4m/s | 0°C | 0% | 0hPa | 0V | 00:00:00 | 00:00:00 | 00:00:00 | |
| SQ9PSP-11 | 2026-09-02 00:40:13 | 50.03551 | 21.81204 | 100° | 20km/h | 26845m | 3.3m/s | 0°C | 0% | 0hPa | 0V | 00:00:00 | 00:00:00 | 00:00:00 | |
| MIELECB | 2026-09-02 00:40:12 | 50.03553 | 21.81199 | 130° | 13km/h | 26841m | 5.1m/s | 0°C | 0% | 0hPa | 0V | 00:00:00 | 00:00:00 | 00:00:00 | |
| MIELECB | 2026-09-02 00:40:06 | 50.03588 | 21.81181 | 111° | 18km/h | 26805m | 5.4m/s | 0°C | 0% | 0hPa | 0V | 00:00:00 | 00:00:00 | 00:00:00 | |
| MIELECB | 2026-09-02 00:40:00 | 50.03598 | 21.81149 | 128° | 27km/h | 26771m | 5.5m/s | 0°C | 0% | 0hPa | 0V | 00:00:00 | 00:00:00 | 00:00:00 | |
| SQ9PSP-11 | 2026-09-02 00:39:56 | 50.03618 | 21.81142 | 187° | 16km/h | 26750m | 4.4m/s | 0°C | 0% | 0hPa | 0V | 00:00:00 | 00:00:00 | 00:00:00 | |
| MIELECB | 2026-09-02 00:39:54 | 50.03624 | 21.81141 | 112° | 15km/h | 26739m | 6.9m/s | 0°C | 0% | 0hPa | 0V | 00:00:00 | 00:00:00 | 00:00:00 | |
| OE3JTB-15 | 2026-09-02 00:39:51 | 50.03625 | 21.81118 | 86° | 15km/h | 26724m | 5.6m/s | 0°C | 0% | 0hPa | 0V | 00:00:00 | 00:00:00 | 00:00:00 | |
| AKAW68 | 2026-09-02 00:39:50 | 50.03625 | 21.81114 | 89° | 9km/h | 26717m | 5.7m/s | 0°C | 0% | 0hPa | 0V | 00:00:00 | 00:00:00 | 00:00:00 | |
| MIELECB | 2026-09-02 00:39:48 | 50.03629 | 21.81106 | 137° | 20km/h | 26704m | 5.3m/s | 0°C | 0% | 0hPa | 0V | 00:00:00 | 00:00:00 | 00:00:00 | |
| MIELECB | 2026-09-02 00:39:43 | 50.03639 | 21.81092 | 3° | 5km/h | 26680m | 4.9m/s | 0°C | 0% | 0hPa | 0V | 00:00:00 | 00:00:00 | 00:00:00 | |
| SQ9PSP-11 | 2026-09-02 00:39:40 | 50.03634 | 21.81073 | 82° | 24km/h | 26664m | 6.0m/s | 0°C | 0% | 0hPa | 0V | 00:00:00 | 00:00:00 | 00:00:00 | |
| AKAW682 | 2026-09-02 00:39:38 | 50.03638 | 21.81057 | 114° | 15km/h | 26652m | 8.3m/s | 0°C | 0% | 0hPa | 0V | 00:00:00 | 00:00:00 | 00:00:00 | |
| SQ9EZE-12 | 2026-09-02 00:39:36 | 50.03638 | 21.81055 | 336° | 5km/h | 26639m | 5.9m/s | 0°C | 0% | 0hPa | 0V | 00:00:00 | 00:00:00 | 00:00:00 | |
| MIELECB | 2026-09-02 00:39:32 | 50.03636 | 21.81043 | 97° | 18km/h | 26614m | 3.2m/s | 0°C | 0% | 0hPa | 0V | 00:00:00 | 00:00:00 | 00:00:00 | |
| AKAW68 | 2026-09-02 00:39:30 | 50.03641 | 21.81032 | 146° | 15km/h | 26606m | 5.3m/s | 0°C | 0% | 0hPa | 0V | 00:00:00 | 00:00:00 | 00:00:00 | |
| MIELECB | 2026-09-02 00:39:26 | 50.03648 | 21.81028 | 53° | 13km/h | 26586m | 7.3m/s | 0°C | 0% | 0hPa | 0V | 00:00:00 | 00:00:00 | 00:00:00 | |
| SQ9PSP-11 | 2026-09-02 00:39:25 | 50.03646 | 21.81023 | 51° | 20km/h | 26579m | 7.1m/s | 0°C | 0% | 0hPa | 0V | 00:00:00 | 00:00:00 | 00:00:00 | |
| MIELECB | 2026-09-02 00:39:21 | 50.03630 | 21.81009 | 332° | 11km/h | 26553m | 5.5m/s | 0°C | 0% | 0hPa | 0V | 00:00:00 | 00:00:00 | 00:00:00 | |
| OE3JTB-15 | 2026-09-02 00:39:19 | 50.03626 | 21.81008 | 106° | 9km/h | 26544m | 5.3m/s | 0°C | 0% | 0hPa | 0V | 00:00:00 | 00:00:00 | 00:00:00 | |
| AKAW682 | 2026-09-02 00:39:17 | 50.03626 | 21.80998 | 108° | 13km/h | 26533m | 7.0m/s | 0°C | 0% | 0hPa | 0V | 00:00:00 | 00:00:00 | 00:00:00 | |
| MIELECB | 2026-09-02 00:39:15 | 50.03627 | 21.80995 | 322° | 4km/h | 26517m | 5.1m/s | 0°C | 0% | 0hPa | 0V | 00:00:00 | 00:00:00 | 00:00:00 | |
| SQ9EZE-12 | 2026-09-02 00:39:11 | 50.03616 | 21.80984 | 25° | 16km/h | 26493m | 2.9m/s | 0°C | 0% | 0hPa | 0V | 00:00:00 | 00:00:00 | 00:00:00 | |
| AKAW68 | 2026-09-02 00:39:10 | 50.03613 | 21.80982 | 12° | 11km/h | 26490m | 5.3m/s | 0°C | 0% | 0hPa | 0V | 00:00:00 | 00:00:00 | 00:00:00 | |
| SQ9PSP-11 | 2026-09-02 00:39:09 | 50.03611 | 21.80983 | 277° | 11km/h | 26485m | 7.1m/s | 0°C | 0% | 0hPa | 0V | 00:00:00 | 00:00:00 | 00:00:00 | |
| MIELECB | 2026-09-02 00:39:05 | 50.03610 | 21.80998 | 34° | 7km/h | 26462m | 6.2m/s | 0°C | 0% | 0hPa | 0V | 00:00:00 | 00:00:00 | 00:00:00 | |
| MIELECB | 2026-09-02 00:38:59 | 50.03591 | 21.81001 | 303° | 13km/h | 26428m | 6.4m/s | 0°C | 0% | 0hPa | 0V | 00:00:00 | 00:00:00 | 00:00:00 | |
| AKAW682 | 2026-09-02 00:38:56 | 50.03587 | 21.81002 | 18° | 7km/h | 26407m | 7.1m/s | 0°C | 0% | 0hPa | 0V | 00:00:00 | 00:00:00 | 00:00:00 | |
| MIELECB | 2026-09-02 00:38:54 | 50.03585 | 21.81003 | 303° | 15km/h | 26389m | 6.1m/s | 0°C | 0% | 0hPa | 0V | 00:00:00 | 00:00:00 | 00:00:00 | |
| SQ9PSP-11 | 2026-09-02 00:38:52 | 50.03582 | 21.81015 | 285° | 22km/h | 26377m | 5.8m/s | 0°C | 0% | 0hPa | 0V | 00:00:00 | 00:00:00 | 00:00:00 | |
| AKAW68 | 2026-09-02 00:38:50 | 50.03577 | 21.81025 | 334° | 15km/h | 26362m | 4.3m/s | 0°C | 0% | 0hPa | 0V | 00:00:00 | 00:00:00 | 00:00:00 | |
| MIELECB | 2026-09-02 00:38:48 | 50.03569 | 21.81030 | 338° | 16km/h | 26352m | 5.9m/s | 0°C | 0% | 0hPa | 0V | 00:00:00 | 00:00:00 | 00:00:00 | |
| MIELECB | 2026-09-02 00:38:43 | 50.03559 | 21.81042 | 220° | 9km/h | 26326m | 2.9m/s | 0°C | 0% | 0hPa | 0V | 00:00:00 | 00:00:00 | 00:00:00 | |
| OE3JTB-15 | 2026-09-02 00:38:38 | 50.03543 | 21.81051 | 193° | 16km/h | 26342m | 8.7m/s | 0°C | 0% | 0hPa | 0V | 00:00:00 | 00:00:00 | 00:00:00 | |
| SQ9PSP-11 | 2026-09-02 00:38:37 | 50.03543 | 21.81051 | 194° | 18km/h | 26342m | 8.8m/s | 0°C | 0% | 0hPa | 0V | 00:00:00 | 00:00:00 | 00:00:00 | |
| AKAW682 | 2026-09-02 00:38:36 | 50.03554 | 21.81043 | 192° | 16km/h | 26328m | 9.1m/s | 0°C | 0% | 0hPa | 0V | 00:00:00 | 00:00:00 | 00:00:00 | |
| MIELECB | 2026-09-02 00:38:32 | 50.03588 | 21.81055 | 187° | 15km/h | 26278m | 9.0m/s | 0°C | 0% | 0hPa | 0V | 00:00:00 | 00:00:00 | 00:00:00 | |
| AKAW68 | 2026-09-02 00:38:30 | 50.03597 | 21.81062 | 186° | 18km/h | 26269m | 7.7m/s | 0°C | 0% | 0hPa | 0V | 00:00:00 | 00:00:00 | 00:00:00 | |
| MIELECB | 2026-09-02 00:38:27 | 50.03613 | 21.81069 | 253° | 5km/h | 26240m | 3.7m/s | 0°C | 0% | 0hPa | 0V | 00:00:00 | 00:00:00 | 00:00:00 | |
| MIELECB | 2026-09-02 00:38:23 | 50.03623 | 21.81078 | 227° | 22km/h | 26222m | 0.9m/s | 0°C | 0% | 0hPa | 0V | 00:00:00 | 00:00:00 | 00:00:00 | |
| MIELECB | 2026-09-02 00:38:17 | 50.03625 | 21.81119 | 202° | 37km/h | 26191m | 7.1m/s | 0°C | 0% | 0hPa | 0V | 00:00:00 | 00:00:00 | 00:00:00 | |
| AKAW682 | 2026-09-02 00:38:15 | 50.03644 | 21.81139 | 235° | 22km/h | 26171m | 6.8m/s | 0°C | 0% | 0hPa | 0V | 00:00:00 | 00:00:00 | 00:00:00 | |
| MIELECB | 2026-09-02 00:38:11 | 50.03654 | 21.81175 | 215° | 22km/h | 26124m | 3.8m/s | 0°C | 0% | 0hPa | 0V | 00:00:00 | 00:00:00 | 00:00:00 | |
| AKAW68 | 2026-09-02 00:38:07 | 50.03667 | 21.81192 | 221° | 13km/h | 26112m | 8.0m/s | 0°C | 0% | 0hPa | 0V | 00:00:00 | 00:00:00 | 00:00:00 | |
| MIELECB | 2026-09-02 00:38:06 | 50.03670 | 21.81198 | 186° | 16km/h | 26092m | 4.0m/s | 0°C | 0% | 0hPa | 0V | 00:00:00 | 00:00:00 | 00:00:00 | |
| OE3JTB-15 | 2026-09-02 00:38:04 | 50.03677 | 21.81199 | 189° | 20km/h | 26086m | 6.1m/s | 0°C | 0% | 0hPa | 0V | 00:00:00 | 00:00:00 | 00:00:00 | |
| MIELECB | 2026-09-02 00:38:00 | 50.03691 | 21.81208 | 195° | 13km/h | 26055m | 4.2m/s | 0°C | 0% | 0hPa | 0V | 00:00:00 | 00:00:00 | 00:00:00 | |
| MIELECB | 2026-09-02 00:37:55 | 50.03720 | 21.81223 | 182° | 11km/h | 26031m | 4.9m/s | 0°C | 0% | 0hPa | 0V | 00:00:00 | 00:00:00 | 00:00:00 | |
| AKAW682 | 2026-09-02 00:37:54 | 50.03724 | 21.81223 | 129° | 16km/h | 26027m | 5.8m/s | 0°C | 0% | 0hPa | 0V | 00:00:00 | 00:00:00 | 00:00:00 | |
| MIELECB | 2026-09-02 00:37:49 | 50.03740 | 21.81201 | 273° | 11km/h | 25999m | 2.8m/s | 0°C | 0% | 0hPa | 0V | 00:00:00 | 00:00:00 | 00:00:00 | |
| MIELECB | 2026-09-02 00:37:32 | 50.03738 | 21.81148 | 143° | 22km/h | 25785m | 4.1m/s | 0°C | 0% | 0hPa | 0V | 00:00:00 | 00:00:00 | 00:00:00 | |
| OE3JTB-15 | 2026-09-02 00:37:29 | 50.03744 | 21.81143 | 171° | 16km/h | 25721m | -2.8m/s | 0°C | 0% | 0hPa | 0V | 00:00:00 | 00:00:00 | 00:00:00 | |
| MIELECB | 2026-09-02 00:37:26 | 50.03767 | 21.81141 | 87° | 15km/h | 25750m | 1.5m/s | 0°C | 0% | 0hPa | 0V | 00:00:00 | 00:00:00 | 00:00:00 | |
| AKAW68 | 2026-09-02 00:37:23 | 50.03767 | 21.81117 | 130° | 9km/h | 25751m | 3.0m/s | 0°C | 0% | 0hPa | 0V | 00:00:00 | 00:00:00 | 00:00:00 | |
| SQ9PSP-11 | 2026-09-02 00:37:18 | 50.03782 | 21.81108 | 41° | 13km/h | 25733m | 1.8m/s | 0°C | 0% | 0hPa | 0V | 00:00:00 | 00:00:00 | 00:00:00 | |
| MIELECB | 2026-09-02 00:37:15 | 50.03810 | 21.81089 | 236° | 9km/h | 25713m | 1.9m/s | 0°C | 0% | 0hPa | 0V | 00:00:00 | 00:00:00 | 00:00:00 | |
| MIELECB | 2026-09-02 00:37:09 | 50.03745 | 21.81130 | 336° | 16km/h | 25752m | 3.1m/s | 0°C | 0% | 0hPa | 0V | 00:00:00 | 00:00:00 | 00:00:00 | |
| AKAW68 | 2026-09-02 00:37:00 | 50.03745 | 21.81205 | 207° | 27km/h | 25685m | 13.9m/s | 0°C | 0% | 0hPa | 0V | 00:00:00 | 00:00:00 | 00:00:00 | |
| MIELECB | 2026-09-02 00:36:58 | 50.03798 | 21.81269 | 271° | 11km/h | 25605m | 8.3m/s | 0°C | 0% | 0hPa | 0V | 00:00:00 | 00:00:00 | 00:00:00 | |
| SQ9PSP-11 | 2026-09-02 00:36:47 | 50.03737 | 21.80869 | 272° | 68km/h | 25177m | -13.6m/s | 0°C | 0% | 0hPa | 0V | 00:00:00 | 00:00:00 | 00:00:00 | |
| MIELECB | 2026-09-02 00:36:46 | 50.03736 | 21.80895 | 272° | 68km/h | 25191m | -13.6m/s | 0°C | 0% | 0hPa | 0V | 00:00:00 | 00:00:00 | 00:00:00 | |
| AKAW68 | 2026-09-02 00:36:36 | 50.03753 | 21.81293 | 280° | 13km/h | 25497m | 3.5m/s | 0°C | 0% | 0hPa | 0V | 00:00:00 | 00:00:00 | 00:00:00 | |
| MIELECB | 2026-09-02 00:36:35 | 50.03751 | 21.81299 | 263° | 20km/h | 25485m | 1.6m/s | 0°C | 0% | 0hPa | 0V | 00:00:00 | 00:00:00 | 00:00:00 | |
| AKAW682 | 2026-09-02 00:36:31 | 50.03754 | 21.81335 | 254° | 24km/h | 25499m | 4.1m/s | 0°C | 0% | 0hPa | 0V | 00:00:00 | 00:00:00 | 00:00:00 | |
| MIELECB | 2026-09-02 00:36:30 | 50.03754 | 21.81347 | 242° | 20km/h | 25495m | 3.2m/s | 0°C | 0% | 0hPa | 0V | 00:00:00 | 00:00:00 | 00:00:00 | |
| AKAW68 | 2026-09-02 00:36:14 | 50.03799 | 21.81430 | 238° | 26km/h | 25468m | 5.5m/s | 0°C | 0% | 0hPa | 0V | 00:00:00 | 00:00:00 | 00:00:00 | |
| MIELECB | 2026-09-02 00:36:12 | 50.03807 | 21.81451 | 212° | 27km/h | 25453m | 5.2m/s | 0°C | 0% | 0hPa | 0V | 00:00:00 | 00:00:00 | 00:00:00 | |
| AKAW682 | 2026-09-02 00:36:10 | 50.03818 | 21.81467 | 189° | 35km/h | 25436m | 3.6m/s | 0°C | 0% | 0hPa | 0V | 00:00:00 | 00:00:00 | 00:00:00 | |
| MIELECB | 2026-09-02 00:36:06 | 50.03865 | 21.81460 | 159° | 24km/h | 25415m | 1.2m/s | 0°C | 0% | 0hPa | 0V | 00:00:00 | 00:00:00 | 00:00:00 | |
| MIELECB | 2026-09-02 00:36:00 | 50.03912 | 21.81447 | 233° | 22km/h | 25396m | 7.1m/s | 0°C | 0% | 0hPa | 0V | 00:00:00 | 00:00:00 | 00:00:00 | |
| SQ9PSP-11 | 2026-09-02 00:35:58 | 50.03924 | 21.81438 | 144° | 7km/h | 25373m | 5.4m/s | 0°C | 0% | 0hPa | 0V | 00:00:00 | 00:00:00 | 00:00:00 | |
| MIELECB | 2026-09-02 00:35:55 | 50.03947 | 21.81438 | 194° | 22km/h | 25348m | 6.4m/s | 0°C | 0% | 0hPa | 0V | 00:00:00 | 00:00:00 | 00:00:00 | |
| OE3JTB-15 | 2026-09-02 00:35:54 | 50.03962 | 21.81439 | 225° | 15km/h | 25344m | 9.8m/s | 0°C | 0% | 0hPa | 0V | 00:00:00 | 00:00:00 | 00:00:00 | |
| AKAW68 | 2026-09-02 00:35:53 | 50.03979 | 21.81443 | 224° | 20km/h | 25326m | 8.9m/s | 0°C | 0% | 0hPa | 0V | 00:00:00 | 00:00:00 | 00:00:00 | |
| MIELECB | 2026-09-02 00:35:50 | 50.04016 | 21.81477 | 169° | 5km/h | 25290m | 10.1m/s | 0°C | 0% | 0hPa | 0V | 00:00:00 | 00:00:00 | 00:00:00 | |
| MIELECB | 2026-09-02 00:35:44 | 50.04052 | 21.81538 | 335° | 13km/h | 25204m | -0.9m/s | 0°C | 0% | 0hPa | 0V | 00:00:00 | 00:00:00 | 00:00:00 | |
| SQ9PSP-11 | 2026-09-02 00:35:43 | 50.04052 | 21.81540 | 103° | 5km/h | 25205m | 1.9m/s | 0°C | 0% | 0hPa | 0V | 00:00:00 | 00:00:00 | 00:00:00 | |
| MIELECB | 2026-09-02 00:35:39 | 50.04053 | 21.81537 | 318° | 13km/h | 25193m | 3.2m/s | 0°C | 0% | 0hPa | 0V | 00:00:00 | 00:00:00 | 00:00:00 | |
| MIELECB | 2026-09-02 00:35:33 | 50.04059 | 21.81524 | 93° | 22km/h | 25151m | 4.8m/s | 0°C | 0% | 0hPa | 0V | 00:00:00 | 00:00:00 | 00:00:00 | |
| AKAW68 | 2026-09-02 00:35:31 | 50.04065 | 21.81512 | 122° | 11km/h | 25136m | 4.9m/s | 0°C | 0% | 0hPa | 0V | 00:00:00 | 00:00:00 | 00:00:00 | |
| MIELECB | 2026-09-02 00:35:28 | 50.04071 | 21.81493 | 122° | 9km/h | 25120m | 2.5m/s | 0°C | 0% | 0hPa | 0V | 00:00:00 | 00:00:00 | 00:00:00 | |
| SQ9PSP-11 | 2026-09-02 00:35:26 | 50.04074 | 21.81482 | 97° | 15km/h | 25111m | 2.2m/s | 0°C | 0% | 0hPa | 0V | 00:00:00 | 00:00:00 | 00:00:00 | |
| OE3JTB-15 | 2026-09-02 00:35:22 | 50.04066 | 21.81461 | 345° | 15km/h | 25088m | 2.0m/s | 0°C | 0% | 0hPa | 0V | 00:00:00 | 00:00:00 | 00:00:00 | |
| MIELECB | 2026-09-02 00:35:16 | 50.04058 | 21.81447 | 247° | 11km/h | 25042m | 0.5m/s | 0°C | 0% | 0hPa | 0V | 00:00:00 | 00:00:00 | 00:00:00 | |
| SQ9PSP-11 | 2026-09-02 00:35:11 | 50.04072 | 21.81447 | 0° | 0km/h | 25012m | -2.3m/s | 0°C | 0% | 0hPa | 0V | 00:00:00 | 00:00:00 | 00:00:00 | |
| AKAW68 | 2026-09-02 00:35:10 | 50.04078 | 21.81449 | 139° | 5km/h | 25028m | 3.2m/s | 0°C | 0% | 0hPa | 0V | 00:00:00 | 00:00:00 | 00:00:00 | |
| AKAW682 | 2026-09-02 00:35:08 | 50.04080 | 21.81444 | 101° | 9km/h | 25015m | 0.3m/s | 0°C | 0% | 0hPa | 0V | 00:00:00 | 00:00:00 | 00:00:00 | |
| MIELECB | 2026-09-02 00:35:05 | 50.04076 | 21.81435 | 90° | 9km/h | 25010m | 1.8m/s | 0°C | 0% | 0hPa | 0V | 00:00:00 | 00:00:00 | 00:00:00 | |
| MIELECB | 2026-09-02 00:35:00 | 50.04070 | 21.81415 | 42° | 7km/h | 25002m | 0.8m/s | 0°C | 0% | 0hPa | 0V | 00:00:00 | 00:00:00 | 00:00:00 | |
| SQ9PSP-11 | 2026-09-02 00:34:56 | 50.04064 | 21.81414 | 310° | 9km/h | 24995m | 2.0m/s | 0°C | 0% | 0hPa | 0V | 00:00:00 | 00:00:00 | 00:00:00 | |
| MIELECB | 2026-09-02 00:34:54 | 50.04063 | 21.81414 | 227° | 13km/h | 24994m | 2.3m/s | 0°C | 0% | 0hPa | 0V | 00:00:00 | 00:00:00 | 00:00:00 | |
| AKAW68 | 2026-09-02 00:34:49 | 50.04069 | 21.81436 | 223° | 11km/h | 24981m | 1.4m/s | 0°C | 0% | 0hPa | 0V | 00:00:00 | 00:00:00 | 00:00:00 | |
| AKAW682 | 2026-09-02 00:34:48 | 50.04075 | 21.81433 | 150° | 15km/h | 24976m | 3.3m/s | 0°C | 0% | 0hPa | 0V | 00:00:00 | 00:00:00 | 00:00:00 | |
| MIELECB | 2026-09-02 00:34:42 | 50.04079 | 21.81438 | 237° | 9km/h | 24951m | 5.4m/s | 0°C | 0% | 0hPa | 0V | 00:00:00 | 00:00:00 | 00:00:00 | |
| SQ9PSP-11 | 2026-09-02 00:34:40 | 50.04082 | 21.81441 | 194° | 9km/h | 24939m | 5.0m/s | 0°C | 0% | 0hPa | 0V | 00:00:00 | 00:00:00 | 00:00:00 | |
| MIELECB | 2026-09-02 00:34:37 | 50.04087 | 21.81448 | 279° | 7km/h | 24924m | 4.2m/s | 0°C | 0% | 0hPa | 0V | 00:00:00 | 00:00:00 | 00:00:00 | |
| MIELECB | 2026-09-02 00:34:31 | 50.04092 | 21.81475 | 254° | 24km/h | 24900m | 3.2m/s | 0°C | 0% | 0hPa | 0V | 00:00:00 | 00:00:00 | 00:00:00 | |
| AKAW68 | 2026-09-02 00:34:28 | 50.04101 | 21.81493 | 205° | 18km/h | 24883m | 4.7m/s | 0°C | 0% | 0hPa | 0V | 00:00:00 | 00:00:00 | 00:00:00 | |
| MIELECB | 2026-09-02 00:34:26 | 50.04107 | 21.81500 | 212° | 22km/h | 24875m | 5.1m/s | 0°C | 0% | 0hPa | 0V | 00:00:00 | 00:00:00 | 00:00:00 | |
| SQ9PSP-11 | 2026-09-02 00:34:24 | 50.04110 | 21.81510 | 252° | 15km/h | 24866m | 6.2m/s | 0°C | 0% | 0hPa | 0V | 00:00:00 | 00:00:00 | 00:00:00 | |
| MIELECB | 2026-09-02 00:34:21 | 50.04117 | 21.81524 | 223° | 15km/h | 24842m | 3.0m/s | 0°C | 0% | 0hPa | 0V | 00:00:00 | 00:00:00 | 00:00:00 | |
| MIELECB | 2026-09-02 00:34:15 | 50.04137 | 21.81557 | 225° | 29km/h | 24814m | 5.3m/s | 0°C | 0% | 0hPa | 0V | 00:00:00 | 00:00:00 | 00:00:00 | |
| MIELECB | 2026-09-02 00:34:10 | 50.04158 | 21.81569 | 234° | 13km/h | 24776m | 4.7m/s | 0°C | 0% | 0hPa | 0V | 00:00:00 | 00:00:00 | 00:00:00 | |
| SQ9PSP-11 | 2026-09-02 00:34:09 | 50.04161 | 21.81574 | 258° | 22km/h | 24770m | 5.2m/s | 0°C | 0% | 0hPa | 0V | 00:00:00 | 00:00:00 | 00:00:00 | |
| AKAW68 | 2026-09-02 00:34:07 | 50.04166 | 21.81588 | 225° | 22km/h | 24760m | 4.4m/s | 0°C | 0% | 0hPa | 0V | 00:00:00 | 00:00:00 | 00:00:00 | |
| AKAW682 | 2026-09-02 00:34:05 | 50.04177 | 21.81595 | 203° | 24km/h | 24749m | 3.5m/s | 0°C | 0% | 0hPa | 0V | 00:00:00 | 00:00:00 | 00:00:00 | |
| MIELECB | 2026-09-02 00:34:04 | 50.04182 | 21.81598 | 203° | 24km/h | 24744m | 3.8m/s | 0°C | 0% | 0hPa | 0V | 00:00:00 | 00:00:00 | 00:00:00 | |
| MIELECB | 2026-09-02 00:33:58 | 50.04214 | 21.81620 | 185° | 24km/h | 24713m | 5.6m/s | 0°C | 0% | 0hPa | 0V | 00:00:00 | 00:00:00 | 00:00:00 | |
| SQ9PSP-11 | 2026-09-02 00:33:53 | 50.04242 | 21.81629 | 193° | 37km/h | 24680m | 3.3m/s | 0°C | 0% | 0hPa | 0V | 00:00:00 | 00:00:00 | 00:00:00 | |
| MIELECB | 2026-09-02 00:33:52 | 50.04250 | 21.81632 | 198° | 26km/h | 24675m | 3.0m/s | 0°C | 0% | 0hPa | 0V | 00:00:00 | 00:00:00 | 00:00:00 | |
| SQ9EZE-12 | 2026-09-02 00:33:49 | 50.04266 | 21.81637 | 189° | 11km/h | 24661m | 4.7m/s | 0°C | 0% | 0hPa | 0V | 00:00:00 | 00:00:00 | 00:00:00 | |
| MIELECB | 2026-09-02 00:33:47 | 50.04273 | 21.81640 | 195° | 16km/h | 24651m | 6.8m/s | 0°C | 0% | 0hPa | 0V | 00:00:00 | 00:00:00 | 00:00:00 | |
| AKAW68 | 2026-09-02 00:33:46 | 50.04279 | 21.81640 | 187° | 24km/h | 24642m | 7.7m/s | 0°C | 0% | 0hPa | 0V | 00:00:00 | 00:00:00 | 00:00:00 | |
| AKAW682 | 2026-09-02 00:33:44 | 50.04292 | 21.81644 | 201° | 24km/h | 24624m | 5.9m/s | 0°C | 0% | 0hPa | 0V | 00:00:00 | 00:00:00 | 00:00:00 | |
| SQ9PSP-11 | 2026-09-02 00:33:37 | 50.04323 | 21.81610 | 174° | 16km/h | 24565m | 4.8m/s | 0°C | 0% | 0hPa | 0V | 00:00:00 | 00:00:00 | 00:00:00 | |
| MIELECB | 2026-09-02 00:33:35 | 50.04331 | 21.81610 | 188° | 22km/h | 24545m | 6.8m/s | 0°C | 0% | 0hPa | 0V | 00:00:00 | 00:00:00 | 00:00:00 | |
| MIELECB | 2026-09-02 00:33:29 | 50.04363 | 21.81581 | 155° | 15km/h | 24465m | 4.0m/s | 0°C | 0% | 0hPa | 0V | 00:00:00 | 00:00:00 | 00:00:00 | |
| OE3JTB-15 | 2026-09-02 00:33:27 | 50.04371 | 21.81573 | 185° | 27km/h | 24448m | 0.4m/s | 0°C | 0% | 0hPa | 0V | 00:00:00 | 00:00:00 | 00:00:00 | |
| AKAW68 | 2026-09-02 00:33:26 | 50.04377 | 21.81574 | 182° | 24km/h | 24446m | 1.1m/s | 0°C | 0% | 0hPa | 0V | 00:00:00 | 00:00:00 | 00:00:00 | |
| SQ9EZE-12 | 2026-09-02 00:33:25 | 50.04384 | 21.81574 | 163° | 35km/h | 24447m | 2.8m/s | 0°C | 0% | 0hPa | 0V | 00:00:00 | 00:00:00 | 00:00:00 | |
| AKAW682 | 2026-09-02 00:33:24 | 50.04391 | 21.81570 | 148° | 29km/h | 24445m | 2.1m/s | 0°C | 0% | 0hPa | 0V | 00:00:00 | 00:00:00 | 00:00:00 | |
| MIELECB | 2026-09-02 00:33:23 | 50.04397 | 21.81561 | 118° | 27km/h | 24442m | 3.4m/s | 0°C | 0% | 0hPa | 0V | 00:00:00 | 00:00:00 | 00:00:00 | |
| SQ9PSP-11 | 2026-09-02 00:33:21 | 50.04402 | 21.81544 | 106° | 16km/h | 24433m | 0.7m/s | 0°C | 0% | 0hPa | 0V | 00:00:00 | 00:00:00 | 00:00:00 | |
| MIELECB | 2026-09-02 00:33:17 | 50.04419 | 21.81516 | 143° | 31km/h | 24433m | 1.3m/s | 0°C | 0% | 0hPa | 0V | 00:00:00 | 00:00:00 | 00:00:00 | |
| MIELECB | 2026-09-02 00:33:13 | 50.04446 | 21.81486 | 134° | 24km/h | 24430m | 1.8m/s | 0°C | 0% | 0hPa | 0V | 00:00:00 | 00:00:00 | 00:00:00 | |
| AKAW68 | 2026-09-02 00:33:06 | 50.04470 | 21.81451 | 142° | 24km/h | 24413m | 1.3m/s | 0°C | 0% | 0hPa | 0V | 00:00:00 | 00:00:00 | 00:00:00 | |
| SQ9EZE-12 | 2026-09-02 00:33:04 | 50.04474 | 21.81444 | 129° | 26km/h | 24411m | 4.0m/s | 0°C | 0% | 0hPa | 0V | 00:00:00 | 00:00:00 | 00:00:00 | |
| AKAW682 | 2026-09-02 00:33:02 | 50.04480 | 21.81428 | 98° | 24km/h | 24402m | 1.6m/s | 0°C | 0% | 0hPa | 0V | 00:00:00 | 00:00:00 | 00:00:00 | |
| MIELECB | 2026-09-02 00:33:00 | 50.04484 | 21.81411 | 122° | 22km/h | 24398m | 0.8m/s | 0°C | 0% | 0hPa | 0V | 00:00:00 | 00:00:00 | 00:00:00 | |
| MIELECB | 2026-09-02 00:32:55 | 50.04507 | 21.81385 | 133° | 22km/h | 24382m | 3.9m/s | 0°C | 0% | 0hPa | 0V | 00:00:00 | 00:00:00 | 00:00:00 | |
| SQ9PSP-11 | 2026-09-02 00:32:50 | 50.04527 | 21.81321 | 96° | 37km/h | 24333m | 6.2m/s | 0°C | 0% | 0hPa | 0V | 00:00:00 | 00:00:00 | 00:00:00 | |
| MIELECB | 2026-09-02 00:32:49 | 50.04527 | 21.81308 | 87° | 29km/h | 24328m | 4.7m/s | 0°C | 0% | 0hPa | 0V | 00:00:00 | 00:00:00 | 00:00:00 | |
| AKAW68 | 2026-09-02 00:32:45 | 50.04540 | 21.81269 | 122° | 24km/h | 24300m | 4.5m/s | 0°C | 0% | 0hPa | 0V | 00:00:00 | 00:00:00 | 00:00:00 | |
| OE3JTB-15 | 2026-09-02 00:32:44 | 50.04544 | 21.81260 | 106° | 24km/h | 24294m | 5.0m/s | 0°C | 0% | 0hPa | 0V | 00:00:00 | 00:00:00 | 00:00:00 | |
| MIELECB | 2026-09-02 00:32:43 | 50.04546 | 21.81248 | 106° | 33km/h | 24289m | 5.1m/s | 0°C | 0% | 0hPa | 0V | 00:00:00 | 00:00:00 | 00:00:00 | |
| AKAW682 | 2026-09-02 00:32:41 | 50.04553 | 21.81219 | 112° | 38km/h | 24276m | 6.2m/s | 0°C | 0% | 0hPa | 0V | 00:00:00 | 00:00:00 | 00:00:00 | |
| MIELECB | 2026-09-02 00:32:38 | 50.04556 | 21.81179 | 79° | 29km/h | 24256m | 5.2m/s | 0°C | 0% | 0hPa | 0V | 00:00:00 | 00:00:00 | 00:00:00 | |
| SQ9PSP-11 | 2026-09-02 00:32:35 | 50.04556 | 21.81150 | 122° | 18km/h | 24239m | 3.3m/s | 0°C | 0% | 0hPa | 0V | 00:00:00 | 00:00:00 | 00:00:00 | |
| MIELECB | 2026-09-02 00:32:33 | 50.04560 | 21.81136 | 101° | 29km/h | 24230m | 5.1m/s | 0°C | 0% | 0hPa | 0V | 00:00:00 | 00:00:00 | 00:00:00 | |
| SP8MDH-15 | 2026-09-02 00:32:30 | 50.04561 | 21.81097 | 97° | 33km/h | 24218m | 6.0m/s | 0°C | 0% | 0hPa | 0V | 00:00:00 | 00:00:00 | 00:00:00 | |
| MIELECB | 2026-09-02 00:32:27 | 50.04564 | 21.81068 | 87° | 16km/h | 24204m | 6.1m/s | 0°C | 0% | 0hPa | 0V | 00:00:00 | 00:00:00 | 00:00:00 | |
| AKAW68 | 2026-09-02 00:32:25 | 50.04560 | 21.81058 | 52° | 15km/h | 24195m | 2.9m/s | 0°C | 0% | 0hPa | 0V | 00:00:00 | 00:00:00 | 00:00:00 | |
| SQ9EZE-12 | 2026-09-02 00:32:22 | 50.04563 | 21.81038 | 104° | 27km/h | 24180m | 4.8m/s | 0°C | 0% | 0hPa | 0V | 00:00:00 | 00:00:00 | 00:00:00 | |
| MIELECB | 2026-09-02 00:32:21 | 50.04564 | 21.81026 | 99° | 26km/h | 24172m | 6.0m/s | 0°C | 0% | 0hPa | 0V | 00:00:00 | 00:00:00 | 00:00:00 | |
| SQ9PSP-11 | 2026-09-02 00:32:19 | 50.04564 | 21.81003 | 84° | 29km/h | 24159m | 5.0m/s | 0°C | 0% | 0hPa | 0V | 00:00:00 | 00:00:00 | 00:00:00 | |
| MIELECB | 2026-09-02 00:32:15 | 50.04553 | 21.80969 | 49° | 22km/h | 24145m | 5.1m/s | 0°C | 0% | 0hPa | 0V | 00:00:00 | 00:00:00 | 00:00:00 | |
| MIELECB | 2026-09-02 00:32:09 | 50.04546 | 21.80911 | 77° | 24km/h | 24091m | 5.2m/s | 0°C | 0% | 0hPa | 0V | 00:00:00 | 00:00:00 | 00:00:00 | |
| SP8MDH-15 | 2026-09-02 00:32:08 | 50.04544 | 21.80901 | 57° | 22km/h | 24082m | 4.6m/s | 0°C | 0% | 0hPa | 0V | 00:00:00 | 00:00:00 | 00:00:00 | |
| OE3JTB-15 | 2026-09-02 00:32:06 | 50.04538 | 21.80890 | 33° | 16km/h | 24071m | 5.6m/s | 0°C | 0% | 0hPa | 0V | 00:00:00 | 00:00:00 | 00:00:00 | |
| MIELECB | 2026-09-02 00:32:04 | 50.04529 | 21.80880 | 27° | 24km/h | 24060m | 5.2m/s | 0°C | 0% | 0hPa | 0V | 00:00:00 | 00:00:00 | 00:00:00 | |
| AKAW68 | 2026-09-02 00:32:03 | 50.04525 | 21.80876 | 35° | 18km/h | 24055m | 2.8m/s | 0°C | 0% | 0hPa | 0V | 00:00:00 | 00:00:00 | 00:00:00 | |
| AKAW682 | 2026-09-02 00:32:00 | 50.04521 | 21.80859 | 96° | 18km/h | 24042m | 6.2m/s | 0°C | 0% | 0hPa | 0V | 00:00:00 | 00:00:00 | 00:00:00 | |
| MIELECB | 2026-09-02 00:31:59 | 50.04521 | 21.80852 | 85° | 18km/h | 24037m | 5.0m/s | 0°C | 0% | 0hPa | 0V | 00:00:00 | 00:00:00 | 00:00:00 | |
| SQ9EZE-12 | 2026-09-02 00:31:54 | 50.04502 | 21.80836 | 30° | 15km/h | 24009m | 2.8m/s | 0°C | 0% | 0hPa | 0V | 00:00:00 | 00:00:00 | 00:00:00 | |
| MIELECB | 2026-09-02 00:31:53 | 50.04500 | 21.80833 | 80° | 13km/h | 24008m | 4.2m/s | 0°C | 0% | 0hPa | 0V | 00:00:00 | 00:00:00 | 00:00:00 | |
| SQ9PSP-11 | 2026-09-02 00:31:48 | 50.04495 | 21.80809 | 76° | 7km/h | 23982m | 5.2m/s | 0°C | 0% | 0hPa | 0V | 00:00:00 | 00:00:00 | 00:00:00 | |
| MIELECB | 2026-09-02 00:31:47 | 50.04494 | 21.80808 | 22° | 5km/h | 23977m | 5.4m/s | 0°C | 0% | 0hPa | 0V | 00:00:00 | 00:00:00 | 00:00:00 | |
| MIELECB | 2026-09-02 00:31:42 | 50.04477 | 21.80805 | 84° | 11km/h | 23951m | 6.0m/s | 0°C | 0% | 0hPa | 0V | 00:00:00 | 00:00:00 | 00:00:00 | |
| AKAW68 | 2026-09-02 00:31:41 | 50.04477 | 21.80800 | 89° | 13km/h | 23946m | 6.0m/s | 0°C | 0% | 0hPa | 0V | 00:00:00 | 00:00:00 | 00:00:00 | |
| AKAW682 | 2026-09-02 00:31:40 | 50.04477 | 21.80793 | 90° | 20km/h | 23939m | 7.4m/s | 0°C | 0% | 0hPa | 0V | 00:00:00 | 00:00:00 | 00:00:00 | |
| SQ9EZE-12 | 2026-09-02 00:31:37 | 50.04475 | 21.80777 | 60° | 15km/h | 23917m | 5.8m/s | 0°C | 0% | 0hPa | 0V | 00:00:00 | 00:00:00 | 00:00:00 | |
| SP8MDH-15 | 2026-09-02 00:31:36 | 50.04472 | 21.80772 | 30° | 20km/h | 23910m | 5.3m/s | 0°C | 0% | 0hPa | 0V | 00:00:00 | 00:00:00 | 00:00:00 | |
| SQ9PSP-11 | 2026-09-02 00:31:33 | 50.04456 | 21.80766 | 8° | 29km/h | 23890m | 5.4m/s | 0°C | 0% | 0hPa | 0V | 00:00:00 | 00:00:00 | 00:00:00 | |
| MIELECB | 2026-09-02 00:31:31 | 50.04445 | 21.80764 | 15° | 15km/h | 23878m | 6.2m/s | 0°C | 0% | 0hPa | 0V | 00:00:00 | 00:00:00 | 00:00:00 | |
| MIELECB | 2026-09-02 00:31:26 | 50.04441 | 21.80743 | 45° | 18km/h | 23850m | 5.6m/s | 0°C | 0% | 0hPa | 0V | 00:00:00 | 00:00:00 | 00:00:00 | |
| AKAW682 | 2026-09-02 00:31:21 | 50.04420 | 21.80725 | 89° | 18km/h | 23812m | 4.7m/s | 0°C | 0% | 0hPa | 0V | 00:00:00 | 00:00:00 | 00:00:00 | |
| AKAW68 | 2026-09-02 00:31:19 | 50.04420 | 21.80717 | 91° | 20km/h | 23807m | 5.9m/s | 0°C | 0% | 0hPa | 0V | 00:00:00 | 00:00:00 | 00:00:00 | |
| SQ9PSP-11 | 2026-09-02 00:31:17 | 50.04421 | 21.80700 | 97° | 16km/h | 23792m | 6.7m/s | 0°C | 0% | 0hPa | 0V | 00:00:00 | 00:00:00 | 00:00:00 | |
| SP8MDH-15 | 2026-09-02 00:31:16 | 50.04421 | 21.80694 | 88° | 7km/h | 23783m | 6.3m/s | 0°C | 0% | 0hPa | 0V | 00:00:00 | 00:00:00 | 00:00:00 | |
| MIELECB | 2026-09-02 00:31:15 | 50.04418 | 21.80690 | 37° | 16km/h | 23775m | 7.6m/s | 0°C | 0% | 0hPa | 0V | 00:00:00 | 00:00:00 | 00:00:00 | |
| MIELECB | 2026-09-02 00:31:09 | 50.04405 | 21.80680 | 155° | 15km/h | 23729m | 4.8m/s | 0°C | 0% | 0hPa | 0V | 00:00:00 | 00:00:00 | 00:00:00 | |
| SP9KGR-15 | 2026-09-02 00:31:08 | 50.04408 | 21.80674 | 133° | 26km/h | 23721m | 5.9m/s | 0°C | 0% | 0hPa | 0V | 00:00:00 | 00:00:00 | 00:00:00 | |
| OE3JTB-15 | 2026-09-02 00:31:07 | 50.04409 | 21.80653 | 64° | 16km/h | 23700m | 5.4m/s | 0°C | 0% | 0hPa | 0V | 00:00:00 | 00:00:00 | 00:00:00 | |
| MIELECB | 2026-09-02 00:31:04 | 50.04402 | 21.80640 | 24° | 13km/h | 23676m | 6.4m/s | 0°C | 0% | 0hPa | 0V | 00:00:00 | 00:00:00 | 00:00:00 | |
| SQ9PSP-11 | 2026-09-02 00:31:02 | 50.04396 | 21.80632 | 43° | 15km/h | 23653m | 5.0m/s | 0°C | 0% | 0hPa | 0V | 00:00:00 | 00:00:00 | 00:00:00 | |
| MIELECB | 2026-09-02 00:30:59 | 50.04393 | 21.80623 | 88° | 7km/h | 23646m | 0.2m/s | 0°C | 0% | 0hPa | 0V | 00:00:00 | 00:00:00 | 00:00:00 | |
| SP8MDH-15 | 2026-09-02 00:30:54 | 50.04395 | 21.80613 | 101° | 13km/h | 23655m | -0.6m/s | 0°C | 0% | 0hPa | 0V | 00:00:00 | 00:00:00 | 00:00:00 | |
| MIELECB | 2026-09-02 00:30:53 | 50.04395 | 21.80607 | 111° | 15km/h | 23656m | -1.2m/s | 0°C | 0% | 0hPa | 0V | 00:00:00 | 00:00:00 | 00:00:00 | |
| MIELECB | 2026-09-02 00:30:49 | 50.04390 | 21.80589 | 66° | 13km/h | 23640m | 2.7m/s | 0°C | 0% | 0hPa | 0V | 00:00:00 | 00:00:00 | 00:00:00 | |
| SQ9PSP-11 | 2026-09-02 00:30:47 | 50.04389 | 21.80584 | 58° | 13km/h | 23637m | 3.3m/s | 0°C | 0% | 0hPa | 0V | 00:00:00 | 00:00:00 | 00:00:00 | |
| MIELECB | 2026-09-02 00:30:42 | 50.04388 | 21.80564 | 84° | 18km/h | 23604m | 3.5m/s | 0°C | 0% | 0hPa | 0V | 00:00:00 | 00:00:00 | 00:00:00 | |
| AKAW68 | 2026-09-02 00:30:38 | 50.04383 | 21.80550 | 21° | 4km/h | 23587m | 3.7m/s | 0°C | 0% | 0hPa | 0V | 00:00:00 | 00:00:00 | 00:00:00 | |
| MIELECB | 2026-09-02 00:30:37 | 50.04382 | 21.80548 | 38° | 11km/h | 23583m | 3.2m/s | 0°C | 0% | 0hPa | 0V | 00:00:00 | 00:00:00 | 00:00:00 | |
| SQ9EZE-12 | 2026-09-02 00:30:36 | 50.04380 | 21.80543 | 51° | 4km/h | 23576m | 5.9m/s | 0°C | 0% | 0hPa | 0V | 00:00:00 | 00:00:00 | 00:00:00 | |
| SP8MDH-15 | 2026-09-02 00:30:33 | 50.04379 | 21.80539 | 78° | 7km/h | 23566m | 3.7m/s | 0°C | 0% | 0hPa | 0V | 00:00:00 | 00:00:00 | 00:00:00 | |
| MIELECB | 2026-09-02 00:30:31 | 50.04380 | 21.80530 | 82° | 15km/h | 23557m | 5.9m/s | 0°C | 0% | 0hPa | 0V | 00:00:00 | 00:00:00 | 00:00:00 | |
| SP9KGR-15 | 2026-09-02 00:30:28 | 50.04373 | 21.80519 | 3° | 18km/h | 23539m | 6.4m/s | 0°C | 0% | 0hPa | 0V | 00:00:00 | 00:00:00 | 00:00:00 | |
| MIELECB | 2026-09-02 00:30:26 | 50.04366 | 21.80522 | 349° | 16km/h | 23529m | 3.9m/s | 0°C | 0% | 0hPa | 0V | 00:00:00 | 00:00:00 | 00:00:00 | |
| AKAW682 | 2026-09-02 00:30:18 | 50.04364 | 21.80498 | 56° | 9km/h | 23482m | 4.5m/s | 0°C | 0% | 0hPa | 0V | 00:00:00 | 00:00:00 | 00:00:00 | |
| SQ9PSP-11 | 2026-09-02 00:30:17 | 50.04364 | 21.80496 | 52° | 2km/h | 23477m | 6.1m/s | 0°C | 0% | 0hPa | 0V | 00:00:00 | 00:00:00 | 00:00:00 | |
| MIELECB | 2026-09-02 00:30:14 | 50.04364 | 21.80495 | 146° | 5km/h | 23464m | 5.4m/s | 0°C | 0% | 0hPa | 0V | 00:00:00 | 00:00:00 | 00:00:00 | |
| SP8MDH-15 | 2026-09-02 00:30:12 | 50.04364 | 21.80490 | 98° | 11km/h | 23452m | 6.9m/s | 0°C | 0% | 0hPa | 0V | 00:00:00 | 00:00:00 | 00:00:00 | |
| MIELECB | 2026-09-02 00:30:08 | 50.04365 | 21.80473 | 161° | 5km/h | 23430m | 6.8m/s | 0°C | 0% | 0hPa | 0V | 00:00:00 | 00:00:00 | 00:00:00 | |
| SP9KGR-15 | 2026-09-02 00:30:05 | 50.04363 | 21.80477 | 0° | 0km/h | 23406m | 5.2m/s | 0°C | 0% | 0hPa | 0V | 00:00:00 | 00:00:00 | 00:00:00 | |
| OE3JTB-15 | 2026-09-02 00:29:58 | 50.04357 | 21.80472 | 269° | 9km/h | 23347m | 4.8m/s | 0°C | 0% | 0hPa | 0V | 00:00:00 | 00:00:00 | 00:00:00 | |
| MIELECB | 2026-09-02 00:29:57 | 50.04357 | 21.80471 | 270° | 5km/h | 23347m | 4.8m/s | 0°C | 0% | 0hPa | 0V | 00:00:00 | 00:00:00 | 00:00:00 | |
| AKAW682 | 2026-09-02 00:29:56 | 50.04359 | 21.80472 | 170° | 15km/h | 23342m | 3.4m/s | 0°C | 0% | 0hPa | 0V | 00:00:00 | 00:00:00 | 00:00:00 | |
| AKAW68 | 2026-09-02 00:29:54 | 50.04363 | 21.80473 | 246° | 9km/h | 23332m | 3.2m/s | 0°C | 0% | 0hPa | 0V | 00:00:00 | 00:00:00 | 00:00:00 | |
| MIELECB | 2026-09-02 00:29:51 | 50.04361 | 21.80482 | 299° | 7km/h | 23317m | 3.2m/s | 0°C | 0% | 0hPa | 0V | 00:00:00 | 00:00:00 | 00:00:00 | |
| SP9KGR-15 | 2026-09-02 00:29:50 | 50.04360 | 21.80486 | 270° | 13km/h | 23313m | 2.8m/s | 0°C | 0% | 0hPa | 0V | 00:00:00 | 00:00:00 | 00:00:00 | |
| MIELECB | 2026-09-02 00:29:46 | 50.04364 | 21.80504 | 233° | 11km/h | 23300m | 3.1m/s | 0°C | 0% | 0hPa | 0V | 00:00:00 | 00:00:00 | 00:00:00 | |
| SQ9PSP-11 | 2026-09-02 00:29:45 | 50.04366 | 21.80507 | 221° | 9km/h | 23298m | 4.3m/s | 0°C | 0% | 0hPa | 0V | 00:00:00 | 00:00:00 | 00:00:00 | |
| SP8MDH-15 | 2026-09-02 00:29:41 | 50.04375 | 21.80513 | 178° | 7km/h | 23282m | 3.0m/s | 0°C | 0% | 0hPa | 0V | 00:00:00 | 00:00:00 | 00:00:00 | |
| AKAW682 | 2026-09-02 00:29:36 | 50.04391 | 21.80514 | 139° | 11km/h | 23254m | 4.8m/s | 0°C | 0% | 0hPa | 0V | 00:00:00 | 00:00:00 | 00:00:00 | |
| MIELECB | 2026-09-02 00:29:35 | 50.04392 | 21.80511 | 100° | 13km/h | 23247m | 7.0m/s | 0°C | 0% | 0hPa | 0V | 00:00:00 | 00:00:00 | 00:00:00 | |
| SP9KGR-15 | 2026-09-02 00:29:34 | 50.04392 | 21.80505 | 88° | 15km/h | 23242m | 4.3m/s | 0°C | 0% | 0hPa | 0V | 00:00:00 | 00:00:00 | 00:00:00 | |
| AKAW68 | 2026-09-02 00:29:33 | 50.04393 | 21.80499 | 110° | 16km/h | 23238m | 3.8m/s | 0°C | 0% | 0hPa | 0V | 00:00:00 | 00:00:00 | 00:00:00 | |
| MIELECB | 2026-09-02 00:29:29 | 50.04408 | 21.80502 | 195° | 24km/h | 23216m | 4.2m/s | 0°C | 0% | 0hPa | 0V | 00:00:00 | 00:00:00 | 00:00:00 | |
| OE3JTB-15 | 2026-09-02 00:29:27 | 50.04422 | 21.80497 | 150° | 18km/h | 23205m | 6.0m/s | 0°C | 0% | 0hPa | 0V | 00:00:00 | 00:00:00 | 00:00:00 | |
| MIELECB | 2026-09-02 00:29:23 | 50.04441 | 21.80466 | 139° | 16km/h | 23184m | 6.3m/s | 0°C | 0% | 0hPa | 0V | 00:00:00 | 00:00:00 | 00:00:00 | |
| OM5KV | 2026-09-02 00:29:22 | 50.04443 | 21.80462 | 97° | 9km/h | 23178m | 6.4m/s | 0°C | 0% | 0hPa | 0V | 00:00:00 | 00:00:00 | 00:00:00 | |
| MIELECB | 2026-09-02 00:29:18 | 50.04453 | 21.80447 | 168° | 18km/h | 23152m | 7.2m/s | 0°C | 0% | 0hPa | 0V | 00:00:00 | 00:00:00 | 00:00:00 | |
| SP8MDH-15 | 2026-09-02 00:29:17 | 50.04458 | 21.80446 | 170° | 27km/h | 23144m | 5.8m/s | 0°C | 0% | 0hPa | 0V | 00:00:00 | 00:00:00 | 00:00:00 | |
| AKAW682 | 2026-09-02 00:29:15 | 50.04470 | 21.80433 | 128° | 26km/h | 23130m | 5.7m/s | 0°C | 0% | 0hPa | 0V | 00:00:00 | 00:00:00 | 00:00:00 | |
| SQ9PSP-11 | 2026-09-02 00:29:14 | 50.04472 | 21.80423 | 104° | 29km/h | 23122m | 4.1m/s | 0°C | 0% | 0hPa | 0V | 00:00:00 | 00:00:00 | 00:00:00 | |
| AKAW68 | 2026-09-02 00:29:12 | 50.04471 | 21.80404 | 41° | 18km/h | 23109m | 4.9m/s | 0°C | 0% | 0hPa | 0V | 00:00:00 | 00:00:00 | 00:00:00 | |
| MIELECB | 2026-09-02 00:29:07 | 50.04477 | 21.80392 | 132° | 26km/h | 23055m | 5.7m/s | 0°C | 0% | 0hPa | 0V | 00:00:00 | 00:00:00 | 00:00:00 | |
| SP9KGR-15 | 2026-09-02 00:29:02 | 50.04475 | 21.80363 | 11° | 9km/h | 23014m | -0.9m/s | 0°C | 0% | 0hPa | 0V | 00:00:00 | 00:00:00 | 00:00:00 | |
| MIELECB | 2026-09-02 00:29:01 | 50.04472 | 21.80362 | 12° | 5km/h | 23015m | -0.2m/s | 0°C | 0% | 0hPa | 0V | 00:00:00 | 00:00:00 | 00:00:00 | |
| SQ9PSP-11 | 2026-09-02 00:28:58 | 50.04472 | 21.80354 | 61° | 9km/h | 23019m | -0.2m/s | 0°C | 0% | 0hPa | 0V | 00:00:00 | 00:00:00 | 00:00:00 | |
| OE3JTB-15 | 2026-09-02 00:28:56 | 50.04472 | 21.80348 | 98° | 15km/h | 23019m | -1.4m/s | 0°C | 0% | 0hPa | 0V | 00:00:00 | 00:00:00 | 00:00:00 | |
| OM5KV | 2026-09-02 00:28:55 | 50.04472 | 21.80344 | 87° | 11km/h | 23020m | 0.2m/s | 0°C | 0% | 0hPa | 0V | 00:00:00 | 00:00:00 | 00:00:00 | |
| AKAW682 | 2026-09-02 00:28:54 | 50.04471 | 21.80339 | 81° | 15km/h | 23018m | -1.8m/s | 0°C | 0% | 0hPa | 0V | 00:00:00 | 00:00:00 | 00:00:00 | |
| MIELECB | 2026-09-02 00:28:50 | 50.04460 | 21.80335 | 343° | 13km/h | 23015m | -1.1m/s | 0°C | 0% | 0hPa | 0V | 00:00:00 | 00:00:00 | 00:00:00 | |
| SP8MDH-15 | 2026-09-02 00:28:49 | 50.04457 | 21.80335 | 358° | 15km/h | 23011m | 3.0m/s | 0°C | 0% | 0hPa | 0V | 00:00:00 | 00:00:00 | 00:00:00 | |
| OM5KV | 2026-09-02 00:28:48 | 50.04453 | 21.80332 | 59° | 11km/h | 23005m | 2.9m/s | 0°C | 0% | 0hPa | 0V | 00:00:00 | 00:00:00 | 00:00:00 | |
| SP9KGR-15 | 2026-09-02 00:28:46 | 50.04446 | 21.80320 | 37° | 13km/h | 22986m | 5.0m/s | 0°C | 0% | 0hPa | 0V | 00:00:00 | 00:00:00 | 00:00:00 | |
| MIELECB | 2026-09-02 00:28:44 | 50.04445 | 21.80316 | 56° | 15km/h | 22981m | 4.0m/s | 0°C | 0% | 0hPa | 0V | 00:00:00 | 00:00:00 | 00:00:00 | |
| OM5KV | 2026-09-02 00:28:43 | 50.04443 | 21.80310 | 50° | 15km/h | 22975m | 3.9m/s | 0°C | 0% | 0hPa | 0V | 00:00:00 | 00:00:00 | 00:00:00 | |
| OM5KV | 2026-09-02 00:28:42 | 50.04441 | 21.80306 | 33° | 11km/h | 22971m | 3.6m/s | 0°C | 0% | 0hPa | 0V | 00:00:00 | 00:00:00 | 00:00:00 | |
| SQ9EZE-12 | 2026-09-02 00:28:40 | 50.04434 | 21.80303 | 334° | 11km/h | 22960m | 4.8m/s | 0°C | 0% | 0hPa | 0V | 00:00:00 | 00:00:00 | 00:00:00 | |
| MIELECB | 2026-09-02 00:28:39 | 50.04431 | 21.80305 | 346° | 24km/h | 22956m | 2.7m/s | 0°C | 0% | 0hPa | 0V | 00:00:00 | 00:00:00 | 00:00:00 | |
| OM5KV | 2026-09-02 00:28:38 | 50.04426 | 21.80306 | 349° | 26km/h | 22952m | 3.2m/s | 0°C | 0% | 0hPa | 0V | 00:00:00 | 00:00:00 | 00:00:00 | |
| OM5KV | 2026-09-02 00:28:35 | 50.04416 | 21.80302 | 59° | 11km/h | 22934m | 3.9m/s | 0°C | 0% | 0hPa | 0V | 00:00:00 | 00:00:00 | 00:00:00 | |
| MIELECB | 2026-09-02 00:28:34 | 50.04414 | 21.80299 | 44° | 11km/h | 22928m | 6.9m/s | 0°C | 0% | 0hPa | 0V | 00:00:00 | 00:00:00 | 00:00:00 | |
| AKAW682 | 2026-09-02 00:28:32 | 50.04408 | 21.80294 | 15° | 18km/h | 22915m | 5.4m/s | 0°C | 0% | 0hPa | 0V | 00:00:00 | 00:00:00 | 00:00:00 | |
| OM5KV | 2026-09-02 00:28:31 | 50.04404 | 21.80292 | 14° | 20km/h | 22909m | 6.2m/s | 0°C | 0% | 0hPa | 0V | 00:00:00 | 00:00:00 | 00:00:00 | |
| AKAW68 | 2026-09-02 00:28:30 | 50.04398 | 21.80288 | 14° | 22km/h | 22902m | 4.7m/s | 0°C | 0% | 0hPa | 0V | 00:00:00 | 00:00:00 | 00:00:00 | |
| MIELECB | 2026-09-02 00:28:28 | 50.04386 | 21.80284 | 358° | 29km/h | 22892m | 5.3m/s | 0°C | 0% | 0hPa | 0V | 00:00:00 | 00:00:00 | 00:00:00 | |
| OE3JTB-15 | 2026-09-02 00:28:27 | 50.04374 | 21.80283 | 15° | 16km/h | 22883m | 4.3m/s | 0°C | 0% | 0hPa | 0V | 00:00:00 | 00:00:00 | 00:00:00 | |
| OM5KV | 2026-09-02 00:28:25 | 50.04372 | 21.80283 | 3° | 5km/h | 22879m | 4.7m/s | 0°C | 0% | 0hPa | 0V | 00:00:00 | 00:00:00 | 00:00:00 | |
| MIELECB | 2026-09-02 00:28:23 | 50.04372 | 21.80287 | 303° | 13km/h | 22870m | 3.8m/s | 0°C | 0% | 0hPa | 0V | 00:00:00 | 00:00:00 | 00:00:00 | |
| MIELECB | 2026-09-02 00:28:17 | 50.04344 | 21.80300 | 10° | 24km/h | 22838m | 4.9m/s | 0°C | 0% | 0hPa | 0V | 00:00:00 | 00:00:00 | 00:00:00 | |
| AKAW682 | 2026-09-02 00:28:12 | 50.04327 | 21.80306 | 330° | 7km/h | 22812m | 4.6m/s | 0°C | 0% | 0hPa | 0V | 00:00:00 | 00:00:00 | 00:00:00 | |
| MIELECB | 2026-09-02 00:28:11 | 50.04325 | 21.80308 | 284° | 5km/h | 22808m | 5.4m/s | 0°C | 0% | 0hPa | 0V | 00:00:00 | 00:00:00 | 00:00:00 | |
| SQ9EZE-12 | 2026-09-02 00:28:10 | 50.04323 | 21.80312 | 320° | 22km/h | 22801m | 6.5m/s | 0°C | 0% | 0hPa | 0V | 00:00:00 | 00:00:00 | 00:00:00 | |
| AKAW68 | 2026-09-02 00:28:09 | 50.04319 | 21.80317 | 343° | 20km/h | 22794m | 4.6m/s | 0°C | 0% | 0hPa | 0V | 00:00:00 | 00:00:00 | 00:00:00 | |
| OM5KV | 2026-09-02 00:28:08 | 50.04314 | 21.80318 | 347° | 15km/h | 22787m | 5.9m/s | 0°C | 0% | 0hPa | 0V | 00:00:00 | 00:00:00 | 00:00:00 | |
| OM5KV | 2026-09-02 00:28:07 | 50.04310 | 21.80318 | 10° | 16km/h | 22781m | 4.4m/s | 0°C | 0% | 0hPa | 0V | 00:00:00 | 00:00:00 | 00:00:00 | |
| MIELECB | 2026-09-02 00:28:05 | 50.04303 | 21.80314 | 360° | 9km/h | 22773m | 4.3m/s | 0°C | 0% | 0hPa | 0V | 00:00:00 | 00:00:00 | 00:00:00 | |
| OM5KV | 2026-09-02 00:28:02 | 50.04297 | 21.80323 | 297° | 13km/h | 22763m | 5.2m/s | 0°C | 0% | 0hPa | 0V | 00:00:00 | 00:00:00 | 00:00:00 | |
| OM5KV | 2026-09-02 00:28:01 | 50.04297 | 21.80326 | 233° | 13km/h | 22757m | 6.7m/s | 0°C | 0% | 0hPa | 0V | 00:00:00 | 00:00:00 | 00:00:00 | |
| MIELECB | 2026-09-02 00:28:00 | 50.04299 | 21.80329 | 222° | 11km/h | 22751m | 5.7m/s | 0°C | 0% | 0hPa | 0V | 00:00:00 | 00:00:00 | 00:00:00 | |
| OE3JTB-15 | 2026-09-02 00:27:58 | 50.04301 | 21.80335 | 285° | 9km/h | 22739m | 7.8m/s | 0°C | 0% | 0hPa | 0V | 00:00:00 | 00:00:00 | 00:00:00 | |
| SP9KGR-15 | 2026-09-02 00:27:57 | 50.04298 | 21.80340 | 330° | 18km/h | 22732m | 5.5m/s | 0°C | 0% | 0hPa | 0V | 00:00:00 | 00:00:00 | 00:00:00 | |
| SP8MDH-15 | 2026-09-02 00:27:56 | 50.04295 | 21.80342 | 351° | 16km/h | 22726m | 3.3m/s | 0°C | 0% | 0hPa | 0V | 00:00:00 | 00:00:00 | 00:00:00 | |
| OM5KV | 2026-09-02 00:27:55 | 50.04291 | 21.80343 | 6° | 4km/h | 22721m | 5.6m/s | 0°C | 0% | 0hPa | 0V | 00:00:00 | 00:00:00 | 00:00:00 | |
| MIELECB | 2026-09-02 00:27:54 | 50.04290 | 21.80343 | 0° | 0km/h | 22716m | 3.2m/s | 0°C | 0% | 0hPa | 0V | 00:00:00 | 00:00:00 | 00:00:00 | |
| AKAW682 | 2026-09-02 00:27:51 | 50.04293 | 21.80346 | 244° | 13km/h | 22703m | 3.1m/s | 0°C | 0% | 0hPa | 0V | 00:00:00 | 00:00:00 | 00:00:00 | |
| OM5KV | 2026-09-02 00:27:50 | 50.04295 | 21.80349 | 246° | 7km/h | 22698m | 4.8m/s | 0°C | 0% | 0hPa | 0V | 00:00:00 | 00:00:00 | 00:00:00 | |
| OM5KV | 2026-09-02 00:27:49 | 50.04296 | 21.80352 | 235° | 7km/h | 22692m | 3.2m/s | 0°C | 0% | 0hPa | 0V | 00:00:00 | 00:00:00 | 00:00:00 | |
| AKAW68 | 2026-09-02 00:27:48 | 50.04296 | 21.80352 | 143° | 2km/h | 22687m | 2.9m/s | 0°C | 0% | 0hPa | 0V | 00:00:00 | 00:00:00 | 00:00:00 | |
| SQ9EZE-12 | 2026-09-02 00:27:45 | 50.04296 | 21.80355 | 232° | 2km/h | 22673m | 3.2m/s | 0°C | 0% | 0hPa | 0V | 00:00:00 | 00:00:00 | 00:00:00 | |
| OM5KV | 2026-09-02 00:27:44 | 50.04297 | 21.80356 | 225° | 2km/h | 22668m | 5.3m/s | 0°C | 0% | 0hPa | 0V | 00:00:00 | 00:00:00 | 00:00:00 | |
| MIELECB | 2026-09-02 00:27:43 | 50.04299 | 21.80356 | 183° | 13km/h | 22661m | 7.3m/s | 0°C | 0% | 0hPa | 0V | 00:00:00 | 00:00:00 | 00:00:00 | |
| SP9KGR-15 | 2026-09-02 00:27:41 | 50.04308 | 21.80356 | 179° | 13km/h | 22649m | 4.4m/s | 0°C | 0% | 0hPa | 0V | 00:00:00 | 00:00:00 | 00:00:00 | |
| SQ9PSP-11 | 2026-09-02 00:27:40 | 50.04311 | 21.80357 | 189° | 13km/h | 22644m | 4.6m/s | 0°C | 0% | 0hPa | 0V | 00:00:00 | 00:00:00 | 00:00:00 | |
| OM5KV | 2026-09-02 00:27:38 | 50.04316 | 21.80359 | 173° | 7km/h | 22634m | 6.9m/s | 0°C | 0% | 0hPa | 0V | 00:00:00 | 00:00:00 | 00:00:00 | |
| OM5KV | 2026-09-02 00:27:37 | 50.04317 | 21.80359 | 127° | 4km/h | 22627m | 5.3m/s | 0°C | 0% | 0hPa | 0V | 00:00:00 | 00:00:00 | 00:00:00 | |
| MIELECB | 2026-09-02 00:27:33 | 50.04320 | 21.80356 | 153° | 20km/h | 22602m | 5.0m/s | 0°C | 0% | 0hPa | 0V | 00:00:00 | 00:00:00 | 00:00:00 | |
| AKAW682 | 2026-09-02 00:27:30 | 50.04330 | 21.80349 | 163° | 22km/h | 22594m | 5.1m/s | 0°C | 0% | 0hPa | 0V | 00:00:00 | 00:00:00 | 00:00:00 | |
| OE3JTB-15 | 2026-09-02 00:27:29 | 50.04335 | 21.80348 | 194° | 20km/h | 22588m | 6.0m/s | 0°C | 0% | 0hPa | 0V | 00:00:00 | 00:00:00 | 00:00:00 | |
| MIELECB | 2026-09-02 00:27:27 | 50.04343 | 21.80352 | 175° | 13km/h | 22574m | 4.9m/s | 0°C | 0% | 0hPa | 0V | 00:00:00 | 00:00:00 | 00:00:00 | |
| SQ9EZE-12 | 2026-09-02 00:27:26 | 50.04343 | 21.80352 | 175° | 13km/h | 22574m | 4.9m/s | 0°C | 0% | 0hPa | 0V | 00:00:00 | 00:00:00 | 00:00:00 | |
| OM5KV | 2026-09-02 00:27:25 | 50.04346 | 21.80351 | 164° | 11km/h | 22570m | 4.3m/s | 0°C | 0% | 0hPa | 0V | 00:00:00 | 00:00:00 | 00:00:00 | |
| SP9KGR-15 | 2026-09-02 00:27:24 | 50.04349 | 21.80350 | 174° | 11km/h | 22566m | 5.6m/s | 0°C | 0% | 0hPa | 0V | 00:00:00 | 00:00:00 | 00:00:00 | |
| OM5KV | 2026-09-02 00:27:22 | 50.04356 | 21.80347 | 161° | 24km/h | 22557m | 4.3m/s | 0°C | 0% | 0hPa | 0V | 00:00:00 | 00:00:00 | 00:00:00 | |
| MIELECB | 2026-09-02 00:27:21 | 50.04363 | 21.80342 | 148° | 31km/h | 22554m | 5.6m/s | 0°C | 0% | 0hPa | 0V | 00:00:00 | 00:00:00 | 00:00:00 | |
| OM5KV | 2026-09-02 00:27:19 | 50.04375 | 21.80328 | 144° | 27km/h | 22545m | 4.4m/s | 0°C | 0% | 0hPa | 0V | 00:00:00 | 00:00:00 | 00:00:00 | |
| MIELECB | 2026-09-02 00:27:15 | 50.04384 | 21.80317 | 107° | 9km/h | 22531m | 6.6m/s | 0°C | 0% | 0hPa | 0V | 00:00:00 | 00:00:00 | 00:00:00 | |
| OM5KV | 2026-09-02 00:27:13 | 50.04388 | 21.80308 | 149° | 20km/h | 22520m | 5.6m/s | 0°C | 0% | 0hPa | 0V | 00:00:00 | 00:00:00 | 00:00:00 | |
| SP9KGR-15 | 2026-09-02 00:27:08 | 50.04415 | 21.80279 | 123° | 29km/h | 22493m | 5.5m/s | 0°C | 0% | 0hPa | 0V | 00:00:00 | 00:00:00 | 00:00:00 | |
| OM5KV | 2026-09-02 00:27:07 | 50.04419 | 21.80270 | 120° | 24km/h | 22489m | 6.1m/s | 0°C | 0% | 0hPa | 0V | 00:00:00 | 00:00:00 | 00:00:00 | |
| SP8MDH-15 | 2026-09-02 00:27:06 | 50.04421 | 21.80264 | 131° | 18km/h | 22484m | 5.7m/s | 0°C | 0% | 0hPa | 0V | 00:00:00 | 00:00:00 | 00:00:00 | |
| AKAW68 | 2026-09-02 00:27:05 | 50.04423 | 21.80258 | 127° | 20km/h | 22477m | 4.6m/s | 0°C | 0% | 0hPa | 0V | 00:00:00 | 00:00:00 | 00:00:00 | |
| OM5KV | 2026-09-02 00:27:03 | 50.04430 | 21.80243 | 124° | 27km/h | 22467m | 5.8m/s | 0°C | 0% | 0hPa | 0V | 00:00:00 | 00:00:00 | 00:00:00 | |
| OM5KV | 2026-09-02 00:27:01 | 50.04440 | 21.80222 | 134° | 35km/h | 22456m | 7.3m/s | 0°C | 0% | 0hPa | 0V | 00:00:00 | 00:00:00 | 00:00:00 | |
| OE3JTB-15 | 2026-09-02 00:27:00 | 50.04451 | 21.80205 | 132° | 27km/h | 22445m | 4.5m/s | 0°C | 0% | 0hPa | 0V | 00:00:00 | 00:00:00 | 00:00:00 | |
| MIELECB | 2026-09-02 00:26:58 | 50.04456 | 21.80198 | 132° | 22km/h | 22438m | 7.0m/s | 0°C | 0% | 0hPa | 0V | 00:00:00 | 00:00:00 | 00:00:00 | |
| OM5KV | 2026-09-02 00:26:57 | 50.04458 | 21.80190 | 106° | 26km/h | 22431m | 6.3m/s | 0°C | 0% | 0hPa | 0V | 00:00:00 | 00:00:00 | 00:00:00 | |
| SQ9PSP-11 | 2026-09-02 00:26:53 | 50.04465 | 21.80158 | 120° | 26km/h | 22407m | 6.6m/s | 0°C | 0% | 0hPa | 0V | 00:00:00 | 00:00:00 | 00:00:00 | |
| SP9KGR-15 | 2026-09-02 00:26:52 | 50.04469 | 21.80149 | 119° | 35km/h | 22400m | 6.6m/s | 0°C | 0% | 0hPa | 0V | 00:00:00 | 00:00:00 | 00:00:00 | |
| OM5KV | 2026-09-02 00:26:50 | 50.04478 | 21.80125 | 124° | 35km/h | 22389m | 5.5m/s | 0°C | 0% | 0hPa | 0V | 00:00:00 | 00:00:00 | 00:00:00 | |
| AKAW682 | 2026-09-02 00:26:49 | 50.04485 | 21.80106 | 116° | 22km/h | 22376m | 4.3m/s | 0°C | 0% | 0hPa | 0V | 00:00:00 | 00:00:00 | 00:00:00 | |
| MIELECB | 2026-09-02 00:26:47 | 50.04486 | 21.80098 | 97° | 22km/h | 22372m | 4.6m/s | 0°C | 0% | 0hPa | 0V | 00:00:00 | 00:00:00 | 00:00:00 | |
| SQ9EZE-12 | 2026-09-02 00:26:43 | 50.04485 | 21.80062 | 106° | 26km/h | 22351m | 4.9m/s | 0°C | 0% | 0hPa | 0V | 00:00:00 | 00:00:00 | 00:00:00 | |
| MIELECB | 2026-09-02 00:26:41 | 50.04493 | 21.80042 | 133° | 31km/h | 22339m | 5.2m/s | 0°C | 0% | 0hPa | 0V | 00:00:00 | 00:00:00 | 00:00:00 | |
| SQ9PSP-11 | 2026-09-02 00:26:38 | 50.04505 | 21.80002 | 108° | 33km/h | 22324m | 4.9m/s | 0°C | 0% | 0hPa | 0V | 00:00:00 | 00:00:00 | 00:00:00 | |
| SP8MDH-15 | 2026-09-02 00:26:36 | 50.04510 | 21.79984 | 111° | 16km/h | 22312m | 5.5m/s | 0°C | 0% | 0hPa | 0V | 00:00:00 | 00:00:00 | 00:00:00 | |
| MIELECB | 2026-09-02 00:26:35 | 50.04510 | 21.79978 | 86° | 18km/h | 22307m | 5.9m/s | 0°C | 0% | 0hPa | 0V | 00:00:00 | 00:00:00 | 00:00:00 | |
| OM5KV | 2026-09-02 00:26:31 | 50.04513 | 21.79943 | 108° | 26km/h | 22282m | 6.2m/s | 0°C | 0% | 0hPa | 0V | 00:00:00 | 00:00:00 | 00:00:00 | |
| MIELECB | 2026-09-02 00:26:29 | 50.04519 | 21.79923 | 122° | 31km/h | 22271m | 6.3m/s | 0°C | 0% | 0hPa | 0V | 00:00:00 | 00:00:00 | 00:00:00 | |
| AKAW682 | 2026-09-02 00:26:28 | 50.04521 | 21.79913 | 105° | 31km/h | 22265m | 5.7m/s | 0°C | 0% | 0hPa | 0V | 00:00:00 | 00:00:00 | 00:00:00 | |
| OM5KV | 2026-09-02 00:26:27 | 50.04523 | 21.79902 | 98° | 29km/h | 22259m | 2.7m/s | 0°C | 0% | 0hPa | 0V | 00:00:00 | 00:00:00 | 00:00:00 | |
| OM5KV | 2026-09-02 00:26:25 | 50.04526 | 21.79885 | 124° | 15km/h | 22249m | 4.4m/s | 0°C | 0% | 0hPa | 0V | 00:00:00 | 00:00:00 | 00:00:00 | |
| MIELECB | 2026-09-02 00:26:24 | 50.04527 | 21.79880 | 88° | 18km/h | 22245m | 4.6m/s | 0°C | 0% | 0hPa | 0V | 00:00:00 | 00:00:00 | 00:00:00 | |
| SQ9EZE-12 | 2026-09-02 00:26:23 | 50.04527 | 21.79872 | 88° | 20km/h | 22238m | 6.9m/s | 0°C | 0% | 0hPa | 0V | 00:00:00 | 00:00:00 | 00:00:00 | |
| AKAW68 | 2026-09-02 00:26:22 | 50.04527 | 21.79863 | 88° | 27km/h | 22231m | 5.9m/s | 0°C | 0% | 0hPa | 0V | 00:00:00 | 00:00:00 | 00:00:00 | |
| OM5KV | 2026-09-02 00:26:20 | 50.04528 | 21.79842 | 99° | 26km/h | 22217m | 6.4m/s | 0°C | 0% | 0hPa | 0V | 00:00:00 | 00:00:00 | 00:00:00 | |
| MIELECB | 2026-09-02 00:26:18 | 50.04533 | 21.79825 | 109° | 20km/h | 22206m | 5.0m/s | 0°C | 0% | 0hPa | 0V | 00:00:00 | 00:00:00 | 00:00:00 | |
| OM5KV | 2026-09-02 00:26:17 | 50.04534 | 21.79818 | 81° | 16km/h | 22199m | 5.5m/s | 0°C | 0% | 0hPa | 0V | 00:00:00 | 00:00:00 | 00:00:00 | |
| SP8MDH-15 | 2026-09-02 00:26:12 | 50.04523 | 21.79785 | 74° | 13km/h | 22171m | 4.6m/s | 0°C | 0% | 0hPa | 0V | 00:00:00 | 00:00:00 | 00:00:00 | |
| OM5KV | 2026-09-02 00:26:11 | 50.04522 | 21.79780 | 66° | 11km/h | 22164m | 4.0m/s | 0°C | 0% | 0hPa | 0V | 00:00:00 | 00:00:00 | 00:00:00 | |
| OM5KV | 2026-09-02 00:26:09 | 50.04518 | 21.79766 | 78° | 26km/h | 22161m | 5.0m/s | 0°C | 0% | 0hPa | 0V | 00:00:00 | 00:00:00 | 00:00:00 | |
| SQ9PSP-11 | 2026-09-02 00:26:07 | 50.04512 | 21.79746 | 74° | 22km/h | 22160m | 5.5m/s | 0°C | 0% | 0hPa | 0V | 00:00:00 | 00:00:00 | 00:00:00 | |
| OM5KV | 2026-09-02 00:26:06 | 50.04510 | 21.79738 | 73° | 15km/h | 22159m | 5.4m/s | 0°C | 0% | 0hPa | 0V | 00:00:00 | 00:00:00 | 00:00:00 | |
| SP9KGR-15 | 2026-09-02 00:26:05 | 50.04507 | 21.79732 | 76° | 15km/h | 22154m | 5.4m/s | 0°C | 0% | 0hPa | 0V | 00:00:00 | 00:00:00 | 00:00:00 | |
| OM5KV | 2026-09-02 00:26:04 | 50.04505 | 21.79725 | 76° | 16km/h | 22149m | 4.8m/s | 0°C | 0% | 0hPa | 0V | 00:00:00 | 00:00:00 | 00:00:00 | |
| AKAW68 | 2026-09-02 00:26:02 | 50.04503 | 21.79710 | 78° | 20km/h | 22142m | 4.2m/s | 0°C | 0% | 0hPa | 0V | 00:00:00 | 00:00:00 | 00:00:00 | |
| MIELECB | 2026-09-02 00:26:00 | 50.04502 | 21.79697 | 79° | 16km/h | 22131m | 4.6m/s | 0°C | 0% | 0hPa | 0V | 00:00:00 | 00:00:00 | 00:00:00 | |
| OM5KV | 2026-09-02 00:25:59 | 50.04501 | 21.79689 | 83° | 20km/h | 22124m | 5.6m/s | 0°C | 0% | 0hPa | 0V | 00:00:00 | 00:00:00 | 00:00:00 | |
| MIELECB | 2026-09-02 00:25:55 | 50.04489 | 21.79658 | 57° | 16km/h | 22103m | 5.3m/s | 0°C | 0% | 0hPa | 0V | 00:00:00 | 00:00:00 | 00:00:00 | |
| OM5KV | 2026-09-02 00:25:53 | 50.04481 | 21.79647 | 37° | 24km/h | 22095m | 7.2m/s | 0°C | 0% | 0hPa | 0V | 00:00:00 | 00:00:00 | 00:00:00 | |
| SQ9PSP-11 | 2026-09-02 00:25:51 | 50.04470 | 21.79634 | 51° | 22km/h | 22087m | 5.0m/s | 0°C | 0% | 0hPa | 0V | 00:00:00 | 00:00:00 | 00:00:00 | |
| OM5KV | 2026-09-02 00:25:49 | 50.04465 | 21.79623 | 66° | 20km/h | 22076m | 3.4m/s | 0°C | 0% | 0hPa | 0V | 00:00:00 | 00:00:00 | 00:00:00 | |
| SP8MDH-15 | 2026-09-02 00:25:48 | 50.04465 | 21.79617 | 64° | 22km/h | 22071m | 6.4m/s | 0°C | 0% | 0hPa | 0V | 00:00:00 | 00:00:00 | 00:00:00 | |
| OM5KV | 2026-09-02 00:25:47 | 50.04462 | 21.79609 | 64° | 31km/h | 22064m | 6.9m/s | 0°C | 0% | 0hPa | 0V | 00:00:00 | 00:00:00 | 00:00:00 | |
| SP9KGR-15 | 2026-09-02 00:25:46 | 50.04453 | 21.79594 | 36° | 16km/h | 22051m | 7.2m/s | 0°C | 0% | 0hPa | 0V | 00:00:00 | 00:00:00 | 00:00:00 | |
| MIELECB | 2026-09-02 00:25:44 | 50.04453 | 21.79594 | 16° | 16km/h | 22040m | 5.1m/s | 0°C | 0% | 0hPa | 0V | 00:00:00 | 00:00:00 | 00:00:00 | |
| OM5KV | 2026-09-02 00:25:43 | 50.04448 | 21.79591 | 34° | 18km/h | 22036m | 6.2m/s | 0°C | 0% | 0hPa | 0V | 00:00:00 | 00:00:00 | 00:00:00 | |
| OM5KV | 2026-09-02 00:25:42 | 50.04444 | 21.79587 | 37° | 20km/h | 22030m | 6.4m/s | 0°C | 0% | 0hPa | 0V | 00:00:00 | 00:00:00 | 00:00:00 | |
| AKAW68 | 2026-09-02 00:25:41 | 50.04440 | 21.79581 | 73° | 16km/h | 22025m | 4.9m/s | 0°C | 0% | 0hPa | 0V | 00:00:00 | 00:00:00 | 00:00:00 | |
| MIELECB | 2026-09-02 00:25:38 | 50.04435 | 21.79561 | 84° | 16km/h | 22009m | 5.5m/s | 0°C | 0% | 0hPa | 0V | 00:00:00 | 00:00:00 | 00:00:00 | |
| OM5KV | 2026-09-02 00:25:36 | 50.04432 | 21.79549 | 53° | 26km/h | 22000m | 5.5m/s | 0°C | 0% | 0hPa | 0V | 00:00:00 | 00:00:00 | 00:00:00 | |
| MIELECB | 2026-09-02 00:25:32 | 50.04408 | 21.79536 | 3° | 20km/h | 21981m | 5.8m/s | 0°C | 0% | 0hPa | 0V | 00:00:00 | 00:00:00 | 00:00:00 | |
| OM5KV | 2026-09-02 00:25:31 | 50.04403 | 21.79535 | 25° | 13km/h | 21974m | 7.3m/s | 0°C | 0% | 0hPa | 0V | 00:00:00 | 00:00:00 | 00:00:00 | |
| SP8MDH-15 | 2026-09-02 00:25:27 | 50.04396 | 21.79515 | 52° | 13km/h | 21954m | 4.9m/s | 0°C | 0% | 0hPa | 0V | 00:00:00 | 00:00:00 | 00:00:00 | |
| SP9KGR-15 | 2026-09-02 00:25:26 | 50.04394 | 21.79510 | 48° | 18km/h | 21948m | 6.5m/s | 0°C | 0% | 0hPa | 0V | 00:00:00 | 00:00:00 | 00:00:00 | |
| SQ9EZE-12 | 2026-09-02 00:25:24 | 50.04387 | 21.79498 | 42° | 26km/h | 21939m | 5.0m/s | 0°C | 0% | 0hPa | 0V | 00:00:00 | 00:00:00 | 00:00:00 | |
| MIELECB | 2026-09-02 00:25:21 | 50.04376 | 21.79495 | 357° | 13km/h | 21925m | 4.6m/s | 0°C | 0% | 0hPa | 0V | 00:00:00 | 00:00:00 | 00:00:00 | |
| AKAW68 | 2026-09-02 00:25:20 | 50.04373 | 21.79495 | 12° | 7km/h | 21918m | 5.2m/s | 0°C | 0% | 0hPa | 0V | 00:00:00 | 00:00:00 | 00:00:00 | |
| OM5KV | 2026-09-02 00:25:19 | 50.04371 | 21.79492 | 62° | 13km/h | 21912m | 6.9m/s | 0°C | 0% | 0hPa | 0V | 00:00:00 | 00:00:00 | 00:00:00 | |
| MIELECB | 2026-09-02 00:25:15 | 50.04360 | 21.79469 | 19° | 16km/h | 21886m | 5.4m/s | 0°C | 0% | 0hPa | 0V | 00:00:00 | 00:00:00 | 00:00:00 | |
| OM5KV | 2026-09-02 00:25:14 | 50.04357 | 21.79467 | 10° | 15km/h | 21879m | 5.7m/s | 0°C | 0% | 0hPa | 0V | 00:00:00 | 00:00:00 | 00:00:00 | |
| MIELECB | 2026-09-02 00:25:10 | 50.04345 | 21.79460 | 4° | 11km/h | 21858m | 4.6m/s | 0°C | 0% | 0hPa | 0V | 00:00:00 | 00:00:00 | 00:00:00 | |
| OM5KV | 2026-09-02 00:25:08 | 50.04340 | 21.79458 | 46° | 7km/h | 21848m | 3.3m/s | 0°C | 0% | 0hPa | 0V | 00:00:00 | 00:00:00 | 00:00:00 | |
| SP9KGR-15 | 2026-09-02 00:25:07 | 50.04338 | 21.79456 | 44° | 11km/h | 21843m | 5.0m/s | 0°C | 0% | 0hPa | 0V | 00:00:00 | 00:00:00 | 00:00:00 | |
| SQ9PSP-11 | 2026-09-02 00:25:04 | 50.04329 | 21.79443 | 30° | 16km/h | 21827m | 6.4m/s | 0°C | 0% | 0hPa | 0V | 00:00:00 | 00:00:00 | 00:00:00 | |
| OM5KV | 2026-09-02 00:25:03 | 50.04325 | 21.79441 | 4° | 20km/h | 21822m | 6.6m/s | 0°C | 0% | 0hPa | 0V | 00:00:00 | 00:00:00 | 00:00:00 | |
| MIELECB | 2026-09-02 00:24:59 | 50.04309 | 21.79429 | 42° | 15km/h | 21799m | 5.8m/s | 0°C | 0% | 0hPa | 0V | 00:00:00 | 00:00:00 | 00:00:00 | |
| SP8MDH-15 | 2026-09-02 00:24:58 | 50.04306 | 21.79425 | 53° | 11km/h | 21794m | 3.7m/s | 0°C | 0% | 0hPa | 0V | 00:00:00 | 00:00:00 | 00:00:00 | |
| SQ9EZE-12 | 2026-09-02 00:24:56 | 50.04303 | 21.79416 | 89° | 16km/h | 21783m | 7.1m/s | 0°C | 0% | 0hPa | 0V | 00:00:00 | 00:00:00 | 00:00:00 | |
| MIELECB | 2026-09-02 00:24:54 | 50.04299 | 21.79402 | 64° | 22km/h | 21772m | 5.0m/s | 0°C | 0% | 0hPa | 0V | 00:00:00 | 00:00:00 | 00:00:00 | |
| SP9KGR-15 | 2026-09-02 00:24:50 | 50.04285 | 21.79390 | 55° | 11km/h | 21757m | 6.2m/s | 0°C | 0% | 0hPa | 0V | 00:00:00 | 00:00:00 | 00:00:00 | |
| OM5KV | 2026-09-02 00:24:49 | 50.04284 | 21.79387 | 83° | 9km/h | 21754m | 4.6m/s | 0°C | 0% | 0hPa | 0V | 00:00:00 | 00:00:00 | 00:00:00 | |
| MIELECB | 2026-09-02 00:24:48 | 50.04284 | 21.79382 | 93° | 11km/h | 21751m | 3.6m/s | 0°C | 0% | 0hPa | 0V | 00:00:00 | 00:00:00 | 00:00:00 | |
| AKAW682 | 2026-09-02 00:24:44 | 50.04278 | 21.79360 | 75° | 20km/h | 21727m | 5.2m/s | 0°C | 0% | 0hPa | 0V | 00:00:00 | 00:00:00 | 00:00:00 | |
| MIELECB | 2026-09-02 00:24:43 | 50.04278 | 21.79360 | 75° | 20km/h | 21727m | 5.2m/s | 0°C | 0% | 0hPa | 0V | 00:00:00 | 00:00:00 | 00:00:00 | |
| MIELECB | 2026-09-02 00:24:37 | 50.04274 | 21.79337 | 101° | 16km/h | 21696m | 5.8m/s | 0°C | 0% | 0hPa | 0V | 00:00:00 | 00:00:00 | 00:00:00 | |
| SP8MDH-15 | 2026-09-02 00:24:36 | 50.04274 | 21.79331 | 95° | 11km/h | 21690m | 5.8m/s | 0°C | 0% | 0hPa | 0V | 00:00:00 | 00:00:00 | 00:00:00 | |
| SP9KGR-15 | 2026-09-02 00:24:35 | 50.04274 | 21.79327 | 79° | 7km/h | 21683m | 6.2m/s | 0°C | 0% | 0hPa | 0V | 00:00:00 | 00:00:00 | 00:00:00 | |
| SQ9PSP-11 | 2026-09-02 00:24:33 | 50.04268 | 21.79320 | 27° | 16km/h | 21671m | 6.7m/s | 0°C | 0% | 0hPa | 0V | 00:00:00 | 00:00:00 | 00:00:00 | |
| MIELECB | 2026-09-02 00:24:32 | 50.04264 | 21.79316 | 32° | 20km/h | 21665m | 5.9m/s | 0°C | 0% | 0hPa | 0V | 00:00:00 | 00:00:00 | 00:00:00 | |
| OM5KV | 2026-09-02 00:24:28 | 50.04255 | 21.79307 | 0° | 0km/h | 21648m | 4.2m/s | 0°C | 0% | 0hPa | 0V | 00:00:00 | 00:00:00 | 00:00:00 | |
| MIELECB | 2026-09-02 00:24:27 | 50.04255 | 21.79306 | 95° | 5km/h | 21644m | 4.8m/s | 0°C | 0% | 0hPa | 0V | 00:00:00 | 00:00:00 | 00:00:00 | |
| AKAW682 | 2026-09-02 00:24:23 | 50.04244 | 21.79290 | 5° | 18km/h | 21620m | 5.3m/s | 0°C | 0% | 0hPa | 0V | 00:00:00 | 00:00:00 | 00:00:00 | |
| OM5KV | 2026-09-02 00:24:22 | 50.04244 | 21.79290 | 5° | 18km/h | 21620m | 5.3m/s | 0°C | 0% | 0hPa | 0V | 00:00:00 | 00:00:00 | 00:00:00 | |
| MIELECB | 2026-09-02 00:24:21 | 50.04239 | 21.79290 | 5° | 20km/h | 21616m | 5.2m/s | 0°C | 0% | 0hPa | 0V | 00:00:00 | 00:00:00 | 00:00:00 | |
| SQ9PSP-11 | 2026-09-02 00:24:17 | 50.04226 | 21.79280 | 18° | 15km/h | 21594m | 6.9m/s | 0°C | 0% | 0hPa | 0V | 00:00:00 | 00:00:00 | 00:00:00 | |
| MIELECB | 2026-09-02 00:24:16 | 50.04223 | 21.79279 | 18° | 15km/h | 21587m | 4.6m/s | 0°C | 0% | 0hPa | 0V | 00:00:00 | 00:00:00 | 00:00:00 | |
| OM5KV | 2026-09-02 00:24:15 | 50.04220 | 21.79277 | 34° | 16km/h | 21581m | 6.4m/s | 0°C | 0% | 0hPa | 0V | 00:00:00 | 00:00:00 | 00:00:00 | |
| SP9KGR-15 | 2026-09-02 00:24:13 | 50.04214 | 21.79271 | 19° | 15km/h | 21568m | 3.2m/s | 0°C | 0% | 0hPa | 0V | 00:00:00 | 00:00:00 | 00:00:00 | |
| MIELECB | 2026-09-02 00:24:10 | 50.04206 | 21.79267 | 10° | 9km/h | 21551m | 3.4m/s | 0°C | 0% | 0hPa | 0V | 00:00:00 | 00:00:00 | 00:00:00 | |
| SP8MDH-15 | 2026-09-02 00:24:09 | 50.04204 | 21.79266 | 30° | 4km/h | 21546m | 4.7m/s | 0°C | 0% | 0hPa | 0V | 00:00:00 | 00:00:00 | 00:00:00 | |
| OM5KV | 2026-09-02 00:24:08 | 50.04202 | 21.79264 | 19° | 9km/h | 21540m | 2.1m/s | 0°C | 0% | 0hPa | 0V | 00:00:00 | 00:00:00 | 00:00:00 | |
| MIELECB | 2026-09-02 00:24:05 | 50.04190 | 21.79265 | 348° | 24km/h | 21527m | 4.1m/s | 0°C | 0% | 0hPa | 0V | 00:00:00 | 00:00:00 | 00:00:00 | |
| SQ9PSP-11 | 2026-09-02 00:24:02 | 50.04174 | 21.79261 | 44° | 15km/h | 21513m | 5.1m/s | 0°C | 0% | 0hPa | 0V | 00:00:00 | 00:00:00 | 00:00:00 | |
| OM5KV | 2026-09-02 00:24:01 | 50.04172 | 21.79259 | 359° | 5km/h | 21507m | 6.6m/s | 0°C | 0% | 0hPa | 0V | 00:00:00 | 00:00:00 | 00:00:00 | |
| MIELECB | 2026-09-02 00:24:00 | 50.04171 | 21.79259 | 271° | 5km/h | 21501m | 6.4m/s | 0°C | 0% | 0hPa | 0V | 00:00:00 | 00:00:00 | 00:00:00 | |
| OM5KV | 2026-09-02 00:23:55 | 50.04155 | 21.79262 | 355° | 24km/h | 21468m | 5.4m/s | 0°C | 0% | 0hPa | 0V | 00:00:00 | 00:00:00 | 00:00:00 | |
| MIELECB | 2026-09-02 00:23:54 | 50.04148 | 21.79264 | 345° | 26km/h | 21464m | 3.1m/s | 0°C | 0% | 0hPa | 0V | 00:00:00 | 00:00:00 | 00:00:00 | |
| AKAW68 | 2026-09-02 00:23:53 | 50.04143 | 21.79267 | 342° | 18km/h | 21462m | 2.6m/s | 0°C | 0% | 0hPa | 0V | 00:00:00 | 00:00:00 | 00:00:00 | |
| MIELECB | 2026-09-02 00:23:48 | 50.04139 | 21.79271 | 289° | 13km/h | 21437m | 4.2m/s | 0°C | 0% | 0hPa | 0V | 00:00:00 | 00:00:00 | 00:00:00 | |
| SP9KGR-15 | 2026-09-02 00:23:47 | 50.04137 | 21.79276 | 311° | 20km/h | 21434m | 4.4m/s | 0°C | 0% | 0hPa | 0V | 00:00:00 | 00:00:00 | 00:00:00 | |
| SQ9PSP-11 | 2026-09-02 00:23:46 | 50.04134 | 21.79281 | 318° | 13km/h | 21430m | 6.5m/s | 0°C | 0% | 0hPa | 0V | 00:00:00 | 00:00:00 | 00:00:00 | |
| SQ9EZE-12 | 2026-09-02 00:23:44 | 50.04127 | 21.79285 | 350° | 18km/h | 21419m | 4.9m/s | 0°C | 0% | 0hPa | 0V | 00:00:00 | 00:00:00 | 00:00:00 | |
| AKAW682 | 2026-09-02 00:23:42 | 50.04121 | 21.79288 | 341° | 16km/h | 21409m | 5.0m/s | 0°C | 0% | 0hPa | 0V | 00:00:00 | 00:00:00 | 00:00:00 | |
| OM5KV | 2026-09-02 00:23:41 | 50.04117 | 21.79289 | 336° | 15km/h | 21405m | 4.4m/s | 0°C | 0% | 0hPa | 0V | 00:00:00 | 00:00:00 | 00:00:00 | |
| SP8MDH-15 | 2026-09-02 00:23:39 | 50.04114 | 21.79288 | 78° | 7km/h | 21393m | 6.5m/s | 0°C | 0% | 0hPa | 0V | 00:00:00 | 00:00:00 | 00:00:00 | |
| MIELECB | 2026-09-02 00:23:37 | 50.04114 | 21.79281 | 63° | 7km/h | 21382m | 5.3m/s | 0°C | 0% | 0hPa | 0V | 00:00:00 | 00:00:00 | 00:00:00 | |
| AKAW68 | 2026-09-02 00:23:32 | 50.04108 | 21.79287 | 29° | 9km/h | 21355m | 4.4m/s | 0°C | 0% | 0hPa | 0V | 00:00:00 | 00:00:00 | 00:00:00 | |
| MIELECB | 2026-09-02 00:23:31 | 50.04106 | 21.79285 | 22° | 13km/h | 21351m | 2.7m/s | 0°C | 0% | 0hPa | 0V | 00:00:00 | 00:00:00 | 00:00:00 | |
| SQ9PSP-11 | 2026-09-02 00:23:30 | 50.04103 | 21.79284 | 10° | 7km/h | 21348m | 4.8m/s | 0°C | 0% | 0hPa | 0V | 00:00:00 | 00:00:00 | 00:00:00 | |
| MIELECB | 2026-09-02 00:23:26 | 50.04088 | 21.79276 | 10° | 15km/h | 21325m | 4.5m/s | 0°C | 0% | 0hPa | 0V | 00:00:00 | 00:00:00 | 00:00:00 | |
| OM5KV | 2026-09-02 00:23:25 | 50.04086 | 21.79275 | 30° | 9km/h | 21318m | 5.5m/s | 0°C | 0% | 0hPa | 0V | 00:00:00 | 00:00:00 | 00:00:00 | |
| MIELECB | 2026-09-02 00:23:21 | 50.04085 | 21.79269 | 103° | 13km/h | 21299m | 5.4m/s | 0°C | 0% | 0hPa | 0V | 00:00:00 | 00:00:00 | 00:00:00 | |
| OM5KV | 2026-09-02 00:23:19 | 50.04084 | 21.79260 | 64° | 9km/h | 21286m | 5.8m/s | 0°C | 0% | 0hPa | 0V | 00:00:00 | 00:00:00 | 00:00:00 | |
| MIELECB | 2026-09-02 00:23:15 | 50.04075 | 21.79251 | 71° | 18km/h | 21262m | 3.8m/s | 0°C | 0% | 0hPa | 0V | 00:00:00 | 00:00:00 | 00:00:00 | |
| OM5KV | 2026-09-02 00:23:14 | 50.04073 | 21.79245 | 75° | 16km/h | 21257m | 2.9m/s | 0°C | 0% | 0hPa | 0V | 00:00:00 | 00:00:00 | 00:00:00 | |
| AKAW68 | 2026-09-02 00:23:10 | 50.04073 | 21.79230 | 74° | 11km/h | 21230m | 3.7m/s | 0°C | 0% | 0hPa | 0V | 00:00:00 | 00:00:00 | 00:00:00 | |
| MIELECB | 2026-09-02 00:23:09 | 50.04073 | 21.79230 | 74° | 11km/h | 21230m | 3.7m/s | 0°C | 0% | 0hPa | 0V | 00:00:00 | 00:00:00 | 00:00:00 | |
| OM5KV | 2026-09-02 00:23:07 | 50.04071 | 21.79221 | 50° | 9km/h | 21223m | 5.0m/s | 0°C | 0% | 0hPa | 0V | 00:00:00 | 00:00:00 | 00:00:00 | |
| SP9KGR-15 | 2026-09-02 00:23:03 | 50.04071 | 21.79208 | 117° | 15km/h | 21210m | 5.7m/s | 0°C | 0% | 0hPa | 0V | 00:00:00 | 00:00:00 | 00:00:00 | |
| OM5KV | 2026-09-02 00:23:01 | 50.04073 | 21.79199 | 114° | 9km/h | 21198m | 6.1m/s | 0°C | 0% | 0hPa | 0V | 00:00:00 | 00:00:00 | 00:00:00 | |
| AKAW682 | 2026-09-02 00:23:00 | 50.04073 | 21.79197 | 89° | 4km/h | 21192m | 6.0m/s | 0°C | 0% | 0hPa | 0V | 00:00:00 | 00:00:00 | 00:00:00 | |
| MIELECB | 2026-09-02 00:22:58 | 50.04070 | 21.79191 | 62° | 16km/h | 21179m | 6.6m/s | 0°C | 0% | 0hPa | 0V | 00:00:00 | 00:00:00 | 00:00:00 | |
| SP8MDH-15 | 2026-09-02 00:22:57 | 50.04067 | 21.79185 | 68° | 18km/h | 21174m | 6.9m/s | 0°C | 0% | 0hPa | 0V | 00:00:00 | 00:00:00 | 00:00:00 | |
| OM5KV | 2026-09-02 00:22:55 | 50.04065 | 21.79170 | 81° | 15km/h | 21162m | 4.8m/s | 0°C | 0% | 0hPa | 0V | 00:00:00 | 00:00:00 | 00:00:00 | |
| MIELECB | 2026-09-02 00:22:53 | 50.04062 | 21.79158 | 70° | 15km/h | 21149m | 2.3m/s | 0°C | 0% | 0hPa | 0V | 00:00:00 | 00:00:00 | 00:00:00 | |
| OM5KV | 2026-09-02 00:22:49 | 50.04053 | 21.79135 | 53° | 22km/h | 21130m | 5.5m/s | 0°C | 0% | 0hPa | 0V | 00:00:00 | 00:00:00 | 00:00:00 | |
| SP9KGR-15 | 2026-09-02 00:22:48 | 50.04050 | 21.79128 | 55° | 18km/h | 21126m | 5.2m/s | 0°C | 0% | 0hPa | 0V | 00:00:00 | 00:00:00 | 00:00:00 | |
| MIELECB | 2026-09-02 00:22:47 | 50.04048 | 21.79124 | 57° | 15km/h | 21121m | 4.5m/s | 0°C | 0% | 0hPa | 0V | 00:00:00 | 00:00:00 | 00:00:00 | |
| MIELECB | 2026-09-02 00:22:42 | 50.04038 | 21.79091 | 62° | 11km/h | 21090m | 3.5m/s | 0°C | 0% | 0hPa | 0V | 00:00:00 | 00:00:00 | 00:00:00 | |
| AKAW682 | 2026-09-02 00:22:40 | 50.04034 | 21.79081 | 56° | 18km/h | 21081m | 5.3m/s | 0°C | 0% | 0hPa | 0V | 00:00:00 | 00:00:00 | 00:00:00 | |
| AKAW68 | 2026-09-02 00:22:39 | 50.04032 | 21.79074 | 71° | 20km/h | 21077m | 3.8m/s | 0°C | 0% | 0hPa | 0V | 00:00:00 | 00:00:00 | 00:00:00 | |
| MIELECB | 2026-09-02 00:22:36 | 50.04030 | 21.79055 | 68° | 15km/h | 21069m | 4.6m/s | 0°C | 0% | 0hPa | 0V | 00:00:00 | 00:00:00 | 00:00:00 | |
| MIELECB | 2026-09-02 00:22:31 | 50.04021 | 21.79014 | 58° | 22km/h | 21046m | 7.2m/s | 0°C | 0% | 0hPa | 0V | 00:00:00 | 00:00:00 | 00:00:00 | |
| SQ9EZE-12 | 2026-09-02 00:22:28 | 50.04013 | 21.78997 | 53° | 15km/h | 21029m | 5.2m/s | 0°C | 0% | 0hPa | 0V | 00:00:00 | 00:00:00 | 00:00:00 | |
| MIELECB | 2026-09-02 00:22:25 | 50.04006 | 21.78969 | 75° | 20km/h | 21010m | 9.0m/s | 0°C | 0% | 0hPa | 0V | 00:00:00 | 00:00:00 | 00:00:00 | |
| AKAW682 | 2026-09-02 00:22:20 | 50.03991 | 21.78926 | 45° | 31km/h | 20972m | 6.9m/s | 0°C | 0% | 0hPa | 0V | 00:00:00 | 00:00:00 | 00:00:00 | |
| MIELECB | 2026-09-02 00:22:19 | 50.03986 | 21.78918 | 44° | 26km/h | 20965m | 6.1m/s | 0°C | 0% | 0hPa | 0V | 00:00:00 | 00:00:00 | 00:00:00 | |
| AKAW68 | 2026-09-02 00:22:16 | 50.03975 | 21.78895 | 74° | 29km/h | 20946m | 5.8m/s | 0°C | 0% | 0hPa | 0V | 00:00:00 | 00:00:00 | 00:00:00 | |
| MIELECB | 2026-09-02 00:22:13 | 50.03969 | 21.78865 | 65° | 20km/h | 20928m | 6.3m/s | 0°C | 0% | 0hPa | 0V | 00:00:00 | 00:00:00 | 00:00:00 | |
| SQ9PSP-11 | 2026-09-02 00:22:12 | 50.03967 | 21.78857 | 57° | 20km/h | 20922m | 5.0m/s | 0°C | 0% | 0hPa | 0V | 00:00:00 | 00:00:00 | 00:00:00 | |
| OM5KV | 2026-09-02 00:22:09 | 50.03953 | 21.78830 | 41° | 31km/h | 20903m | 3.3m/s | 0°C | 0% | 0hPa | 0V | 00:00:00 | 00:00:00 | 00:00:00 | |
| MIELECB | 2026-09-02 00:22:08 | 50.03948 | 21.78822 | 45° | 24km/h | 20898m | 4.6m/s | 0°C | 0% | 0hPa | 0V | 00:00:00 | 00:00:00 | 00:00:00 | |
| SP9KGR-15 | 2026-09-02 00:22:04 | 50.03934 | 21.78788 | 63° | 33km/h | 20876m | 4.9m/s | 0°C | 0% | 0hPa | 0V | 00:00:00 | 00:00:00 | 00:00:00 | |
| OM5KV | 2026-09-02 00:22:03 | 50.03930 | 21.78777 | 62° | 29km/h | 20869m | 6.0m/s | 0°C | 0% | 0hPa | 0V | 00:00:00 | 00:00:00 | 00:00:00 | |
| MIELECB | 2026-09-02 00:22:02 | 50.03927 | 21.78766 | 71° | 26km/h | 20863m | 4.2m/s | 0°C | 0% | 0hPa | 0V | 00:00:00 | 00:00:00 | 00:00:00 | |
| AKAW682 | 2026-09-02 00:21:59 | 50.03918 | 21.78733 | 53° | 29km/h | 20845m | 2.6m/s | 0°C | 0% | 0hPa | 0V | 00:00:00 | 00:00:00 | 00:00:00 | |
| SP8MDH-15 | 2026-09-02 00:21:57 | 50.03908 | 21.78717 | 38° | 26km/h | 20837m | 3.9m/s | 0°C | 0% | 0hPa | 0V | 00:00:00 | 00:00:00 | 00:00:00 | |
| MIELECB | 2026-09-02 00:21:56 | 50.03903 | 21.78710 | 44° | 26km/h | 20831m | 3.7m/s | 0°C | 0% | 0hPa | 0V | 00:00:00 | 00:00:00 | 00:00:00 | |
| AKAW68 | 2026-09-02 00:21:55 | 50.03898 | 21.78702 | 51° | 35km/h | 20825m | 4.9m/s | 0°C | 0% | 0hPa | 0V | 00:00:00 | 00:00:00 | 00:00:00 | |
| OM5KV | 2026-09-02 00:21:52 | 50.03882 | 21.78668 | 61° | 31km/h | 20805m | 3.6m/s | 0°C | 0% | 0hPa | 0V | 00:00:00 | 00:00:00 | 00:00:00 | |
| MIELECB | 2026-09-02 00:21:50 | 50.03876 | 21.78653 | 55° | 18km/h | 20792m | 2.6m/s | 0°C | 0% | 0hPa | 0V | 00:00:00 | 00:00:00 | 00:00:00 | |
| MIELECB | 2026-09-02 00:21:45 | 50.03853 | 21.78618 | 46° | 24km/h | 20775m | 4.2m/s | 0°C | 0% | 0hPa | 0V | 00:00:00 | 00:00:00 | 00:00:00 | |
| OM5KV | 2026-09-02 00:21:42 | 50.03846 | 21.78597 | 79° | 22km/h | 20767m | 3.6m/s | 0°C | 0% | 0hPa | 0V | 00:00:00 | 00:00:00 | 00:00:00 | |
| SQ9PSP-11 | 2026-09-02 00:21:41 | 50.03845 | 21.78589 | 73° | 24km/h | 20763m | 3.3m/s | 0°C | 0% | 0hPa | 0V | 00:00:00 | 00:00:00 | 00:00:00 | |
| MIELECB | 2026-09-02 00:21:40 | 50.03843 | 21.78581 | 58° | 18km/h | 20759m | 4.0m/s | 0°C | 0% | 0hPa | 0V | 00:00:00 | 00:00:00 | 00:00:00 | |
| AKAW682 | 2026-09-02 00:21:39 | 50.03840 | 21.78577 | 25° | 15km/h | 20755m | 4.3m/s | 0°C | 0% | 0hPa | 0V | 00:00:00 | 00:00:00 | 00:00:00 | |
| MIELECB | 2026-09-02 00:21:34 | 50.03832 | 21.78553 | 73° | 16km/h | 20731m | 4.1m/s | 0°C | 0% | 0hPa | 0V | 00:00:00 | 00:00:00 | 00:00:00 | |
| OM5KV | 2026-09-02 00:21:33 | 50.03831 | 21.78547 | 62° | 18km/h | 20727m | 4.1m/s | 0°C | 0% | 0hPa | 0V | 00:00:00 | 00:00:00 | 00:00:00 | |
| AKAW68 | 2026-09-02 00:21:31 | 50.03826 | 21.78534 | 57° | 26km/h | 20716m | 6.1m/s | 0°C | 0% | 0hPa | 0V | 00:00:00 | 00:00:00 | 00:00:00 | |
| MIELECB | 2026-09-02 00:21:29 | 50.03819 | 21.78520 | 34° | 20km/h | 20706m | 6.3m/s | 0°C | 0% | 0hPa | 0V | 00:00:00 | 00:00:00 | 00:00:00 | |
| SP9KGR-15 | 2026-09-02 00:21:26 | 50.03809 | 21.78515 | 45° | 13km/h | 20686m | 5.2m/s | 0°C | 0% | 0hPa | 0V | 00:00:00 | 00:00:00 | 00:00:00 | |
| SQ9PSP-11 | 2026-09-02 00:21:25 | 50.03807 | 21.78512 | 69° | 11km/h | 20681m | 5.4m/s | 0°C | 0% | 0hPa | 0V | 00:00:00 | 00:00:00 | 00:00:00 | |
| MIELECB | 2026-09-02 00:21:23 | 50.03806 | 21.78505 | 46° | 13km/h | 20671m | 6.8m/s | 0°C | 0% | 0hPa | 0V | 00:00:00 | 00:00:00 | 00:00:00 | |
| SQ9EZE-12 | 2026-09-02 00:21:22 | 50.03803 | 21.78502 | 32° | 15km/h | 20664m | 5.3m/s | 0°C | 0% | 0hPa | 0V | 00:00:00 | 00:00:00 | 00:00:00 | |
| OM5KV | 2026-09-02 00:21:20 | 50.03796 | 21.78495 | 31° | 22km/h | 20653m | 2.9m/s | 0°C | 0% | 0hPa | 0V | 00:00:00 | 00:00:00 | 00:00:00 | |
| AKAW682 | 2026-09-02 00:21:18 | 50.03787 | 21.78488 | 20° | 15km/h | 20643m | 4.8m/s | 0°C | 0% | 0hPa | 0V | 00:00:00 | 00:00:00 | 00:00:00 | |
| MIELECB | 2026-09-02 00:21:17 | 50.03785 | 21.78488 | 333° | 5km/h | 20636m | 5.7m/s | 0°C | 0% | 0hPa | 0V | 00:00:00 | 00:00:00 | 00:00:00 | |
| OM5KV | 2026-09-02 00:21:15 | 50.03783 | 21.78488 | 194° | 5km/h | 20633m | 5.6m/s | 0°C | 0% | 0hPa | 0V | 00:00:00 | 00:00:00 | 00:00:00 | |
| MIELECB | 2026-09-02 00:21:12 | 50.03780 | 21.78482 | 43° | 15km/h | 20617m | 6.3m/s | 0°C | 0% | 0hPa | 0V | 00:00:00 | 00:00:00 | 00:00:00 | |
| SQ9PSP-11 | 2026-09-02 00:21:10 | 50.03772 | 21.78472 | 51° | 24km/h | 20608m | 5.2m/s | 0°C | 0% | 0hPa | 0V | 00:00:00 | 00:00:00 | 00:00:00 | |
| AKAW68 | 2026-09-02 00:21:09 | 50.03767 | 21.78464 | 51° | 29km/h | 20601m | 6.0m/s | 0°C | 0% | 0hPa | 0V | 00:00:00 | 00:00:00 | 00:00:00 | |
| MIELECB | 2026-09-02 00:21:06 | 50.03758 | 21.78445 | 31° | 7km/h | 20586m | 4.0m/s | 0°C | 0% | 0hPa | 0V | 00:00:00 | 00:00:00 | 00:00:00 | |
| OM5KV | 2026-09-02 00:21:02 | 50.03756 | 21.78426 | 66° | 22km/h | 20568m | 5.2m/s | 0°C | 0% | 0hPa | 0V | 00:00:00 | 00:00:00 | 00:00:00 | |
| MIELECB | 2026-09-02 00:21:01 | 50.03753 | 21.78419 | 49° | 31km/h | 20561m | 6.3m/s | 0°C | 0% | 0hPa | 0V | 00:00:00 | 00:00:00 | 00:00:00 | |
| AKAW682 | 2026-09-02 00:20:58 | 50.03740 | 21.78392 | 60° | 29km/h | 20545m | 4.3m/s | 0°C | 0% | 0hPa | 0V | 00:00:00 | 00:00:00 | 00:00:00 | |
| OM5KV | 2026-09-02 00:20:55 | 50.03733 | 21.78368 | 59° | 15km/h | 20531m | 4.4m/s | 0°C | 0% | 0hPa | 0V | 00:00:00 | 00:00:00 | 00:00:00 | |
| SQ9PSP-11 | 2026-09-02 00:20:54 | 50.03730 | 21.78362 | 64° | 18km/h | 20526m | 3.2m/s | 0°C | 0% | 0hPa | 0V | 00:00:00 | 00:00:00 | 00:00:00 | |
| SP9KGR-15 | 2026-09-02 00:20:51 | 50.03725 | 21.78334 | 69° | 31km/h | 20514m | 5.1m/s | 0°C | 0% | 0hPa | 0V | 00:00:00 | 00:00:00 | 00:00:00 | |
| MIELECB | 2026-09-02 00:20:49 | 50.03715 | 21.78311 | 49° | 38km/h | 20501m | 5.3m/s | 0°C | 0% | 0hPa | 0V | 00:00:00 | 00:00:00 | 00:00:00 | |
| AKAW68 | 2026-09-02 00:20:48 | 50.03708 | 21.78300 | 54° | 35km/h | 20496m | 6.2m/s | 0°C | 0% | 0hPa | 0V | 00:00:00 | 00:00:00 | 00:00:00 | |
| MIELECB | 2026-09-02 00:20:43 | 50.03695 | 21.78259 | 64° | 18km/h | 20469m | 3.9m/s | 0°C | 0% | 0hPa | 0V | 00:00:00 | 00:00:00 | 00:00:00 | |
| OM5KV | 2026-09-02 00:20:41 | 50.03690 | 21.78242 | 68° | 31km/h | 20461m | 4.7m/s | 0°C | 0% | 0hPa | 0V | 00:00:00 | 00:00:00 | 00:00:00 | |
| SQ9PSP-11 | 2026-09-02 00:20:39 | 50.03682 | 21.78218 | 53° | 40km/h | 20452m | 5.3m/s | 0°C | 0% | 0hPa | 0V | 00:00:00 | 00:00:00 | 00:00:00 | |
| AKAW682 | 2026-09-02 00:20:38 | 50.03676 | 21.78207 | 39° | 37km/h | 20447m | 4.8m/s | 0°C | 0% | 0hPa | 0V | 00:00:00 | 00:00:00 | 00:00:00 | |
| SP9KGR-15 | 2026-09-02 00:20:36 | 50.03662 | 21.78190 | 47° | 33km/h | 20438m | 5.7m/s | 0°C | 0% | 0hPa | 0V | 00:00:00 | 00:00:00 | 00:00:00 | |
| SQ9EZE-12 | 2026-09-02 00:20:33 | 50.03649 | 21.78163 | 56° | 22km/h | 20421m | 5.1m/s | 0°C | 0% | 0hPa | 0V | 00:00:00 | 00:00:00 | 00:00:00 | |
| MIELECB | 2026-09-02 00:20:32 | 50.03646 | 21.78157 | 41° | 20km/h | 20418m | 3.9m/s | 0°C | 0% | 0hPa | 0V | 00:00:00 | 00:00:00 | 00:00:00 | |
| MIELECB | 2026-09-02 00:20:27 | 50.03627 | 21.78121 | 33° | 24km/h | 20393m | 5.1m/s | 0°C | 0% | 0hPa | 0V | 00:00:00 | 00:00:00 | 00:00:00 | |
| AKAW68 | 2026-09-02 00:20:25 | 50.03616 | 21.78112 | 34° | 29km/h | 20385m | 4.0m/s | 0°C | 0% | 0hPa | 0V | 00:00:00 | 00:00:00 | 00:00:00 | |
| SQ9PSP-11 | 2026-09-02 00:20:24 | 50.03610 | 21.78105 | 52° | 22km/h | 20380m | 6.0m/s | 0°C | 0% | 0hPa | 0V | 00:00:00 | 00:00:00 | 00:00:00 | |
| MIELECB | 2026-09-02 00:20:21 | 50.03607 | 21.78084 | 90° | 13km/h | 20365m | 7.6m/s | 0°C | 0% | 0hPa | 0V | 00:00:00 | 00:00:00 | 00:00:00 | |
| AKAW682 | 2026-09-02 00:20:17 | 50.03597 | 21.78063 | 46° | 22km/h | 20343m | 4.4m/s | 0°C | 0% | 0hPa | 0V | 00:00:00 | 00:00:00 | 00:00:00 | |
| MIELECB | 2026-09-02 00:20:16 | 50.03593 | 21.78057 | 38° | 22km/h | 20340m | 5.2m/s | 0°C | 0% | 0hPa | 0V | 00:00:00 | 00:00:00 | 00:00:00 | |
| SP9KGR-15 | 2026-09-02 00:20:12 | 50.03579 | 21.78046 | 34° | 11km/h | 20321m | 3.2m/s | 0°C | 0% | 0hPa | 0V | 00:00:00 | 00:00:00 | 00:00:00 | |
| MIELECB | 2026-09-02 00:20:10 | 50.03575 | 21.78040 | 30° | 9km/h | 20312m | 4.9m/s | 0°C | 0% | 0hPa | 0V | 00:00:00 | 00:00:00 | 00:00:00 | |
| MIELECB | 2026-09-02 00:20:05 | 50.03562 | 21.78026 | 25° | 16km/h | 20282m | 5.9m/s | 0°C | 0% | 0hPa | 0V | 00:00:00 | 00:00:00 | 00:00:00 | |
| AKAW68 | 2026-09-02 00:20:04 | 50.03558 | 21.78024 | 14° | 16km/h | 20275m | 6.8m/s | 0°C | 0% | 0hPa | 0V | 00:00:00 | 00:00:00 | 00:00:00 | |
| MIELECB | 2026-09-02 00:20:00 | 50.03542 | 21.78016 | 5° | 18km/h | 20248m | 5.6m/s | 0°C | 0% | 0hPa | 0V | 00:00:00 | 00:00:00 | 00:00:00 | |
| OM5KV | 2026-09-02 00:19:59 | 50.03538 | 21.78033 | 345° | 15km/h | 20242m | 4.6m/s | 0°C | 0% | 0hPa | 0V | 00:00:00 | 00:00:00 | 00:00:00 | |
| AKAW682 | 2026-09-02 00:19:56 | 50.03524 | 21.78016 | 25° | 20km/h | 20222m | 2.9m/s | 0°C | 0% | 0hPa | 0V | 00:00:00 | 00:00:00 | 00:00:00 | |
| MIELECB | 2026-09-02 00:19:54 | 50.03515 | 21.78012 | 2° | 13km/h | 20214m | 5.6m/s | 0°C | 0% | 0hPa | 0V | 00:00:00 | 00:00:00 | 00:00:00 | |
| OM5KV | 2026-09-02 00:19:52 | 50.03510 | 21.78014 | 360° | 5km/h | 20201m | 6.3m/s | 0°C | 0% | 0hPa | 0V | 00:00:00 | 00:00:00 | 00:00:00 | |
| SP9KGR-15 | 2026-09-02 00:19:51 | 50.03508 | 21.78016 | 346° | 9km/h | 20194m | 5.3m/s | 0°C | 0% | 0hPa | 0V | 00:00:00 | 00:00:00 | 00:00:00 | |
| SQ9EZE-12 | 2026-09-02 00:19:50 | 50.03506 | 21.78017 | 343° | 13km/h | 20188m | 4.3m/s | 0°C | 0% | 0hPa | 0V | 00:00:00 | 00:00:00 | 00:00:00 | |
| MIELECB | 2026-09-02 00:19:48 | 50.03501 | 21.78024 | 332° | 16km/h | 20172m | 4.3m/s | 0°C | 0% | 0hPa | 0V | 00:00:00 | 00:00:00 | 00:00:00 | |
| OM5KV | 2026-09-02 00:19:46 | 50.03495 | 21.78024 | 32° | 15km/h | 20162m | 3.1m/s | 0°C | 0% | 0hPa | 0V | 00:00:00 | 00:00:00 | 00:00:00 | |
| AKAW68 | 2026-09-02 00:19:44 | 50.03489 | 21.78019 | 16° | 9km/h | 20153m | 7.0m/s | 0°C | 0% | 0hPa | 0V | 00:00:00 | 00:00:00 | 00:00:00 | |
| MIELECB | 2026-09-02 00:19:43 | 50.03487 | 21.78019 | 353° | 9km/h | 20145m | 5.7m/s | 0°C | 0% | 0hPa | 0V | 00:00:00 | 00:00:00 | 00:00:00 | |
| OM5KV | 2026-09-02 00:19:39 | 50.03475 | 21.78028 | 341° | 18km/h | 20117m | 2.1m/s | 0°C | 0% | 0hPa | 0V | 00:00:00 | 00:00:00 | 00:00:00 | |
| MIELECB | 2026-09-02 00:19:37 | 50.03469 | 21.78040 | 318° | 18km/h | 20104m | 3.7m/s | 0°C | 0% | 0hPa | 0V | 00:00:00 | 00:00:00 | 00:00:00 | |
| SP9KGR-15 | 2026-09-02 00:19:36 | 50.03467 | 21.78045 | 299° | 15km/h | 20096m | 2.0m/s | 0°C | 0% | 0hPa | 0V | 00:00:00 | 00:00:00 | 00:00:00 | |
| SQ9EZE-12 | 2026-09-02 00:19:35 | 50.03466 | 21.78048 | 22° | 15km/h | 20089m | 1.6m/s | 0°C | 0% | 0hPa | 0V | 00:00:00 | 00:00:00 | 00:00:00 | |
| MIELECB | 2026-09-02 00:19:32 | 50.03461 | 21.78037 | 69° | 5km/h | 20081m | 3.6m/s | 0°C | 0% | 0hPa | 0V | 00:00:00 | 00:00:00 | 00:00:00 | |
| MIELECB | 2026-09-02 00:19:27 | 50.03454 | 21.78047 | 329° | 13km/h | 20056m | 3.7m/s | 0°C | 0% | 0hPa | 0V | 00:00:00 | 00:00:00 | 00:00:00 | |
| OM5KV | 2026-09-02 00:19:25 | 50.03449 | 21.78048 | 20° | 9km/h | 20055m | -2.3m/s | 0°C | 0% | 0hPa | 0V | 00:00:00 | 00:00:00 | 00:00:00 | |
| AKAW68 | 2026-09-02 00:19:24 | 50.03448 | 21.78044 | 58° | 15km/h | 20059m | 0.1m/s | 0°C | 0% | 0hPa | 0V | 00:00:00 | 00:00:00 | 00:00:00 | |
| MIELECB | 2026-09-02 00:19:22 | 50.03445 | 21.78030 | 83° | 11km/h | 20068m | 2.2m/s | 0°C | 0% | 0hPa | 0V | 00:00:00 | 00:00:00 | 00:00:00 | |
| SQ9PSP-11 | 2026-09-02 00:19:20 | 50.03443 | 21.78031 | 323° | 15km/h | 20057m | 3.6m/s | 0°C | 0% | 0hPa | 0V | 00:00:00 | 00:00:00 | 00:00:00 | |
| OM5KV | 2026-09-02 00:19:19 | 50.03440 | 21.78035 | 326° | 18km/h | 20054m | 2.9m/s | 0°C | 0% | 0hPa | 0V | 00:00:00 | 00:00:00 | 00:00:00 | |
| MIELECB | 2026-09-02 00:19:16 | 50.03431 | 21.78035 | 62° | 20km/h | 20044m | -1.1m/s | 0°C | 0% | 0hPa | 0V | 00:00:00 | 00:00:00 | 00:00:00 | |
| AKAW682 | 2026-09-02 00:19:15 | 50.03431 | 21.78030 | 83° | 24km/h | 20037m | 2.0m/s | 0°C | 0% | 0hPa | 0V | 00:00:00 | 00:00:00 | 00:00:00 | |
| SP9KGR-15 | 2026-09-02 00:19:14 | 50.03433 | 21.78025 | 96° | 18km/h | 20027m | 2.5m/s | 0°C | 0% | 0hPa | 0V | 00:00:00 | 00:00:00 | 00:00:00 | |
| OM5KV | 2026-09-02 00:19:13 | 50.03434 | 21.78020 | 81° | 22km/h | 20021m | 1.0m/s | 0°C | 0% | 0hPa | 0V | 00:00:00 | 00:00:00 | 00:00:00 | |
| MIELECB | 2026-09-02 00:19:11 | 50.03434 | 21.78007 | 67° | 26km/h | 20015m | 3.5m/s | 0°C | 0% | 0hPa | 0V | 00:00:00 | 00:00:00 | 00:00:00 | |
| MIELECB | 2026-09-02 00:19:05 | 50.03416 | 21.77992 | 30° | 13km/h | 19988m | 4.3m/s | 0°C | 0% | 0hPa | 0V | 00:00:00 | 00:00:00 | 00:00:00 | |
| AKAW68 | 2026-09-02 00:19:04 | 50.03414 | 21.77989 | 31° | 13km/h | 19984m | 5.3m/s | 0°C | 0% | 0hPa | 0V | 00:00:00 | 00:00:00 | 00:00:00 | |
| OM5KV | 2026-09-02 00:19:03 | 50.03411 | 21.77988 | 10° | 15km/h | 19978m | 5.8m/s | 0°C | 0% | 0hPa | 0V | 00:00:00 | 00:00:00 | 00:00:00 | |
| MIELECB | 2026-09-02 00:19:00 | 50.03399 | 21.77988 | 3° | 16km/h | 19961m | 4.9m/s | 0°C | 0% | 0hPa | 0V | 00:00:00 | 00:00:00 | 00:00:00 | |
| OM5KV | 2026-09-02 00:18:57 | 50.03390 | 21.77986 | 349° | 5km/h | 19947m | 6.1m/s | 0°C | 0% | 0hPa | 0V | 00:00:00 | 00:00:00 | 00:00:00 | |
| MIELECB | 2026-09-02 00:18:54 | 50.03385 | 21.77988 | 12° | 11km/h | 19929m | 5.7m/s | 0°C | 0% | 0hPa | 0V | 00:00:00 | 00:00:00 | 00:00:00 | |
| OM5KV | 2026-09-02 00:18:52 | 50.03380 | 21.77982 | 0° | 0km/h | 19914m | 3.3m/s | 0°C | 0% | 0hPa | 0V | 00:00:00 | 00:00:00 | 00:00:00 | |
| SQ9EZE-12 | 2026-09-02 00:18:51 | 50.03380 | 21.77982 | 0° | 0km/h | 19914m | 3.3m/s | 0°C | 0% | 0hPa | 0V | 00:00:00 | 00:00:00 | 00:00:00 | |
| MIELECB | 2026-09-02 00:18:48 | 50.03377 | 21.77978 | 13° | 13km/h | 19901m | 4.3m/s | 0°C | 0% | 0hPa | 0V | 00:00:00 | 00:00:00 | 00:00:00 | |
| OM5KV | 2026-09-02 00:18:45 | 50.03371 | 21.77980 | 278° | 5km/h | 19887m | 5.6m/s | 0°C | 0% | 0hPa | 0V | 00:00:00 | 00:00:00 | 00:00:00 | |
| SP9KGR-15 | 2026-09-02 00:18:43 | 50.03369 | 21.77980 | 7° | 11km/h | 19875m | 5.6m/s | 0°C | 0% | 0hPa | 0V | 00:00:00 | 00:00:00 | 00:00:00 | |
| MIELECB | 2026-09-02 00:18:42 | 50.03368 | 21.77979 | 24° | 9km/h | 19870m | 3.7m/s | 0°C | 0% | 0hPa | 0V | 00:00:00 | 00:00:00 | 00:00:00 | |
| AKAW68 | 2026-09-02 00:18:40 | 50.03366 | 21.77978 | 120° | 4km/h | 19860m | 6.4m/s | 0°C | 0% | 0hPa | 0V | 00:00:00 | 00:00:00 | 00:00:00 | |
| OM5KV | 2026-09-02 00:18:39 | 50.03367 | 21.77976 | 108° | 4km/h | 19855m | 4.1m/s | 0°C | 0% | 0hPa | 0V | 00:00:00 | 00:00:00 | 00:00:00 | |
| MIELECB | 2026-09-02 00:18:36 | 50.03362 | 21.77968 | 26° | 15km/h | 19838m | 4.3m/s | 0°C | 0% | 0hPa | 0V | 00:00:00 | 00:00:00 | 00:00:00 | |
| AKAW682 | 2026-09-02 00:18:34 | 50.03358 | 21.77966 | 18° | 4km/h | 19827m | 3.9m/s | 0°C | 0% | 0hPa | 0V | 00:00:00 | 00:00:00 | 00:00:00 | |
| SQ9PSP-11 | 2026-09-02 00:18:33 | 50.03358 | 21.77965 | 122° | 5km/h | 19822m | 2.8m/s | 0°C | 0% | 0hPa | 0V | 00:00:00 | 00:00:00 | 00:00:00 | |
| MIELECB | 2026-09-02 00:18:32 | 50.03359 | 21.77962 | 63° | 5km/h | 19817m | 4.4m/s | 0°C | 0% | 0hPa | 0V | 00:00:00 | 00:00:00 | 00:00:00 | |
| SQ9EZE-12 | 2026-09-02 00:18:29 | 50.03359 | 21.77958 | 130° | 9km/h | 19807m | 5.7m/s | 0°C | 0% | 0hPa | 0V | 00:00:00 | 00:00:00 | 00:00:00 | |
| SP9KGR-15 | 2026-09-02 00:18:28 | 50.03361 | 21.77956 | 135° | 7km/h | 19802m | 4.6m/s | 0°C | 0% | 0hPa | 0V | 00:00:00 | 00:00:00 | 00:00:00 | |
| OM5KV | 2026-09-02 00:18:27 | 50.03362 | 21.77954 | 89° | 4km/h | 19796m | 5.4m/s | 0°C | 0% | 0hPa | 0V | 00:00:00 | 00:00:00 | 00:00:00 | |
| MIELECB | 2026-09-02 00:18:25 | 50.03360 | 21.77951 | 42° | 11km/h | 19787m | 3.1m/s | 0°C | 0% | 0hPa | 0V | 00:00:00 | 00:00:00 | 00:00:00 | |
| OM5KV | 2026-09-02 00:18:22 | 50.03360 | 21.77945 | 175° | 9km/h | 19772m | 4.4m/s | 0°C | 0% | 0hPa | 0V | 00:00:00 | 00:00:00 | 00:00:00 | |
| MIELECB | 2026-09-02 00:18:20 | 50.03364 | 21.77945 | 161° | 7km/h | 19762m | 4.2m/s | 0°C | 0% | 0hPa | 0V | 00:00:00 | 00:00:00 | 00:00:00 | |
| AKAW68 | 2026-09-02 00:18:19 | 50.03366 | 21.77944 | 113° | 7km/h | 19759m | 4.5m/s | 0°C | 0% | 0hPa | 0V | 00:00:00 | 00:00:00 | 00:00:00 | |
| SQ9PSP-11 | 2026-09-02 00:18:18 | 50.03368 | 21.77943 | 177° | 7km/h | 19753m | 6.1m/s | 0°C | 0% | 0hPa | 0V | 00:00:00 | 00:00:00 | 00:00:00 | |
| OM5KV | 2026-09-02 00:18:16 | 50.03371 | 21.77943 | 343° | 2km/h | 19743m | 5.3m/s | 0°C | 0% | 0hPa | 0V | 00:00:00 | 00:00:00 | 00:00:00 | |
| MIELECB | 2026-09-02 00:18:15 | 50.03370 | 21.77944 | 16° | 4km/h | 19738m | 4.6m/s | 0°C | 0% | 0hPa | 0V | 00:00:00 | 00:00:00 | 00:00:00 | |
| AKAW682 | 2026-09-02 00:18:14 | 50.03369 | 21.77943 | 21° | 9km/h | 19735m | 3.9m/s | 0°C | 0% | 0hPa | 0V | 00:00:00 | 00:00:00 | 00:00:00 | |
| SP9KGR-15 | 2026-09-02 00:18:11 | 50.03370 | 21.77940 | 185° | 13km/h | 19722m | 4.6m/s | 0°C | 0% | 0hPa | 0V | 00:00:00 | 00:00:00 | 00:00:00 | |
| MIELECB | 2026-09-02 00:18:10 | 50.03373 | 21.77940 | 176° | 11km/h | 19718m | 5.5m/s | 0°C | 0% | 0hPa | 0V | 00:00:00 | 00:00:00 | 00:00:00 | |
| MIELECB | 2026-09-02 00:18:05 | 50.03383 | 21.77935 | 144° | 13km/h | 19684m | 5.0m/s | 0°C | 0% | 0hPa | 0V | 00:00:00 | 00:00:00 | 00:00:00 | |
| OM5KV | 2026-09-02 00:18:03 | 50.03386 | 21.77930 | 109° | 22km/h | 19678m | 6.3m/s | 0°C | 0% | 0hPa | 0V | 00:00:00 | 00:00:00 | 00:00:00 | |
| MIELECB | 2026-09-02 00:17:59 | 50.03395 | 21.77908 | 120° | 7km/h | 19655m | 3.9m/s | 0°C | 0% | 0hPa | 0V | 00:00:00 | 00:00:00 | 00:00:00 | |
| AKAW68 | 2026-09-02 00:17:58 | 50.03396 | 21.77907 | 0° | 0km/h | 19650m | 6.2m/s | 0°C | 0% | 0hPa | 0V | 00:00:00 | 00:00:00 | 00:00:00 | |
| OM5KV | 2026-09-02 00:17:57 | 50.03396 | 21.77907 | 361° | 7km/h | 19644m | 5.0m/s | 0°C | 0% | 0hPa | 0V | 00:00:00 | 00:00:00 | 00:00:00 | |
| SP9KGR-15 | 2026-09-02 00:17:55 | 50.03393 | 21.77908 | 0° | 0km/h | 19635m | 6.0m/s | 0°C | 0% | 0hPa | 0V | 00:00:00 | 00:00:00 | 00:00:00 | |
| MIELECB | 2026-09-02 00:17:53 | 50.03395 | 21.77901 | 107° | 15km/h | 19625m | 5.6m/s | 0°C | 0% | 0hPa | 0V | 00:00:00 | 00:00:00 | 00:00:00 | |
| OM5KV | 2026-09-02 00:17:51 | 50.03397 | 21.77886 | 114° | 24km/h | 19615m | 5.7m/s | 0°C | 0% | 0hPa | 0V | 00:00:00 | 00:00:00 | 00:00:00 | |
| MIELECB | 2026-09-02 00:17:49 | 50.03406 | 21.77873 | 229° | 4km/h | 19594m | 4.9m/s | 0°C | 0% | 0hPa | 0V | 00:00:00 | 00:00:00 | 00:00:00 | |
| OM5KV | 2026-09-02 00:17:46 | 50.03406 | 21.77873 | 36° | 4km/h | 19589m | 2.7m/s | 0°C | 0% | 0hPa | 0V | 00:00:00 | 00:00:00 | 00:00:00 | |
| MIELECB | 2026-09-02 00:17:42 | 50.03411 | 21.77851 | 115° | 29km/h | 19571m | 5.7m/s | 0°C | 0% | 0hPa | 0V | 00:00:00 | 00:00:00 | 00:00:00 | |
| SP9KGR-15 | 2026-09-02 00:17:40 | 50.03414 | 21.77830 | 103° | 22km/h | 19562m | 4.3m/s | 0°C | 0% | 0hPa | 0V | 00:00:00 | 00:00:00 | 00:00:00 | |
| AKAW68 | 2026-09-02 00:17:37 | 50.03421 | 21.77817 | 154° | 16km/h | 19547m | 5.2m/s | 0°C | 0% | 0hPa | 0V | 00:00:00 | 00:00:00 | 00:00:00 | |
| MIELECB | 2026-09-02 00:17:36 | 50.03423 | 21.77813 | 115° | 9km/h | 19542m | 6.3m/s | 0°C | 0% | 0hPa | 0V | 00:00:00 | 00:00:00 | 00:00:00 | |
| SQ9PSP-11 | 2026-09-02 00:17:33 | 50.03426 | 21.77798 | 127° | 24km/h | 19528m | 5.5m/s | 0°C | 0% | 0hPa | 0V | 00:00:00 | 00:00:00 | 00:00:00 | |
| MIELECB | 2026-09-02 00:17:31 | 50.03433 | 21.77784 | 119° | 24km/h | 19520m | 5.4m/s | 0°C | 0% | 0hPa | 0V | 00:00:00 | 00:00:00 | 00:00:00 | |
| MIELECB | 2026-09-02 00:17:26 | 50.03439 | 21.77764 | 158° | 4km/h | 19495m | 4.9m/s | 0°C | 0% | 0hPa | 0V | 00:00:00 | 00:00:00 | 00:00:00 | |
| SP9KGR-15 | 2026-09-02 00:17:22 | 50.03443 | 21.77749 | 121° | 18km/h | 19476m | 5.2m/s | 0°C | 0% | 0hPa | 0V | 00:00:00 | 00:00:00 | 00:00:00 | |
| MIELECB | 2026-09-02 00:17:20 | 50.03450 | 21.77737 | 134° | 22km/h | 19467m | 3.5m/s | 0°C | 0% | 0hPa | 0V | 00:00:00 | 00:00:00 | 00:00:00 | |
| MIELECB | 2026-09-02 00:17:14 | 50.03466 | 21.77709 | 125° | 18km/h | 19441m | 6.4m/s | 0°C | 0% | 0hPa | 0V | 00:00:00 | 00:00:00 | 00:00:00 | |
| OM5KV | 2026-09-02 00:17:12 | 50.03471 | 21.77695 | 122° | 24km/h | 19432m | 5.7m/s | 0°C | 0% | 0hPa | 0V | 00:00:00 | 00:00:00 | 00:00:00 | |
| MIELECB | 2026-09-02 00:17:08 | 50.03487 | 21.77668 | 117° | 22km/h | 19412m | 3.4m/s | 0°C | 0% | 0hPa | 0V | 00:00:00 | 00:00:00 | 00:00:00 | |
| OM5KV | 2026-09-02 00:17:07 | 50.03490 | 21.77660 | 114° | 22km/h | 19408m | 3.8m/s | 0°C | 0% | 0hPa | 0V | 00:00:00 | 00:00:00 | 00:00:00 | |
| SP9KGR-15 | 2026-09-02 00:17:06 | 50.03492 | 21.77653 | 120° | 22km/h | 19403m | 4.9m/s | 0°C | 0% | 0hPa | 0V | 00:00:00 | 00:00:00 | 00:00:00 | |
| SQ9PSP-11 | 2026-09-02 00:17:03 | 50.03512 | 21.77626 | 127° | 22km/h | 19381m | 4.8m/s | 0°C | 0% | 0hPa | 0V | 00:00:00 | 00:00:00 | 00:00:00 | |
| OM5KV | 2026-09-02 00:17:02 | 50.03512 | 21.77626 | 127° | 22km/h | 19381m | 4.8m/s | 0°C | 0% | 0hPa | 0V | 00:00:00 | 00:00:00 | 00:00:00 | |
| MIELECB | 2026-09-02 00:16:57 | 50.03530 | 21.77573 | 146° | 29km/h | 19360m | 5.3m/s | 0°C | 0% | 0hPa | 0V | 00:00:00 | 00:00:00 | 00:00:00 | |
| AKAW68 | 2026-09-02 00:16:55 | 50.03540 | 21.77563 | 147° | 13km/h | 19352m | 4.9m/s | 0°C | 0% | 0hPa | 0V | 00:00:00 | 00:00:00 | 00:00:00 | |
| MIELECB | 2026-09-02 00:16:52 | 50.03551 | 21.77542 | 122° | 31km/h | 19338m | 4.0m/s | 0°C | 0% | 0hPa | 0V | 00:00:00 | 00:00:00 | 00:00:00 | |
| SP9KGR-15 | 2026-09-02 00:16:51 | 50.03556 | 21.77531 | 124° | 31km/h | 19335m | 4.4m/s | 0°C | 0% | 0hPa | 0V | 00:00:00 | 00:00:00 | 00:00:00 | |
| MIELECB | 2026-09-02 00:16:46 | 50.03573 | 21.77485 | 134° | 26km/h | 19313m | 4.4m/s | 0°C | 0% | 0hPa | 0V | 00:00:00 | 00:00:00 | 00:00:00 | |
| MIELECB | 2026-09-02 00:16:41 | 50.03587 | 21.77443 | 119° | 37km/h | 19289m | 4.4m/s | 0°C | 0% | 0hPa | 0V | 00:00:00 | 00:00:00 | 00:00:00 | |
| OM5KV | 2026-09-02 00:16:35 | 50.03614 | 21.77393 | 119° | 27km/h | 19260m | 4.6m/s | 0°C | 0% | 0hPa | 0V | 00:00:00 | 00:00:00 | 00:00:00 | |
| AKAW68 | 2026-09-02 00:16:34 | 50.03616 | 21.77384 | 110° | 26km/h | 19256m | 5.3m/s | 0°C | 0% | 0hPa | 0V | 00:00:00 | 00:00:00 | 00:00:00 | |
| MIELECB | 2026-09-02 00:16:30 | 50.03623 | 21.77340 | 107° | 37km/h | 19238m | 5.1m/s | 0°C | 0% | 0hPa | 0V | 00:00:00 | 00:00:00 | 00:00:00 | |
| OM5KV | 2026-09-02 00:16:29 | 50.03626 | 21.77327 | 122° | 35km/h | 19234m | 3.9m/s | 0°C | 0% | 0hPa | 0V | 00:00:00 | 00:00:00 | 00:00:00 | |
| OM5KV | 2026-09-02 00:16:24 | 50.03640 | 21.77275 | 97° | 31km/h | 19210m | 3.8m/s | 0°C | 0% | 0hPa | 0V | 00:00:00 | 00:00:00 | 00:00:00 | |
| SP9KGR-15 | 2026-09-02 00:16:20 | 50.03643 | 21.77227 | 106° | 38km/h | 19191m | 6.8m/s | 0°C | 0% | 0hPa | 0V | 00:00:00 | 00:00:00 | 00:00:00 | |
| MIELECB | 2026-09-02 00:16:19 | 50.03646 | 21.77214 | 114° | 37km/h | 19186m | 5.6m/s | 0°C | 0% | 0hPa | 0V | 00:00:00 | 00:00:00 | 00:00:00 | |
| AKAW68 | 2026-09-02 00:16:15 | 50.03659 | 21.77161 | 85° | 37km/h | 19159m | 4.9m/s | 0°C | 0% | 0hPa | 0V | 00:00:00 | 00:00:00 | 00:00:00 | |
| MIELECB | 2026-09-02 00:16:14 | 50.03659 | 21.77161 | 85° | 37km/h | 19159m | 4.9m/s | 0°C | 0% | 0hPa | 0V | 00:00:00 | 00:00:00 | 00:00:00 | |
| AKAW682 | 2026-09-02 00:16:10 | 50.03660 | 21.77111 | 97° | 26km/h | 19141m | 4.2m/s | 0°C | 0% | 0hPa | 0V | 00:00:00 | 00:00:00 | 00:00:00 | |
| MIELECB | 2026-09-02 00:16:08 | 50.03663 | 21.77089 | 99° | 31km/h | 19132m | 4.7m/s | 0°C | 0% | 0hPa | 0V | 00:00:00 | 00:00:00 | 00:00:00 | |
| OM5KV | 2026-09-02 00:16:04 | 50.03667 | 21.77045 | 94° | 27km/h | 19117m | 4.4m/s | 0°C | 0% | 0hPa | 0V | 00:00:00 | 00:00:00 | 00:00:00 | |
| MIELECB | 2026-09-02 00:16:02 | 50.03667 | 21.77022 | 87° | 37km/h | 19107m | 4.4m/s | 0°C | 0% | 0hPa | 0V | 00:00:00 | 00:00:00 | 00:00:00 | |
| SQ9PSP-11 | 2026-09-02 00:15:59 | 50.03668 | 21.76987 | 110° | 24km/h | 19093m | 4.7m/s | 0°C | 0% | 0hPa | 0V | 00:00:00 | 00:00:00 | 00:00:00 | |
| OM5KV | 2026-09-02 00:15:58 | 50.03670 | 21.76979 | 106° | 26km/h | 19089m | 5.4m/s | 0°C | 0% | 0hPa | 0V | 00:00:00 | 00:00:00 | 00:00:00 | |
| MIELECB | 2026-09-02 00:15:57 | 50.03671 | 21.76969 | 97° | 27km/h | 19084m | 5.9m/s | 0°C | 0% | 0hPa | 0V | 00:00:00 | 00:00:00 | 00:00:00 | |
| AKAW68 | 2026-09-02 00:15:54 | 50.03671 | 21.76942 | 73° | 22km/h | 19069m | 5.1m/s | 0°C | 0% | 0hPa | 0V | 00:00:00 | 00:00:00 | 00:00:00 | |
| OM5KV | 2026-09-02 00:15:53 | 50.03669 | 21.76934 | 77° | 20km/h | 19065m | 4.0m/s | 0°C | 0% | 0hPa | 0V | 00:00:00 | 00:00:00 | 00:00:00 | |
| MIELECB | 2026-09-02 00:15:51 | 50.03668 | 21.76917 | 94° | 26km/h | 19056m | 4.7m/s | 0°C | 0% | 0hPa | 0V | 00:00:00 | 00:00:00 | 00:00:00 | |
| AKAW682 | 2026-09-02 00:15:50 | 50.03668 | 21.76906 | 99° | 29km/h | 19052m | 4.5m/s | 0°C | 0% | 0hPa | 0V | 00:00:00 | 00:00:00 | 00:00:00 | |
| SP9KGR-15 | 2026-09-02 00:15:48 | 50.03671 | 21.76886 | 123° | 22km/h | 19042m | 4.9m/s | 0°C | 0% | 0hPa | 0V | 00:00:00 | 00:00:00 | 00:00:00 | |
| OM5KV | 2026-09-02 00:15:47 | 50.03674 | 21.76879 | 117° | 22km/h | 19038m | 6.3m/s | 0°C | 0% | 0hPa | 0V | 00:00:00 | 00:00:00 | 00:00:00 | |
| MIELECB | 2026-09-02 00:15:46 | 50.03676 | 21.76863 | 95° | 22km/h | 19027m | 6.5m/s | 0°C | 0% | 0hPa | 0V | 00:00:00 | 00:00:00 | 00:00:00 | |
| SQ9PSP-11 | 2026-09-02 00:15:43 | 50.03677 | 21.76849 | 104° | 16km/h | 19015m | 3.9m/s | 0°C | 0% | 0hPa | 0V | 00:00:00 | 00:00:00 | 00:00:00 | |
| MIELECB | 2026-09-02 00:15:40 | 50.03682 | 21.76818 | 104° | 31km/h | 18998m | 5.0m/s | 0°C | 0% | 0hPa | 0V | 00:00:00 | 00:00:00 | 00:00:00 | |
| OM5KV | 2026-09-02 00:15:39 | 50.03684 | 21.76806 | 107° | 29km/h | 18994m | 4.7m/s | 0°C | 0% | 0hPa | 0V | 00:00:00 | 00:00:00 | 00:00:00 | |
| MIELECB | 2026-09-02 00:15:34 | 50.03692 | 21.76768 | 107° | 24km/h | 18969m | 4.7m/s | 0°C | 0% | 0hPa | 0V | 00:00:00 | 00:00:00 | 00:00:00 | |
| AKAW68 | 2026-09-02 00:15:33 | 50.03694 | 21.76759 | 115° | 26km/h | 18964m | 4.8m/s | 0°C | 0% | 0hPa | 0V | 00:00:00 | 00:00:00 | 00:00:00 | |
| SP9KGR-15 | 2026-09-02 00:15:32 | 50.03697 | 21.76750 | 116° | 22km/h | 18958m | 6.6m/s | 0°C | 0% | 0hPa | 0V | 00:00:00 | 00:00:00 | 00:00:00 | |
| MIELECB | 2026-09-02 00:15:29 | 50.03704 | 21.76724 | 101° | 27km/h | 18943m | 4.2m/s | 0°C | 0% | 0hPa | 0V | 00:00:00 | 00:00:00 | 00:00:00 | |
| SQ9PSP-11 | 2026-09-02 00:15:28 | 50.03704 | 21.76713 | 85° | 26km/h | 18940m | 3.7m/s | 0°C | 0% | 0hPa | 0V | 00:00:00 | 00:00:00 | 00:00:00 | |
| MIELECB | 2026-09-02 00:15:23 | 50.03701 | 21.76678 | 91° | 22km/h | 18921m | 4.9m/s | 0°C | 0% | 0hPa | 0V | 00:00:00 | 00:00:00 | 00:00:00 | |
| MIELECB | 2026-09-02 00:15:18 | 50.03699 | 21.76609 | 72° | 37km/h | 18892m | 3.8m/s | 0°C | 0% | 0hPa | 0V | 00:00:00 | 00:00:00 | 00:00:00 | |
| AKAW68 | 2026-09-02 00:15:13 | 50.03696 | 21.76569 | 101° | 26km/h | 18873m | 6.4m/s | 0°C | 0% | 0hPa | 0V | 00:00:00 | 00:00:00 | 00:00:00 | |
| MIELECB | 2026-09-02 00:15:11 | 50.03696 | 21.76545 | 86° | 37km/h | 18861m | 5.5m/s | 0°C | 0% | 0hPa | 0V | 00:00:00 | 00:00:00 | 00:00:00 | |
| AKAW682 | 2026-09-02 00:15:08 | 50.03691 | 21.76509 | 82° | 27km/h | 18844m | 4.9m/s | 0°C | 0% | 0hPa | 0V | 00:00:00 | 00:00:00 | 00:00:00 | |
| MIELECB | 2026-09-02 00:15:05 | 50.03688 | 21.76479 | 76° | 33km/h | 18830m | 4.6m/s | 0°C | 0% | 0hPa | 0V | 00:00:00 | 00:00:00 | 00:00:00 | |
| SP9KGR-15 | 2026-09-02 00:15:02 | 50.03682 | 21.76448 | 65° | 24km/h | 18813m | 3.6m/s | 0°C | 0% | 0hPa | 0V | 00:00:00 | 00:00:00 | 00:00:00 | |
| MIELECB | 2026-09-02 00:15:00 | 50.03675 | 21.76430 | 65° | 35km/h | 18803m | 5.8m/s | 0°C | 0% | 0hPa | 0V | 00:00:00 | 00:00:00 | 00:00:00 | |
| SQ9PSP-11 | 2026-09-02 00:14:58 | 50.03667 | 21.76407 | 58° | 31km/h | 18795m | 4.4m/s | 0°C | 0% | 0hPa | 0V | 00:00:00 | 00:00:00 | 00:00:00 | |
| MIELECB | 2026-09-02 00:14:54 | 50.03658 | 21.76375 | 85° | 24km/h | 18779m | 5.3m/s | 0°C | 0% | 0hPa | 0V | 00:00:00 | 00:00:00 | 00:00:00 | |
| AKAW68 | 2026-09-02 00:14:52 | 50.03655 | 21.76353 | 69° | 31km/h | 18768m | 5.2m/s | 0°C | 0% | 0hPa | 0V | 00:00:00 | 00:00:00 | 00:00:00 | |
| MIELECB | 2026-09-02 00:14:49 | 50.03645 | 21.76325 | 65° | 24km/h | 18754m | 7.1m/s | 0°C | 0% | 0hPa | 0V | 00:00:00 | 00:00:00 | 00:00:00 | |
| AKAW682 | 2026-09-02 00:14:47 | 50.03640 | 21.76312 | 50° | 18km/h | 18744m | 5.9m/s | 0°C | 0% | 0hPa | 0V | 00:00:00 | 00:00:00 | 00:00:00 | |
| SP9KGR-15 | 2026-09-02 00:14:45 | 50.03630 | 21.76298 | 59° | 24km/h | 18728m | 6.2m/s | 0°C | 0% | 0hPa | 0V | 00:00:00 | 00:00:00 | 00:00:00 | |
| MIELECB | 2026-09-02 00:14:43 | 50.03628 | 21.76289 | 80° | 27km/h | 18722m | 5.8m/s | 0°C | 0% | 0hPa | 0V | 00:00:00 | 00:00:00 | 00:00:00 | |
| SQ9PSP-11 | 2026-09-02 00:14:42 | 50.03626 | 21.76277 | 85° | 31km/h | 18717m | 5.0m/s | 0°C | 0% | 0hPa | 0V | 00:00:00 | 00:00:00 | 00:00:00 | |
| MIELECB | 2026-09-02 00:14:37 | 50.03610 | 21.76229 | 61° | 22km/h | 18695m | 3.3m/s | 0°C | 0% | 0hPa | 0V | 00:00:00 | 00:00:00 | 00:00:00 | |
| OM5KV | 2026-09-02 00:14:33 | 50.03598 | 21.76192 | 65° | 31km/h | 18677m | 5.6m/s | 0°C | 0% | 0hPa | 0V | 00:00:00 | 00:00:00 | 00:00:00 | |
| MIELECB | 2026-09-02 00:14:32 | 50.03596 | 21.76182 | 69° | 27km/h | 18671m | 5.5m/s | 0°C | 0% | 0hPa | 0V | 00:00:00 | 00:00:00 | 00:00:00 | |
| AKAW68 | 2026-09-02 00:14:31 | 50.03594 | 21.76171 | 78° | 29km/h | 18667m | 5.6m/s | 0°C | 0% | 0hPa | 0V | 00:00:00 | 00:00:00 | 00:00:00 | |
| SP9KGR-15 | 2026-09-02 00:14:28 | 50.03586 | 21.76140 | 59° | 31km/h | 18652m | 5.4m/s | 0°C | 0% | 0hPa | 0V | 00:00:00 | 00:00:00 | 00:00:00 | |
| MIELECB | 2026-09-02 00:14:26 | 50.03576 | 21.76122 | 50° | 27km/h | 18643m | 4.3m/s | 0°C | 0% | 0hPa | 0V | 00:00:00 | 00:00:00 | 00:00:00 | |
| OM5KV | 2026-09-02 00:14:23 | 50.03567 | 21.76095 | 66° | 29km/h | 18629m | 4.9m/s | 0°C | 0% | 0hPa | 0V | 00:00:00 | 00:00:00 | 00:00:00 | |
| MIELECB | 2026-09-02 00:14:21 | 50.03560 | 21.76073 | 68° | 35km/h | 18620m | 5.7m/s | 0°C | 0% | 0hPa | 0V | 00:00:00 | 00:00:00 | 00:00:00 | |
| OM5KV | 2026-09-02 00:14:17 | 50.03548 | 21.76028 | 53° | 29km/h | 18596m | 6.8m/s | 0°C | 0% | 0hPa | 0V | 00:00:00 | 00:00:00 | 00:00:00 | |
| MIELECB | 2026-09-02 00:14:16 | 50.03544 | 21.76019 | 48° | 26km/h | 18591m | 3.3m/s | 0°C | 0% | 0hPa | 0V | 00:00:00 | 00:00:00 | 00:00:00 | |
| OM5KV | 2026-09-02 00:14:12 | 50.03525 | 21.75983 | 60° | 33km/h | 18574m | 6.2m/s | 0°C | 0% | 0hPa | 0V | 00:00:00 | 00:00:00 | 00:00:00 | |
| SP9KGR-15 | 2026-09-02 00:14:11 | 50.03520 | 21.75971 | 67° | 35km/h | 18570m | 4.6m/s | 0°C | 0% | 0hPa | 0V | 00:00:00 | 00:00:00 | 00:00:00 | |
| AKAW68 | 2026-09-02 00:14:10 | 50.03517 | 21.75958 | 75° | 38km/h | 18565m | 6.0m/s | 0°C | 0% | 0hPa | 0V | 00:00:00 | 00:00:00 | 00:00:00 | |
| MIELECB | 2026-09-02 00:14:05 | 50.03499 | 21.75897 | 43° | 27km/h | 18542m | 5.2m/s | 0°C | 0% | 0hPa | 0V | 00:00:00 | 00:00:00 | 00:00:00 | |
| OM5KV | 2026-09-02 00:13:59 | 50.03478 | 21.75828 | 79° | 37km/h | 18505m | 5.2m/s | 0°C | 0% | 0hPa | 0V | 00:00:00 | 00:00:00 | 00:00:00 | |
| SP9KGR-15 | 2026-09-02 00:13:56 | 50.03468 | 21.75793 | 55° | 29km/h | 18490m | 4.2m/s | 0°C | 0% | 0hPa | 0V | 00:00:00 | 00:00:00 | 00:00:00 | |
| SQ9PSP-11 | 2026-09-02 00:13:54 | 50.03461 | 21.75775 | 72° | 20km/h | 18479m | 5.0m/s | 0°C | 0% | 0hPa | 0V | 00:00:00 | 00:00:00 | 00:00:00 | |
| OM5KV | 2026-09-02 00:13:51 | 50.03459 | 21.75747 | 73° | 26km/h | 18466m | 5.0m/s | 0°C | 0% | 0hPa | 0V | 00:00:00 | 00:00:00 | 00:00:00 | |
| AKAW68 | 2026-09-02 00:13:49 | 50.03453 | 21.75720 | 82° | 20km/h | 18454m | 5.3m/s | 0°C | 0% | 0hPa | 0V | 00:00:00 | 00:00:00 | 00:00:00 | |
| OM5KV | 2026-09-02 00:13:45 | 50.03447 | 21.75693 | 63° | 29km/h | 18440m | 4.3m/s | 0°C | 0% | 0hPa | 0V | 00:00:00 | 00:00:00 | 00:00:00 | |
| MIELECB | 2026-09-02 00:13:43 | 50.03441 | 21.75673 | 74° | 26km/h | 18431m | 5.8m/s | 0°C | 0% | 0hPa | 0V | 00:00:00 | 00:00:00 | 00:00:00 | |
| SP9KGR-15 | 2026-09-02 00:13:39 | 50.03440 | 21.75640 | 86° | 22km/h | 18411m | 4.8m/s | 0°C | 0% | 0hPa | 0V | 00:00:00 | 00:00:00 | 00:00:00 | |
| MIELECB | 2026-09-02 00:13:38 | 50.03439 | 21.75631 | 88° | 24km/h | 18407m | 4.7m/s | 0°C | 0% | 0hPa | 0V | 00:00:00 | 00:00:00 | 00:00:00 | |
| MIELECB | 2026-09-02 00:13:32 | 50.03428 | 21.75573 | 78° | 24km/h | 18379m | 6.6m/s | 0°C | 0% | 0hPa | 0V | 00:00:00 | 00:00:00 | 00:00:00 | |
| MIELECB | 2026-09-02 00:13:28 | 50.03435 | 21.75527 | 103° | 26km/h | 18351m | 4.6m/s | 0°C | 0% | 0hPa | 0V | 00:00:00 | 00:00:00 | 00:00:00 | |
| AKAW68 | 2026-09-02 00:13:25 | 50.03437 | 21.75511 | 92° | 16km/h | 18340m | 4.3m/s | 0°C | 0% | 0hPa | 0V | 00:00:00 | 00:00:00 | 00:00:00 | |
| OM5KV | 2026-09-02 00:13:23 | 50.03435 | 21.75499 | 50° | 18km/h | 18333m | 4.4m/s | 0°C | 0% | 0hPa | 0V | 00:00:00 | 00:00:00 | 00:00:00 | |
| MIELECB | 2026-09-02 00:13:22 | 50.03432 | 21.75493 | 73° | 18km/h | 18329m | 3.3m/s | 0°C | 0% | 0hPa | 0V | 00:00:00 | 00:00:00 | 00:00:00 | |
| OM5KV | 2026-09-02 00:13:17 | 50.03433 | 21.75459 | 95° | 18km/h | 18306m | 4.6m/s | 0°C | 0% | 0hPa | 0V | 00:00:00 | 00:00:00 | 00:00:00 | |
| MIELECB | 2026-09-02 00:13:16 | 50.03433 | 21.75451 | 97° | 18km/h | 18301m | 5.8m/s | 0°C | 0% | 0hPa | 0V | 00:00:00 | 00:00:00 | 00:00:00 | |
| MIELECB | 2026-09-02 00:13:11 | 50.03436 | 21.75418 | 106° | 20km/h | 18274m | 6.5m/s | 0°C | 0% | 0hPa | 0V | 00:00:00 | 00:00:00 | 00:00:00 | |
| SP9KGR-15 | 2026-09-02 00:13:07 | 50.03444 | 21.75388 | 105° | 24km/h | 18251m | 3.9m/s | 0°C | 0% | 0hPa | 0V | 00:00:00 | 00:00:00 | 00:00:00 | |
| SQ9PSP-11 | 2026-09-02 00:13:06 | 50.03446 | 21.75380 | 110° | 26km/h | 18247m | 4.0m/s | 0°C | 0% | 0hPa | 0V | 00:00:00 | 00:00:00 | 00:00:00 | |
| AKAW682 | 2026-09-02 00:13:05 | 50.03449 | 21.75362 | 95° | 20km/h | 18237m | 3.5m/s | 0°C | 0% | 0hPa | 0V | 00:00:00 | 00:00:00 | 00:00:00 | |
| AKAW68 | 2026-09-02 00:13:03 | 50.03450 | 21.75354 | 96° | 22km/h | 18233m | 4.6m/s | 0°C | 0% | 0hPa | 0V | 00:00:00 | 00:00:00 | 00:00:00 | |
| OM5KV | 2026-09-02 00:13:00 | 50.03452 | 21.75328 | 100° | 18km/h | 18220m | 6.1m/s | 0°C | 0% | 0hPa | 0V | 00:00:00 | 00:00:00 | 00:00:00 | |
| OM5KV | 2026-09-02 00:12:54 | 50.03458 | 21.75275 | 96° | 16km/h | 18192m | 6.5m/s | 0°C | 0% | 0hPa | 0V | 00:00:00 | 00:00:00 | 00:00:00 | |
| SQ9PSP-11 | 2026-09-02 00:12:51 | 50.03459 | 21.75256 | 98° | 22km/h | 18178m | 5.0m/s | 0°C | 0% | 0hPa | 0V | 00:00:00 | 00:00:00 | 00:00:00 | |
| MIELECB | 2026-09-02 00:12:48 | 50.03466 | 21.75226 | 122° | 27km/h | 18163m | 3.7m/s | 0°C | 0% | 0hPa | 0V | 00:00:00 | 00:00:00 | 00:00:00 | |
| SP9KGR-15 | 2026-09-02 00:12:47 | 50.03469 | 21.75216 | 115° | 31km/h | 18159m | 4.6m/s | 0°C | 0% | 0hPa | 0V | 00:00:00 | 00:00:00 | 00:00:00 | |
| AKAW682 | 2026-09-02 00:12:44 | 50.03474 | 21.75179 | 99° | 24km/h | 18146m | 5.8m/s | 0°C | 0% | 0hPa | 0V | 00:00:00 | 00:00:00 | 00:00:00 | |
| MIELECB | 2026-09-02 00:12:42 | 50.03476 | 21.75166 | 116° | 18km/h | 18136m | 4.4m/s | 0°C | 0% | 0hPa | 0V | 00:00:00 | 00:00:00 | 00:00:00 | |
| AKAW68 | 2026-09-02 00:12:41 | 50.03479 | 21.75159 | 117° | 20km/h | 18130m | 5.4m/s | 0°C | 0% | 0hPa | 0V | 00:00:00 | 00:00:00 | 00:00:00 | |
| MIELECB | 2026-09-02 00:12:37 | 50.03493 | 21.75113 | 124° | 35km/h | 18112m | 3.9m/s | 0°C | 0% | 0hPa | 0V | 00:00:00 | 00:00:00 | 00:00:00 | |
| SQ9PSP-11 | 2026-09-02 00:12:35 | 50.03500 | 21.75090 | 106° | 29km/h | 18106m | 6.4m/s | 0°C | 0% | 0hPa | 0V | 00:00:00 | 00:00:00 | 00:00:00 | |
| SP9KGR-15 | 2026-09-02 00:12:30 | 50.03507 | 21.75039 | 118° | 33km/h | 18085m | 6.5m/s | 0°C | 0% | 0hPa | 0V | 00:00:00 | 00:00:00 | 00:00:00 | |
| MIELECB | 2026-09-02 00:12:25 | 50.03519 | 21.74977 | 97° | 29km/h | 18059m | 5.2m/s | 0°C | 0% | 0hPa | 0V | 00:00:00 | 00:00:00 | 00:00:00 | |
| AKAW682 | 2026-09-02 00:12:23 | 50.03520 | 21.74951 | 92° | 37km/h | 18049m | 5.4m/s | 0°C | 0% | 0hPa | 0V | 00:00:00 | 00:00:00 | 00:00:00 | |
| MIELECB | 2026-09-02 00:12:21 | 50.03526 | 21.74912 | 111° | 29km/h | 18035m | 3.4m/s | 0°C | 0% | 0hPa | 0V | 00:00:00 | 00:00:00 | 00:00:00 | |
| AKAW68 | 2026-09-02 00:12:18 | 50.03531 | 21.74888 | 107° | 35km/h | 18027m | 6.5m/s | 0°C | 0% | 0hPa | 0V | 00:00:00 | 00:00:00 | 00:00:00 | |
| SP9KGR-15 | 2026-09-02 00:12:15 | 50.03532 | 21.74834 | 95° | 29km/h | 18005m | 4.8m/s | 0°C | 0% | 0hPa | 0V | 00:00:00 | 00:00:00 | 00:00:00 | |
| MIELECB | 2026-09-02 00:12:09 | 50.03541 | 21.74762 | 104° | 37km/h | 17981m | 5.3m/s | 0°C | 0% | 0hPa | 0V | 00:00:00 | 00:00:00 | 00:00:00 | |
| SQ9PSP-11 | 2026-09-02 00:12:05 | 50.03547 | 21.74703 | 97° | 42km/h | 17960m | 4.1m/s | 0°C | 0% | 0hPa | 0V | 00:00:00 | 00:00:00 | 00:00:00 | |
| AKAW682 | 2026-09-02 00:12:03 | 50.03547 | 21.74674 | 93° | 35km/h | 17951m | 4.6m/s | 0°C | 0% | 0hPa | 0V | 00:00:00 | 00:00:00 | 00:00:00 | |
| SP9KGR-15 | 2026-09-02 00:11:59 | 50.03552 | 21.74607 | 110° | 42km/h | 17934m | 6.1m/s | 0°C | 0% | 0hPa | 0V | 00:00:00 | 00:00:00 | 00:00:00 | |
| MIELECB | 2026-09-02 00:11:58 | 50.03556 | 21.74591 | 110° | 42km/h | 17927m | 4.4m/s | 0°C | 0% | 0hPa | 0V | 00:00:00 | 00:00:00 | 00:00:00 | |
| AKAW68 | 2026-09-02 00:11:57 | 50.03559 | 21.74574 | 109° | 44km/h | 17923m | 4.2m/s | 0°C | 0% | 0hPa | 0V | 00:00:00 | 00:00:00 | 00:00:00 | |
| OM5KV | 2026-09-02 00:11:51 | 50.03562 | 21.74479 | 89° | 40km/h | 17895m | 5.6m/s | 0°C | 0% | 0hPa | 0V | 00:00:00 | 00:00:00 | 00:00:00 | |
| SQ9PSP-11 | 2026-09-02 00:11:50 | 50.03562 | 21.74462 | 95° | 44km/h | 17890m | 5.1m/s | 0°C | 0% | 0hPa | 0V | 00:00:00 | 00:00:00 | 00:00:00 | |
| MIELECB | 2026-09-02 00:11:46 | 50.03571 | 21.74393 | 105° | 46km/h | 17870m | 5.8m/s | 0°C | 0% | 0hPa | 0V | 00:00:00 | 00:00:00 | 00:00:00 | |
| SP9KGR-15 | 2026-09-02 00:11:43 | 50.03576 | 21.74345 | 102° | 33km/h | 17857m | 6.5m/s | 0°C | 0% | 0hPa | 0V | 00:00:00 | 00:00:00 | 00:00:00 | |
| AKAW682 | 2026-09-02 00:11:42 | 50.03577 | 21.74332 | 95° | 33km/h | 17851m | 5.2m/s | 0°C | 0% | 0hPa | 0V | 00:00:00 | 00:00:00 | 00:00:00 | |
| MIELECB | 2026-09-02 00:11:40 | 50.03579 | 21.74303 | 96° | 38km/h | 17840m | 4.8m/s | 0°C | 0% | 0hPa | 0V | 00:00:00 | 00:00:00 | 00:00:00 | |
| OM5KV | 2026-09-02 00:11:38 | 50.03582 | 21.74273 | 95° | 40km/h | 17830m | 4.3m/s | 0°C | 0% | 0hPa | 0V | 00:00:00 | 00:00:00 | 00:00:00 | |
| AKAW68 | 2026-09-02 00:11:36 | 50.03583 | 21.74238 | 94° | 46km/h | 17820m | 5.0m/s | 0°C | 0% | 0hPa | 0V | 00:00:00 | 00:00:00 | 00:00:00 | |
| MIELECB | 2026-09-02 00:11:35 | 50.03584 | 21.74220 | 99° | 46km/h | 17816m | 4.1m/s | 0°C | 0% | 0hPa | 0V | 00:00:00 | 00:00:00 | 00:00:00 | |
| SQ9PSP-11 | 2026-09-02 00:11:34 | 50.03585 | 21.74202 | 99° | 42km/h | 17812m | 5.5m/s | 0°C | 0% | 0hPa | 0V | 00:00:00 | 00:00:00 | 00:00:00 | |
| OM5KV | 2026-09-02 00:11:32 | 50.03589 | 21.74173 | 100° | 37km/h | 17802m | 3.8m/s | 0°C | 0% | 0hPa | 0V | 00:00:00 | 00:00:00 | 00:00:00 | |
| MIELECB | 2026-09-02 00:11:30 | 50.03589 | 21.74143 | 89° | 42km/h | 17794m | 5.3m/s | 0°C | 0% | 0hPa | 0V | 00:00:00 | 00:00:00 | 00:00:00 | |
| OM5KV | 2026-09-02 00:11:27 | 50.03590 | 21.74090 | 99° | 42km/h | 17780m | 5.2m/s | 0°C | 0% | 0hPa | 0V | 00:00:00 | 00:00:00 | 00:00:00 | |
| SP9KGR-15 | 2026-09-02 00:11:26 | 50.03591 | 21.74074 | 97° | 40km/h | 17775m | 5.6m/s | 0°C | 0% | 0hPa | 0V | 00:00:00 | 00:00:00 | 00:00:00 | |
| MIELECB | 2026-09-02 00:11:24 | 50.03592 | 21.74040 | 91° | 42km/h | 17764m | 5.1m/s | 0°C | 0% | 0hPa | 0V | 00:00:00 | 00:00:00 | 00:00:00 | |
| OM5KV | 2026-09-02 00:11:21 | 50.03592 | 21.73991 | 96° | 40km/h | 17750m | 4.9m/s | 0°C | 0% | 0hPa | 0V | 00:00:00 | 00:00:00 | 00:00:00 | |
| MIELECB | 2026-09-02 00:11:19 | 50.03594 | 21.73958 | 92° | 44km/h | 17740m | 4.8m/s | 0°C | 0% | 0hPa | 0V | 00:00:00 | 00:00:00 | 00:00:00 | |
| SQ9PSP-11 | 2026-09-02 00:11:18 | 50.03594 | 21.73942 | 88° | 40km/h | 17736m | 3.1m/s | 0°C | 0% | 0hPa | 0V | 00:00:00 | 00:00:00 | 00:00:00 | |
| AKAW68 | 2026-09-02 00:11:17 | 50.03592 | 21.73912 | 78° | 37km/h | 17727m | 4.5m/s | 0°C | 0% | 0hPa | 0V | 00:00:00 | 00:00:00 | 00:00:00 | |
| MIELECB | 2026-09-02 00:11:13 | 50.03586 | 21.73867 | 83° | 44km/h | 17713m | 4.5m/s | 0°C | 0% | 0hPa | 0V | 00:00:00 | 00:00:00 | 00:00:00 | |
| SP9KGR-15 | 2026-09-02 00:11:10 | 50.03584 | 21.73820 | 91° | 40km/h | 17698m | 5.1m/s | 0°C | 0% | 0hPa | 0V | 00:00:00 | 00:00:00 | 00:00:00 | |
| MIELECB | 2026-09-02 00:11:07 | 50.03584 | 21.73771 | 89° | 37km/h | 17684m | 6.1m/s | 0°C | 0% | 0hPa | 0V | 00:00:00 | 00:00:00 | 00:00:00 | |
| SQ9PSP-11 | 2026-09-02 00:11:03 | 50.03579 | 21.73709 | 86° | 47km/h | 17667m | 4.1m/s | 0°C | 0% | 0hPa | 0V | 00:00:00 | 00:00:00 | 00:00:00 | |
| MIELECB | 2026-09-02 00:11:02 | 50.03578 | 21.73690 | 85° | 46km/h | 17663m | 3.9m/s | 0°C | 0% | 0hPa | 0V | 00:00:00 | 00:00:00 | 00:00:00 | |
| AKAW682 | 2026-09-02 00:11:00 | 50.03576 | 21.73658 | 85° | 35km/h | 17652m | 4.8m/s | 0°C | 0% | 0hPa | 0V | 00:00:00 | 00:00:00 | 00:00:00 | |
| OM5KV | 2026-09-02 00:10:58 | 50.03574 | 21.73632 | 81° | 37km/h | 17642m | 4.9m/s | 0°C | 0% | 0hPa | 0V | 00:00:00 | 00:00:00 | 00:00:00 | |
| MIELECB | 2026-09-02 00:10:56 | 50.03572 | 21.73601 | 84° | 40km/h | 17633m | 5.8m/s | 0°C | 0% | 0hPa | 0V | 00:00:00 | 00:00:00 | 00:00:00 | |
| AKAW68 | 2026-09-02 00:10:55 | 50.03570 | 21.73586 | 83° | 38km/h | 17628m | 6.1m/s | 0°C | 0% | 0hPa | 0V | 00:00:00 | 00:00:00 | 00:00:00 | |
| SP9KGR-15 | 2026-09-02 00:10:53 | 50.03566 | 21.73555 | 77° | 42km/h | 17617m | 4.2m/s | 0°C | 0% | 0hPa | 0V | 00:00:00 | 00:00:00 | 00:00:00 | |
| OM5KV | 2026-09-02 00:10:52 | 50.03563 | 21.73538 | 73° | 47km/h | 17614m | 3.0m/s | 0°C | 0% | 0hPa | 0V | 00:00:00 | 00:00:00 | 00:00:00 | |
| SQ9PSP-11 | 2026-09-02 00:10:47 | 50.03545 | 21.73465 | 80° | 38km/h | 17591m | 3.8m/s | 0°C | 0% | 0hPa | 0V | 00:00:00 | 00:00:00 | 00:00:00 | |
| OM5KV | 2026-09-02 00:10:46 | 50.03543 | 21.73451 | 78° | 35km/h | 17587m | 5.4m/s | 0°C | 0% | 0hPa | 0V | 00:00:00 | 00:00:00 | 00:00:00 | |
| MIELECB | 2026-09-02 00:10:45 | 50.03541 | 21.73438 | 78° | 37km/h | 17583m | 5.4m/s | 0°C | 0% | 0hPa | 0V | 00:00:00 | 00:00:00 | 00:00:00 | |
| OM5KV | 2026-09-02 00:10:40 | 50.03527 | 21.73358 | 61° | 40km/h | 17557m | 6.0m/s | 0°C | 0% | 0hPa | 0V | 00:00:00 | 00:00:00 | 00:00:00 | |
| MIELECB | 2026-09-02 00:10:38 | 50.03519 | 21.73330 | 72° | 37km/h | 17546m | 5.9m/s | 0°C | 0% | 0hPa | 0V | 00:00:00 | 00:00:00 | 00:00:00 | |
| SP9KGR-15 | 2026-09-02 00:10:37 | 50.03516 | 21.73316 | 75° | 37km/h | 17540m | 6.3m/s | 0°C | 0% | 0hPa | 0V | 00:00:00 | 00:00:00 | 00:00:00 | |
| AKAW68 | 2026-09-02 00:10:34 | 50.03508 | 21.73278 | 64° | 37km/h | 17524m | 3.9m/s | 0°C | 0% | 0hPa | 0V | 00:00:00 | 00:00:00 | 00:00:00 | |
| SQ9PSP-11 | 2026-09-02 00:10:32 | 50.03499 | 21.73252 | 65° | 40km/h | 17516m | 5.0m/s | 0°C | 0% | 0hPa | 0V | 00:00:00 | 00:00:00 | 00:00:00 | |
| MIELECB | 2026-09-02 00:10:31 | 50.03495 | 21.73238 | 59° | 42km/h | 17511m | 4.5m/s | 0°C | 0% | 0hPa | 0V | 00:00:00 | 00:00:00 | 00:00:00 | |
| OM5KV | 2026-09-02 00:10:28 | 50.03478 | 21.73200 | 58° | 40km/h | 17498m | 5.3m/s | 0°C | 0% | 0hPa | 0V | 00:00:00 | 00:00:00 | 00:00:00 | |
| MIELECB | 2026-09-02 00:10:26 | 50.03469 | 21.73173 | 70° | 40km/h | 17491m | 3.9m/s | 0°C | 0% | 0hPa | 0V | 00:00:00 | 00:00:00 | 00:00:00 | |
| SP9KGR-15 | 2026-09-02 00:10:22 | 50.03454 | 21.73124 | 68° | 31km/h | 17470m | 5.4m/s | 0°C | 0% | 0hPa | 0V | 00:00:00 | 00:00:00 | 00:00:00 | |
| OM5KV | 2026-09-02 00:10:21 | 50.03450 | 21.73111 | 67° | 37km/h | 17466m | 4.2m/s | 0°C | 0% | 0hPa | 0V | 00:00:00 | 00:00:00 | 00:00:00 | |
| MIELECB | 2026-09-02 00:10:20 | 50.03446 | 21.73097 | 64° | 42km/h | 17462m | 5.1m/s | 0°C | 0% | 0hPa | 0V | 00:00:00 | 00:00:00 | 00:00:00 | |
| SQ9PSP-11 | 2026-09-02 00:10:17 | 50.03427 | 21.73055 | 58° | 44km/h | 17447m | 4.7m/s | 0°C | 0% | 0hPa | 0V | 00:00:00 | 00:00:00 | 00:00:00 | |
| OM5KV | 2026-09-02 00:10:15 | 50.03417 | 21.73028 | 61° | 37km/h | 17439m | 5.0m/s | 0°C | 0% | 0hPa | 0V | 00:00:00 | 00:00:00 | 00:00:00 | |
| MIELECB | 2026-09-02 00:10:14 | 50.03413 | 21.73017 | 63° | 33km/h | 17433m | 6.8m/s | 0°C | 0% | 0hPa | 0V | 00:00:00 | 00:00:00 | 00:00:00 | |
| MIELECB | 2026-09-02 00:10:09 | 50.03396 | 21.72971 | 46° | 29km/h | 17408m | 6.1m/s | 0°C | 0% | 0hPa | 0V | 00:00:00 | 00:00:00 | 00:00:00 | |
| MIELECB | 2026-09-02 00:10:02 | 50.03355 | 21.72899 | 58° | 24km/h | 17375m | 3.8m/s | 0°C | 0% | 0hPa | 0V | 00:00:00 | 00:00:00 | 00:00:00 | |
| SP9KGR-15 | 2026-09-02 00:10:01 | 50.03351 | 21.72892 | 59° | 22km/h | 17371m | 4.1m/s | 0°C | 0% | 0hPa | 0V | 00:00:00 | 00:00:00 | 00:00:00 | |
| AKAW682 | 2026-09-02 00:10:00 | 50.03348 | 21.72884 | 59° | 26km/h | 17367m | 5.6m/s | 0°C | 0% | 0hPa | 0V | 00:00:00 | 00:00:00 | 00:00:00 | |
| MIELECB | 2026-09-02 00:09:57 | 50.03332 | 21.72858 | 34° | 37km/h | 17352m | 5.4m/s | 0°C | 0% | 0hPa | 0V | 00:00:00 | 00:00:00 | 00:00:00 | |
| OM5KV | 2026-09-02 00:09:53 | 50.03305 | 21.72817 | 60° | 35km/h | 17333m | 4.9m/s | 0°C | 0% | 0hPa | 0V | 00:00:00 | 00:00:00 | 00:00:00 | |
| AKAW68 | 2026-09-02 00:09:52 | 50.03300 | 21.72806 | 51° | 31km/h | 17327m | 5.7m/s | 0°C | 0% | 0hPa | 0V | 00:00:00 | 00:00:00 | 00:00:00 | |
| MIELECB | 2026-09-02 00:09:51 | 50.03295 | 21.72797 | 46° | 29km/h | 17323m | 3.8m/s | 0°C | 0% | 0hPa | 0V | 00:00:00 | 00:00:00 | 00:00:00 | |
| OM5KV | 2026-09-02 00:09:47 | 50.03271 | 21.72759 | 43° | 35km/h | 17303m | 5.4m/s | 0°C | 0% | 0hPa | 0V | 00:00:00 | 00:00:00 | 00:00:00 | |
| MIELECB | 2026-09-02 00:09:46 | 50.03264 | 21.72751 | 33° | 33km/h | 17299m | 5.1m/s | 0°C | 0% | 0hPa | 0V | 00:00:00 | 00:00:00 | 00:00:00 | |
| SQ9PSP-11 | 2026-09-02 00:09:45 | 50.03258 | 21.72743 | 39° | 31km/h | 17295m | 4.0m/s | 0°C | 0% | 0hPa | 0V | 00:00:00 | 00:00:00 | 00:00:00 | |
| SP9KGR-15 | 2026-09-02 00:09:44 | 50.03253 | 21.72736 | 45° | 27km/h | 17290m | 4.6m/s | 0°C | 0% | 0hPa | 0V | 00:00:00 | 00:00:00 | 00:00:00 | |
| AKAW682 | 2026-09-02 00:09:40 | 50.03234 | 21.72702 | 36° | 27km/h | 17273m | 5.0m/s | 0°C | 0% | 0hPa | 0V | 00:00:00 | 00:00:00 | 00:00:00 | |
| OM5KV | 2026-09-02 00:09:35 | 50.03205 | 21.72664 | 33° | 31km/h | 17250m | 5.5m/s | 0°C | 0% | 0hPa | 0V | 00:00:00 | 00:00:00 | 00:00:00 | |
| MIELECB | 2026-09-02 00:09:34 | 50.03198 | 21.72657 | 32° | 31km/h | 17245m | 4.6m/s | 0°C | 0% | 0hPa | 0V | 00:00:00 | 00:00:00 | 00:00:00 | |
| AKAW68 | 2026-09-02 00:09:32 | 50.03188 | 21.72645 | 50° | 26km/h | 17234m | 4.1m/s | 0°C | 0% | 0hPa | 0V | 00:00:00 | 00:00:00 | 00:00:00 | |
| SP9KGR-15 | 2026-09-02 00:09:29 | 50.03169 | 21.72617 | 40° | 26km/h | 17214m | 4.6m/s | 0°C | 0% | 0hPa | 0V | 00:00:00 | 00:00:00 | 00:00:00 | |
| MIELECB | 2026-09-02 00:09:23 | 50.03149 | 21.72583 | 38° | 27km/h | 17189m | 3.9m/s | 0°C | 0% | 0hPa | 0V | 00:00:00 | 00:00:00 | 00:00:00 | |
| AKAW682 | 2026-09-02 00:09:20 | 50.03135 | 21.72558 | 66° | 29km/h | 17175m | 5.4m/s | 0°C | 0% | 0hPa | 0V | 00:00:00 | 00:00:00 | 00:00:00 | |
| MIELECB | 2026-09-02 00:09:17 | 50.03125 | 21.72533 | 53° | 22km/h | 17161m | 4.8m/s | 0°C | 0% | 0hPa | 0V | 00:00:00 | 00:00:00 | 00:00:00 | |
| SQ9PSP-11 | 2026-09-02 00:09:14 | 50.03115 | 21.72507 | 62° | 26km/h | 17145m | 4.6m/s | 0°C | 0% | 0hPa | 0V | 00:00:00 | 00:00:00 | 00:00:00 | |
| SP9KGR-15 | 2026-09-02 00:09:12 | 50.03108 | 21.72492 | 48° | 22km/h | 17135m | 4.3m/s | 0°C | 0% | 0hPa | 0V | 00:00:00 | 00:00:00 | 00:00:00 | |
| AKAW68 | 2026-09-02 00:09:11 | 50.03104 | 21.72485 | 52° | 26km/h | 17131m | 3.9m/s | 0°C | 0% | 0hPa | 0V | 00:00:00 | 00:00:00 | 00:00:00 | |
| OM5KV | 2026-09-02 00:09:10 | 50.03101 | 21.72477 | 61° | 29km/h | 17125m | 6.9m/s | 0°C | 0% | 0hPa | 0V | 00:00:00 | 00:00:00 | 00:00:00 | |
| MIELECB | 2026-09-02 00:09:06 | 50.03087 | 21.72437 | 63° | 24km/h | 17105m | 4.7m/s | 0°C | 0% | 0hPa | 0V | 00:00:00 | 00:00:00 | 00:00:00 | |
| MIELECB | 2026-09-02 00:09:00 | 50.03076 | 21.72380 | 53° | 24km/h | 17074m | 4.1m/s | 0°C | 0% | 0hPa | 0V | 00:00:00 | 00:00:00 | 00:00:00 | |
| AKAW682 | 2026-09-02 00:08:59 | 50.03072 | 21.72373 | 55° | 24km/h | 17068m | 4.9m/s | 0°C | 0% | 0hPa | 0V | 00:00:00 | 00:00:00 | 00:00:00 | |
| SQ9PSP-11 | 2026-09-02 00:08:58 | 50.03069 | 21.72364 | 61° | 26km/h | 17064m | 5.0m/s | 0°C | 0% | 0hPa | 0V | 00:00:00 | 00:00:00 | 00:00:00 | |
| SP9KGR-15 | 2026-09-02 00:08:57 | 50.03066 | 21.72355 | 67° | 24km/h | 17059m | 4.0m/s | 0°C | 0% | 0hPa | 0V | 00:00:00 | 00:00:00 | 00:00:00 | |
| MIELECB | 2026-09-02 00:08:54 | 50.03064 | 21.72330 | 104° | 29km/h | 17043m | 4.6m/s | 0°C | 0% | 0hPa | 0V | 00:00:00 | 00:00:00 | 00:00:00 | |
| OM5KV | 2026-09-02 00:08:53 | 50.03065 | 21.72318 | 99° | 33km/h | 17038m | 4.9m/s | 0°C | 0% | 0hPa | 0V | 00:00:00 | 00:00:00 | 00:00:00 | |
| AKAW68 | 2026-09-02 00:08:50 | 50.03065 | 21.72284 | 60° | 24km/h | 17024m | 4.8m/s | 0°C | 0% | 0hPa | 0V | 00:00:00 | 00:00:00 | 00:00:00 | |
| MIELECB | 2026-09-02 00:08:49 | 50.03062 | 21.72277 | 45° | 24km/h | 17019m | 4.7m/s | 0°C | 0% | 0hPa | 0V | 00:00:00 | 00:00:00 | 00:00:00 | |
| MIELECB | 2026-09-02 00:08:43 | 50.03053 | 21.72234 | 107° | 24km/h | 16993m | 4.6m/s | 0°C | 0% | 0hPa | 0V | 00:00:00 | 00:00:00 | 00:00:00 | |
| OM5KV | 2026-09-02 00:08:42 | 50.03054 | 21.72224 | 100° | 31km/h | 16987m | 6.2m/s | 0°C | 0% | 0hPa | 0V | 00:00:00 | 00:00:00 | 00:00:00 | |
| SP9KGR-15 | 2026-09-02 00:08:41 | 50.03055 | 21.72211 | 84° | 35km/h | 16982m | 4.6m/s | 0°C | 0% | 0hPa | 0V | 00:00:00 | 00:00:00 | 00:00:00 | |
| MIELECB | 2026-09-02 00:08:38 | 50.03045 | 21.72180 | 38° | 24km/h | 16967m | 5.0m/s | 0°C | 0% | 0hPa | 0V | 00:00:00 | 00:00:00 | 00:00:00 | |
| OM5KV | 2026-09-02 00:08:36 | 50.03036 | 21.72170 | 52° | 18km/h | 16957m | 4.8m/s | 0°C | 0% | 0hPa | 0V | 00:00:00 | 00:00:00 | 00:00:00 | |
| MIELECB | 2026-09-02 00:08:32 | 50.03043 | 21.72139 | 118° | 26km/h | 16937m | 3.1m/s | 0°C | 0% | 0hPa | 0V | 00:00:00 | 00:00:00 | 00:00:00 | |
| AKAW68 | 2026-09-02 00:08:30 | 50.03045 | 21.72120 | 71° | 26km/h | 16927m | 6.4m/s | 0°C | 0% | 0hPa | 0V | 00:00:00 | 00:00:00 | 00:00:00 | |
| MIELECB | 2026-09-02 00:08:26 | 50.03033 | 21.72090 | 90° | 18km/h | 16908m | 5.7m/s | 0°C | 0% | 0hPa | 0V | 00:00:00 | 00:00:00 | 00:00:00 | |
| OM5KV | 2026-09-02 00:08:25 | 50.03034 | 21.72082 | 105° | 26km/h | 16902m | 6.3m/s | 0°C | 0% | 0hPa | 0V | 00:00:00 | 00:00:00 | 00:00:00 | |
| SP9KGR-15 | 2026-09-02 00:08:22 | 50.03042 | 21.72047 | 108° | 26km/h | 16886m | 6.7m/s | 0°C | 0% | 0hPa | 0V | 00:00:00 | 00:00:00 | 00:00:00 | |
| MIELECB | 2026-09-02 00:08:20 | 50.03043 | 21.72030 | 87° | 20km/h | 16874m | 5.7m/s | 0°C | 0% | 0hPa | 0V | 00:00:00 | 00:00:00 | 00:00:00 | |
| OM5KV | 2026-09-02 00:08:19 | 50.03043 | 21.72012 | 100° | 27km/h | 16862m | 4.9m/s | 0°C | 0% | 0hPa | 0V | 00:00:00 | 00:00:00 | 00:00:00 | |
| AKAW682 | 2026-09-02 00:08:17 | 50.03044 | 21.72002 | 104° | 26km/h | 16858m | 5.1m/s | 0°C | 0% | 0hPa | 0V | 00:00:00 | 00:00:00 | 00:00:00 | |
| MIELECB | 2026-09-02 00:08:15 | 50.03046 | 21.71984 | 103° | 27km/h | 16848m | 4.5m/s | 0°C | 0% | 0hPa | 0V | 00:00:00 | 00:00:00 | 00:00:00 | |
| OM5KV | 2026-09-02 00:08:12 | 50.03053 | 21.71949 | 110° | 33km/h | 16832m | 3.8m/s | 0°C | 0% | 0hPa | 0V | 00:00:00 | 00:00:00 | 00:00:00 | |
| MIELECB | 2026-09-02 00:08:08 | 50.03064 | 21.71910 | 124° | 27km/h | 16811m | 6.8m/s | 0°C | 0% | 0hPa | 0V | 00:00:00 | 00:00:00 | 00:00:00 | |
| SP9KGR-15 | 2026-09-02 00:08:07 | 50.03068 | 21.71901 | 132° | 29km/h | 16805m | 4.4m/s | 0°C | 0% | 0hPa | 0V | 00:00:00 | 00:00:00 | 00:00:00 | |
| OM5KV | 2026-09-02 00:08:06 | 50.03073 | 21.71893 | 131° | 29km/h | 16800m | 6.3m/s | 0°C | 0% | 0hPa | 0V | 00:00:00 | 00:00:00 | 00:00:00 | |
| MIELECB | 2026-09-02 00:08:02 | 50.03086 | 21.71842 | 101° | 44km/h | 16778m | 5.2m/s | 0°C | 0% | 0hPa | 0V | 00:00:00 | 00:00:00 | 00:00:00 | |
| OM5KV | 2026-09-02 00:08:00 | 50.03087 | 21.71812 | 87° | 29km/h | 16767m | 2.4m/s | 0°C | 0% | 0hPa | 0V | 00:00:00 | 00:00:00 | 00:00:00 | |
| SQ9PSP-11 | 2026-09-02 00:07:56 | 50.03097 | 21.71775 | 132° | 27km/h | 16750m | 5.1m/s | 0°C | 0% | 0hPa | 0V | 00:00:00 | 00:00:00 | 00:00:00 | |
| MIELECB | 2026-09-02 00:07:50 | 50.03110 | 21.71686 | 95° | 44km/h | 16720m | 4.9m/s | 0°C | 0% | 0hPa | 0V | 00:00:00 | 00:00:00 | 00:00:00 | |
| SP9KGR-15 | 2026-09-02 00:07:49 | 50.03112 | 21.71672 | 104° | 29km/h | 16715m | 5.3m/s | 0°C | 0% | 0hPa | 0V | 00:00:00 | 00:00:00 | 00:00:00 | |
| AKAW68 | 2026-09-02 00:07:47 | 50.03118 | 21.71654 | 136° | 31km/h | 16703m | 7.2m/s | 0°C | 0% | 0hPa | 0V | 00:00:00 | 00:00:00 | 00:00:00 | |
| OM5KV | 2026-09-02 00:07:46 | 50.03124 | 21.71645 | 138° | 35km/h | 16697m | 3.8m/s | 0°C | 0% | 0hPa | 0V | 00:00:00 | 00:00:00 | 00:00:00 | |
| MIELECB | 2026-09-02 00:07:45 | 50.03130 | 21.71635 | 135° | 33km/h | 16693m | 4.7m/s | 0°C | 0% | 0hPa | 0V | 00:00:00 | 00:00:00 | 00:00:00 | |
| SQ9PSP-11 | 2026-09-02 00:07:41 | 50.03140 | 21.71578 | 98° | 49km/h | 16670m | 6.8m/s | 0°C | 0% | 0hPa | 0V | 00:00:00 | 00:00:00 | 00:00:00 | |
| MIELECB | 2026-09-02 00:07:40 | 50.03142 | 21.71560 | 102° | 46km/h | 16663m | 4.7m/s | 0°C | 0% | 0hPa | 0V | 00:00:00 | 00:00:00 | 00:00:00 | |
| AKAW682 | 2026-09-02 00:07:35 | 50.03149 | 21.71492 | 92° | 31km/h | 16636m | 5.8m/s | 0°C | 0% | 0hPa | 0V | 00:00:00 | 00:00:00 | 00:00:00 | |
| SP9KGR-15 | 2026-09-02 00:07:34 | 50.03150 | 21.71480 | 100° | 31km/h | 16630m | 7.2m/s | 0°C | 0% | 0hPa | 0V | 00:00:00 | 00:00:00 | 00:00:00 | |
| MIELECB | 2026-09-02 00:07:33 | 50.03152 | 21.71466 | 111° | 40km/h | 16623m | 6.7m/s | 0°C | 0% | 0hPa | 0V | 00:00:00 | 00:00:00 | 00:00:00 | |
| MIELECB | 2026-09-02 00:07:28 | 50.03165 | 21.71380 | 102° | 42km/h | 16598m | 5.8m/s | 0°C | 0% | 0hPa | 0V | 00:00:00 | 00:00:00 | 00:00:00 | |
| AKAW68 | 2026-09-02 00:07:26 | 50.03171 | 21.71345 | 105° | 47km/h | 16589m | 3.6m/s | 0°C | 0% | 0hPa | 0V | 00:00:00 | 00:00:00 | 00:00:00 | |
| SQ9PSP-11 | 2026-09-02 00:07:25 | 50.03174 | 21.71326 | 100° | 51km/h | 16585m | 4.8m/s | 0°C | 0% | 0hPa | 0V | 00:00:00 | 00:00:00 | 00:00:00 | |
| OM5KV | 2026-09-02 00:07:24 | 50.03175 | 21.71306 | 95° | 49km/h | 16580m | 5.7m/s | 0°C | 0% | 0hPa | 0V | 00:00:00 | 00:00:00 | 00:00:00 | |
| MIELECB | 2026-09-02 00:07:22 | 50.03177 | 21.71266 | 96° | 47km/h | 16570m | 3.8m/s | 0°C | 0% | 0hPa | 0V | 00:00:00 | 00:00:00 | 00:00:00 | |
| SP9KGR-15 | 2026-09-02 00:07:18 | 50.03184 | 21.71194 | 96° | 44km/h | 16552m | 3.7m/s | 0°C | 0% | 0hPa | 0V | 00:00:00 | 00:00:00 | 00:00:00 | |
| MIELECB | 2026-09-02 00:07:15 | 50.03190 | 21.71141 | 99° | 51km/h | 16540m | 4.1m/s | 0°C | 0% | 0hPa | 0V | 00:00:00 | 00:00:00 | 00:00:00 | |
| OM5KV | 2026-09-02 00:07:14 | 50.03191 | 21.71120 | 91° | 53km/h | 16535m | 6.4m/s | 0°C | 0% | 0hPa | 0V | 00:00:00 | 00:00:00 | 00:00:00 | |
| SQ9PSP-11 | 2026-09-02 00:07:10 | 50.03191 | 21.71045 | 96° | 46km/h | 16517m | 3.3m/s | 0°C | 0% | 0hPa | 0V | 00:00:00 | 00:00:00 | 00:00:00 | |
| MIELECB | 2026-09-02 00:07:09 | 50.03192 | 21.71027 | 90° | 46km/h | 16514m | 5.0m/s | 0°C | 0% | 0hPa | 0V | 00:00:00 | 00:00:00 | 00:00:00 | |
| AKAW68 | 2026-09-02 00:07:05 | 50.03194 | 21.70949 | 97° | 49km/h | 16495m | 5.0m/s | 0°C | 0% | 0hPa | 0V | 00:00:00 | 00:00:00 | 00:00:00 | |
| OM5KV | 2026-09-02 00:07:04 | 50.03195 | 21.70929 | 90° | 57km/h | 16490m | 5.5m/s | 0°C | 0% | 0hPa | 0V | 00:00:00 | 00:00:00 | 00:00:00 | |
| MIELECB | 2026-09-02 00:07:03 | 50.03194 | 21.70907 | 85° | 55km/h | 16485m | 4.5m/s | 0°C | 0% | 0hPa | 0V | 00:00:00 | 00:00:00 | 00:00:00 | |
| MIELECB | 2026-09-02 00:06:55 | 50.03198 | 21.70752 | 91° | 42km/h | 16451m | 3.4m/s | 0°C | 0% | 0hPa | 0V | 00:00:00 | 00:00:00 | 00:00:00 | |
| AKAW682 | 2026-09-02 00:06:54 | 50.03198 | 21.70735 | 91° | 46km/h | 16447m | 5.7m/s | 0°C | 0% | 0hPa | 0V | 00:00:00 | 00:00:00 | 00:00:00 | |
| MIELECB | 2026-09-02 00:06:49 | 50.03197 | 21.70642 | 94° | 44km/h | 16424m | 4.8m/s | 0°C | 0% | 0hPa | 0V | 00:00:00 | 00:00:00 | 00:00:00 | |
| SP9KGR-15 | 2026-09-02 00:06:47 | 50.03197 | 21.70606 | 89° | 44km/h | 16414m | 4.5m/s | 0°C | 0% | 0hPa | 0V | 00:00:00 | 00:00:00 | 00:00:00 | |
| OM5KV | 2026-09-02 00:06:45 | 50.03198 | 21.70572 | 91° | 38km/h | 16404m | 4.1m/s | 0°C | 0% | 0hPa | 0V | 00:00:00 | 00:00:00 | 00:00:00 | |
| AKAW68 | 2026-09-02 00:06:44 | 50.03198 | 21.70557 | 94° | 42km/h | 16399m | 4.2m/s | 0°C | 0% | 0hPa | 0V | 00:00:00 | 00:00:00 | 00:00:00 | |
| MIELECB | 2026-09-02 00:06:42 | 50.03196 | 21.70524 | 83° | 46km/h | 16390m | 4.2m/s | 0°C | 0% | 0hPa | 0V | 00:00:00 | 00:00:00 | 00:00:00 | |
| SQ9PSP-11 | 2026-09-02 00:06:39 | 50.03193 | 21.70473 | 86° | 46km/h | 16375m | 4.5m/s | 0°C | 0% | 0hPa | 0V | 00:00:00 | 00:00:00 | 00:00:00 | |
| OE3JTB-15 | 2026-09-02 00:06:37 | 50.03191 | 21.70437 | 89° | 40km/h | 16368m | 4.1m/s | 0°C | 0% | 0hPa | 0V | 00:00:00 | 00:00:00 | 00:00:00 | |
| MIELECB | 2026-09-02 00:06:35 | 50.03190 | 21.70408 | 89° | 35km/h | 16359m | 3.1m/s | 0°C | 0% | 0hPa | 0V | 00:00:00 | 00:00:00 | 00:00:00 | |
| AKAW682 | 2026-09-02 00:06:34 | 50.03189 | 21.70395 | 84° | 35km/h | 16355m | 4.2m/s | 0°C | 0% | 0hPa | 0V | 00:00:00 | 00:00:00 | 00:00:00 | |
| SP9KGR-15 | 2026-09-02 00:06:31 | 50.03183 | 21.70350 | 77° | 38km/h | 16342m | 4.0m/s | 0°C | 0% | 0hPa | 0V | 00:00:00 | 00:00:00 | 00:00:00 | |
| MIELECB | 2026-09-02 00:06:30 | 50.03181 | 21.70334 | 79° | 42km/h | 16339m | 4.4m/s | 0°C | 0% | 0hPa | 0V | 00:00:00 | 00:00:00 | 00:00:00 | |
| OM5KV | 2026-09-02 00:06:29 | 50.03179 | 21.70318 | 85° | 44km/h | 16336m | 3.3m/s | 0°C | 0% | 0hPa | 0V | 00:00:00 | 00:00:00 | 00:00:00 | |
| MIELECB | 2026-09-02 00:06:24 | 50.03175 | 21.70232 | 94° | 40km/h | 16316m | 2.9m/s | 0°C | 0% | 0hPa | 0V | 00:00:00 | 00:00:00 | 00:00:00 | |
| SP9KGR-15 | 2026-09-02 00:06:15 | 50.03164 | 21.70085 | 96° | 40km/h | 16276m | 3.7m/s | 0°C | 0% | 0hPa | 0V | 00:00:00 | 00:00:00 | 00:00:00 | |
| AKAW682 | 2026-09-02 00:06:14 | 50.03165 | 21.70070 | 96° | 37km/h | 16272m | 2.6m/s | 0°C | 0% | 0hPa | 0V | 00:00:00 | 00:00:00 | 00:00:00 | |
| OM5KV | 2026-09-02 00:06:13 | 50.03165 | 21.70055 | 88° | 37km/h | 16269m | 5.0m/s | 0°C | 0% | 0hPa | 0V | 00:00:00 | 00:00:00 | 00:00:00 | |
| SQ9PSP-11 | 2026-09-02 00:06:09 | 50.03156 | 21.70001 | 69° | 37km/h | 16251m | 3.6m/s | 0°C | 0% | 0hPa | 0V | 00:00:00 | 00:00:00 | 00:00:00 | |
| OE3JTB-15 | 2026-09-02 00:06:07 | 50.03150 | 21.69966 | 81° | 47km/h | 16240m | 3.9m/s | 0°C | 0% | 0hPa | 0V | 00:00:00 | 00:00:00 | 00:00:00 | |
| MIELECB | 2026-09-02 00:06:04 | 50.03145 | 21.69911 | 85° | 37km/h | 16226m | 4.4m/s | 0°C | 0% | 0hPa | 0V | 00:00:00 | 00:00:00 | 00:00:00 | |
| OM5KV | 2026-09-02 00:05:59 | 50.03134 | 21.69845 | 84° | 38km/h | 16206m | 5.3m/s | 0°C | 0% | 0hPa | 0V | 00:00:00 | 00:00:00 | 00:00:00 | |
| SP9KGR-15 | 2026-09-02 00:05:58 | 50.03133 | 21.69830 | 90° | 40km/h | 16200m | 6.0m/s | 0°C | 0% | 0hPa | 0V | 00:00:00 | 00:00:00 | 00:00:00 | |
| SQ9PSP-11 | 2026-09-02 00:05:53 | 50.03130 | 21.69746 | 95° | 42km/h | 16175m | 5.4m/s | 0°C | 0% | 0hPa | 0V | 00:00:00 | 00:00:00 | 00:00:00 | |
| MIELECB | 2026-09-02 00:05:52 | 50.03131 | 21.69730 | 99° | 40km/h | 16171m | 2.9m/s | 0°C | 0% | 0hPa | 0V | 00:00:00 | 00:00:00 | 00:00:00 | |
| OM5KV | 2026-09-02 00:05:48 | 50.03134 | 21.69657 | 95° | 58km/h | 16152m | 6.3m/s | 0°C | 0% | 0hPa | 0V | 00:00:00 | 00:00:00 | 00:00:00 | |
| MIELECB | 2026-09-02 00:05:47 | 50.03135 | 21.69634 | 95° | 58km/h | 16147m | 3.5m/s | 0°C | 0% | 0hPa | 0V | 00:00:00 | 00:00:00 | 00:00:00 | |
| AKAW68 | 2026-09-02 00:05:43 | 50.03139 | 21.69547 | 100° | 53km/h | 16131m | 5.3m/s | 0°C | 0% | 0hPa | 0V | 00:00:00 | 00:00:00 | 00:00:00 | |
| SP9KGR-15 | 2026-09-02 00:05:42 | 50.03141 | 21.69527 | 104° | 47km/h | 16127m | 4.2m/s | 0°C | 0% | 0hPa | 0V | 00:00:00 | 00:00:00 | 00:00:00 | |
| MIELECB | 2026-09-02 00:05:41 | 50.03143 | 21.69508 | 99° | 49km/h | 16122m | 4.5m/s | 0°C | 0% | 0hPa | 0V | 00:00:00 | 00:00:00 | 00:00:00 | |
| OE3JTB-15 | 2026-09-02 00:05:38 | 50.03147 | 21.69445 | 97° | 58km/h | 16110m | 5.4m/s | 0°C | 0% | 0hPa | 0V | 00:00:00 | 00:00:00 | 00:00:00 | |
| MIELECB | 2026-09-02 00:05:36 | 50.03151 | 21.69398 | 94° | 62km/h | 16100m | 5.4m/s | 0°C | 0% | 0hPa | 0V | 00:00:00 | 00:00:00 | 00:00:00 | |
| OM5KV | 2026-09-02 00:05:33 | 50.03152 | 21.69303 | 95° | 62km/h | 16084m | 4.0m/s | 0°C | 0% | 0hPa | 0V | 00:00:00 | 00:00:00 | 00:00:00 | |
| MIELECB | 2026-09-02 00:05:30 | 50.03153 | 21.69255 | 93° | 58km/h | 16075m | 4.5m/s | 0°C | 0% | 0hPa | 0V | 00:00:00 | 00:00:00 | 00:00:00 | |
| SP9KGR-15 | 2026-09-02 00:05:27 | 50.03156 | 21.69185 | 97° | 62km/h | 16061m | 3.5m/s | 0°C | 0% | 0hPa | 0V | 00:00:00 | 00:00:00 | 00:00:00 | |
| OM5KV | 2026-09-02 00:05:26 | 50.03158 | 21.69162 | 95° | 57km/h | 16057m | 5.1m/s | 0°C | 0% | 0hPa | 0V | 00:00:00 | 00:00:00 | 00:00:00 | |
| AKAW68 | 2026-09-02 00:05:24 | 50.03158 | 21.69099 | 93° | 53km/h | 16044m | 5.5m/s | 0°C | 0% | 0hPa | 0V | 00:00:00 | 00:00:00 | 00:00:00 | |
| SQ9PSP-11 | 2026-09-02 00:05:23 | 50.03159 | 21.69078 | 97° | 58km/h | 16039m | 4.8m/s | 0°C | 0% | 0hPa | 0V | 00:00:00 | 00:00:00 | 00:00:00 | |
| OM5KV | 2026-09-02 00:05:19 | 50.03165 | 21.69011 | 95° | 53km/h | 16027m | 3.8m/s | 0°C | 0% | 0hPa | 0V | 00:00:00 | 00:00:00 | 00:00:00 | |
| MIELECB | 2026-09-02 00:05:18 | 50.03165 | 21.68991 | 95° | 53km/h | 16023m | 4.3m/s | 0°C | 0% | 0hPa | 0V | 00:00:00 | 00:00:00 | 00:00:00 | |
| OM5KV | 2026-09-02 00:05:13 | 50.03169 | 21.68880 | 89° | 62km/h | 15999m | 3.9m/s | 0°C | 0% | 0hPa | 0V | 00:00:00 | 00:00:00 | 00:00:00 | |
| AKAW682 | 2026-09-02 00:05:11 | 50.03169 | 21.68827 | 94° | 75km/h | 15990m | 3.5m/s | 0°C | 0% | 0hPa | 0V | 00:00:00 | 00:00:00 | 00:00:00 | |
| SQ9PSP-11 | 2026-09-02 00:05:08 | 50.03171 | 21.68727 | 86° | 53km/h | 15971m | 4.7m/s | 0°C | 0% | 0hPa | 0V | 00:00:00 | 00:00:00 | 00:00:00 | |
| MIELECB | 2026-09-02 00:05:03 | 50.03172 | 21.68624 | 97° | 71km/h | 15952m | 6.7m/s | 0°C | 0% | 0hPa | 0V | 00:00:00 | 00:00:00 | 00:00:00 | |
| AKAW68 | 2026-09-02 00:05:01 | 50.03177 | 21.68568 | 98° | 73km/h | 15942m | 5.2m/s | 0°C | 0% | 0hPa | 0V | 00:00:00 | 00:00:00 | 00:00:00 | |
| SP9KGR-15 | 2026-09-02 00:04:58 | 50.03171 | 21.68428 | 83° | 68km/h | 15915m | 4.4m/s | 0°C | 0% | 0hPa | 0V | 00:00:00 | 00:00:00 | 00:00:00 | |
| SQ9PSP-11 | 2026-09-02 00:04:52 | 50.03168 | 21.68283 | 91° | 66km/h | 15895m | 4.9m/s | 0°C | 0% | 0hPa | 0V | 00:00:00 | 00:00:00 | 00:00:00 | |
| OM5KV | 2026-09-02 00:04:51 | 50.03167 | 21.68258 | 87° | 66km/h | 15891m | 5.7m/s | 0°C | 0% | 0hPa | 0V | 00:00:00 | 00:00:00 | 00:00:00 | |
| MIELECB | 2026-09-02 00:04:49 | 50.03165 | 21.68231 | 82° | 69km/h | 15884m | 6.1m/s | 0°C | 0% | 0hPa | 0V | 00:00:00 | 00:00:00 | 00:00:00 | |
| MIELECB | 2026-09-02 00:04:44 | 50.03149 | 21.68062 | 81° | 73km/h | 15854m | 4.7m/s | 0°C | 0% | 0hPa | 0V | 00:00:00 | 00:00:00 | 00:00:00 | |
| AKAW68 | 2026-09-02 00:04:41 | 50.03144 | 21.68007 | 82° | 68km/h | 15844m | 5.5m/s | 0°C | 0% | 0hPa | 0V | 00:00:00 | 00:00:00 | 00:00:00 | |
| OE3JTB-15 | 2026-09-02 00:04:40 | 50.03142 | 21.67981 | 83° | 66km/h | 15840m | 4.1m/s | 0°C | 0% | 0hPa | 0V | 00:00:00 | 00:00:00 | 00:00:00 | |
| MIELECB | 2026-09-02 00:04:37 | 50.03131 | 21.67901 | 77° | 77km/h | 15828m | 2.8m/s | 0°C | 0% | 0hPa | 0V | 00:00:00 | 00:00:00 | 00:00:00 | |
| SQ9PSP-11 | 2026-09-02 00:04:36 | 50.03128 | 21.67871 | 85° | 80km/h | 15824m | 5.5m/s | 0°C | 0% | 0hPa | 0V | 00:00:00 | 00:00:00 | 00:00:00 | |
| OM5KV | 2026-09-02 00:04:35 | 50.03125 | 21.67841 | 85° | 75km/h | 15819m | 3.9m/s | 0°C | 0% | 0hPa | 0V | 00:00:00 | 00:00:00 | 00:00:00 | |
| AKAW682 | 2026-09-02 00:04:30 | 50.03115 | 21.67707 | 84° | 66km/h | 15796m | 4.4m/s | 0°C | 0% | 0hPa | 0V | 00:00:00 | 00:00:00 | 00:00:00 | |
| SP9KGR-15 | 2026-09-02 00:04:25 | 50.03101 | 21.67575 | 84° | 68km/h | 15776m | 5.1m/s | 0°C | 0% | 0hPa | 0V | 00:00:00 | 00:00:00 | 00:00:00 | |
| MIELECB | 2026-09-02 00:04:24 | 50.03099 | 21.67548 | 86° | 68km/h | 15772m | 4.2m/s | 0°C | 0% | 0hPa | 0V | 00:00:00 | 00:00:00 | 00:00:00 | |
| OM5KV | 2026-09-02 00:04:23 | 50.03097 | 21.67522 | 87° | 64km/h | 15766m | 5.9m/s | 0°C | 0% | 0hPa | 0V | 00:00:00 | 00:00:00 | 00:00:00 | |
| AKAW68 | 2026-09-02 00:04:19 | 50.03093 | 21.67434 | 90° | 53km/h | 15746m | 4.5m/s | 0°C | 0% | 0hPa | 0V | 00:00:00 | 00:00:00 | 00:00:00 | |
| MIELECB | 2026-09-02 00:04:16 | 50.03091 | 21.67369 | 84° | 64km/h | 15734m | 3.5m/s | 0°C | 0% | 0hPa | 0V | 00:00:00 | 00:00:00 | 00:00:00 | |
| OM5KV | 2026-09-02 00:04:15 | 50.03089 | 21.67344 | 85° | 69km/h | 15731m | 5.3m/s | 0°C | 0% | 0hPa | 0V | 00:00:00 | 00:00:00 | 00:00:00 | |
| OE3JTB-15 | 2026-09-02 00:04:12 | 50.03082 | 21.67243 | 84° | 68km/h | 15714m | 4.9m/s | 0°C | 0% | 0hPa | 0V | 00:00:00 | 00:00:00 | 00:00:00 | |
| SP9KGR-15 | 2026-09-02 00:04:09 | 50.03081 | 21.67201 | 92° | 53km/h | 15704m | 5.4m/s | 0°C | 0% | 0hPa | 0V | 00:00:00 | 00:00:00 | 00:00:00 | |
| SQ9PSP-11 | 2026-09-02 00:04:07 | 50.03086 | 21.67120 | 99° | 53km/h | 15687m | 4.0m/s | 0°C | 0% | 0hPa | 0V | 00:00:00 | 00:00:00 | 00:00:00 | |
| OM5KV | 2026-09-02 00:04:01 | 50.03095 | 21.66893 | 92° | 64km/h | 15644m | 4.0m/s | 0°C | 0% | 0hPa | 0V | 00:00:00 | 00:00:00 | 00:00:00 | |
| MIELECB | 2026-09-02 00:03:57 | 50.03098 | 21.66840 | 95° | 69km/h | 15634m | 4.3m/s | 0°C | 0% | 0hPa | 0V | 00:00:00 | 00:00:00 | 00:00:00 | |
| SP9KGR-15 | 2026-09-02 00:03:56 | 50.03099 | 21.66814 | 92° | 66km/h | 15630m | 5.0m/s | 0°C | 0% | 0hPa | 0V | 00:00:00 | 00:00:00 | 00:00:00 | |
| AKAW682 | 2026-09-02 00:03:54 | 50.03095 | 21.66745 | 84° | 60km/h | 15616m | 5.2m/s | 0°C | 0% | 0hPa | 0V | 00:00:00 | 00:00:00 | 00:00:00 | |
| OM5KV | 2026-09-02 00:03:53 | 50.03092 | 21.66694 | 86° | 68km/h | 15606m | 4.4m/s | 0°C | 0% | 0hPa | 0V | 00:00:00 | 00:00:00 | 00:00:00 | |
| MIELECB | 2026-09-02 00:03:48 | 50.03089 | 21.66560 | 92° | 69km/h | 15581m | 3.5m/s | 0°C | 0% | 0hPa | 0V | 00:00:00 | 00:00:00 | 00:00:00 | |
| AKAW68 | 2026-09-02 00:03:43 | 50.03080 | 21.66435 | 85° | 75km/h | 15559m | 3.7m/s | 0°C | 0% | 0hPa | 0V | 00:00:00 | 00:00:00 | 00:00:00 | |
| MIELECB | 2026-09-02 00:03:39 | 50.03077 | 21.66406 | 81° | 73km/h | 15555m | 4.4m/s | 0°C | 0% | 0hPa | 0V | 00:00:00 | 00:00:00 | 00:00:00 | |
| OM5KV | 2026-09-02 00:03:34 | 50.03072 | 21.66351 | 83° | 71km/h | 15547m | 4.1m/s | 0°C | 0% | 0hPa | 0V | 00:00:00 | 00:00:00 | 00:00:00 | |
| SQ9PSP-11 | 2026-09-02 00:03:33 | 50.03070 | 21.66322 | 87° | 77km/h | 15543m | 5.7m/s | 0°C | 0% | 0hPa | 0V | 00:00:00 | 00:00:00 | 00:00:00 | |
| SP9KGR-15 | 2026-09-02 00:03:32 | 50.03069 | 21.66292 | 89° | 78km/h | 15538m | 5.0m/s | 0°C | 0% | 0hPa | 0V | 00:00:00 | 00:00:00 | 00:00:00 | |
| OM5KV | 2026-09-02 00:03:31 | 50.03064 | 21.66201 | 81° | 71km/h | 15525m | 3.8m/s | 0°C | 0% | 0hPa | 0V | 00:00:00 | 00:00:00 | 00:00:00 | |
| MIELECB | 2026-09-02 00:03:29 | 50.03056 | 21.66116 | 88° | 75km/h | 15512m | 4.2m/s | 0°C | 0% | 0hPa | 0V | 00:00:00 | 00:00:00 | 00:00:00 | |
| OM5KV | 2026-09-02 00:03:26 | 50.03049 | 21.65968 | 89° | 71km/h | 15489m | 5.2m/s | 0°C | 0% | 0hPa | 0V | 00:00:00 | 00:00:00 | 00:00:00 | |
| MIELECB | 2026-09-02 00:03:24 | 50.03047 | 21.65940 | 87° | 69km/h | 15484m | 5.2m/s | 0°C | 0% | 0hPa | 0V | 00:00:00 | 00:00:00 | 00:00:00 | |
| SP9KGR-15 | 2026-09-02 00:03:23 | 50.03042 | 21.65862 | 86° | 68km/h | 15470m | 5.0m/s | 0°C | 0% | 0hPa | 0V | 00:00:00 | 00:00:00 | 00:00:00 | |
| MIELECB | 2026-09-02 00:03:22 | 50.03040 | 21.65808 | 87° | 71km/h | 15462m | 5.8m/s | 0°C | 0% | 0hPa | 0V | 00:00:00 | 00:00:00 | 00:00:00 | |
| AKAW682 | 2026-09-02 00:03:21 | 50.03038 | 21.65643 | 86° | 58km/h | 15433m | 5.0m/s | 0°C | 0% | 0hPa | 0V | 00:00:00 | 00:00:00 | 00:00:00 | |
| MIELECB | 2026-09-02 00:03:19 | 50.03032 | 21.65520 | 90° | 75km/h | 15411m | 4.7m/s | 0°C | 0% | 0hPa | 0V | 00:00:00 | 00:00:00 | 00:00:00 | |
| SQ9PSP-11 | 2026-09-02 00:03:17 | 50.03029 | 21.65463 | 86° | 69km/h | 15403m | 4.2m/s | 0°C | 0% | 0hPa | 0V | 00:00:00 | 00:00:00 | 00:00:00 | |
| SP9KGR-15 | 2026-09-02 00:03:14 | 50.03028 | 21.65410 | 91° | 66km/h | 15393m | 6.0m/s | 0°C | 0% | 0hPa | 0V | 00:00:00 | 00:00:00 | 00:00:00 | |
| MIELECB | 2026-09-02 00:03:13 | 50.03027 | 21.65384 | 88° | 66km/h | 15389m | 4.0m/s | 0°C | 0% | 0hPa | 0V | 00:00:00 | 00:00:00 | 00:00:00 | |
| SQ9EZE-12 | 2026-09-02 00:03:12 | 50.03024 | 21.65332 | 82° | 68km/h | 15381m | 4.0m/s | 0°C | 0% | 0hPa | 0V | 00:00:00 | 00:00:00 | 00:00:00 | |
| MIELECB | 2026-09-02 00:03:10 | 50.03021 | 21.65251 | 93° | 68km/h | 15367m | 4.2m/s | 0°C | 0% | 0hPa | 0V | 00:00:00 | 00:00:00 | 00:00:00 | |
| MIELECB | 2026-09-02 00:03:01 | 50.03023 | 21.65106 | 92° | 64km/h | 15344m | 5.0m/s | 0°C | 0% | 0hPa | 0V | 00:00:00 | 00:00:00 | 00:00:00 | |
| SQ9PSP-11 | 2026-09-02 00:02:58 | 50.03022 | 21.65052 | 87° | 75km/h | 15333m | 5.0m/s | 0°C | 0% | 0hPa | 0V | 00:00:00 | 00:00:00 | 00:00:00 | |
| SP9KGR-15 | 2026-09-02 00:02:56 | 50.03021 | 21.65023 | 89° | 71km/h | 15327m | 6.2m/s | 0°C | 0% | 0hPa | 0V | 00:00:00 | 00:00:00 | 00:00:00 | |
| MIELECB | 2026-09-02 00:02:53 | 50.03022 | 21.64969 | 95° | 64km/h | 15318m | 4.8m/s | 0°C | 0% | 0hPa | 0V | 00:00:00 | 00:00:00 | 00:00:00 | |
| MIELECB | 2026-09-02 00:02:46 | 50.03020 | 21.64851 | 89° | 64km/h | 15295m | 3.9m/s | 0°C | 0% | 0hPa | 0V | 00:00:00 | 00:00:00 | 00:00:00 | |
| AKAW68 | 2026-09-02 00:02:44 | 50.03012 | 21.64769 | 82° | 78km/h | 15280m | 3.5m/s | 0°C | 0% | 0hPa | 0V | 00:00:00 | 00:00:00 | 00:00:00 | |
| SQ9PSP-11 | 2026-09-02 00:02:41 | 50.03007 | 21.64651 | 83° | 69km/h | 15264m | 5.0m/s | 0°C | 0% | 0hPa | 0V | 00:00:00 | 00:00:00 | 00:00:00 | |
| SP9KGR-15 | 2026-09-02 00:02:40 | 50.03002 | 21.64569 | 90° | 71km/h | 15249m | 5.8m/s | 0°C | 0% | 0hPa | 0V | 00:00:00 | 00:00:00 | 00:00:00 | |
| MIELECB | 2026-09-02 00:02:39 | 50.03002 | 21.64541 | 88° | 73km/h | 15245m | 5.2m/s | 0°C | 0% | 0hPa | 0V | 00:00:00 | 00:00:00 | 00:00:00 | |
| MIELECB | 2026-09-02 00:02:30 | 50.02986 | 21.64338 | 83° | 73km/h | 15211m | 4.5m/s | 0°C | 0% | 0hPa | 0V | 00:00:00 | 00:00:00 | 00:00:00 | |
| AKAW68 | 2026-09-02 00:02:23 | 50.02975 | 21.64203 | 81° | 75km/h | 15188m | 4.7m/s | 0°C | 0% | 0hPa | 0V | 00:00:00 | 00:00:00 | 00:00:00 | |
| SP9KGR-15 | 2026-09-02 00:02:18 | 50.02966 | 21.64094 | 83° | 66km/h | 15167m | 4.5m/s | 0°C | 0% | 0hPa | 0V | 00:00:00 | 00:00:00 | 00:00:00 | |
| MIELECB | 2026-09-02 00:02:17 | 50.02964 | 21.64069 | 85° | 66km/h | 15163m | 3.9m/s | 0°C | 0% | 0hPa | 0V | 00:00:00 | 00:00:00 | 00:00:00 | |
| AKAW682 | 2026-09-02 00:02:14 | 50.02956 | 21.63940 | 78° | 73km/h | 15141m | 2.8m/s | 0°C | 0% | 0hPa | 0V | 00:00:00 | 00:00:00 | 00:00:00 | |
| MIELECB | 2026-09-02 00:02:13 | 50.02952 | 21.63913 | 80° | 68km/h | 15138m | 4.7m/s | 0°C | 0% | 0hPa | 0V | 00:00:00 | 00:00:00 | 00:00:00 | |
| SQ9PSP-11 | 2026-09-02 00:02:09 | 50.02945 | 21.63818 | 85° | 58km/h | 15120m | 4.0m/s | 0°C | 0% | 0hPa | 0V | 00:00:00 | 00:00:00 | 00:00:00 | |
| MIELECB | 2026-09-02 00:02:06 | 50.02941 | 21.63773 | 85° | 58km/h | 15112m | 5.5m/s | 0°C | 0% | 0hPa | 0V | 00:00:00 | 00:00:00 | 00:00:00 | |
| MIELECB | 2026-09-02 00:02:00 | 50.02930 | 21.63656 | 86° | 60km/h | 15091m | 4.8m/s | 0°C | 0% | 0hPa | 0V | 00:00:00 | 00:00:00 | 00:00:00 | |
| MIELECB | 2026-09-02 00:01:57 | 50.02925 | 21.63542 | 83° | 66km/h | 15069m | 4.7m/s | 0°C | 0% | 0hPa | 0V | 00:00:00 | 00:00:00 | 00:00:00 | |
| MIELECB | 2026-09-02 00:01:53 | 50.02914 | 21.63390 | 87° | 71km/h | 15041m | 5.7m/s | 0°C | 0% | 0hPa | 0V | 00:00:00 | 00:00:00 | 00:00:00 | |
| SP9KGR-15 | 2026-09-02 00:01:46 | 50.02911 | 21.63283 | 87° | 62km/h | 15023m | 3.1m/s | 0°C | 0% | 0hPa | 0V | 00:00:00 | 00:00:00 | 00:00:00 | |
| MIELECB | 2026-09-02 00:01:43 | 50.02910 | 21.63231 | 91° | 69km/h | 15015m | 3.9m/s | 0°C | 0% | 0hPa | 0V | 00:00:00 | 00:00:00 | 00:00:00 | |
| AKAW68 | 2026-09-02 00:01:42 | 50.02912 | 21.63177 | 96° | 66km/h | 15007m | 5.3m/s | 0°C | 0% | 0hPa | 0V | 00:00:00 | 00:00:00 | 00:00:00 | |
| MIELECB | 2026-09-02 00:01:40 | 50.02916 | 21.63102 | 92° | 64km/h | 14994m | 4.1m/s | 0°C | 0% | 0hPa | 0V | 00:00:00 | 00:00:00 | 00:00:00 | |
| SQ9PSP-11 | 2026-09-02 00:01:35 | 50.02917 | 21.63023 | 91° | 64km/h | 14983m | 5.7m/s | 0°C | 0% | 0hPa | 0V | 00:00:00 | 00:00:00 | 00:00:00 | |
| MIELECB | 2026-09-02 00:01:32 | 50.02916 | 21.62947 | 90° | 69km/h | 14969m | 4.6m/s | 0°C | 0% | 0hPa | 0V | 00:00:00 | 00:00:00 | 00:00:00 | |
| AKAW682 | 2026-09-02 00:01:28 | 50.02916 | 21.62894 | 92° | 68km/h | 14959m | 5.4m/s | 0°C | 0% | 0hPa | 0V | 00:00:00 | 00:00:00 | 00:00:00 | |
| SP9KGR-15 | 2026-09-02 00:01:25 | 50.02917 | 21.62842 | 92° | 66km/h | 14951m | 3.5m/s | 0°C | 0% | 0hPa | 0V | 00:00:00 | 00:00:00 | 00:00:00 | |
| MIELECB | 2026-09-02 00:01:23 | 50.02915 | 21.62787 | 85° | 73km/h | 14942m | 4.7m/s | 0°C | 0% | 0hPa | 0V | 00:00:00 | 00:00:00 | 00:00:00 | |
| OM5KV | 2026-09-02 00:01:21 | 50.02910 | 21.62732 | 81° | 68km/h | 14931m | 4.5m/s | 0°C | 0% | 0hPa | 0V | 00:00:00 | 00:00:00 | 00:00:00 | |
| AKAW68 | 2026-09-02 00:01:18 | 50.02902 | 21.62631 | 89° | 62km/h | 14912m | 6.3m/s | 0°C | 0% | 0hPa | 0V | 00:00:00 | 00:00:00 | 00:00:00 | |
| MIELECB | 2026-09-02 00:01:13 | 50.02894 | 21.62503 | 84° | 71km/h | 14891m | 5.1m/s | 0°C | 0% | 0hPa | 0V | 00:00:00 | 00:00:00 | 00:00:00 | |
| SP9KGR-15 | 2026-09-02 00:01:07 | 50.02890 | 21.62426 | 86° | 66km/h | 14877m | 3.9m/s | 0°C | 0% | 0hPa | 0V | 00:00:00 | 00:00:00 | 00:00:00 | |
| OM5KV | 2026-09-02 00:01:05 | 50.02888 | 21.62400 | 86° | 66km/h | 14873m | 3.5m/s | 0°C | 0% | 0hPa | 0V | 00:00:00 | 00:00:00 | 00:00:00 | |
| MIELECB | 2026-09-02 00:00:58 | 50.02880 | 21.62196 | 84° | 57km/h | 14838m | 4.6m/s | 0°C | 0% | 0hPa | 0V | 00:00:00 | 00:00:00 | 00:00:00 | |
| AKAW68 | 2026-09-02 00:00:52 | 50.02874 | 21.62093 | 85° | 73km/h | 14819m | 6.3m/s | 0°C | 0% | 0hPa | 0V | 00:00:00 | 00:00:00 | 00:00:00 | |
| SP9KGR-15 | 2026-09-02 00:00:50 | 50.02869 | 21.62010 | 84° | 71km/h | 14806m | 6.0m/s | 0°C | 0% | 0hPa | 0V | 00:00:00 | 00:00:00 | 00:00:00 | |
| MIELECB | 2026-09-02 00:00:48 | 50.02861 | 21.61877 | 85° | 69km/h | 14783m | 5.8m/s | 0°C | 0% | 0hPa | 0V | 00:00:00 | 00:00:00 | 00:00:00 | |
| SQ9EZE-12 | 2026-09-02 00:00:46 | 50.02857 | 21.61796 | 87° | 71km/h | 14768m | 3.5m/s | 0°C | 0% | 0hPa | 0V | 00:00:00 | 00:00:00 | 00:00:00 | |
| MIELECB | 2026-09-02 00:00:40 | 50.02854 | 21.61740 | 88° | 82km/h | 14761m | 4.6m/s | 0°C | 0% | 0hPa | 0V | 00:00:00 | 00:00:00 | 00:00:00 | |
| AKAW68 | 2026-09-02 00:00:36 | 50.02837 | 21.61527 | 83° | 66km/h | 14725m | 4.3m/s | 0°C | 0% | 0hPa | 0V | 00:00:00 | 00:00:00 | 00:00:00 | |
| MIELECB | 2026-09-02 00:00:32 | 50.02829 | 21.61418 | 86° | 68km/h | 14707m | 6.0m/s | 0°C | 0% | 0hPa | 0V | 00:00:00 | 00:00:00 | 00:00:00 | |
| SQ9PSP-11 | 2026-09-02 00:00:29 | 50.02827 | 21.61369 | 83° | 62km/h | 14697m | 5.2m/s | 0°C | 0% | 0hPa | 0V | 00:00:00 | 00:00:00 | 00:00:00 | |
| MIELECB | 2026-09-02 00:00:27 | 50.02818 | 21.61265 | 89° | 69km/h | 14680m | 3.4m/s | 0°C | 0% | 0hPa | 0V | 00:00:00 | 00:00:00 | 00:00:00 | |
| MIELECB | 2026-09-02 00:00:21 | 50.02810 | 21.61116 | 81° | 66km/h | 14654m | 5.5m/s | 0°C | 0% | 0hPa | 0V | 00:00:00 | 00:00:00 | 00:00:00 | |
| MIELECB | 2026-09-02 00:00:14 | 50.02804 | 21.61002 | 86° | 57km/h | 14633m | 5.1m/s | 0°C | 0% | 0hPa | 0V | 00:00:00 | 00:00:00 | 00:00:00 | |
| SQ9PSP-11 | 2026-09-02 00:00:13 | 50.02803 | 21.60979 | 86° | 57km/h | 14629m | 4.1m/s | 0°C | 0% | 0hPa | 0V | 00:00:00 | 00:00:00 | 00:00:00 | |
| MIELECB | 2026-09-02 00:00:06 | 50.02797 | 21.60883 | 81° | 64km/h | 14611m | 7.3m/s | 0°C | 0% | 0hPa | 0V | 00:00:00 | 00:00:00 | 00:00:00 | |
| AKAW682 | 2026-09-02 00:00:01 | 50.02786 | 21.60781 | 88° | 66km/h | 14591m | 3.7m/s | 0°C | 0% | 0hPa | 0V | 00:00:00 | 00:00:00 | 00:00:00 | |
| MIELECB | 2026-09-02 00:00:00 | 50.02785 | 21.60730 | 85° | 64km/h | 14582m | 4.5m/s | 0°C | 0% | 0hPa | 0V | 00:00:00 | 00:00:00 | 00:00:00 | |
| MIELECB | 2026-09-01 23:59:54 | 50.02773 | 21.60596 | 79° | 68km/h | 14561m | 3.2m/s | 0°C | 0% | 0hPa | 0V | 00:00:00 | 00:00:00 | 00:00:00 | |
| SQ9PSP-11 | 2026-09-01 23:59:53 | 50.02771 | 21.60570 | 84° | 64km/h | 14558m | 2.7m/s | 0°C | 0% | 0hPa | 0V | 00:00:00 | 00:00:00 | 00:00:00 | |
| AKAW68 | 2026-09-01 23:59:49 | 50.02765 | 21.60457 | 82° | 77km/h | 14540m | 6.0m/s | 0°C | 0% | 0hPa | 0V | 00:00:00 | 00:00:00 | 00:00:00 | |
| MIELECB | 2026-09-01 23:59:48 | 50.02761 | 21.60427 | 80° | 78km/h | 14535m | 4.7m/s | 0°C | 0% | 0hPa | 0V | 00:00:00 | 00:00:00 | 00:00:00 | |
| OM5KV | 2026-09-01 23:59:47 | 50.02758 | 21.60397 | 80° | 77km/h | 14531m | 4.7m/s | 0°C | 0% | 0hPa | 0V | 00:00:00 | 00:00:00 | 00:00:00 | |
| MIELECB | 2026-09-01 23:59:42 | 50.02749 | 21.60258 | 83° | 66km/h | 14509m | 4.4m/s | 0°C | 0% | 0hPa | 0V | 00:00:00 | 00:00:00 | 00:00:00 | |
| AKAW682 | 2026-09-01 23:59:41 | 50.02747 | 21.60232 | 84° | 71km/h | 14505m | 5.7m/s | 0°C | 0% | 0hPa | 0V | 00:00:00 | 00:00:00 | 00:00:00 | |
| SQ9PSP-11 | 2026-09-01 23:59:38 | 50.02738 | 21.60144 | 80° | 75km/h | 14491m | 3.9m/s | 0°C | 0% | 0hPa | 0V | 00:00:00 | 00:00:00 | 00:00:00 | |
| MIELECB | 2026-09-01 23:59:37 | 50.02735 | 21.60115 | 85° | 75km/h | 14488m | 3.5m/s | 0°C | 0% | 0hPa | 0V | 00:00:00 | 00:00:00 | 00:00:00 | |
| MIELECB | 2026-09-01 23:59:31 | 50.02732 | 21.59942 | 84° | 78km/h | 14459m | 4.0m/s | 0°C | 0% | 0hPa | 0V | 00:00:00 | 00:00:00 | 00:00:00 | |
| AKAW68 | 2026-09-01 23:59:29 | 50.02726 | 21.59881 | 80° | 77km/h | 14450m | 5.5m/s | 0°C | 0% | 0hPa | 0V | 00:00:00 | 00:00:00 | 00:00:00 | |
| MIELECB | 2026-09-01 23:59:26 | 50.02719 | 21.59796 | 89° | 77km/h | 14436m | 5.5m/s | 0°C | 0% | 0hPa | 0V | 00:00:00 | 00:00:00 | 00:00:00 | |
| SQ9PSP-11 | 2026-09-01 23:59:23 | 50.02718 | 21.59666 | 89° | 78km/h | 14414m | 3.8m/s | 0°C | 0% | 0hPa | 0V | 00:00:00 | 00:00:00 | 00:00:00 | |
| MIELECB | 2026-09-01 23:59:20 | 50.02713 | 21.59606 | 80° | 80km/h | 14408m | 5.0m/s | 0°C | 0% | 0hPa | 0V | 00:00:00 | 00:00:00 | 00:00:00 | |
| MIELECB | 2026-09-01 23:59:14 | 50.02692 | 21.59403 | 87° | 78km/h | 14377m | 7.1m/s | 0°C | 0% | 0hPa | 0V | 00:00:00 | 00:00:00 | 00:00:00 | |
| AKAW68 | 2026-09-01 23:59:09 | 50.02674 | 21.59246 | 80° | 82km/h | 14353m | 5.2m/s | 0°C | 0% | 0hPa | 0V | 00:00:00 | 00:00:00 | 00:00:00 | |
| MIELECB | 2026-09-01 23:59:08 | 50.02671 | 21.59212 | 83° | 91km/h | 14348m | 7.5m/s | 0°C | 0% | 0hPa | 0V | 00:00:00 | 00:00:00 | 00:00:00 | |
| SQ9PSP-11 | 2026-09-01 23:59:07 | 50.02668 | 21.59176 | 84° | 93km/h | 14340m | 5.5m/s | 0°C | 0% | 0hPa | 0V | 00:00:00 | 00:00:00 | 00:00:00 | |
| MIELECB | 2026-09-01 23:59:03 | 50.02650 | 21.59035 | 74° | 88km/h | 14319m | 3.5m/s | 0°C | 0% | 0hPa | 0V | 00:00:00 | 00:00:00 | 00:00:00 | |
| AKAW682 | 2026-09-01 23:58:59 | 50.02625 | 21.58904 | 73° | 93km/h | 14296m | 3.8m/s | 0°C | 0% | 0hPa | 0V | 00:00:00 | 00:00:00 | 00:00:00 | |
| MIELECB | 2026-09-01 23:58:57 | 50.02612 | 21.58834 | 79° | 89km/h | 14288m | 3.2m/s | 0°C | 0% | 0hPa | 0V | 00:00:00 | 00:00:00 | 00:00:00 | |
| SQ9PSP-11 | 2026-09-01 23:58:52 | 50.02579 | 21.58666 | 69° | 93km/h | 14259m | 3.4m/s | 0°C | 0% | 0hPa | 0V | 00:00:00 | 00:00:00 | 00:00:00 | |
| MIELECB | 2026-09-01 23:58:51 | 50.02571 | 21.58631 | 73° | 100km/h | 14255m | 5.3m/s | 0°C | 0% | 0hPa | 0V | 00:00:00 | 00:00:00 | 00:00:00 | |
| AKAW68 | 2026-09-01 23:58:48 | 50.02548 | 21.58519 | 76° | 104km/h | 14238m | 6.8m/s | 0°C | 0% | 0hPa | 0V | 00:00:00 | 00:00:00 | 00:00:00 | |
| MIELECB | 2026-09-01 23:58:46 | 50.02538 | 21.58441 | 81° | 99km/h | 14229m | 5.9m/s | 0°C | 0% | 0hPa | 0V | 00:00:00 | 00:00:00 | 00:00:00 | |
| MIELECB | 2026-09-01 23:58:40 | 50.02485 | 21.58233 | 66° | 99km/h | 14194m | 5.3m/s | 0°C | 0% | 0hPa | 0V | 00:00:00 | 00:00:00 | 00:00:00 | |
| AKAW682 | 2026-09-01 23:58:39 | 50.02476 | 21.58200 | 69° | 89km/h | 14190m | 2.9m/s | 0°C | 0% | 0hPa | 0V | 00:00:00 | 00:00:00 | 00:00:00 | |
| SQ9PSP-11 | 2026-09-01 23:58:37 | 50.02462 | 21.58134 | 75° | 89km/h | 14180m | 8.0m/s | 0°C | 0% | 0hPa | 0V | 00:00:00 | 00:00:00 | 00:00:00 | |
| MIELECB | 2026-09-01 23:58:35 | 50.02448 | 21.58066 | 70° | 91km/h | 14166m | 7.4m/s | 0°C | 0% | 0hPa | 0V | 00:00:00 | 00:00:00 | 00:00:00 | |
| SQ9EZE-12 | 2026-09-01 23:58:33 | 50.02428 | 21.58000 | 63° | 93km/h | 14152m | 4.3m/s | 0°C | 0% | 0hPa | 0V | 00:00:00 | 00:00:00 | 00:00:00 | |
| MIELECB | 2026-09-01 23:58:29 | 50.02401 | 21.57873 | 82° | 82km/h | 14132m | 3.4m/s | 0°C | 0% | 0hPa | 0V | 00:00:00 | 00:00:00 | 00:00:00 | |
| AKAW68 | 2026-09-01 23:58:28 | 50.02396 | 21.57841 | 78° | 86km/h | 14127m | 5.0m/s | 0°C | 0% | 0hPa | 0V | 00:00:00 | 00:00:00 | 00:00:00 | |
| MIELECB | 2026-09-01 23:58:24 | 50.02365 | 21.57712 | 70° | 89km/h | 14106m | 4.0m/s | 0°C | 0% | 0hPa | 0V | 00:00:00 | 00:00:00 | 00:00:00 | |
| SQ9PSP-11 | 2026-09-01 23:58:21 | 50.02351 | 21.57618 | 80° | 77km/h | 14087m | 6.1m/s | 0°C | 0% | 0hPa | 0V | 00:00:00 | 00:00:00 | 00:00:00 | |
| MIELECB | 2026-09-01 23:58:18 | 50.02330 | 21.57532 | 62° | 82km/h | 14074m | 3.6m/s | 0°C | 0% | 0hPa | 0V | 00:00:00 | 00:00:00 | 00:00:00 | |
| MIELECB | 2026-09-01 23:58:13 | 50.02290 | 21.57397 | 78° | 78km/h | 14048m | 5.2m/s | 0°C | 0% | 0hPa | 0V | 00:00:00 | 00:00:00 | 00:00:00 | |
| MIELECB | 2026-09-01 23:58:08 | 50.02257 | 21.57256 | 67° | 84km/h | 14015m | 7.9m/s | 0°C | 0% | 0hPa | 0V | 00:00:00 | 00:00:00 | 00:00:00 | |
| AKAW68 | 2026-09-01 23:58:07 | 50.02249 | 21.57227 | 71° | 80km/h | 14009m | 4.5m/s | 0°C | 0% | 0hPa | 0V | 00:00:00 | 00:00:00 | 00:00:00 | |
| SQ9PSP-11 | 2026-09-01 23:58:06 | 50.02242 | 21.57198 | 70° | 78km/h | 14004m | 4.0m/s | 0°C | 0% | 0hPa | 0V | 00:00:00 | 00:00:00 | 00:00:00 | |
| MIELECB | 2026-09-01 23:58:02 | 50.02219 | 21.57090 | 75° | 69km/h | 13982m | 8.0m/s | 0°C | 0% | 0hPa | 0V | 00:00:00 | 00:00:00 | 00:00:00 | |
| MIELECB | 2026-09-01 23:57:56 | 50.02182 | 21.56950 | 66° | 64km/h | 13952m | 3.8m/s | 0°C | 0% | 0hPa | 0V | 00:00:00 | 00:00:00 | 00:00:00 | |
| AKAW682 | 2026-09-01 23:57:53 | 50.02168 | 21.56882 | 79° | 57km/h | 13938m | 5.5m/s | 0°C | 0% | 0hPa | 0V | 00:00:00 | 00:00:00 | 00:00:00 | |
| SQ9PSP-11 | 2026-09-01 23:57:50 | 50.02153 | 21.56812 | 71° | 62km/h | 13920m | 7.8m/s | 0°C | 0% | 0hPa | 0V | 00:00:00 | 00:00:00 | 00:00:00 | |
| AKAW68 | 2026-09-01 23:57:47 | 50.02137 | 21.56746 | 72° | 62km/h | 13901m | 3.5m/s | 0°C | 0% | 0hPa | 0V | 00:00:00 | 00:00:00 | 00:00:00 | |
| MIELECB | 2026-09-01 23:57:44 | 50.02125 | 21.56679 | 81° | 55km/h | 13888m | 5.7m/s | 0°C | 0% | 0hPa | 0V | 00:00:00 | 00:00:00 | 00:00:00 | |
| MIELECB | 2026-09-01 23:57:38 | 50.02101 | 21.56541 | 70° | 55km/h | 13855m | 5.6m/s | 0°C | 0% | 0hPa | 0V | 00:00:00 | 00:00:00 | 00:00:00 | |
| SP9KGR-15 | 2026-09-01 23:57:35 | 50.02090 | 21.56481 | 82° | 51km/h | 13841m | 5.4m/s | 0°C | 0% | 0hPa | 0V | 00:00:00 | 00:00:00 | 00:00:00 | |
| SQ9PSP-11 | 2026-09-01 23:57:34 | 50.02088 | 21.56460 | 85° | 53km/h | 13835m | 6.3m/s | 0°C | 0% | 0hPa | 0V | 00:00:00 | 00:00:00 | 00:00:00 | |
| MIELECB | 2026-09-01 23:57:33 | 50.02087 | 21.56440 | 86° | 51km/h | 13829m | 3.9m/s | 0°C | 0% | 0hPa | 0V | 00:00:00 | 00:00:00 | 00:00:00 | |
| AKAW682 | 2026-09-01 23:57:32 | 50.02086 | 21.56418 | 87° | 60km/h | 13825m | 4.7m/s | 0°C | 0% | 0hPa | 0V | 00:00:00 | 00:00:00 | 00:00:00 | |
| AKAW68 | 2026-09-01 23:57:27 | 50.02075 | 21.56300 | 76° | 55km/h | 13801m | 4.7m/s | 0°C | 0% | 0hPa | 0V | 00:00:00 | 00:00:00 | 00:00:00 | |
| MIELECB | 2026-09-01 23:57:21 | 50.02062 | 21.56170 | 85° | 60km/h | 13771m | 4.7m/s | 0°C | 0% | 0hPa | 0V | 00:00:00 | 00:00:00 | 00:00:00 | |
| SQ9PSP-11 | 2026-09-01 23:57:19 | 50.02057 | 21.56122 | 76° | 58km/h | 13760m | 3.7m/s | 0°C | 0% | 0hPa | 0V | 00:00:00 | 00:00:00 | 00:00:00 | |
| MIELECB | 2026-09-01 23:57:15 | 50.02049 | 21.56030 | 88° | 62km/h | 13740m | 4.8m/s | 0°C | 0% | 0hPa | 0V | 00:00:00 | 00:00:00 | 00:00:00 | |
| AKAW682 | 2026-09-01 23:57:12 | 50.02045 | 21.55935 | 90° | 58km/h | 13716m | 5.5m/s | 0°C | 0% | 0hPa | 0V | 00:00:00 | 00:00:00 | 00:00:00 | |
| MIELECB | 2026-09-01 23:57:10 | 50.02044 | 21.55912 | 88° | 60km/h | 13710m | 6.6m/s | 0°C | 0% | 0hPa | 0V | 00:00:00 | 00:00:00 | 00:00:00 | |
| SQ9EZE-12 | 2026-09-01 23:57:09 | 50.02043 | 21.55887 | 87° | 66km/h | 13704m | 4.0m/s | 0°C | 0% | 0hPa | 0V | 00:00:00 | 00:00:00 | 00:00:00 | |
| AKAW68 | 2026-09-01 23:57:06 | 50.02040 | 21.55814 | 90° | 60km/h | 13689m | 4.7m/s | 0°C | 0% | 0hPa | 0V | 00:00:00 | 00:00:00 | 00:00:00 | |
| MIELECB | 2026-09-01 23:57:05 | 50.02040 | 21.55790 | 92° | 64km/h | 13682m | 6.3m/s | 0°C | 0% | 0hPa | 0V | 00:00:00 | 00:00:00 | 00:00:00 | |
| SQ9PSP-11 | 2026-09-01 23:57:03 | 50.02041 | 21.55737 | 94° | 69km/h | 13670m | 3.5m/s | 0°C | 0% | 0hPa | 0V | 00:00:00 | 00:00:00 | 00:00:00 | |
| MIELECB | 2026-09-01 23:56:59 | 50.02048 | 21.55636 | 95° | 66km/h | 13651m | 2.2m/s | 0°C | 0% | 0hPa | 0V | 00:00:00 | 00:00:00 | 00:00:00 | |
| SP9KGR-15 | 2026-09-01 23:56:58 | 50.02049 | 21.55610 | 94° | 69km/h | 13648m | 5.1m/s | 0°C | 0% | 0hPa | 0V | 00:00:00 | 00:00:00 | 00:00:00 | |
| MIELECB | 2026-09-01 23:56:53 | 50.02061 | 21.55470 | 96° | 73km/h | 13622m | 5.2m/s | 0°C | 0% | 0hPa | 0V | 00:00:00 | 00:00:00 | 00:00:00 | |
| AKAW682 | 2026-09-01 23:56:51 | 50.02063 | 21.55416 | 91° | 64km/h | 13613m | 5.1m/s | 0°C | 0% | 0hPa | 0V | 00:00:00 | 00:00:00 | 00:00:00 | |
| SQ9PSP-11 | 2026-09-01 23:56:48 | 50.02060 | 21.55339 | 85° | 66km/h | 13596m | 7.1m/s | 0°C | 0% | 0hPa | 0V | 00:00:00 | 00:00:00 | 00:00:00 | |
| MIELECB | 2026-09-01 23:56:47 | 50.02058 | 21.55312 | 88° | 71km/h | 13590m | 5.6m/s | 0°C | 0% | 0hPa | 0V | 00:00:00 | 00:00:00 | 00:00:00 | |
| AKAW68 | 2026-09-01 23:56:46 | 50.02058 | 21.55283 | 89° | 75km/h | 13585m | 4.5m/s | 0°C | 0% | 0hPa | 0V | 00:00:00 | 00:00:00 | 00:00:00 | |
| MIELECB | 2026-09-01 23:56:41 | 50.02063 | 21.55134 | 97° | 77km/h | 13564m | 1.9m/s | 0°C | 0% | 0hPa | 0V | 00:00:00 | 00:00:00 | 00:00:00 | |
| MIELECB | 2026-09-01 23:56:36 | 50.02060 | 21.54996 | 83° | 75km/h | 13539m | 3.3m/s | 0°C | 0% | 0hPa | 0V | 00:00:00 | 00:00:00 | 00:00:00 | |
| SQ9PSP-11 | 2026-09-01 23:56:33 | 50.02057 | 21.54904 | 92° | 80km/h | 13522m | 5.5m/s | 0°C | 0% | 0hPa | 0V | 00:00:00 | 00:00:00 | 00:00:00 | |
| MIELECB | 2026-09-01 23:56:31 | 50.02056 | 21.54842 | 88° | 78km/h | 13513m | 6.7m/s | 0°C | 0% | 0hPa | 0V | 00:00:00 | 00:00:00 | 00:00:00 | |
| AKAW682 | 2026-09-01 23:56:30 | 50.02055 | 21.54811 | 85° | 80km/h | 13507m | 6.0m/s | 0°C | 0% | 0hPa | 0V | 00:00:00 | 00:00:00 | 00:00:00 | |
| AKAW68 | 2026-09-01 23:56:25 | 50.02049 | 21.54659 | 86° | 80km/h | 13479m | 6.6m/s | 0°C | 0% | 0hPa | 0V | 00:00:00 | 00:00:00 | 00:00:00 | |
| SP9KGR-15 | 2026-09-01 23:56:22 | 50.02046 | 21.54567 | 84° | 80km/h | 13465m | 4.6m/s | 0°C | 0% | 0hPa | 0V | 00:00:00 | 00:00:00 | 00:00:00 | |
| MIELECB | 2026-09-01 23:56:20 | 50.02039 | 21.54503 | 83° | 82km/h | 13456m | 8.4m/s | 0°C | 0% | 0hPa | 0V | 00:00:00 | 00:00:00 | 00:00:00 | |
| SQ9PSP-11 | 2026-09-01 23:56:17 | 50.02033 | 21.54411 | 85° | 77km/h | 13438m | 3.3m/s | 0°C | 0% | 0hPa | 0V | 00:00:00 | 00:00:00 | 00:00:00 | |
| MIELECB | 2026-09-01 23:56:14 | 50.02030 | 21.54317 | 90° | 82km/h | 13422m | 3.9m/s | 0°C | 0% | 0hPa | 0V | 00:00:00 | 00:00:00 | 00:00:00 | |
| MIELECB | 2026-09-01 23:56:09 | 50.02017 | 21.54151 | 87° | 84km/h | 13397m | 2.5m/s | 0°C | 0% | 0hPa | 0V | 00:00:00 | 00:00:00 | 00:00:00 | |
| AKAW682 | 2026-09-01 23:56:08 | 50.02016 | 21.54118 | 87° | 86km/h | 13393m | 5.3m/s | 0°C | 0% | 0hPa | 0V | 00:00:00 | 00:00:00 | 00:00:00 | |
| SP9KGR-15 | 2026-09-01 23:56:06 | 50.02012 | 21.54052 | 86° | 80km/h | 13382m | 3.7m/s | 0°C | 0% | 0hPa | 0V | 00:00:00 | 00:00:00 | 00:00:00 | |
| AKAW68 | 2026-09-01 23:56:05 | 50.02010 | 21.54021 | 83° | 82km/h | 13377m | 5.1m/s | 0°C | 0% | 0hPa | 0V | 00:00:00 | 00:00:00 | 00:00:00 | |
| MIELECB | 2026-09-01 23:56:03 | 50.02005 | 21.53954 | 85° | 86km/h | 13369m | 6.1m/s | 0°C | 0% | 0hPa | 0V | 00:00:00 | 00:00:00 | 00:00:00 | |
| SQ9PSP-11 | 2026-09-01 23:56:02 | 50.02002 | 21.53921 | 82° | 82km/h | 13363m | 7.7m/s | 0°C | 0% | 0hPa | 0V | 00:00:00 | 00:00:00 | 00:00:00 | |
| MIELECB | 2026-09-01 23:55:58 | 50.01989 | 21.53790 | 80° | 89km/h | 13342m | 5.9m/s | 0°C | 0% | 0hPa | 0V | 00:00:00 | 00:00:00 | 00:00:00 | |
| MIELECB | 2026-09-01 23:55:52 | 50.01968 | 21.53588 | 80° | 86km/h | 13312m | 3.5m/s | 0°C | 0% | 0hPa | 0V | 00:00:00 | 00:00:00 | 00:00:00 | |
| SP9KGR-15 | 2026-09-01 23:55:50 | 50.01959 | 21.53522 | 81° | 86km/h | 13304m | 2.5m/s | 0°C | 0% | 0hPa | 0V | 00:00:00 | 00:00:00 | 00:00:00 | |
| SQ9PSP-11 | 2026-09-01 23:55:47 | 50.01947 | 21.53420 | 79° | 91km/h | 13289m | 5.9m/s | 0°C | 0% | 0hPa | 0V | 00:00:00 | 00:00:00 | 00:00:00 | |
| MIELECB | 2026-09-01 23:55:46 | 50.01942 | 21.53385 | 83° | 93km/h | 13282m | 9.3m/s | 0°C | 0% | 0hPa | 0V | 00:00:00 | 00:00:00 | 00:00:00 | |
| AKAW68 | 2026-09-01 23:55:44 | 50.01936 | 21.53310 | 83° | 93km/h | 13272m | 5.2m/s | 0°C | 0% | 0hPa | 0V | 00:00:00 | 00:00:00 | 00:00:00 | |
| MIELECB | 2026-09-01 23:55:40 | 50.01921 | 21.53168 | 84° | 89km/h | 13251m | 6.5m/s | 0°C | 0% | 0hPa | 0V | 00:00:00 | 00:00:00 | 00:00:00 | |
| SQ9EZE-12 | 2026-09-01 23:55:37 | 50.01910 | 21.53059 | 83° | 93km/h | 13237m | 8.1m/s | 0°C | 0% | 0hPa | 0V | 00:00:00 | 00:00:00 | 00:00:00 | |
| MIELECB | 2026-09-01 23:55:34 | 50.01902 | 21.52955 | 82° | 89km/h | 13219m | 2.8m/s | 0°C | 0% | 0hPa | 0V | 00:00:00 | 00:00:00 | 00:00:00 | |
| SQ9PSP-11 | 2026-09-01 23:55:31 | 50.01892 | 21.52850 | 89° | 89km/h | 13205m | 5.2m/s | 0°C | 0% | 0hPa | 0V | 00:00:00 | 00:00:00 | 00:00:00 | |
| MIELECB | 2026-09-01 23:55:28 | 50.01883 | 21.52744 | 83° | 93km/h | 13188m | 7.2m/s | 0°C | 0% | 0hPa | 0V | 00:00:00 | 00:00:00 | 00:00:00 | |
| AKAW682 | 2026-09-01 23:55:24 | 50.01868 | 21.52602 | 81° | 93km/h | 13170m | 5.2m/s | 0°C | 0% | 0hPa | 0V | 00:00:00 | 00:00:00 | 00:00:00 | |
| AKAW68 | 2026-09-01 23:55:23 | 50.01864 | 21.52567 | 86° | 89km/h | 13166m | 7.7m/s | 0°C | 0% | 0hPa | 0V | 00:00:00 | 00:00:00 | 00:00:00 | |
| MIELECB | 2026-09-01 23:55:22 | 50.01863 | 21.52534 | 90° | 80km/h | 13160m | 4.5m/s | 0°C | 0% | 0hPa | 0V | 00:00:00 | 00:00:00 | 00:00:00 | |
| MIELECB | 2026-09-01 23:55:17 | 50.01853 | 21.52379 | 80° | 84km/h | 13130m | 8.6m/s | 0°C | 0% | 0hPa | 0V | 00:00:00 | 00:00:00 | 00:00:00 | |
| SQ9PSP-11 | 2026-09-01 23:55:16 | 50.01849 | 21.52345 | 80° | 91km/h | 13124m | 4.0m/s | 0°C | 0% | 0hPa | 0V | 00:00:00 | 00:00:00 | 00:00:00 | |
| MIELECB | 2026-09-01 23:55:11 | 50.01830 | 21.52175 | 88° | 86km/h | 13098m | 4.3m/s | 0°C | 0% | 0hPa | 0V | 00:00:00 | 00:00:00 | 00:00:00 | |
| MIELECB | 2026-09-01 23:55:05 | 50.01813 | 21.51980 | 82° | 88km/h | 13069m | 6.0m/s | 0°C | 0% | 0hPa | 0V | 00:00:00 | 00:00:00 | 00:00:00 | |
| AKAW68 | 2026-09-01 23:55:02 | 50.01805 | 21.51882 | 86° | 82km/h | 13050m | 6.6m/s | 0°C | 0% | 0hPa | 0V | 00:00:00 | 00:00:00 | 00:00:00 | |
| SQ9PSP-11 | 2026-09-01 23:55:01 | 50.01803 | 21.51849 | 89° | 86km/h | 13045m | 5.3m/s | 0°C | 0% | 0hPa | 0V | 00:00:00 | 00:00:00 | 00:00:00 | |
| MIELECB | 2026-09-01 23:54:59 | 50.01802 | 21.51783 | 86° | 82km/h | 13036m | 2.8m/s | 0°C | 0% | 0hPa | 0V | 00:00:00 | 00:00:00 | 00:00:00 | |
| AKAW682 | 2026-09-01 23:54:57 | 50.01797 | 21.51721 | 83° | 78km/h | 13023m | 8.1m/s | 0°C | 0% | 0hPa | 0V | 00:00:00 | 00:00:00 | 00:00:00 | |
| MIELECB | 2026-09-01 23:54:53 | 50.01788 | 21.51599 | 88° | 78km/h | 12999m | 7.1m/s | 0°C | 0% | 0hPa | 0V | 00:00:00 | 00:00:00 | 00:00:00 | |
| MIELECB | 2026-09-01 23:54:47 | 50.01786 | 21.51408 | 87° | 84km/h | 12970m | 4.1m/s | 0°C | 0% | 0hPa | 0V | 00:00:00 | 00:00:00 | 00:00:00 | |
| SP9KGR-15 | 2026-09-01 23:54:46 | 50.01783 | 21.51375 | 83° | 84km/h | 12966m | 5.3m/s | 0°C | 0% | 0hPa | 0V | 00:00:00 | 00:00:00 | 00:00:00 | |
| SQ9PSP-11 | 2026-09-01 23:54:45 | 50.01780 | 21.51343 | 83° | 84km/h | 12961m | 4.6m/s | 0°C | 0% | 0hPa | 0V | 00:00:00 | 00:00:00 | 00:00:00 | |
| AKAW68 | 2026-09-01 23:54:41 | 50.01777 | 21.51213 | 91° | 73km/h | 12940m | 5.7m/s | 0°C | 0% | 0hPa | 0V | 00:00:00 | 00:00:00 | 00:00:00 | |
| AKAW682 | 2026-09-01 23:54:37 | 50.01775 | 21.51097 | 85° | 77km/h | 12916m | 6.2m/s | 0°C | 0% | 0hPa | 0V | 00:00:00 | 00:00:00 | 00:00:00 | |
| MIELECB | 2026-09-01 23:54:35 | 50.01770 | 21.51034 | 85° | 84km/h | 12905m | 5.2m/s | 0°C | 0% | 0hPa | 0V | 00:00:00 | 00:00:00 | 00:00:00 | |
| MIELECB | 2026-09-01 23:54:29 | 50.01750 | 21.50832 | 81° | 75km/h | 12866m | 6.5m/s | 0°C | 0% | 0hPa | 0V | 00:00:00 | 00:00:00 | 00:00:00 | |
| SP9KGR-15 | 2026-09-01 23:54:24 | 50.01749 | 21.50706 | 90° | 86km/h | 12844m | 4.6m/s | 0°C | 0% | 0hPa | 0V | 00:00:00 | 00:00:00 | 00:00:00 | |
| MIELECB | 2026-09-01 23:54:22 | 50.01746 | 21.50642 | 86° | 80km/h | 12832m | 5.4m/s | 0°C | 0% | 0hPa | 0V | 00:00:00 | 00:00:00 | 00:00:00 | |
| AKAW68 | 2026-09-01 23:54:21 | 50.01745 | 21.50610 | 86° | 88km/h | 12827m | 5.6m/s | 0°C | 0% | 0hPa | 0V | 00:00:00 | 00:00:00 | 00:00:00 | |
| AKAW682 | 2026-09-01 23:54:16 | 50.01731 | 21.50431 | 86° | 95km/h | 12799m | 3.9m/s | 0°C | 0% | 0hPa | 0V | 00:00:00 | 00:00:00 | 00:00:00 | |
| SQ9PSP-11 | 2026-09-01 23:54:14 | 50.01726 | 21.50359 | 81° | 89km/h | 12787m | 4.9m/s | 0°C | 0% | 0hPa | 0V | 00:00:00 | 00:00:00 | 00:00:00 | |
| MIELECB | 2026-09-01 23:54:08 | 50.01699 | 21.50144 | 83° | 97km/h | 12757m | 4.6m/s | 0°C | 0% | 0hPa | 0V | 00:00:00 | 00:00:00 | 00:00:00 | |
| SP9KGR-15 | 2026-09-01 23:54:06 | 50.01694 | 21.50067 | 87° | 97km/h | 12745m | 7.6m/s | 0°C | 0% | 0hPa | 0V | 00:00:00 | 00:00:00 | 00:00:00 | |
| AKAW68 | 2026-09-01 23:54:00 | 50.01670 | 21.49870 | 75° | 80km/h | 12712m | 5.6m/s | 0°C | 0% | 0hPa | 0V | 00:00:00 | 00:00:00 | 00:00:00 | |
| SQ9PSP-11 | 2026-09-01 23:53:58 | 50.01662 | 21.49807 | 83° | 88km/h | 12702m | 4.2m/s | 0°C | 0% | 0hPa | 0V | 00:00:00 | 00:00:00 | 00:00:00 | |
| AKAW682 | 2026-09-01 23:53:55 | 50.01658 | 21.49701 | 90° | 91km/h | 12684m | 4.1m/s | 0°C | 0% | 0hPa | 0V | 00:00:00 | 00:00:00 | 00:00:00 | |
| SP9KGR-15 | 2026-09-01 23:53:50 | 50.01639 | 21.49537 | 81° | 78km/h | 12658m | 4.1m/s | 0°C | 0% | 0hPa | 0V | 00:00:00 | 00:00:00 | 00:00:00 | |
| SQ9PSP-11 | 2026-09-01 23:53:42 | 50.01608 | 21.49264 | 75° | 84km/h | 12614m | 3.8m/s | 0°C | 0% | 0hPa | 0V | 00:00:00 | 00:00:00 | 00:00:00 | |
| AKAW68 | 2026-09-01 23:53:39 | 50.01590 | 21.49163 | 78° | 89km/h | 12601m | 6.4m/s | 0°C | 0% | 0hPa | 0V | 00:00:00 | 00:00:00 | 00:00:00 | |
| MIELECB | 2026-09-01 23:53:36 | 50.01579 | 21.49065 | 84° | 84km/h | 12582m | 8.1m/s | 0°C | 0% | 0hPa | 0V | 00:00:00 | 00:00:00 | 00:00:00 | |
| AKAW682 | 2026-09-01 23:53:35 | 50.01577 | 21.49032 | 85° | 88km/h | 12575m | 5.7m/s | 0°C | 0% | 0hPa | 0V | 00:00:00 | 00:00:00 | 00:00:00 | |
| SP9KGR-15 | 2026-09-01 23:53:31 | 50.01567 | 21.48897 | 80° | 91km/h | 12553m | 4.2m/s | 0°C | 0% | 0hPa | 0V | 00:00:00 | 00:00:00 | 00:00:00 | |
| SQ9PSP-11 | 2026-09-01 23:53:27 | 50.01553 | 21.48761 | 82° | 88km/h | 12530m | 3.9m/s | 0°C | 0% | 0hPa | 0V | 00:00:00 | 00:00:00 | 00:00:00 | |
| AKAW68 | 2026-09-01 23:53:19 | 50.01518 | 21.48483 | 77° | 100km/h | 12482m | 3.7m/s | 0°C | 0% | 0hPa | 0V | 00:00:00 | 00:00:00 | 00:00:00 | |
| AKAW682 | 2026-09-01 23:53:14 | 50.01495 | 21.48316 | 74° | 82km/h | 12456m | 4.6m/s | 0°C | 0% | 0hPa | 0V | 00:00:00 | 00:00:00 | 00:00:00 | |
| SQ9PSP-11 | 2026-09-01 23:53:11 | 50.01479 | 21.48223 | 78° | 86km/h | 12439m | 7.0m/s | 0°C | 0% | 0hPa | 0V | 00:00:00 | 00:00:00 | 00:00:00 | |
| AKAW68 | 2026-09-01 23:52:59 | 50.01441 | 21.47774 | 87° | 91km/h | 12364m | 7.0m/s | 0°C | 0% | 0hPa | 0V | 00:00:00 | 00:00:00 | 00:00:00 | |
| AKAW682 | 2026-09-01 23:52:54 | 50.01432 | 21.47639 | 86° | 82km/h | 12345m | 5.4m/s | 0°C | 0% | 0hPa | 0V | 00:00:00 | 00:00:00 | 00:00:00 | |
| SQ9PSP-11 | 2026-09-01 23:52:40 | 50.01440 | 21.47136 | 91° | 100km/h | 12265m | 6.3m/s | 0°C | 0% | 0hPa | 0V | 00:00:00 | 00:00:00 | 00:00:00 | |
| AKAW68 | 2026-09-01 23:52:37 | 50.01442 | 21.47022 | 92° | 91km/h | 12249m | 5.1m/s | 0°C | 0% | 0hPa | 0V | 00:00:00 | 00:00:00 | 00:00:00 | |
| SQ9PSP-11 | 2026-09-01 23:52:24 | 50.01462 | 21.46520 | 96° | 100km/h | 12184m | 5.9m/s | 0°C | 0% | 0hPa | 0V | 00:00:00 | 00:00:00 | 00:00:00 | |
| AKAW68 | 2026-09-01 23:52:16 | 50.01467 | 21.46198 | 87° | 97km/h | 12142m | 7.7m/s | 0°C | 0% | 0hPa | 0V | 00:00:00 | 00:00:00 | 00:00:00 | |
| SQ9PSP-11 | 2026-09-01 23:52:08 | 50.01487 | 21.45897 | 93° | 106km/h | 12101m | 3.5m/s | 0°C | 0% | 0hPa | 0V | 00:00:00 | 00:00:00 | 00:00:00 | |
| AKAW682 | 2026-09-01 23:52:01 | 50.01491 | 21.45628 | 97° | 102km/h | 12067m | 5.7m/s | 0°C | 0% | 0hPa | 0V | 00:00:00 | 00:00:00 | 00:00:00 | |
| AKAW68 | 2026-09-01 23:51:55 | 50.01503 | 21.45399 | 93° | 104km/h | 12039m | 3.1m/s | 0°C | 0% | 0hPa | 0V | 00:00:00 | 00:00:00 | 00:00:00 | |
| SP9KGR-15 | 2026-09-01 23:51:54 | 50.01504 | 21.45358 | 95° | 108km/h | 12036m | 6.3m/s | 0°C | 0% | 0hPa | 0V | 00:00:00 | 00:00:00 | 00:00:00 | |
| SQ9PSP-11 | 2026-09-01 23:51:52 | 50.01511 | 21.45274 | 101° | 110km/h | 12026m | 5.3m/s | 0°C | 0% | 0hPa | 0V | 00:00:00 | 00:00:00 | 00:00:00 | |
| AKAW682 | 2026-09-01 23:51:39 | 50.01540 | 21.44728 | 95° | 110km/h | 11955m | 5.4m/s | 0°C | 0% | 0hPa | 0V | 00:00:00 | 00:00:00 | 00:00:00 | |
| SQ9PSP-11 | 2026-09-01 23:51:36 | 50.01542 | 21.44595 | 90° | 113km/h | 11940m | 4.9m/s | 0°C | 0% | 0hPa | 0V | 00:00:00 | 00:00:00 | 00:00:00 | |
| AKAW68 | 2026-09-01 23:51:34 | 50.01543 | 21.44507 | 95° | 108km/h | 11930m | 5.7m/s | 0°C | 0% | 0hPa | 0V | 00:00:00 | 00:00:00 | 00:00:00 | |
| SP9KGR-15 | 2026-09-01 23:51:29 | 50.01550 | 21.44304 | 92° | 108km/h | 11907m | 2.3m/s | 0°C | 0% | 0hPa | 0V | 00:00:00 | 00:00:00 | 00:00:00 | |
| SQ9PSP-11 | 2026-09-01 23:51:21 | 50.01561 | 21.43918 | 90° | 106km/h | 11865m | 5.2m/s | 0°C | 0% | 0hPa | 0V | 00:00:00 | 00:00:00 | 00:00:00 | |
| AKAW682 | 2026-09-01 23:51:18 | 50.01558 | 21.43828 | 88° | 120km/h | 11856m | 5.3m/s | 0°C | 0% | 0hPa | 0V | 00:00:00 | 00:00:00 | 00:00:00 | |
| AKAW68 | 2026-09-01 23:51:13 | 50.01558 | 21.43606 | 95° | 104km/h | 11831m | 4.0m/s | 0°C | 0% | 0hPa | 0V | 00:00:00 | 00:00:00 | 00:00:00 | |
| SP9KGR-15 | 2026-09-01 23:51:10 | 50.01561 | 21.43486 | 91° | 102km/h | 11818m | 4.5m/s | 0°C | 0% | 0hPa | 0V | 00:00:00 | 00:00:00 | 00:00:00 | |
| MIELECB | 2026-09-01 23:51:06 | 50.01556 | 21.43314 | 89° | 115km/h | 11798m | 8.9m/s | 0°C | 0% | 0hPa | 0V | 00:00:00 | 00:00:00 | 00:00:00 | |
| SQ9PSP-11 | 2026-09-01 23:51:04 | 50.01556 | 21.43224 | 91° | 113km/h | 11784m | 8.7m/s | 0°C | 0% | 0hPa | 0V | 00:00:00 | 00:00:00 | 00:00:00 | |
| MIELECB | 2026-09-01 23:50:57 | 50.01556 | 21.42910 | 89° | 115km/h | 11747m | 3.9m/s | 0°C | 0% | 0hPa | 0V | 00:00:00 | 00:00:00 | 00:00:00 | |
| SP9KGR-15 | 2026-09-01 23:50:55 | 50.01553 | 21.42821 | 87° | 111km/h | 11736m | 3.4m/s | 0°C | 0% | 0hPa | 0V | 00:00:00 | 00:00:00 | 00:00:00 | |
| AKAW68 | 2026-09-01 23:50:53 | 50.01551 | 21.42737 | 92° | 100km/h | 11724m | 4.8m/s | 0°C | 0% | 0hPa | 0V | 00:00:00 | 00:00:00 | 00:00:00 | |
| SQ9PSP-11 | 2026-09-01 23:50:48 | 50.01552 | 21.42528 | 90° | 115km/h | 11699m | 7.6m/s | 0°C | 0% | 0hPa | 0V | 00:00:00 | 00:00:00 | 00:00:00 | |
| MIELECB | 2026-09-01 23:50:47 | 50.01552 | 21.42481 | 92° | 120km/h | 11693m | 5.0m/s | 0°C | 0% | 0hPa | 0V | 00:00:00 | 00:00:00 | 00:00:00 | |
| AKAW682 | 2026-09-01 23:50:37 | 50.01546 | 21.42050 | 93° | 104km/h | 11644m | 5.1m/s | 0°C | 0% | 0hPa | 0V | 00:00:00 | 00:00:00 | 00:00:00 | |
| AKAW68 | 2026-09-01 23:50:33 | 50.01549 | 21.41879 | 89° | 106km/h | 11624m | 6.3m/s | 0°C | 0% | 0hPa | 0V | 00:00:00 | 00:00:00 | 00:00:00 | |
| MIELECB | 2026-09-01 23:50:32 | 50.01548 | 21.41838 | 91° | 102km/h | 11619m | 4.3m/s | 0°C | 0% | 0hPa | 0V | 00:00:00 | 00:00:00 | 00:00:00 | |
| MIELECB | 2026-09-01 23:50:27 | 50.01553 | 21.41645 | 96° | 106km/h | 11591m | 4.4m/s | 0°C | 0% | 0hPa | 0V | 00:00:00 | 00:00:00 | 00:00:00 | |
| SQ9EZE-12 | 2026-09-01 23:50:22 | 50.01561 | 21.41430 | 94° | 111km/h | 11565m | 8.6m/s | 0°C | 0% | 0hPa | 0V | 00:00:00 | 00:00:00 | 00:00:00 | |
| SQ9PSP-11 | 2026-09-01 23:50:18 | 50.01571 | 21.41269 | 95° | 100km/h | 11543m | 7.8m/s | 0°C | 0% | 0hPa | 0V | 00:00:00 | 00:00:00 | 00:00:00 | |
| AKAW682 | 2026-09-01 23:50:16 | 50.01570 | 21.41187 | 90° | 106km/h | 11531m | 6.6m/s | 0°C | 0% | 0hPa | 0V | 00:00:00 | 00:00:00 | 00:00:00 | |
| AKAW68 | 2026-09-01 23:50:12 | 50.01573 | 21.41019 | 95° | 106km/h | 11511m | 4.7m/s | 0°C | 0% | 0hPa | 0V | 00:00:00 | 00:00:00 | 00:00:00 | |
| MIELECB | 2026-09-01 23:50:10 | 50.01578 | 21.40936 | 98° | 106km/h | 11499m | 4.5m/s | 0°C | 0% | 0hPa | 0V | 00:00:00 | 00:00:00 | 00:00:00 | |
| SQ9PSP-11 | 2026-09-01 23:50:02 | 50.01587 | 21.40600 | 92° | 117km/h | 11451m | 6.7m/s | 0°C | 0% | 0hPa | 0V | 00:00:00 | 00:00:00 | 00:00:00 | |
| SP9KGR-15 | 2026-09-01 23:49:59 | 50.01592 | 21.40462 | 95° | 108km/h | 11434m | 4.8m/s | 0°C | 0% | 0hPa | 0V | 00:00:00 | 00:00:00 | 00:00:00 | |
| AKAW682 | 2026-09-01 23:49:56 | 50.01597 | 21.40342 | 91° | 104km/h | 11416m | 6.8m/s | 0°C | 0% | 0hPa | 0V | 00:00:00 | 00:00:00 | 00:00:00 | |
| AKAW68 | 2026-09-01 23:49:52 | 50.01593 | 21.40163 | 88° | 113km/h | 11395m | 3.8m/s | 0°C | 0% | 0hPa | 0V | 00:00:00 | 00:00:00 | 00:00:00 | |
| SQ9PSP-11 | 2026-09-01 23:49:46 | 50.01595 | 21.39930 | 94° | 100km/h | 11365m | 6.8m/s | 0°C | 0% | 0hPa | 0V | 00:00:00 | 00:00:00 | 00:00:00 | |
| SP9KGR-15 | 2026-09-01 23:49:44 | 50.01598 | 21.39846 | 93° | 110km/h | 11352m | 9.1m/s | 0°C | 0% | 0hPa | 0V | 00:00:00 | 00:00:00 | 00:00:00 | |
| AKAW682 | 2026-09-01 23:49:35 | 50.01597 | 21.39454 | 90° | 113km/h | 11297m | 5.7m/s | 0°C | 0% | 0hPa | 0V | 00:00:00 | 00:00:00 | 00:00:00 | |
| MIELECB | 2026-09-01 23:49:33 | 50.01594 | 21.39371 | 88° | 104km/h | 11287m | 6.4m/s | 0°C | 0% | 0hPa | 0V | 00:00:00 | 00:00:00 | 00:00:00 | |
| AKAW68 | 2026-09-01 23:49:31 | 50.01593 | 21.39290 | 90° | 100km/h | 11276m | 7.2m/s | 0°C | 0% | 0hPa | 0V | 00:00:00 | 00:00:00 | 00:00:00 | |
| SQ9PSP-11 | 2026-09-01 23:49:30 | 50.01593 | 21.39249 | 91° | 108km/h | 11271m | 3.7m/s | 0°C | 0% | 0hPa | 0V | 00:00:00 | 00:00:00 | 00:00:00 | |
| SP9KGR-15 | 2026-09-01 23:49:28 | 50.01595 | 21.39164 | 94° | 108km/h | 11260m | 3.4m/s | 0°C | 0% | 0hPa | 0V | 00:00:00 | 00:00:00 | 00:00:00 | |
| MIELECB | 2026-09-01 23:49:18 | 50.01587 | 21.38746 | 90° | 117km/h | 11203m | 6.0m/s | 0°C | 0% | 0hPa | 0V | 00:00:00 | 00:00:00 | 00:00:00 | |
| SQ9PSP-11 | 2026-09-01 23:49:14 | 50.01584 | 21.38581 | 88° | 95km/h | 11183m | 3.1m/s | 0°C | 0% | 0hPa | 0V | 00:00:00 | 00:00:00 | 00:00:00 | |
| SP9KGR-15 | 2026-09-01 23:49:13 | 50.01582 | 21.38503 | 88° | 108km/h | 11172m | 4.6m/s | 0°C | 0% | 0hPa | 0V | 00:00:00 | 00:00:00 | 00:00:00 | |
| SQ9EZE-12 | 2026-09-01 23:49:11 | 50.01580 | 21.38460 | 89° | 111km/h | 11167m | 6.0m/s | 0°C | 0% | 0hPa | 0V | 00:00:00 | 00:00:00 | 00:00:00 | |
| AKAW68 | 2026-09-01 23:49:10 | 50.01579 | 21.38416 | 89° | 111km/h | 11161m | 5.0m/s | 0°C | 0% | 0hPa | 0V | 00:00:00 | 00:00:00 | 00:00:00 | |
| MIELECB | 2026-09-01 23:49:04 | 50.01567 | 21.38164 | 89° | 108km/h | 11129m | 8.3m/s | 0°C | 0% | 0hPa | 0V | 00:00:00 | 00:00:00 | 00:00:00 | |
| SQ9PSP-11 | 2026-09-01 23:48:59 | 50.01559 | 21.37956 | 85° | 104km/h | 11100m | 4.9m/s | 0°C | 0% | 0hPa | 0V | 00:00:00 | 00:00:00 | 00:00:00 | |
| MIELECB | 2026-09-01 23:48:58 | 50.01556 | 21.37916 | 84° | 100km/h | 11092m | 9.1m/s | 0°C | 0% | 0hPa | 0V | 00:00:00 | 00:00:00 | 00:00:00 | |
| SP9KGR-15 | 2026-09-01 23:48:57 | 50.01553 | 21.37876 | 84° | 102km/h | 11086m | 3.5m/s | 0°C | 0% | 0hPa | 0V | 00:00:00 | 00:00:00 | 00:00:00 | |
| SQ9EZE-12 | 2026-09-01 23:48:55 | 50.01551 | 21.37792 | 92° | 115km/h | 11073m | 5.6m/s | 0°C | 0% | 0hPa | 0V | 00:00:00 | 00:00:00 | 00:00:00 | |
| AKAW682 | 2026-09-01 23:48:54 | 50.01551 | 21.37747 | 92° | 111km/h | 11067m | 5.1m/s | 0°C | 0% | 0hPa | 0V | 00:00:00 | 00:00:00 | 00:00:00 | |
| MIELECB | 2026-09-01 23:48:52 | 50.01551 | 21.37660 | 88° | 110km/h | 11058m | 3.7m/s | 0°C | 0% | 0hPa | 0V | 00:00:00 | 00:00:00 | 00:00:00 | |
| AKAW68 | 2026-09-01 23:48:49 | 50.01543 | 21.37540 | 82° | 99km/h | 11039m | 6.3m/s | 0°C | 0% | 0hPa | 0V | 00:00:00 | 00:00:00 | 00:00:00 | |
| MIELECB | 2026-09-01 23:48:47 | 50.01536 | 21.37461 | 85° | 102km/h | 11029m | 4.5m/s | 0°C | 0% | 0hPa | 0V | 00:00:00 | 00:00:00 | 00:00:00 | |
| SQ9PSP-11 | 2026-09-01 23:48:43 | 50.01534 | 21.37297 | 90° | 110km/h | 11006m | 5.6m/s | 0°C | 0% | 0hPa | 0V | 00:00:00 | 00:00:00 | 00:00:00 | |
| MIELECB | 2026-09-01 23:48:42 | 50.01533 | 21.37254 | 86° | 108km/h | 11000m | 5.8m/s | 0°C | 0% | 0hPa | 0V | 00:00:00 | 00:00:00 | 00:00:00 | |
| SP9KGR-15 | 2026-09-01 23:48:40 | 50.01522 | 21.37169 | 76° | 110km/h | 10990m | 4.4m/s | 0°C | 0% | 0hPa | 0V | 00:00:00 | 00:00:00 | 00:00:00 | |
| SQ9EZE-12 | 2026-09-01 23:48:38 | 50.01510 | 21.37088 | 81° | 106km/h | 10980m | 6.7m/s | 0°C | 0% | 0hPa | 0V | 00:00:00 | 00:00:00 | 00:00:00 | |
| MIELECB | 2026-09-01 23:48:34 | 50.01507 | 21.36925 | 89° | 99km/h | 10956m | 3.8m/s | 0°C | 0% | 0hPa | 0V | 00:00:00 | 00:00:00 | 00:00:00 | |
| AKAW682 | 2026-09-01 23:48:33 | 50.01506 | 21.36886 | 89° | 97km/h | 10951m | 5.8m/s | 0°C | 0% | 0hPa | 0V | 00:00:00 | 00:00:00 | 00:00:00 | |
| MIELECB | 2026-09-01 23:48:29 | 50.01510 | 21.36743 | 95° | 97km/h | 10927m | 6.3m/s | 0°C | 0% | 0hPa | 0V | 00:00:00 | 00:00:00 | 00:00:00 | |
| AKAW68 | 2026-09-01 23:48:28 | 50.01511 | 21.36704 | 89° | 106km/h | 10921m | 5.5m/s | 0°C | 0% | 0hPa | 0V | 00:00:00 | 00:00:00 | 00:00:00 | |
| SP9KGR-15 | 2026-09-01 23:48:25 | 50.01502 | 21.36576 | 82° | 110km/h | 10903m | 4.3m/s | 0°C | 0% | 0hPa | 0V | 00:00:00 | 00:00:00 | 00:00:00 | |
| MIELECB | 2026-09-01 23:48:23 | 50.01493 | 21.36496 | 84° | 97km/h | 10892m | 4.5m/s | 0°C | 0% | 0hPa | 0V | 00:00:00 | 00:00:00 | 00:00:00 | |
| MIELECB | 2026-09-01 23:48:17 | 50.01484 | 21.36262 | 91° | 99km/h | 10857m | 7.8m/s | 0°C | 0% | 0hPa | 0V | 00:00:00 | 00:00:00 | 00:00:00 | |
| SQ9EZE-12 | 2026-09-01 23:48:16 | 50.01485 | 21.36225 | 92° | 89km/h | 10851m | 4.0m/s | 0°C | 0% | 0hPa | 0V | 00:00:00 | 00:00:00 | 00:00:00 | |
| AKAW682 | 2026-09-01 23:48:12 | 50.01485 | 21.36078 | 90° | 104km/h | 10829m | 7.6m/s | 0°C | 0% | 0hPa | 0V | 00:00:00 | 00:00:00 | 00:00:00 | |
| MIELECB | 2026-09-01 23:48:11 | 50.01484 | 21.36036 | 87° | 110km/h | 10822m | 5.0m/s | 0°C | 0% | 0hPa | 0V | 00:00:00 | 00:00:00 | 00:00:00 | |
| SP9KGR-15 | 2026-09-01 23:48:09 | 50.01480 | 21.35951 | 87° | 104km/h | 10811m | 3.8m/s | 0°C | 0% | 0hPa | 0V | 00:00:00 | 00:00:00 | 00:00:00 | |
| AKAW68 | 2026-09-01 23:48:08 | 50.01478 | 21.35910 | 86° | 100km/h | 10805m | 7.1m/s | 0°C | 0% | 0hPa | 0V | 00:00:00 | 00:00:00 | 00:00:00 | |
| MIELECB | 2026-09-01 23:48:06 | 50.01477 | 21.35836 | 94° | 89km/h | 10794m | 4.4m/s | 0°C | 0% | 0hPa | 0V | 00:00:00 | 00:00:00 | 00:00:00 | |
| MIELECB | 2026-09-01 23:48:01 | 50.01482 | 21.35646 | 93° | 110km/h | 10766m | 4.6m/s | 0°C | 0% | 0hPa | 0V | 00:00:00 | 00:00:00 | 00:00:00 | |
| SQ9PSP-11 | 2026-09-01 23:47:57 | 50.01482 | 21.35480 | 90° | 97km/h | 10745m | 5.7m/s | 0°C | 0% | 0hPa | 0V | 00:00:00 | 00:00:00 | 00:00:00 | |
| SQ9EZE-12 | 2026-09-01 23:47:56 | 50.01481 | 21.35442 | 88° | 99km/h | 10740m | 4.6m/s | 0°C | 0% | 0hPa | 0V | 00:00:00 | 00:00:00 | 00:00:00 | |
| MIELECB | 2026-09-01 23:47:55 | 50.01480 | 21.35403 | 89° | 99km/h | 10734m | 6.7m/s | 0°C | 0% | 0hPa | 0V | 00:00:00 | 00:00:00 | 00:00:00 | |
| SP9KGR-15 | 2026-09-01 23:47:53 | 50.01482 | 21.35328 | 95° | 93km/h | 10721m | 7.7m/s | 0°C | 0% | 0hPa | 0V | 00:00:00 | 00:00:00 | 00:00:00 | |
| AKAW682 | 2026-09-01 23:47:52 | 50.01484 | 21.35291 | 93° | 93km/h | 10715m | 4.1m/s | 0°C | 0% | 0hPa | 0V | 00:00:00 | 00:00:00 | 00:00:00 | |
| MIELECB | 2026-09-01 23:47:49 | 50.01486 | 21.35177 | 91° | 102km/h | 10700m | 5.2m/s | 0°C | 0% | 0hPa | 0V | 00:00:00 | 00:00:00 | 00:00:00 | |
| AKAW68 | 2026-09-01 23:47:47 | 50.01485 | 21.35097 | 87° | 99km/h | 10690m | 4.3m/s | 0°C | 0% | 0hPa | 0V | 00:00:00 | 00:00:00 | 00:00:00 | |
| MIELECB | 2026-09-01 23:47:43 | 50.01482 | 21.34942 | 87° | 104km/h | 10669m | 4.6m/s | 0°C | 0% | 0hPa | 0V | 00:00:00 | 00:00:00 | 00:00:00 | |
| SQ9PSP-11 | 2026-09-01 23:47:41 | 50.01480 | 21.34858 | 88° | 110km/h | 10656m | 5.4m/s | 0°C | 0% | 0hPa | 0V | 00:00:00 | 00:00:00 | 00:00:00 | |
| SQ9EZE-12 | 2026-09-01 23:47:38 | 50.01472 | 21.34739 | 84° | 91km/h | 10640m | 2.9m/s | 0°C | 0% | 0hPa | 0V | 00:00:00 | 00:00:00 | 00:00:00 | |
| MIELECB | 2026-09-01 23:47:37 | 50.01470 | 21.34704 | 84° | 88km/h | 10635m | 6.6m/s | 0°C | 0% | 0hPa | 0V | 00:00:00 | 00:00:00 | 00:00:00 | |
| MIELECB | 2026-09-01 23:47:32 | 50.01463 | 21.34511 | 86° | 106km/h | 10606m | 5.2m/s | 0°C | 0% | 0hPa | 0V | 00:00:00 | 00:00:00 | 00:00:00 | |
| AKAW682 | 2026-09-01 23:47:31 | 50.01461 | 21.34469 | 87° | 110km/h | 10602m | 3.3m/s | 0°C | 0% | 0hPa | 0V | 00:00:00 | 00:00:00 | 00:00:00 | |
| AKAW68 | 2026-09-01 23:47:27 | 50.01455 | 21.34305 | 92° | 95km/h | 10583m | 3.9m/s | 0°C | 0% | 0hPa | 0V | 00:00:00 | 00:00:00 | 00:00:00 | |
| SQ9PSP-11 | 2026-09-01 23:47:25 | 50.01456 | 21.34230 | 91° | 100km/h | 10573m | 4.2m/s | 0°C | 0% | 0hPa | 0V | 00:00:00 | 00:00:00 | 00:00:00 | |
| SP9KGR-15 | 2026-09-01 23:47:21 | 50.01448 | 21.34060 | 87° | 115km/h | 10552m | 4.6m/s | 0°C | 0% | 0hPa | 0V | 00:00:00 | 00:00:00 | 00:00:00 | |
| SQ9EZE-12 | 2026-09-01 23:47:20 | 50.01447 | 21.34015 | 87° | 111km/h | 10545m | 8.4m/s | 0°C | 0% | 0hPa | 0V | 00:00:00 | 00:00:00 | 00:00:00 | |
| AKAW682 | 2026-09-01 23:47:15 | 50.01433 | 21.33640 | 84° | 110km/h | 10491m | 7.8m/s | 0°C | 0% | 0hPa | 0V | 00:00:00 | 00:00:00 | 00:00:00 | |
| SQ9PSP-11 | 2026-09-01 23:47:13 | 50.01429 | 21.33558 | 91° | 102km/h | 10479m | 9.0m/s | 0°C | 0% | 0hPa | 0V | 00:00:00 | 00:00:00 | 00:00:00 | |
| AKAW68 | 2026-09-01 23:47:11 | 50.01432 | 21.33477 | 95° | 102km/h | 10466m | 5.3m/s | 0°C | 0% | 0hPa | 0V | 00:00:00 | 00:00:00 | 00:00:00 | |
| SQ9EZE-12 | 2026-09-01 23:47:05 | 50.01433 | 21.33398 | 86° | 99km/h | 10457m | 4.1m/s | 0°C | 0% | 0hPa | 0V | 00:00:00 | 00:00:00 | 00:00:00 | |
| MIELECB | 2026-09-01 23:47:03 | 50.01425 | 21.33318 | 79° | 110km/h | 10446m | 4.7m/s | 0°C | 0% | 0hPa | 0V | 00:00:00 | 00:00:00 | 00:00:00 | |
| MIELECB | 2026-09-01 23:46:58 | 50.01405 | 21.33112 | 88° | 100km/h | 10416m | 6.3m/s | 0°C | 0% | 0hPa | 0V | 00:00:00 | 00:00:00 | 00:00:00 | |
| MIELECB | 2026-09-01 23:46:52 | 50.01394 | 21.32885 | 84° | 91km/h | 10381m | 6.2m/s | 0°C | 0% | 0hPa | 0V | 00:00:00 | 00:00:00 | 00:00:00 | |
| AKAW682 | 2026-09-01 23:46:50 | 50.01388 | 21.32809 | 85° | 106km/h | 10370m | 7.3m/s | 0°C | 0% | 0hPa | 0V | 00:00:00 | 00:00:00 | 00:00:00 | |
| SP9KGR-15 | 2026-09-01 23:46:49 | 50.01385 | 21.32766 | 84° | 115km/h | 10364m | 3.5m/s | 0°C | 0% | 0hPa | 0V | 00:00:00 | 00:00:00 | 00:00:00 | |
| SQ9EZE-12 | 2026-09-01 23:46:48 | 50.01381 | 21.32721 | 82° | 117km/h | 10360m | 4.2m/s | 0°C | 0% | 0hPa | 0V | 00:00:00 | 00:00:00 | 00:00:00 | |
| MIELECB | 2026-09-01 23:46:47 | 50.01377 | 21.32676 | 83° | 111km/h | 10356m | 3.7m/s | 0°C | 0% | 0hPa | 0V | 00:00:00 | 00:00:00 | 00:00:00 | |
| AKAW68 | 2026-09-01 23:46:46 | 50.01373 | 21.32636 | 83° | 97km/h | 10352m | 3.5m/s | 0°C | 0% | 0hPa | 0V | 00:00:00 | 00:00:00 | 00:00:00 | |
| MIELECB | 2026-09-01 23:46:41 | 50.01359 | 21.32459 | 86° | 102km/h | 10321m | 4.3m/s | 0°C | 0% | 0hPa | 0V | 00:00:00 | 00:00:00 | 00:00:00 | |
| SQ9PSP-11 | 2026-09-01 23:46:38 | 50.01351 | 21.32337 | 83° | 102km/h | 10304m | 8.4m/s | 0°C | 0% | 0hPa | 0V | 00:00:00 | 00:00:00 | 00:00:00 | |
| MIELECB | 2026-09-01 23:46:35 | 50.01342 | 21.32229 | 88° | 88km/h | 10283m | 6.6m/s | 0°C | 0% | 0hPa | 0V | 00:00:00 | 00:00:00 | 00:00:00 | |
| SP9KGR-15 | 2026-09-01 23:46:33 | 50.01343 | 21.32158 | 93° | 93km/h | 10273m | 5.8m/s | 0°C | 0% | 0hPa | 0V | 00:00:00 | 00:00:00 | 00:00:00 | |
| SQ9EZE-12 | 2026-09-01 23:46:30 | 50.01346 | 21.32040 | 91° | 100km/h | 10260m | 4.8m/s | 0°C | 0% | 0hPa | 0V | 00:00:00 | 00:00:00 | 00:00:00 | |
| MIELECB | 2026-09-01 23:46:29 | 50.01345 | 21.32000 | 88° | 104km/h | 10254m | 5.8m/s | 0°C | 0% | 0hPa | 0V | 00:00:00 | 00:00:00 | 00:00:00 | |
| AKAW68 | 2026-09-01 23:46:26 | 50.01337 | 21.31885 | 83° | 91km/h | 10237m | 7.0m/s | 0°C | 0% | 0hPa | 0V | 00:00:00 | 00:00:00 | 00:00:00 | |
| MIELECB | 2026-09-01 23:46:24 | 50.01333 | 21.31815 | 88° | 89km/h | 10224m | 9.1m/s | 0°C | 0% | 0hPa | 0V | 00:00:00 | 00:00:00 | 00:00:00 | |
| SQ9PSP-11 | 2026-09-01 23:46:22 | 50.01331 | 21.31742 | 92° | 97km/h | 10213m | 8.2m/s | 0°C | 0% | 0hPa | 0V | 00:00:00 | 00:00:00 | 00:00:00 | |
| MIELECB | 2026-09-01 23:46:18 | 50.01330 | 21.31580 | 88° | 97km/h | 10192m | 4.2m/s | 0°C | 0% | 0hPa | 0V | 00:00:00 | 00:00:00 | 00:00:00 | |
| SP9KGR-15 | 2026-09-01 23:46:17 | 50.01329 | 21.31543 | 86° | 91km/h | 10187m | 3.9m/s | 0°C | 0% | 0hPa | 0V | 00:00:00 | 00:00:00 | 00:00:00 | |
| SQ9EZE-12 | 2026-09-01 23:46:15 | 50.01324 | 21.31472 | 85° | 93km/h | 10178m | 3.2m/s | 0°C | 0% | 0hPa | 0V | 00:00:00 | 00:00:00 | 00:00:00 | |
| MIELECB | 2026-09-01 23:46:12 | 50.01320 | 21.31363 | 92° | 93km/h | 10164m | 8.6m/s | 0°C | 0% | 0hPa | 0V | 00:00:00 | 00:00:00 | 00:00:00 | |
| AKAW682 | 2026-09-01 23:46:09 | 50.01319 | 21.31250 | 87° | 99km/h | 10147m | 6.2m/s | 0°C | 0% | 0hPa | 0V | 00:00:00 | 00:00:00 | 00:00:00 | |
| MIELECB | 2026-09-01 23:46:07 | 50.01316 | 21.31173 | 89° | 97km/h | 10136m | 8.3m/s | 0°C | 0% | 0hPa | 0V | 00:00:00 | 00:00:00 | 00:00:00 | |
| AKAW68 | 2026-09-01 23:46:05 | 50.01317 | 21.31101 | 96° | 93km/h | 10124m | 9.0m/s | 0°C | 0% | 0hPa | 0V | 00:00:00 | 00:00:00 | 00:00:00 | |
| SP9KGR-15 | 2026-09-01 23:46:01 | 50.01322 | 21.30959 | 88° | 89km/h | 10102m | 7.3m/s | 0°C | 0% | 0hPa | 0V | 00:00:00 | 00:00:00 | 00:00:00 | |
| SQ9EZE-12 | 2026-09-01 23:45:58 | 50.01316 | 21.30854 | 89° | 91km/h | 10082m | 7.8m/s | 0°C | 0% | 0hPa | 0V | 00:00:00 | 00:00:00 | 00:00:00 | |
| MIELECB | 2026-09-01 23:45:55 | 50.01319 | 21.30746 | 96° | 91km/h | 10065m | 2.6m/s | 0°C | 0% | 0hPa | 0V | 00:00:00 | 00:00:00 | 00:00:00 | |
| SQ9PSP-11 | 2026-09-01 23:45:51 | 50.01324 | 21.30598 | 91° | 88km/h | 10047m | 4.2m/s | 0°C | 0% | 0hPa | 0V | 00:00:00 | 00:00:00 | 00:00:00 | |
| MIELECB | 2026-09-01 23:45:49 | 50.01326 | 21.30530 | 95° | 84km/h | 10035m | 4.4m/s | 0°C | 0% | 0hPa | 0V | 00:00:00 | 00:00:00 | 00:00:00 | |
| AKAW682 | 2026-09-01 23:45:48 | 50.01327 | 21.30498 | 91° | 78km/h | 10031m | 3.0m/s | 0°C | 0% | 0hPa | 0V | 00:00:00 | 00:00:00 | 00:00:00 | |
| AKAW68 | 2026-09-01 23:45:45 | 50.01325 | 21.30401 | 92° | 88km/h | 10015m | 6.0m/s | 0°C | 0% | 0hPa | 0V | 00:00:00 | 00:00:00 | 00:00:00 | |
| MIELECB | 2026-09-01 23:45:44 | 50.01325 | 21.30366 | 90° | 95km/h | 10009m | 5.0m/s | 0°C | 0% | 0hPa | 0V | 00:00:00 | 00:00:00 | 00:00:00 | |
| SQ9EZE-12 | 2026-09-01 23:45:42 | 50.01325 | 21.30287 | 93° | 99km/h | 9998m | 5.5m/s | 0°C | 0% | 0hPa | 0V | 00:00:00 | 00:00:00 | 00:00:00 | |
| MIELECB | 2026-09-01 23:45:38 | 50.01325 | 21.30148 | 91° | 82km/h | 9978m | 6.3m/s | 0°C | 0% | 0hPa | 0V | 00:00:00 | 00:00:00 | 00:00:00 | |
| SQ9PSP-11 | 2026-09-01 23:45:36 | 50.01326 | 21.30082 | 93° | 88km/h | 9967m | 3.1m/s | 0°C | 0% | 0hPa | 0V | 00:00:00 | 00:00:00 | 00:00:00 | |
| MIELECB | 2026-09-01 23:45:32 | 50.01331 | 21.29943 | 88° | 89km/h | 9946m | 3.8m/s | 0°C | 0% | 0hPa | 0V | 00:00:00 | 00:00:00 | 00:00:00 | |
| SP9KGR-15 | 2026-09-01 23:45:28 | 50.01323 | 21.29799 | 89° | 89km/h | 9922m | 5.5m/s | 0°C | 0% | 0hPa | 0V | 00:00:00 | 00:00:00 | 00:00:00 | |
| SQ9EZE-12 | 2026-09-01 23:45:27 | 50.01323 | 21.29764 | 91° | 91km/h | 9916m | 8.0m/s | 0°C | 0% | 0hPa | 0V | 00:00:00 | 00:00:00 | 00:00:00 | |
| AKAW68 | 2026-09-01 23:45:24 | 50.01326 | 21.29658 | 93° | 91km/h | 9899m | 5.9m/s | 0°C | 0% | 0hPa | 0V | 00:00:00 | 00:00:00 | 00:00:00 | |
| MIELECB | 2026-09-01 23:45:21 | 50.01328 | 21.29549 | 91° | 89km/h | 9882m | 4.8m/s | 0°C | 0% | 0hPa | 0V | 00:00:00 | 00:00:00 | 00:00:00 | |
| SQ9PSP-11 | 2026-09-01 23:45:20 | 50.01328 | 21.29515 | 92° | 89km/h | 9876m | 7.1m/s | 0°C | 0% | 0hPa | 0V | 00:00:00 | 00:00:00 | 00:00:00 | |
| MIELECB | 2026-09-01 23:45:16 | 50.01319 | 21.29338 | 84° | 95km/h | 9851m | 2.5m/s | 0°C | 0% | 0hPa | 0V | 00:00:00 | 00:00:00 | 00:00:00 | |
| SP9KGR-15 | 2026-09-01 23:45:12 | 50.01313 | 21.29228 | 90° | 91km/h | 9836m | 5.7m/s | 0°C | 0% | 0hPa | 0V | 00:00:00 | 00:00:00 | 00:00:00 | |
| MIELECB | 2026-09-01 23:45:09 | 50.01312 | 21.29129 | 88° | 88km/h | 9819m | 8.9m/s | 0°C | 0% | 0hPa | 0V | 00:00:00 | 00:00:00 | 00:00:00 | |
| AKAW682 | 2026-09-01 23:45:07 | 50.01310 | 21.29055 | 88° | 97km/h | 9805m | 8.5m/s | 0°C | 0% | 0hPa | 0V | 00:00:00 | 00:00:00 | 00:00:00 | |
| MIELECB | 2026-09-01 23:45:04 | 50.01306 | 21.28942 | 90° | 95km/h | 9787m | 5.1m/s | 0°C | 0% | 0hPa | 0V | 00:00:00 | 00:00:00 | 00:00:00 | |
| AKAW68 | 2026-09-01 23:45:03 | 50.01307 | 21.28905 | 94° | 91km/h | 9781m | 8.3m/s | 0°C | 0% | 0hPa | 0V | 00:00:00 | 00:00:00 | 00:00:00 | |
| SQ9EZE-12 | 2026-09-01 23:44:58 | 50.01311 | 21.28736 | 85° | 86km/h | 9755m | 10.4m/s | 0°C | 0% | 0hPa | 0V | 00:00:00 | 00:00:00 | 00:00:00 | |
| SP9KGR-15 | 2026-09-01 23:44:55 | 50.01302 | 21.28629 | 86° | 93km/h | 9738m | 4.7m/s | 0°C | 0% | 0hPa | 0V | 00:00:00 | 00:00:00 | 00:00:00 | |
| MIELECB | 2026-09-01 23:44:52 | 50.01300 | 21.28521 | 91° | 93km/h | 9723m | 5.6m/s | 0°C | 0% | 0hPa | 0V | 00:00:00 | 00:00:00 | 00:00:00 | |
| SQ9PSP-11 | 2026-09-01 23:44:48 | 50.01297 | 21.28375 | 88° | 93km/h | 9701m | 5.8m/s | 0°C | 0% | 0hPa | 0V | 00:00:00 | 00:00:00 | 00:00:00 | |
| MIELECB | 2026-09-01 23:44:47 | 50.01296 | 21.28338 | 92° | 93km/h | 9696m | 4.8m/s | 0°C | 0% | 0hPa | 0V | 00:00:00 | 00:00:00 | 00:00:00 | |
| AKAW68 | 2026-09-01 23:44:42 | 50.01297 | 21.28172 | 86° | 89km/h | 9672m | 2.1m/s | 0°C | 0% | 0hPa | 0V | 00:00:00 | 00:00:00 | 00:00:00 | |
| MIELECB | 2026-09-01 23:44:41 | 50.01296 | 21.28137 | 89° | 89km/h | 9667m | 8.1m/s | 0°C | 0% | 0hPa | 0V | 00:00:00 | 00:00:00 | 00:00:00 | |
| SP9KGR-15 | 2026-09-01 23:44:39 | 50.01295 | 21.28067 | 92° | 88km/h | 9653m | 8.3m/s | 0°C | 0% | 0hPa | 0V | 00:00:00 | 00:00:00 | 00:00:00 | |
| MIELECB | 2026-09-01 23:44:35 | 50.01302 | 21.27925 | 92° | 89km/h | 9631m | 4.7m/s | 0°C | 0% | 0hPa | 0V | 00:00:00 | 00:00:00 | 00:00:00 | |
| SQ9EZE-12 | 2026-09-01 23:44:32 | 50.01299 | 21.27819 | 87° | 93km/h | 9617m | 2.6m/s | 0°C | 0% | 0hPa | 0V | 00:00:00 | 00:00:00 | 00:00:00 | |
| MIELECB | 2026-09-01 23:44:29 | 50.01297 | 21.27717 | 96° | 80km/h | 9601m | 4.1m/s | 0°C | 0% | 0hPa | 0V | 00:00:00 | 00:00:00 | 00:00:00 | |
| AKAW682 | 2026-09-01 23:44:27 | 50.01301 | 21.27653 | 96° | 86km/h | 9591m | 3.3m/s | 0°C | 0% | 0hPa | 0V | 00:00:00 | 00:00:00 | 00:00:00 | |
| MIELECB | 2026-09-01 23:44:24 | 50.01303 | 21.27545 | 91° | 99km/h | 9577m | 5.4m/s | 0°C | 0% | 0hPa | 0V | 00:00:00 | 00:00:00 | 00:00:00 | |
| SP9KGR-15 | 2026-09-01 23:44:23 | 50.01303 | 21.27508 | 89° | 93km/h | 9571m | 7.4m/s | 0°C | 0% | 0hPa | 0V | 00:00:00 | 00:00:00 | 00:00:00 | |
| AKAW68 | 2026-09-01 23:44:22 | 50.01301 | 21.27472 | 86° | 88km/h | 9565m | 4.4m/s | 0°C | 0% | 0hPa | 0V | 00:00:00 | 00:00:00 | 00:00:00 | |
| MIELECB | 2026-09-01 23:44:19 | 50.01294 | 21.27371 | 83° | 88km/h | 9549m | 4.8m/s | 0°C | 0% | 0hPa | 0V | 00:00:00 | 00:00:00 | 00:00:00 | |
| SQ9PSP-11 | 2026-09-01 23:44:18 | 50.01290 | 21.27304 | 89° | 84km/h | 9537m | 4.3m/s | 0°C | 0% | 0hPa | 0V | 00:00:00 | 00:00:00 | 00:00:00 | |
| SQ9EZE-12 | 2026-09-01 23:44:15 | 50.01291 | 21.27235 | 93° | 89km/h | 9524m | 5.4m/s | 0°C | 0% | 0hPa | 0V | 00:00:00 | 00:00:00 | 00:00:00 | |
| MIELECB | 2026-09-01 23:44:14 | 50.01292 | 21.27201 | 91° | 88km/h | 9520m | 2.7m/s | 0°C | 0% | 0hPa | 0V | 00:00:00 | 00:00:00 | 00:00:00 | |
| MIELECB | 2026-09-01 23:44:08 | 50.01285 | 21.27000 | 86° | 95km/h | 9486m | 6.6m/s | 0°C | 0% | 0hPa | 0V | 00:00:00 | 00:00:00 | 00:00:00 | |
| AKAW682 | 2026-09-01 23:44:06 | 50.01285 | 21.26924 | 93° | 95km/h | 9476m | 5.5m/s | 0°C | 0% | 0hPa | 0V | 00:00:00 | 00:00:00 | 00:00:00 | |
| MIELECB | 2026-09-01 23:44:03 | 50.01282 | 21.26827 | 83° | 73km/h | 9461m | 6.2m/s | 0°C | 0% | 0hPa | 0V | 00:00:00 | 00:00:00 | 00:00:00 | |
| AKAW68 | 2026-09-01 23:44:02 | 50.01280 | 21.26798 | 82° | 80km/h | 9455m | 4.3m/s | 0°C | 0% | 0hPa | 0V | 00:00:00 | 00:00:00 | 00:00:00 | |
| SQ9PSP-11 | 2026-09-01 23:44:01 | 50.01277 | 21.26766 | 85° | 84km/h | 9451m | 4.9m/s | 0°C | 0% | 0hPa | 0V | 00:00:00 | 00:00:00 | 00:00:00 | |
| SQ9EZE-12 | 2026-09-01 23:43:59 | 50.01274 | 21.26699 | 88° | 84km/h | 9440m | 4.6m/s | 0°C | 0% | 0hPa | 0V | 00:00:00 | 00:00:00 | 00:00:00 | |
| MIELECB | 2026-09-01 23:43:57 | 50.01271 | 21.26636 | 87° | 80km/h | 9431m | 5.2m/s | 0°C | 0% | 0hPa | 0V | 00:00:00 | 00:00:00 | 00:00:00 | |
| MIELECB | 2026-09-01 23:43:52 | 50.01271 | 21.26471 | 87° | 88km/h | 9405m | 3.9m/s | 0°C | 0% | 0hPa | 0V | 00:00:00 | 00:00:00 | 00:00:00 | |
| SP9KGR-15 | 2026-09-01 23:43:51 | 50.01269 | 21.26436 | 86° | 88km/h | 9401m | 5.1m/s | 0°C | 0% | 0hPa | 0V | 00:00:00 | 00:00:00 | 00:00:00 | |
| SQ9PSP-11 | 2026-09-01 23:43:46 | 50.01257 | 21.26287 | 87° | 66km/h | 9375m | 7.1m/s | 0°C | 0% | 0hPa | 0V | 00:00:00 | 00:00:00 | 00:00:00 | |
| AKAW682 | 2026-09-01 23:43:45 | 50.01257 | 21.26261 | 98° | 68km/h | 9369m | 4.2m/s | 0°C | 0% | 0hPa | 0V | 00:00:00 | 00:00:00 | 00:00:00 | |
| SQ9EZE-12 | 2026-09-01 23:43:43 | 50.01262 | 21.26204 | 97° | 78km/h | 9361m | 4.3m/s | 0°C | 0% | 0hPa | 0V | 00:00:00 | 00:00:00 | 00:00:00 | |
| MIELECB | 2026-09-01 23:43:41 | 50.01262 | 21.26140 | 86° | 80km/h | 9350m | 6.4m/s | 0°C | 0% | 0hPa | 0V | 00:00:00 | 00:00:00 | 00:00:00 | |
| SP9KGR-15 | 2026-09-01 23:43:36 | 50.01260 | 21.26008 | 99° | 62km/h | 9324m | 4.4m/s | 0°C | 0% | 0hPa | 0V | 00:00:00 | 00:00:00 | 00:00:00 | |
| MIELECB | 2026-09-01 23:43:35 | 50.01261 | 21.25982 | 92° | 69km/h | 9320m | 2.8m/s | 0°C | 0% | 0hPa | 0V | 00:00:00 | 00:00:00 | 00:00:00 | |
| SQ9PSP-11 | 2026-09-01 23:43:30 | 50.01255 | 21.25835 | 87° | 68km/h | 9290m | 4.7m/s | 0°C | 0% | 0hPa | 0V | 00:00:00 | 00:00:00 | 00:00:00 | |
| MIELECB | 2026-09-01 23:43:29 | 50.01254 | 21.25809 | 90° | 66km/h | 9285m | 5.4m/s | 0°C | 0% | 0hPa | 0V | 00:00:00 | 00:00:00 | 00:00:00 | |
| SQ9EZE-12 | 2026-09-01 23:43:27 | 50.01253 | 21.25753 | 92° | 77km/h | 9275m | 6.8m/s | 0°C | 0% | 0hPa | 0V | 00:00:00 | 00:00:00 | 00:00:00 | |
| MIELECB | 2026-09-01 23:43:24 | 50.01258 | 21.25660 | 95° | 73km/h | 9258m | 5.0m/s | 0°C | 0% | 0hPa | 0V | 00:00:00 | 00:00:00 | 00:00:00 | |
| SP9KGR-15 | 2026-09-01 23:43:21 | 50.01257 | 21.25586 | 85° | 64km/h | 9243m | 4.1m/s | 0°C | 0% | 0hPa | 0V | 00:00:00 | 00:00:00 | 00:00:00 | |
| MIELECB | 2026-09-01 23:43:18 | 50.01255 | 21.25499 | 89° | 86km/h | 9228m | 4.3m/s | 0°C | 0% | 0hPa | 0V | 00:00:00 | 00:00:00 | 00:00:00 | |
| MIELECB | 2026-09-01 23:43:13 | 50.01256 | 21.25348 | 94° | 71km/h | 9200m | 4.6m/s | 0°C | 0% | 0hPa | 0V | 00:00:00 | 00:00:00 | 00:00:00 | |
| SQ9EZE-12 | 2026-09-01 23:43:11 | 50.01256 | 21.25289 | 85° | 80km/h | 9187m | 5.7m/s | 0°C | 0% | 0hPa | 0V | 00:00:00 | 00:00:00 | 00:00:00 | |
| MIELECB | 2026-09-01 23:43:07 | 50.01249 | 21.25164 | 92° | 78km/h | 9167m | 6.8m/s | 0°C | 0% | 0hPa | 0V | 00:00:00 | 00:00:00 | 00:00:00 | |
| SP9KGR-15 | 2026-09-01 23:43:05 | 50.01250 | 21.25103 | 93° | 78km/h | 9155m | 9.3m/s | 0°C | 0% | 0hPa | 0V | 00:00:00 | 00:00:00 | 00:00:00 | |
| AKAW682 | 2026-09-01 23:43:04 | 50.01251 | 21.25073 | 93° | 78km/h | 9148m | 5.0m/s | 0°C | 0% | 0hPa | 0V | 00:00:00 | 00:00:00 | 00:00:00 | |
| MIELECB | 2026-09-01 23:43:01 | 50.01252 | 21.24983 | 88° | 71km/h | 9129m | 5.1m/s | 0°C | 0% | 0hPa | 0V | 00:00:00 | 00:00:00 | 00:00:00 | |
| AKAW68 | 2026-09-01 23:43:00 | 50.01251 | 21.24955 | 86° | 71km/h | 9124m | 5.4m/s | 0°C | 0% | 0hPa | 0V | 00:00:00 | 00:00:00 | 00:00:00 | |
| SQ9PSP-11 | 2026-09-01 23:42:59 | 50.01249 | 21.24926 | 83° | 75km/h | 9118m | 5.1m/s | 0°C | 0% | 0hPa | 0V | 00:00:00 | 00:00:00 | 00:00:00 | |
| SQ9EZE-12 | 2026-09-01 23:42:55 | 50.01238 | 21.24801 | 90° | 78km/h | 9098m | 6.6m/s | 0°C | 0% | 0hPa | 0V | 00:00:00 | 00:00:00 | 00:00:00 | |
| MIELECB | 2026-09-01 23:42:50 | 50.01239 | 21.24654 | 86° | 78km/h | 9069m | 4.3m/s | 0°C | 0% | 0hPa | 0V | 00:00:00 | 00:00:00 | 00:00:00 | |
| MIELECB | 2026-09-01 23:42:45 | 50.01228 | 21.24496 | 85° | 86km/h | 9042m | 7.2m/s | 0°C | 0% | 0hPa | 0V | 00:00:00 | 00:00:00 | 00:00:00 | |
| SQ9PSP-11 | 2026-09-01 23:42:44 | 50.01226 | 21.24464 | 87° | 78km/h | 9035m | 4.0m/s | 0°C | 0% | 0hPa | 0V | 00:00:00 | 00:00:00 | 00:00:00 | |
| AKAW682 | 2026-09-01 23:42:43 | 50.01225 | 21.24433 | 90° | 77km/h | 9030m | 6.6m/s | 0°C | 0% | 0hPa | 0V | 00:00:00 | 00:00:00 | 00:00:00 | |
| AKAW68 | 2026-09-01 23:42:39 | 50.01230 | 21.24317 | 91° | 71km/h | 9009m | 5.6m/s | 0°C | 0% | 0hPa | 0V | 00:00:00 | 00:00:00 | 00:00:00 | |
| MIELECB | 2026-09-01 23:42:34 | 50.01223 | 21.24164 | 88° | 88km/h | 8978m | 5.8m/s | 0°C | 0% | 0hPa | 0V | 00:00:00 | 00:00:00 | 00:00:00 | |
| MIELECB | 2026-09-01 23:42:28 | 50.01222 | 21.23967 | 91° | 71km/h | 8944m | 8.8m/s | 0°C | 0% | 0hPa | 0V | 00:00:00 | 00:00:00 | 00:00:00 | |
| SQ9EZE-12 | 2026-09-01 23:42:24 | 50.01220 | 21.23842 | 90° | 91km/h | 8921m | 8.2m/s | 0°C | 0% | 0hPa | 0V | 00:00:00 | 00:00:00 | 00:00:00 | |
| MIELECB | 2026-09-01 23:42:23 | 50.01219 | 21.23807 | 88° | 89km/h | 8915m | 4.3m/s | 0°C | 0% | 0hPa | 0V | 00:00:00 | 00:00:00 | 00:00:00 | |
| AKAW68 | 2026-09-01 23:42:18 | 50.01220 | 21.23640 | 89° | 84km/h | 8882m | 7.3m/s | 0°C | 0% | 0hPa | 0V | 00:00:00 | 00:00:00 | 00:00:00 | |
| MIELECB | 2026-09-01 23:42:17 | 50.01219 | 21.23607 | 89° | 86km/h | 8876m | 4.3m/s | 0°C | 0% | 0hPa | 0V | 00:00:00 | 00:00:00 | 00:00:00 | |
| SQ9PSP-11 | 2026-09-01 23:42:12 | 50.01217 | 21.23441 | 94° | 82km/h | 8844m | 4.3m/s | 0°C | 0% | 0hPa | 0V | 00:00:00 | 00:00:00 | 00:00:00 | |
| MIELECB | 2026-09-01 23:42:11 | 50.01218 | 21.23408 | 92° | 82km/h | 8839m | 6.5m/s | 0°C | 0% | 0hPa | 0V | 00:00:00 | 00:00:00 | 00:00:00 | |
| SQ9EZE-12 | 2026-09-01 23:42:08 | 50.01211 | 21.23312 | 85° | 80km/h | 8822m | 7.8m/s | 0°C | 0% | 0hPa | 0V | 00:00:00 | 00:00:00 | 00:00:00 | |
| MIELECB | 2026-09-01 23:42:05 | 50.01210 | 21.23216 | 94° | 82km/h | 8802m | 6.0m/s | 0°C | 0% | 0hPa | 0V | 00:00:00 | 00:00:00 | 00:00:00 | |
| SP9KGR-15 | 2026-09-01 23:42:02 | 50.01208 | 21.23115 | 85° | 89km/h | 8785m | 5.8m/s | 0°C | 0% | 0hPa | 0V | 00:00:00 | 00:00:00 | 00:00:00 | |
| AKAW682 | 2026-09-01 23:42:01 | 50.01205 | 21.23080 | 81° | 91km/h | 8779m | 6.1m/s | 0°C | 0% | 0hPa | 0V | 00:00:00 | 00:00:00 | 00:00:00 | |
| MIELECB | 2026-09-01 23:42:00 | 50.01201 | 21.23045 | 81° | 89km/h | 8774m | 4.3m/s | 0°C | 0% | 0hPa | 0V | 00:00:00 | 00:00:00 | 00:00:00 | |
| AKAW68 | 2026-09-01 23:41:58 | 50.01193 | 21.22978 | 81° | 84km/h | 8761m | 6.8m/s | 0°C | 0% | 0hPa | 0V | 00:00:00 | 00:00:00 | 00:00:00 | |
| SQ9PSP-11 | 2026-09-01 23:41:57 | 50.01191 | 21.22945 | 88° | 82km/h | 8756m | 4.9m/s | 0°C | 0% | 0hPa | 0V | 00:00:00 | 00:00:00 | 00:00:00 | |
| MIELECB | 2026-09-01 23:41:54 | 50.01188 | 21.22855 | 90° | 68km/h | 8736m | 8.6m/s | 0°C | 0% | 0hPa | 0V | 00:00:00 | 00:00:00 | 00:00:00 | |
| SQ9EZE-12 | 2026-09-01 23:41:52 | 50.01189 | 21.22800 | 93° | 77km/h | 8723m | 7.8m/s | 0°C | 0% | 0hPa | 0V | 00:00:00 | 00:00:00 | 00:00:00 | |
| MIELECB | 2026-09-01 23:41:49 | 50.01187 | 21.22696 | 83° | 95km/h | 8708m | 7.5m/s | 0°C | 0% | 0hPa | 0V | 00:00:00 | 00:00:00 | 00:00:00 | |
| SP9KGR-15 | 2026-09-01 23:41:47 | 50.01179 | 21.22627 | 82° | 86km/h | 8695m | 5.9m/s | 0°C | 0% | 0hPa | 0V | 00:00:00 | 00:00:00 | 00:00:00 | |
| MIELECB | 2026-09-01 23:41:43 | 50.01180 | 21.22504 | 98° | 73km/h | 8667m | 6.8m/s | 0°C | 0% | 0hPa | 0V | 00:00:00 | 00:00:00 | 00:00:00 | |
| SQ9PSP-11 | 2026-09-01 23:41:41 | 50.01180 | 21.22445 | 86° | 78km/h | 8656m | 4.8m/s | 0°C | 0% | 0hPa | 0V | 00:00:00 | 00:00:00 | 00:00:00 | |
| AKAW682 | 2026-09-01 23:41:40 | 50.01177 | 21.22414 | 81° | 82km/h | 8649m | 9.1m/s | 0°C | 0% | 0hPa | 0V | 00:00:00 | 00:00:00 | 00:00:00 | |
| MIELECB | 2026-09-01 23:41:38 | 50.01169 | 21.22349 | 80° | 82km/h | 8637m | 4.5m/s | 0°C | 0% | 0hPa | 0V | 00:00:00 | 00:00:00 | 00:00:00 | |
| SQ9EZE-12 | 2026-09-01 23:41:37 | 50.01165 | 21.22319 | 81° | 77km/h | 8632m | 5.9m/s | 0°C | 0% | 0hPa | 0V | 00:00:00 | 00:00:00 | 00:00:00 | |
| MIELECB | 2026-09-01 23:41:32 | 50.01161 | 21.22177 | 97° | 78km/h | 8603m | 5.7m/s | 0°C | 0% | 0hPa | 0V | 00:00:00 | 00:00:00 | 00:00:00 | |
| SP9KGR-15 | 2026-09-01 23:41:29 | 50.01164 | 21.22083 | 91° | 78km/h | 8587m | 4.9m/s | 0°C | 0% | 0hPa | 0V | 00:00:00 | 00:00:00 | 00:00:00 | |
| MIELECB | 2026-09-01 23:41:27 | 50.01161 | 21.22019 | 82° | 86km/h | 8574m | 4.6m/s | 0°C | 0% | 0hPa | 0V | 00:00:00 | 00:00:00 | 00:00:00 | |
| SQ9PSP-11 | 2026-09-01 23:41:26 | 50.01157 | 21.21985 | 81° | 86km/h | 8569m | 6.0m/s | 0°C | 0% | 0hPa | 0V | 00:00:00 | 00:00:00 | 00:00:00 | |
| MIELECB | 2026-09-01 23:41:22 | 50.01152 | 21.21862 | 95° | 75km/h | 8547m | 3.7m/s | 0°C | 0% | 0hPa | 0V | 00:00:00 | 00:00:00 | 00:00:00 | |
| SQ9EZE-12 | 2026-09-01 23:41:20 | 50.01158 | 21.21799 | 102° | 88km/h | 8535m | 5.8m/s | 0°C | 0% | 0hPa | 0V | 00:00:00 | 00:00:00 | 00:00:00 | |
| AKAW682 | 2026-09-01 23:41:17 | 50.01164 | 21.21699 | 89° | 80km/h | 8521m | 5.6m/s | 0°C | 0% | 0hPa | 0V | 00:00:00 | 00:00:00 | 00:00:00 | |
| AKAW68 | 2026-09-01 23:41:16 | 50.01163 | 21.21668 | 86° | 75km/h | 8513m | 8.6m/s | 0°C | 0% | 0hPa | 0V | 00:00:00 | 00:00:00 | 00:00:00 | |
| SP9KGR-15 | 2026-09-01 23:41:14 | 50.01158 | 21.21612 | 85° | 68km/h | 8501m | 7.3m/s | 0°C | 0% | 0hPa | 0V | 00:00:00 | 00:00:00 | 00:00:00 | |
| MIELECB | 2026-09-01 23:41:11 | 50.01159 | 21.21536 | 96° | 64km/h | 8485m | 6.2m/s | 0°C | 0% | 0hPa | 0V | 00:00:00 | 00:00:00 | 00:00:00 | |
| SQ9PSP-11 | 2026-09-01 23:41:10 | 50.01160 | 21.21509 | 93° | 73km/h | 8480m | 3.5m/s | 0°C | 0% | 0hPa | 0V | 00:00:00 | 00:00:00 | 00:00:00 | |
| MIELECB | 2026-09-01 23:41:06 | 50.01161 | 21.21384 | 86° | 77km/h | 8456m | 5.0m/s | 0°C | 0% | 0hPa | 0V | 00:00:00 | 00:00:00 | 00:00:00 | |
| SQ9EZE-12 | 2026-09-01 23:41:02 | 50.01156 | 21.21272 | 90° | 75km/h | 8430m | 5.4m/s | 0°C | 0% | 0hPa | 0V | 00:00:00 | 00:00:00 | 00:00:00 | |
| MIELECB | 2026-09-01 23:41:00 | 50.01156 | 21.21213 | 90° | 75km/h | 8419m | 6.7m/s | 0°C | 0% | 0hPa | 0V | 00:00:00 | 00:00:00 | 00:00:00 | |
| SP9KGR-15 | 2026-09-01 23:40:58 | 50.01152 | 21.21153 | 83° | 77km/h | 8406m | 8.4m/s | 0°C | 0% | 0hPa | 0V | 00:00:00 | 00:00:00 | 00:00:00 | |
| AKAW68 | 2026-09-01 23:40:56 | 50.01151 | 21.21093 | 93° | 75km/h | 8394m | 5.6m/s | 0°C | 0% | 0hPa | 0V | 00:00:00 | 00:00:00 | 00:00:00 | |
| SQ9PSP-11 | 2026-09-01 23:40:55 | 50.01152 | 21.21063 | 97° | 80km/h | 8389m | 5.9m/s | 0°C | 0% | 0hPa | 0V | 00:00:00 | 00:00:00 | 00:00:00 | |
| MIELECB | 2026-09-01 23:40:54 | 50.01155 | 21.21032 | 101° | 78km/h | 8382m | 6.3m/s | 0°C | 0% | 0hPa | 0V | 00:00:00 | 00:00:00 | 00:00:00 | |
| MIELECB | 2026-09-01 23:40:48 | 50.01156 | 21.20844 | 87° | 68km/h | 8347m | 7.6m/s | 0°C | 0% | 0hPa | 0V | 00:00:00 | 00:00:00 | 00:00:00 | |
| SQ9EZE-12 | 2026-09-01 23:40:47 | 50.01155 | 21.20818 | 86° | 68km/h | 8341m | 4.2m/s | 0°C | 0% | 0hPa | 0V | 00:00:00 | 00:00:00 | 00:00:00 | |
| SP9KGR-15 | 2026-09-01 23:40:43 | 50.01162 | 21.20698 | 102° | 88km/h | 8314m | 5.4m/s | 0°C | 0% | 0hPa | 0V | 00:00:00 | 00:00:00 | 00:00:00 | |
| MIELECB | 2026-09-01 23:40:42 | 50.01166 | 21.20665 | 99° | 80km/h | 8310m | 2.6m/s | 0°C | 0% | 0hPa | 0V | 00:00:00 | 00:00:00 | 00:00:00 | |
| SQ9PSP-11 | 2026-09-01 23:40:40 | 50.01168 | 21.20606 | 88° | 75km/h | 8302m | 4.4m/s | 0°C | 0% | 0hPa | 0V | 00:00:00 | 00:00:00 | 00:00:00 | |
| MIELECB | 2026-09-01 23:40:37 | 50.01164 | 21.20519 | 93° | 71km/h | 8288m | 6.0m/s | 0°C | 0% | 0hPa | 0V | 00:00:00 | 00:00:00 | 00:00:00 | |
| AKAW68 | 2026-09-01 23:40:35 | 50.01168 | 21.20458 | 99° | 84km/h | 8273m | 5.4m/s | 0°C | 0% | 0hPa | 0V | 00:00:00 | 00:00:00 | 00:00:00 | |
| MIELECB | 2026-09-01 23:40:31 | 50.01171 | 21.20335 | 85° | 75km/h | 8247m | 5.9m/s | 0°C | 0% | 0hPa | 0V | 00:00:00 | 00:00:00 | 00:00:00 | |
| SP9KGR-15 | 2026-09-01 23:40:27 | 50.01169 | 21.20211 | 96° | 84km/h | 8226m | 3.5m/s | 0°C | 0% | 0hPa | 0V | 00:00:00 | 00:00:00 | 00:00:00 | |
| MIELECB | 2026-09-01 23:40:26 | 50.01171 | 21.20180 | 99° | 78km/h | 8221m | 6.0m/s | 0°C | 0% | 0hPa | 0V | 00:00:00 | 00:00:00 | 00:00:00 | |
| SQ9PSP-11 | 2026-09-01 23:40:24 | 50.01178 | 21.20121 | 98° | 73km/h | 8210m | 4.4m/s | 0°C | 0% | 0hPa | 0V | 00:00:00 | 00:00:00 | 00:00:00 | |
| MIELECB | 2026-09-01 23:40:20 | 50.01177 | 21.20004 | 90° | 80km/h | 8185m | 4.8m/s | 0°C | 0% | 0hPa | 0V | 00:00:00 | 00:00:00 | 00:00:00 | |
| MIELECB | 2026-09-01 23:40:15 | 50.01177 | 21.19856 | 93° | 69km/h | 8157m | 3.7m/s | 0°C | 0% | 0hPa | 0V | 00:00:00 | 00:00:00 | 00:00:00 | |
| AKAW68 | 2026-09-01 23:40:14 | 50.01177 | 21.19829 | 93° | 68km/h | 8152m | 5.7m/s | 0°C | 0% | 0hPa | 0V | 00:00:00 | 00:00:00 | 00:00:00 | |
| SP9KGR-15 | 2026-09-01 23:40:12 | 50.01179 | 21.19776 | 94° | 71km/h | 8140m | 8.4m/s | 0°C | 0% | 0hPa | 0V | 00:00:00 | 00:00:00 | 00:00:00 | |
| MIELECB | 2026-09-01 23:40:09 | 50.01181 | 21.19683 | 93° | 82km/h | 8122m | 5.3m/s | 0°C | 0% | 0hPa | 0V | 00:00:00 | 00:00:00 | 00:00:00 | |
| MIELECB | 2026-09-01 23:40:04 | 50.01181 | 21.19526 | 94° | 77km/h | 8096m | 5.3m/s | 0°C | 0% | 0hPa | 0V | 00:00:00 | 00:00:00 | 00:00:00 | |
| SQ9EZE-12 | 2026-09-01 23:40:00 | 50.01191 | 21.19411 | 96° | 73km/h | 8070m | 8.9m/s | 0°C | 0% | 0hPa | 0V | 00:00:00 | 00:00:00 | 00:00:00 | |
| MIELECB | 2026-09-01 23:39:58 | 50.01192 | 21.19347 | 91° | 88km/h | 8056m | 6.0m/s | 0°C | 0% | 0hPa | 0V | 00:00:00 | 00:00:00 | 00:00:00 | |
| SP9KGR-15 | 2026-09-01 23:39:56 | 50.01191 | 21.19279 | 90° | 82km/h | 8043m | 7.1m/s | 0°C | 0% | 0hPa | 0V | 00:00:00 | 00:00:00 | 00:00:00 | |
| AKAW68 | 2026-09-01 23:39:54 | 50.01193 | 21.19220 | 99° | 69km/h | 8032m | 5.0m/s | 0°C | 0% | 0hPa | 0V | 00:00:00 | 00:00:00 | 00:00:00 | |
| MIELECB | 2026-09-01 23:39:53 | 50.01196 | 21.19193 | 102° | 71km/h | 8027m | 4.9m/s | 0°C | 0% | 0hPa | 0V | 00:00:00 | 00:00:00 | 00:00:00 | |
| MIELECB | 2026-09-01 23:39:47 | 50.01203 | 21.18997 | 99° | 86km/h | 7998m | 3.0m/s | 0°C | 0% | 0hPa | 0V | 00:00:00 | 00:00:00 | 00:00:00 | |
| SQ9EZE-12 | 2026-09-01 23:39:44 | 50.01212 | 21.18901 | 93° | 77km/h | 7981m | 6.5m/s | 0°C | 0% | 0hPa | 0V | 00:00:00 | 00:00:00 | 00:00:00 | |
| MIELECB | 2026-09-01 23:39:42 | 50.01210 | 21.18839 | 85° | 80km/h | 7966m | 4.9m/s | 0°C | 0% | 0hPa | 0V | 00:00:00 | 00:00:00 | 00:00:00 | |
| SP9KGR-15 | 2026-09-01 23:39:41 | 50.01209 | 21.18808 | 89° | 80km/h | 7959m | 7.8m/s | 0°C | 0% | 0hPa | 0V | 00:00:00 | 00:00:00 | 00:00:00 | |
| MIELECB | 2026-09-01 23:39:37 | 50.01214 | 21.18676 | 93° | 84km/h | 7937m | 5.7m/s | 0°C | 0% | 0hPa | 0V | 00:00:00 | 00:00:00 | 00:00:00 | |
| AKAW68 | 2026-09-01 23:39:33 | 50.01218 | 21.18559 | 94° | 69km/h | 7912m | 4.9m/s | 0°C | 0% | 0hPa | 0V | 00:00:00 | 00:00:00 | 00:00:00 | |
| AKAW682 | 2026-09-01 23:39:32 | 50.01219 | 21.18533 | 96° | 66km/h | 7904m | 11.1m/s | 0°C | 0% | 0hPa | 0V | 00:00:00 | 00:00:00 | 00:00:00 | |
| MIELECB | 2026-09-01 23:39:31 | 50.01220 | 21.18506 | 96° | 69km/h | 7895m | 6.1m/s | 0°C | 0% | 0hPa | 0V | 00:00:00 | 00:00:00 | 00:00:00 | |
| SQ9EZE-12 | 2026-09-01 23:39:29 | 50.01224 | 21.18446 | 96° | 84km/h | 7884m | 7.0m/s | 0°C | 0% | 0hPa | 0V | 00:00:00 | 00:00:00 | 00:00:00 | |
| MIELECB | 2026-09-01 23:39:26 | 50.01226 | 21.18345 | 95° | 84km/h | 7868m | 3.9m/s | 0°C | 0% | 0hPa | 0V | 00:00:00 | 00:00:00 | 00:00:00 | |
| SP9KGR-15 | 2026-09-01 23:39:25 | 50.01228 | 21.18313 | 94° | 80km/h | 7863m | 6.8m/s | 0°C | 0% | 0hPa | 0V | 00:00:00 | 00:00:00 | 00:00:00 | |
| SQ9PSP-11 | 2026-09-01 23:39:21 | 50.01227 | 21.18198 | 89° | 68km/h | 7839m | 5.4m/s | 0°C | 0% | 0hPa | 0V | 00:00:00 | 00:00:00 | 00:00:00 | |
| MIELECB | 2026-09-01 23:39:20 | 50.01226 | 21.18171 | 92° | 71km/h | 7834m | 5.4m/s | 0°C | 0% | 0hPa | 0V | 00:00:00 | 00:00:00 | 00:00:00 | |
| MIELECB | 2026-09-01 23:39:15 | 50.01234 | 21.18025 | 103° | 71km/h | 7811m | 4.3m/s | 0°C | 0% | 0hPa | 0V | 00:00:00 | 00:00:00 | 00:00:00 | |
| AKAW68 | 2026-09-01 23:39:13 | 50.01241 | 21.17970 | 99° | 73km/h | 7804m | 4.4m/s | 0°C | 0% | 0hPa | 0V | 00:00:00 | 00:00:00 | 00:00:00 | |
| AKAW682 | 2026-09-01 23:39:12 | 50.01243 | 21.17941 | 94° | 73km/h | 7800m | 5.9m/s | 0°C | 0% | 0hPa | 0V | 00:00:00 | 00:00:00 | 00:00:00 | |
| MIELECB | 2026-09-01 23:39:09 | 50.01241 | 21.17856 | 84° | 71km/h | 7775m | 7.4m/s | 0°C | 0% | 0hPa | 0V | 00:00:00 | 00:00:00 | 00:00:00 | |
| SQ9PSP-11 | 2026-09-01 23:39:06 | 50.01234 | 21.17771 | 89° | 73km/h | 7750m | 5.4m/s | 0°C | 0% | 0hPa | 0V | 00:00:00 | 00:00:00 | 00:00:00 | |
| MIELECB | 2026-09-01 23:39:03 | 50.01238 | 21.17689 | 103° | 71km/h | 7729m | 7.1m/s | 0°C | 0% | 0hPa | 0V | 00:00:00 | 00:00:00 | 00:00:00 | |
| MIELECB | 2026-09-01 23:38:58 | 50.01245 | 21.17553 | 81° | 73km/h | 7701m | 5.3m/s | 0°C | 0% | 0hPa | 0V | 00:00:00 | 00:00:00 | 00:00:00 | |
| MIELECB | 2026-09-01 23:38:53 | 50.01245 | 21.17401 | 96° | 78km/h | 7672m | 8.3m/s | 0°C | 0% | 0hPa | 0V | 00:00:00 | 00:00:00 | 00:00:00 | |
| AKAW68 | 2026-09-01 23:38:52 | 50.01246 | 21.17371 | 92° | 71km/h | 7665m | 6.0m/s | 0°C | 0% | 0hPa | 0V | 00:00:00 | 00:00:00 | 00:00:00 | |
| AKAW682 | 2026-09-01 23:38:51 | 50.01245 | 21.17344 | 88° | 71km/h | 7658m | 7.1m/s | 0°C | 0% | 0hPa | 0V | 00:00:00 | 00:00:00 | 00:00:00 | |
| SQ9PSP-11 | 2026-09-01 23:38:50 | 50.01244 | 21.17317 | 84° | 68km/h | 7651m | 6.2m/s | 0°C | 0% | 0hPa | 0V | 00:00:00 | 00:00:00 | 00:00:00 | |
| MIELECB | 2026-09-01 23:38:47 | 50.01243 | 21.17234 | 96° | 75km/h | 7637m | 5.1m/s | 0°C | 0% | 0hPa | 0V | 00:00:00 | 00:00:00 | 00:00:00 | |
| MIELECB | 2026-09-01 23:38:42 | 50.01253 | 21.17095 | 91° | 69km/h | 7612m | 4.8m/s | 0°C | 0% | 0hPa | 0V | 00:00:00 | 00:00:00 | 00:00:00 | |
| MIELECB | 2026-09-01 23:38:36 | 50.01252 | 21.16906 | 89° | 75km/h | 7578m | 8.0m/s | 0°C | 0% | 0hPa | 0V | 00:00:00 | 00:00:00 | 00:00:00 | |
| SQ9PSP-11 | 2026-09-01 23:38:35 | 50.01250 | 21.16878 | 84° | 73km/h | 7569m | 9.1m/s | 0°C | 0% | 0hPa | 0V | 00:00:00 | 00:00:00 | 00:00:00 | |
| AKAW682 | 2026-09-01 23:38:31 | 50.01243 | 21.16763 | 95° | 75km/h | 7543m | 3.7m/s | 0°C | 0% | 0hPa | 0V | 00:00:00 | 00:00:00 | 00:00:00 | |
| MIELECB | 2026-09-01 23:38:29 | 50.01247 | 21.16706 | 98° | 69km/h | 7532m | 5.6m/s | 0°C | 0% | 0hPa | 0V | 00:00:00 | 00:00:00 | 00:00:00 | |
| MIELECB | 2026-09-01 23:38:23 | 50.01242 | 21.16533 | 93° | 73km/h | 7499m | 8.3m/s | 0°C | 0% | 0hPa | 0V | 00:00:00 | 00:00:00 | 00:00:00 | |
| SQ9PSP-11 | 2026-09-01 23:38:20 | 50.01242 | 21.16451 | 89° | 68km/h | 7481m | 4.8m/s | 0°C | 0% | 0hPa | 0V | 00:00:00 | 00:00:00 | 00:00:00 | |
| MIELECB | 2026-09-01 23:38:17 | 50.01238 | 21.16371 | 87° | 73km/h | 7466m | 4.5m/s | 0°C | 0% | 0hPa | 0V | 00:00:00 | 00:00:00 | 00:00:00 | |
| MIELECB | 2026-09-01 23:38:12 | 50.01243 | 21.16224 | 92° | 69km/h | 7445m | 4.2m/s | 0°C | 0% | 0hPa | 0V | 00:00:00 | 00:00:00 | 00:00:00 | |
| AKAW68 | 2026-09-01 23:38:11 | 50.01243 | 21.16196 | 87° | 73km/h | 7440m | 4.9m/s | 0°C | 0% | 0hPa | 0V | 00:00:00 | 00:00:00 | 00:00:00 | |
| AKAW682 | 2026-09-01 23:38:10 | 50.01241 | 21.16166 | 86° | 78km/h | 7436m | 4.3m/s | 0°C | 0% | 0hPa | 0V | 00:00:00 | 00:00:00 | 00:00:00 | |
| MIELECB | 2026-09-01 23:38:06 | 50.01240 | 21.16022 | 88° | 62km/h | 7411m | 5.1m/s | 0°C | 0% | 0hPa | 0V | 00:00:00 | 00:00:00 | 00:00:00 | |
| SQ9PSP-11 | 2026-09-01 23:38:04 | 50.01238 | 21.15997 | 85° | 66km/h | 7405m | 5.9m/s | 0°C | 0% | 0hPa | 0V | 00:00:00 | 00:00:00 | 00:00:00 | |
| MIELECB | 2026-09-01 23:37:59 | 50.01230 | 21.15849 | 93° | 78km/h | 7381m | 7.2m/s | 0°C | 0% | 0hPa | 0V | 00:00:00 | 00:00:00 | 00:00:00 | |
| MIELECB | 2026-09-01 23:37:54 | 50.01233 | 21.15713 | 94° | 64km/h | 7350m | 5.1m/s | 0°C | 0% | 0hPa | 0V | 00:00:00 | 00:00:00 | 00:00:00 | |
| AKAW68 | 2026-09-01 23:37:50 | 50.01240 | 21.15598 | 94° | 80km/h | 7329m | 3.3m/s | 0°C | 0% | 0hPa | 0V | 00:00:00 | 00:00:00 | 00:00:00 | |
| SQ9PSP-11 | 2026-09-01 23:37:49 | 50.01242 | 21.15567 | 94° | 82km/h | 7324m | 5.7m/s | 0°C | 0% | 0hPa | 0V | 00:00:00 | 00:00:00 | 00:00:00 | |
| AKAW682 | 2026-09-01 23:37:48 | 50.01242 | 21.15537 | 92° | 71km/h | 7319m | 3.6m/s | 0°C | 0% | 0hPa | 0V | 00:00:00 | 00:00:00 | 00:00:00 | |
| MIELECB | 2026-09-01 23:37:42 | 50.01231 | 21.15369 | 95° | 75km/h | 7283m | 1.7m/s | 0°C | 0% | 0hPa | 0V | 00:00:00 | 00:00:00 | 00:00:00 | |
| MIELECB | 2026-09-01 23:37:36 | 50.01236 | 21.15213 | 87° | 64km/h | 7249m | 7.0m/s | 0°C | 0% | 0hPa | 0V | 00:00:00 | 00:00:00 | 00:00:00 | |
| SQ9PSP-11 | 2026-09-01 23:37:33 | 50.01228 | 21.15133 | 83° | 75km/h | 7232m | 4.8m/s | 0°C | 0% | 0hPa | 0V | 00:00:00 | 00:00:00 | 00:00:00 | |
| MIELECB | 2026-09-01 23:37:31 | 50.01225 | 21.15074 | 87° | 75km/h | 7222m | 5.4m/s | 0°C | 0% | 0hPa | 0V | 00:00:00 | 00:00:00 | 00:00:00 | |
| AKAW68 | 2026-09-01 23:37:30 | 50.01224 | 21.15047 | 86° | 62km/h | 7216m | 3.6m/s | 0°C | 0% | 0hPa | 0V | 00:00:00 | 00:00:00 | 00:00:00 | |
| AKAW682 | 2026-09-01 23:37:27 | 50.01217 | 21.14973 | 79° | 68km/h | 7199m | 4.6m/s | 0°C | 0% | 0hPa | 0V | 00:00:00 | 00:00:00 | 00:00:00 | |
| MIELECB | 2026-09-01 23:37:25 | 50.01212 | 21.14918 | 85° | 71km/h | 7185m | 7.1m/s | 0°C | 0% | 0hPa | 0V | 00:00:00 | 00:00:00 | 00:00:00 | |
| MIELECB | 2026-09-01 23:37:20 | 50.01188 | 21.14790 | 68° | 60km/h | 7164m | 3.1m/s | 0°C | 0% | 0hPa | 0V | 00:00:00 | 00:00:00 | 00:00:00 | |
| SQ9PSP-11 | 2026-09-01 23:37:17 | 50.01179 | 21.14721 | 85° | 60km/h | 7148m | 3.5m/s | 0°C | 0% | 0hPa | 0V | 00:00:00 | 00:00:00 | 00:00:00 | |
| MIELECB | 2026-09-01 23:37:15 | 50.01173 | 21.14670 | 77° | 69km/h | 7135m | 6.8m/s | 0°C | 0% | 0hPa | 0V | 00:00:00 | 00:00:00 | 00:00:00 | |
| AKAW68 | 2026-09-01 23:37:09 | 50.01149 | 21.14519 | 76° | 57km/h | 7100m | 5.4m/s | 0°C | 0% | 0hPa | 0V | 00:00:00 | 00:00:00 | 00:00:00 | |
| AKAW682 | 2026-09-01 23:37:06 | 50.01134 | 21.14452 | 75° | 64km/h | 7088m | 6.7m/s | 0°C | 0% | 0hPa | 0V | 00:00:00 | 00:00:00 | 00:00:00 | |
| MIELECB | 2026-09-01 23:37:03 | 50.01125 | 21.14379 | 83° | 62km/h | 7068m | 4.6m/s | 0°C | 0% | 0hPa | 0V | 00:00:00 | 00:00:00 | 00:00:00 | |
| SQ9PSP-11 | 2026-09-01 23:37:01 | 50.01117 | 21.14333 | 72° | 60km/h | 7059m | 4.8m/s | 0°C | 0% | 0hPa | 0V | 00:00:00 | 00:00:00 | 00:00:00 | |
| MIELECB | 2026-09-01 23:36:58 | 50.01105 | 21.14260 | 85° | 69km/h | 7045m | 4.1m/s | 0°C | 0% | 0hPa | 0V | 00:00:00 | 00:00:00 | 00:00:00 | |
| MIELECB | 2026-09-01 23:36:52 | 50.01086 | 21.14104 | 77° | 77km/h | 7014m | 7.9m/s | 0°C | 0% | 0hPa | 0V | 00:00:00 | 00:00:00 | 00:00:00 | |
| AKAW68 | 2026-09-01 23:36:48 | 50.01072 | 21.13994 | 83° | 66km/h | 6992m | 5.1m/s | 0°C | 0% | 0hPa | 0V | 00:00:00 | 00:00:00 | 00:00:00 | |
| SQ9PSP-11 | 2026-09-01 23:36:46 | 50.01068 | 21.13942 | 85° | 71km/h | 6981m | 7.8m/s | 0°C | 0% | 0hPa | 0V | 00:00:00 | 00:00:00 | 00:00:00 | |
| AKAW682 | 2026-09-01 23:36:45 | 50.01066 | 21.13913 | 85° | 77km/h | 6974m | 4.8m/s | 0°C | 0% | 0hPa | 0V | 00:00:00 | 00:00:00 | 00:00:00 | |
| MIELECB | 2026-09-01 23:36:41 | 50.01054 | 21.13805 | 82° | 60km/h | 6956m | 5.8m/s | 0°C | 0% | 0hPa | 0V | 00:00:00 | 00:00:00 | 00:00:00 | |
| MIELECB | 2026-09-01 23:36:36 | 50.01046 | 21.13673 | 87° | 77km/h | 6926m | 4.3m/s | 0°C | 0% | 0hPa | 0V | 00:00:00 | 00:00:00 | 00:00:00 | |
| SQ9PSP-11 | 2026-09-01 23:36:31 | 50.01033 | 21.13515 | 80° | 66km/h | 6892m | 5.2m/s | 0°C | 0% | 0hPa | 0V | 00:00:00 | 00:00:00 | 00:00:00 | |
| MIELECB | 2026-09-01 23:36:30 | 50.01033 | 21.13515 | 80° | 66km/h | 6892m | 5.2m/s | 0°C | 0% | 0hPa | 0V | 00:00:00 | 00:00:00 | 00:00:00 | |
| AKAW68 | 2026-09-01 23:36:27 | 50.01025 | 21.13441 | 78° | 62km/h | 6878m | 3.0m/s | 0°C | 0% | 0hPa | 0V | 00:00:00 | 00:00:00 | 00:00:00 | |
| AKAW682 | 2026-09-01 23:36:25 | 50.01018 | 21.13396 | 73° | 58km/h | 6868m | 3.3m/s | 0°C | 0% | 0hPa | 0V | 00:00:00 | 00:00:00 | 00:00:00 | |
| MIELECB | 2026-09-01 23:36:24 | 50.01014 | 21.13373 | 79° | 60km/h | 6863m | 7.6m/s | 0°C | 0% | 0hPa | 0V | 00:00:00 | 00:00:00 | 00:00:00 | |
| MIELECB | 2026-09-01 23:36:18 | 50.01006 | 21.13218 | 79° | 60km/h | 6831m | 4.0m/s | 0°C | 0% | 0hPa | 0V | 00:00:00 | 00:00:00 | 00:00:00 | |
| SQ9PSP-11 | 2026-09-01 23:36:15 | 50.00994 | 21.13136 | 77° | 75km/h | 6817m | 4.1m/s | 0°C | 0% | 0hPa | 0V | 00:00:00 | 00:00:00 | 00:00:00 | |
| AKAW68 | 2026-09-01 23:36:07 | 50.00983 | 21.12933 | 91° | 68km/h | 6777m | 5.6m/s | 0°C | 0% | 0hPa | 0V | 00:00:00 | 00:00:00 | 00:00:00 | |
| AKAW682 | 2026-09-01 23:36:05 | 50.00980 | 21.12878 | 82° | 73km/h | 6767m | 5.7m/s | 0°C | 0% | 0hPa | 0V | 00:00:00 | 00:00:00 | 00:00:00 | |
| SQ9PSP-11 | 2026-09-01 23:35:59 | 50.00967 | 21.12734 | 83° | 49km/h | 6732m | 4.1m/s | 0°C | 0% | 0hPa | 0V | 00:00:00 | 00:00:00 | 00:00:00 | |
| MIELECB | 2026-09-01 23:35:56 | 50.00964 | 21.12668 | 90° | 68km/h | 6718m | 4.7m/s | 0°C | 0% | 0hPa | 0V | 00:00:00 | 00:00:00 | 00:00:00 | |
| MIELECB | 2026-09-01 23:35:50 | 50.00955 | 21.12511 | 92° | 53km/h | 6686m | 5.2m/s | 0°C | 0% | 0hPa | 0V | 00:00:00 | 00:00:00 | 00:00:00 | |
| AKAW68 | 2026-09-01 23:35:46 | 50.00956 | 21.12414 | 86° | 71km/h | 6669m | 2.6m/s | 0°C | 0% | 0hPa | 0V | 00:00:00 | 00:00:00 | 00:00:00 | |
| SQ9PSP-11 | 2026-09-01 23:35:44 | 50.00953 | 21.12357 | 86° | 71km/h | 6661m | 3.7m/s | 0°C | 0% | 0hPa | 0V | 00:00:00 | 00:00:00 | 00:00:00 | |
| MIELECB | 2026-09-01 23:35:40 | 50.00948 | 21.12251 | 93° | 62km/h | 6640m | 5.0m/s | 0°C | 0% | 0hPa | 0V | 00:00:00 | 00:00:00 | 00:00:00 | |
| MIELECB | 2026-09-01 23:35:35 | 50.00943 | 21.12133 | 83° | 62km/h | 6614m | 4.9m/s | 0°C | 0% | 0hPa | 0V | 00:00:00 | 00:00:00 | 00:00:00 | |
| SQ9PSP-11 | 2026-09-01 23:35:29 | 50.00949 | 21.11976 | 91° | 58km/h | 6578m | 5.9m/s | 0°C | 0% | 0hPa | 0V | 00:00:00 | 00:00:00 | 00:00:00 | |
| AKAW68 | 2026-09-01 23:35:26 | 50.00946 | 21.11930 | 81° | 57km/h | 6568m | 3.1m/s | 0°C | 0% | 0hPa | 0V | 00:00:00 | 00:00:00 | 00:00:00 | |
| SQ9EZE-12 | 2026-09-01 23:35:25 | 50.00942 | 21.11909 | 76° | 57km/h | 6563m | 6.6m/s | 0°C | 0% | 0hPa | 0V | 00:00:00 | 00:00:00 | 00:00:00 | |
| MIELECB | 2026-09-01 23:35:24 | 50.00940 | 21.11887 | 85° | 57km/h | 6557m | 3.1m/s | 0°C | 0% | 0hPa | 0V | 00:00:00 | 00:00:00 | 00:00:00 | |
| AKAW682 | 2026-09-01 23:35:23 | 50.00939 | 21.11864 | 89° | 57km/h | 6553m | 3.8m/s | 0°C | 0% | 0hPa | 0V | 00:00:00 | 00:00:00 | 00:00:00 | |
| SQ9PSP-11 | 2026-09-01 23:35:13 | 50.00945 | 21.11628 | 78° | 57km/h | 6510m | 2.7m/s | 0°C | 0% | 0hPa | 0V | 00:00:00 | 00:00:00 | 00:00:00 | |
| MIELECB | 2026-09-01 23:35:08 | 50.00933 | 21.11533 | 86° | 55km/h | 6485m | 5.9m/s | 0°C | 0% | 0hPa | 0V | 00:00:00 | 00:00:00 | 00:00:00 | |
| AKAW68 | 2026-09-01 23:35:04 | 50.00931 | 21.11427 | 88° | 60km/h | 6459m | 3.6m/s | 0°C | 0% | 0hPa | 0V | 00:00:00 | 00:00:00 | 00:00:00 | |
| SQ9PSP-11 | 2026-09-01 23:34:57 | 50.00930 | 21.11279 | 103° | 60km/h | 6421m | 5.2m/s | 0°C | 0% | 0hPa | 0V | 00:00:00 | 00:00:00 | 00:00:00 | |
| MIELECB | 2026-09-01 23:34:56 | 50.00933 | 21.11256 | 103° | 58km/h | 6417m | 2.5m/s | 0°C | 0% | 0hPa | 0V | 00:00:00 | 00:00:00 | 00:00:00 | |
| MIELECB | 2026-09-01 23:34:50 | 50.00935 | 21.11117 | 99° | 58km/h | 6391m | 3.9m/s | 0°C | 0% | 0hPa | 0V | 00:00:00 | 00:00:00 | 00:00:00 | |
| MIELECB | 2026-09-01 23:34:44 | 50.00944 | 21.10967 | 94° | 62km/h | 6358m | 3.3m/s | 0°C | 0% | 0hPa | 0V | 00:00:00 | 00:00:00 | 00:00:00 | |
| AKAW68 | 2026-09-01 23:34:43 | 50.00945 | 21.10944 | 96° | 57km/h | 6353m | 4.7m/s | 0°C | 0% | 0hPa | 0V | 00:00:00 | 00:00:00 | 00:00:00 | |
| SQ9PSP-11 | 2026-09-01 23:34:41 | 50.00948 | 21.10905 | 105° | 47km/h | 6343m | 7.2m/s | 0°C | 0% | 0hPa | 0V | 00:00:00 | 00:00:00 | 00:00:00 | |
| AKAW682 | 2026-09-01 23:34:40 | 50.00951 | 21.10886 | 107° | 49km/h | 6337m | 3.8m/s | 0°C | 0% | 0hPa | 0V | 00:00:00 | 00:00:00 | 00:00:00 | |
| MIELECB | 2026-09-01 23:34:39 | 50.00954 | 21.10867 | 103° | 53km/h | 6333m | 5.1m/s | 0°C | 0% | 0hPa | 0V | 00:00:00 | 00:00:00 | 00:00:00 | |
| MIELECB | 2026-09-01 23:34:33 | 50.00960 | 21.10729 | 94° | 49km/h | 6300m | 3.7m/s | 0°C | 0% | 0hPa | 0V | 00:00:00 | 00:00:00 | 00:00:00 | |
| MIELECB | 2026-09-01 23:34:27 | 50.00973 | 21.10579 | 93° | 69km/h | 6278m | 4.2m/s | 0°C | 0% | 0hPa | 0V | 00:00:00 | 00:00:00 | 00:00:00 | |
| SQ9PSP-11 | 2026-09-01 23:34:26 | 50.00974 | 21.10553 | 95° | 62km/h | 6273m | 6.8m/s | 0°C | 0% | 0hPa | 0V | 00:00:00 | 00:00:00 | 00:00:00 | |
| MIELECB | 2026-09-01 23:34:22 | 50.00981 | 21.10475 | 96° | 47km/h | 6248m | 5.4m/s | 0°C | 0% | 0hPa | 0V | 00:00:00 | 00:00:00 | 00:00:00 | |
| AKAW682 | 2026-09-01 23:34:19 | 50.00988 | 21.10413 | 96° | 58km/h | 6233m | 1.7m/s | 0°C | 0% | 0hPa | 0V | 00:00:00 | 00:00:00 | 00:00:00 | |
| MIELECB | 2026-09-01 23:34:17 | 50.00987 | 21.10365 | 90° | 68km/h | 6224m | 4.5m/s | 0°C | 0% | 0hPa | 0V | 00:00:00 | 00:00:00 | 00:00:00 | |
| SQ9PSP-11 | 2026-09-01 23:34:11 | 50.00987 | 21.10232 | 81° | 53km/h | 6188m | 2.9m/s | 0°C | 0% | 0hPa | 0V | 00:00:00 | 00:00:00 | 00:00:00 | |
| MIELECB | 2026-09-01 23:34:06 | 50.00989 | 21.10112 | 93° | 57km/h | 6161m | 3.5m/s | 0°C | 0% | 0hPa | 0V | 00:00:00 | 00:00:00 | 00:00:00 | |
| SQ9EZE-12 | 2026-09-01 23:34:05 | 50.00989 | 21.10090 | 93° | 57km/h | 6156m | 4.6m/s | 0°C | 0% | 0hPa | 0V | 00:00:00 | 00:00:00 | 00:00:00 | |
| AKAW68 | 2026-09-01 23:34:01 | 50.00994 | 21.10006 | 92° | 58km/h | 6135m | 4.8m/s | 0°C | 0% | 0hPa | 0V | 00:00:00 | 00:00:00 | 00:00:00 | |
| MIELECB | 2026-09-01 23:34:00 | 50.00994 | 21.09982 | 88° | 62km/h | 6130m | 4.3m/s | 0°C | 0% | 0hPa | 0V | 00:00:00 | 00:00:00 | 00:00:00 | |
| AKAW682 | 2026-09-01 23:33:57 | 50.00991 | 21.09903 | 90° | 66km/h | 6116m | 3.2m/s | 0°C | 0% | 0hPa | 0V | 00:00:00 | 00:00:00 | 00:00:00 | |
| SQ9PSP-11 | 2026-09-01 23:33:56 | 50.00991 | 21.09877 | 91° | 60km/h | 6112m | 3.1m/s | 0°C | 0% | 0hPa | 0V | 00:00:00 | 00:00:00 | 00:00:00 | |
| MIELECB | 2026-09-01 23:33:54 | 50.00993 | 21.09834 | 95° | 47km/h | 6101m | 2.5m/s | 0°C | 0% | 0hPa | 0V | 00:00:00 | 00:00:00 | 00:00:00 | |
| SQ9EZE-12 | 2026-09-01 23:33:48 | 50.00991 | 21.09712 | 105° | 66km/h | 6070m | 7.2m/s | 0°C | 0% | 0hPa | 0V | 00:00:00 | 00:00:00 | 00:00:00 | |
| AKAW68 | 2026-09-01 23:33:41 | 50.00989 | 21.09541 | 91° | 69km/h | 6035m | 4.9m/s | 0°C | 0% | 0hPa | 0V | 00:00:00 | 00:00:00 | 00:00:00 | |
| AKAW682 | 2026-09-01 23:33:37 | 50.01002 | 21.09432 | 110° | 68km/h | 6018m | 1.4m/s | 0°C | 0% | 0hPa | 0V | 00:00:00 | 00:00:00 | 00:00:00 | |
| SQ9EZE-12 | 2026-09-01 23:33:33 | 50.01008 | 21.09334 | 78° | 58km/h | 6001m | 5.1m/s | 0°C | 0% | 0hPa | 0V | 00:00:00 | 00:00:00 | 00:00:00 | |
| SQ9PSP-11 | 2026-09-01 23:33:26 | 50.01004 | 21.09153 | 83° | 69km/h | 5960m | 5.6m/s | 0°C | 0% | 0hPa | 0V | 00:00:00 | 00:00:00 | 00:00:00 | |
| MIELECB | 2026-09-01 23:33:23 | 50.00995 | 21.09076 | 86° | 68km/h | 5942m | 5.9m/s | 0°C | 0% | 0hPa | 0V | 00:00:00 | 00:00:00 | 00:00:00 | |
| AKAW68 | 2026-09-01 23:33:21 | 50.00996 | 21.09026 | 98° | 64km/h | 5929m | 4.6m/s | 0°C | 0% | 0hPa | 0V | 00:00:00 | 00:00:00 | 00:00:00 | |
| SQ9EZE-12 | 2026-09-01 23:33:17 | 50.01007 | 21.08920 | 90° | 66km/h | 5909m | 6.1m/s | 0°C | 0% | 0hPa | 0V | 00:00:00 | 00:00:00 | 00:00:00 | |
| AKAW682 | 2026-09-01 23:33:15 | 50.01003 | 21.08872 | 79° | 58km/h | 5898m | 8.0m/s | 0°C | 0% | 0hPa | 0V | 00:00:00 | 00:00:00 | 00:00:00 | |
| MIELECB | 2026-09-01 23:33:11 | 50.01003 | 21.08784 | 103° | 57km/h | 5870m | 5.3m/s | 0°C | 0% | 0hPa | 0V | 00:00:00 | 00:00:00 | 00:00:00 | |
| SQ9PSP-11 | 2026-09-01 23:33:10 | 50.01006 | 21.08762 | 102° | 57km/h | 5864m | 4.9m/s | 0°C | 0% | 0hPa | 0V | 00:00:00 | 00:00:00 | 00:00:00 | |
| MIELECB | 2026-09-01 23:33:05 | 50.01003 | 21.08646 | 90° | 62km/h | 5835m | 7.8m/s | 0°C | 0% | 0hPa | 0V | 00:00:00 | 00:00:00 | 00:00:00 | |
| AKAW68 | 2026-09-01 23:33:00 | 50.01009 | 21.08534 | 82° | 57km/h | 5810m | 6.1m/s | 0°C | 0% | 0hPa | 0V | 00:00:00 | 00:00:00 | 00:00:00 | |
| SQ9EZE-12 | 2026-09-01 23:32:59 | 50.01007 | 21.08512 | 86° | 60km/h | 5805m | 4.4m/s | 0°C | 0% | 0hPa | 0V | 00:00:00 | 00:00:00 | 00:00:00 | |
| SQ9PSP-11 | 2026-09-01 23:32:55 | 50.01012 | 21.08411 | 96° | 64km/h | 5785m | 4.4m/s | 0°C | 0% | 0hPa | 0V | 00:00:00 | 00:00:00 | 00:00:00 | |
| AKAW682 | 2026-09-01 23:32:54 | 50.01014 | 21.08388 | 94° | 58km/h | 5780m | 5.0m/s | 0°C | 0% | 0hPa | 0V | 00:00:00 | 00:00:00 | 00:00:00 | |
| MIELECB | 2026-09-01 23:32:44 | 50.01004 | 21.08163 | 100° | 60km/h | 5729m | 4.5m/s | 0°C | 0% | 0hPa | 0V | 00:00:00 | 00:00:00 | 00:00:00 | |
| SQ9EZE-12 | 2026-09-01 23:32:42 | 50.01005 | 21.08118 | 91° | 57km/h | 5713m | 4.6m/s | 0°C | 0% | 0hPa | 0V | 00:00:00 | 00:00:00 | 00:00:00 | |
| SQ9PSP-11 | 2026-09-01 23:32:40 | 50.01006 | 21.08080 | 100° | 40km/h | 5700m | 2.7m/s | 0°C | 0% | 0hPa | 0V | 00:00:00 | 00:00:00 | 00:00:00 | |
| AKAW68 | 2026-09-01 23:32:39 | 50.01006 | 21.08064 | 86° | 40km/h | 5695m | 4.7m/s | 0°C | 0% | 0hPa | 0V | 00:00:00 | 00:00:00 | 00:00:00 | |
| MIELECB | 2026-09-01 23:32:34 | 50.01003 | 21.07967 | 96° | 55km/h | 5670m | 4.6m/s | 0°C | 0% | 0hPa | 0V | 00:00:00 | 00:00:00 | 00:00:00 | |
| MIELECB | 2026-09-01 23:32:26 | 50.00993 | 21.07799 | 91° | 53km/h | 5625m | 4.2m/s | 0°C | 0% | 0hPa | 0V | 00:00:00 | 00:00:00 | 00:00:00 | |
| SQ9PSP-11 | 2026-09-01 23:32:25 | 50.00993 | 21.07778 | 91° | 55km/h | 5621m | 3.6m/s | 0°C | 0% | 0hPa | 0V | 00:00:00 | 00:00:00 | 00:00:00 | |
| SQ9EZE-12 | 2026-09-01 23:32:24 | 50.00993 | 21.07756 | 91° | 57km/h | 5616m | 6.8m/s | 0°C | 0% | 0hPa | 0V | 00:00:00 | 00:00:00 | 00:00:00 | |
| MIELECB | 2026-09-01 23:32:21 | 50.00989 | 21.07694 | 81° | 55km/h | 5593m | 6.0m/s | 0°C | 0% | 0hPa | 0V | 00:00:00 | 00:00:00 | 00:00:00 | |
| AKAW68 | 2026-09-01 23:32:18 | 50.00987 | 21.07624 | 92° | 57km/h | 5577m | 4.8m/s | 0°C | 0% | 0hPa | 0V | 00:00:00 | 00:00:00 | 00:00:00 | |
| MIELECB | 2026-09-01 23:32:15 | 50.00982 | 21.07562 | 79° | 49km/h | 5560m | 5.8m/s | 0°C | 0% | 0hPa | 0V | 00:00:00 | 00:00:00 | 00:00:00 | |
| AKAW682 | 2026-09-01 23:32:14 | 50.00982 | 21.07542 | 90° | 51km/h | 5554m | 5.1m/s | 0°C | 0% | 0hPa | 0V | 00:00:00 | 00:00:00 | 00:00:00 | |
| MIELECB | 2026-09-01 23:32:10 | 50.00986 | 21.07449 | 90° | 53km/h | 5529m | 5.3m/s | 0°C | 0% | 0hPa | 0V | 00:00:00 | 00:00:00 | 00:00:00 | |
| SQ9EZE-12 | 2026-09-01 23:32:08 | 50.00986 | 21.07412 | 89° | 40km/h | 5517m | 5.8m/s | 0°C | 0% | 0hPa | 0V | 00:00:00 | 00:00:00 | 00:00:00 | |
| MIELECB | 2026-09-01 23:32:04 | 50.00992 | 21.07330 | 100° | 62km/h | 5490m | 4.8m/s | 0°C | 0% | 0hPa | 0V | 00:00:00 | 00:00:00 | 00:00:00 | |
| MIELECB | 2026-09-01 23:31:59 | 50.00995 | 21.07218 | 98° | 57km/h | 5463m | 7.1m/s | 0°C | 0% | 0hPa | 0V | 00:00:00 | 00:00:00 | 00:00:00 | |
| AKAW68 | 2026-09-01 23:31:57 | 50.01000 | 21.07173 | 98° | 60km/h | 5450m | 8.7m/s | 0°C | 0% | 0hPa | 0V | 00:00:00 | 00:00:00 | 00:00:00 | |
| MIELECB | 2026-09-01 23:31:55 | 50.01003 | 21.07108 | 93° | 53km/h | 5433m | 6.6m/s | 0°C | 0% | 0hPa | 0V | 00:00:00 | 00:00:00 | 00:00:00 | |
| AKAW682 | 2026-09-01 23:31:53 | 50.01004 | 21.07087 | 97° | 51km/h | 5427m | 6.2m/s | 0°C | 0% | 0hPa | 0V | 00:00:00 | 00:00:00 | 00:00:00 | |
| MIELECB | 2026-09-01 23:31:49 | 50.01003 | 21.07007 | 85° | 57km/h | 5402m | 3.3m/s | 0°C | 0% | 0hPa | 0V | 00:00:00 | 00:00:00 | 00:00:00 | |
| MIELECB | 2026-09-01 23:31:43 | 50.00989 | 21.06866 | 93° | 68km/h | 5373m | 4.4m/s | 0°C | 0% | 0hPa | 0V | 00:00:00 | 00:00:00 | 00:00:00 | |
| SQ9PSP-11 | 2026-09-01 23:31:39 | 50.00997 | 21.06760 | 101° | 66km/h | 5348m | 4.6m/s | 0°C | 0% | 0hPa | 0V | 00:00:00 | 00:00:00 | 00:00:00 | |
| MIELECB | 2026-09-01 23:31:38 | 50.01001 | 21.06736 | 107° | 60km/h | 5342m | 8.4m/s | 0°C | 0% | 0hPa | 0V | 00:00:00 | 00:00:00 | 00:00:00 | |
| SQ9EZE-12 | 2026-09-01 23:31:37 | 50.01004 | 21.06714 | 102° | 51km/h | 5335m | 5.7m/s | 0°C | 0% | 0hPa | 0V | 00:00:00 | 00:00:00 | 00:00:00 | |
| MIELECB | 2026-09-01 23:31:32 | 50.01003 | 21.06618 | 82° | 51km/h | 5306m | 5.2m/s | 0°C | 0% | 0hPa | 0V | 00:00:00 | 00:00:00 | 00:00:00 | |
| MIELECB | 2026-09-01 23:31:26 | 50.01001 | 21.06494 | 93° | 51km/h | 5268m | 4.8m/s | 0°C | 0% | 0hPa | 0V | 00:00:00 | 00:00:00 | 00:00:00 | |
| SQ9PSP-11 | 2026-09-01 23:31:23 | 50.01001 | 21.06433 | 97° | 47km/h | 5251m | 2.8m/s | 0°C | 0% | 0hPa | 0V | 00:00:00 | 00:00:00 | 00:00:00 | |
| SQ9EZE-12 | 2026-09-01 23:31:21 | 50.01002 | 21.06395 | 90° | 49km/h | 5243m | 4.8m/s | 0°C | 0% | 0hPa | 0V | 00:00:00 | 00:00:00 | 00:00:00 | |
| MIELECB | 2026-09-01 23:31:20 | 50.01003 | 21.06375 | 96° | 57km/h | 5236m | 7.4m/s | 0°C | 0% | 0hPa | 0V | 00:00:00 | 00:00:00 | 00:00:00 | |
| AKAW68 | 2026-09-01 23:31:16 | 50.01007 | 21.06284 | 104° | 53km/h | 5211m | 2.7m/s | 0°C | 0% | 0hPa | 0V | 00:00:00 | 00:00:00 | 00:00:00 | |
| MIELECB | 2026-09-01 23:31:12 | 50.01018 | 21.06201 | 95° | 53km/h | 5192m | 5.3m/s | 0°C | 0% | 0hPa | 0V | 00:00:00 | 00:00:00 | 00:00:00 | |
| AKAW682 | 2026-09-01 23:31:11 | 50.01018 | 21.06181 | 89° | 49km/h | 5187m | 4.4m/s | 0°C | 0% | 0hPa | 0V | 00:00:00 | 00:00:00 | 00:00:00 | |
| SQ9PSP-11 | 2026-09-01 23:31:08 | 50.01016 | 21.06127 | 97° | 47km/h | 5172m | 3.1m/s | 0°C | 0% | 0hPa | 0V | 00:00:00 | 00:00:00 | 00:00:00 | |
| MIELECB | 2026-09-01 23:31:06 | 50.01021 | 21.06088 | 102° | 51km/h | 5162m | 2.3m/s | 0°C | 0% | 0hPa | 0V | 00:00:00 | 00:00:00 | 00:00:00 | |
| SQ9EZE-12 | 2026-09-01 23:31:05 | 50.01024 | 21.06069 | 98° | 51km/h | 5157m | 8.3m/s | 0°C | 0% | 0hPa | 0V | 00:00:00 | 00:00:00 | 00:00:00 | |
| MIELECB | 2026-09-01 23:31:01 | 50.01025 | 21.05985 | 95° | 55km/h | 5132m | 4.8m/s | 0°C | 0% | 0hPa | 0V | 00:00:00 | 00:00:00 | 00:00:00 | |
| MIELECB | 2026-09-01 23:30:55 | 50.01028 | 21.05863 | 89° | 55km/h | 5095m | 2.8m/s | 0°C | 0% | 0hPa | 0V | 00:00:00 | 00:00:00 | 00:00:00 | |
| SQ9PSP-11 | 2026-09-01 23:30:53 | 50.01027 | 21.05823 | 94° | 46km/h | 5088m | 4.4m/s | 0°C | 0% | 0hPa | 0V | 00:00:00 | 00:00:00 | 00:00:00 | |
| SQ9EZE-12 | 2026-09-01 23:30:50 | 50.01033 | 21.05765 | 103° | 53km/h | 5072m | 4.3m/s | 0°C | 0% | 0hPa | 0V | 00:00:00 | 00:00:00 | 00:00:00 | |
| AKAW682 | 2026-09-01 23:30:49 | 50.01036 | 21.05745 | 105° | 53km/h | 5065m | 7.0m/s | 0°C | 0% | 0hPa | 0V | 00:00:00 | 00:00:00 | 00:00:00 | |
| AKAW68 | 2026-09-01 23:30:47 | 50.01040 | 21.05709 | 98° | 44km/h | 5053m | 2.1m/s | 0°C | 0% | 0hPa | 0V | 00:00:00 | 00:00:00 | 00:00:00 | |
| MIELECB | 2026-09-01 23:30:45 | 50.01043 | 21.05673 | 100° | 49km/h | 5041m | 5.4m/s | 0°C | 0% | 0hPa | 0V | 00:00:00 | 00:00:00 | 00:00:00 | |
| MIELECB | 2026-09-01 23:30:37 | 50.01068 | 21.05484 | 93° | 60km/h | 4996m | 5.6m/s | 0°C | 0% | 0hPa | 0V | 00:00:00 | 00:00:00 | 00:00:00 | |
| SQ9EZE-12 | 2026-09-01 23:30:33 | 50.01067 | 21.05398 | 85° | 57km/h | 4966m | 4.1m/s | 0°C | 0% | 0hPa | 0V | 00:00:00 | 00:00:00 | 00:00:00 | |
| MIELECB | 2026-09-01 23:30:31 | 50.01065 | 21.05353 | 91° | 58km/h | 4956m | 2.8m/s | 0°C | 0% | 0hPa | 0V | 00:00:00 | 00:00:00 | 00:00:00 | |
| AKAW682 | 2026-09-01 23:30:29 | 50.01064 | 21.05308 | 88° | 55km/h | 4946m | 5.6m/s | 0°C | 0% | 0hPa | 0V | 00:00:00 | 00:00:00 | 00:00:00 | |
| MIELECB | 2026-09-01 23:30:25 | 50.01063 | 21.05227 | 91° | 46km/h | 4918m | 4.8m/s | 0°C | 0% | 0hPa | 0V | 00:00:00 | 00:00:00 | 00:00:00 | |
| AKAW68 | 2026-09-01 23:30:24 | 50.01063 | 21.05208 | 91° | 51km/h | 4913m | 5.5m/s | 0°C | 0% | 0hPa | 0V | 00:00:00 | 00:00:00 | 00:00:00 | |
| SQ9PSP-11 | 2026-09-01 23:30:22 | 50.01063 | 21.05167 | 94° | 55km/h | 4899m | 4.6m/s | 0°C | 0% | 0hPa | 0V | 00:00:00 | 00:00:00 | 00:00:00 | |
| MIELECB | 2026-09-01 23:30:19 | 50.01063 | 21.05097 | 93° | 57km/h | 4884m | 4.7m/s | 0°C | 0% | 0hPa | 0V | 00:00:00 | 00:00:00 | 00:00:00 | |
| SQ9EZE-12 | 2026-09-01 23:30:17 | 50.01062 | 21.05045 | 94° | 35km/h | 4866m | 6.1m/s | 0°C | 0% | 0hPa | 0V | 00:00:00 | 00:00:00 | 00:00:00 | |
| MIELECB | 2026-09-01 23:30:13 | 50.01064 | 21.04997 | 91° | 47km/h | 4852m | 4.4m/s | 0°C | 0% | 0hPa | 0V | 00:00:00 | 00:00:00 | 00:00:00 | |
| AKAW682 | 2026-09-01 23:30:08 | 50.01061 | 21.04908 | 90° | 46km/h | 4833m | 4.5m/s | 0°C | 0% | 0hPa | 0V | 00:00:00 | 00:00:00 | 00:00:00 | |
| MIELECB | 2026-09-01 23:30:07 | 50.01061 | 21.04888 | 92° | 55km/h | 4829m | 3.4m/s | 0°C | 0% | 0hPa | 0V | 00:00:00 | 00:00:00 | 00:00:00 | |
| AKAW68 | 2026-09-01 23:30:03 | 50.01064 | 21.04819 | 103° | 29km/h | 4810m | 4.6m/s | 0°C | 0% | 0hPa | 0V | 00:00:00 | 00:00:00 | 00:00:00 | |
| SQ9EZE-12 | 2026-09-01 23:30:01 | 50.01066 | 21.04798 | 90° | 26km/h | 4804m | 3.2m/s | 0°C | 0% | 0hPa | 0V | 00:00:00 | 00:00:00 | 00:00:00 | |
| MIELECB | 2026-09-01 23:29:56 | 50.01060 | 21.04721 | 87° | 58km/h | 4781m | 7.3m/s | 0°C | 0% | 0hPa | 0V | 00:00:00 | 00:00:00 | 00:00:00 | |
| SQ9PSP-11 | 2026-09-01 23:29:51 | 50.01067 | 21.04612 | 106° | 53km/h | 4748m | 9.3m/s | 0°C | 0% | 0hPa | 0V | 00:00:00 | 00:00:00 | 00:00:00 | |
| MIELECB | 2026-09-01 23:29:49 | 50.01075 | 21.04579 | 107° | 40km/h | 4733m | 5.1m/s | 0°C | 0% | 0hPa | 0V | 00:00:00 | 00:00:00 | 00:00:00 | |
| AKAW682 | 2026-09-01 23:29:45 | 50.01075 | 21.04511 | 85° | 55km/h | 4712m | 4.3m/s | 0°C | 0% | 0hPa | 0V | 00:00:00 | 00:00:00 | 00:00:00 | |
| AKAW68 | 2026-09-01 23:29:43 | 50.01072 | 21.04467 | 87° | 53km/h | 4704m | 2.3m/s | 0°C | 0% | 0hPa | 0V | 00:00:00 | 00:00:00 | 00:00:00 | |
| SQ9EZE-12 | 2026-09-01 23:29:42 | 50.01071 | 21.04446 | 90° | 53km/h | 4700m | 5.3m/s | 0°C | 0% | 0hPa | 0V | 00:00:00 | 00:00:00 | 00:00:00 | |
| SQ9PSP-11 | 2026-09-01 23:29:36 | 50.01080 | 21.04345 | 82° | 35km/h | 4666m | 1.9m/s | 0°C | 0% | 0hPa | 0V | 00:00:00 | 00:00:00 | 00:00:00 | |
| SQ9EZE-12 | 2026-09-01 23:29:25 | 50.01076 | 21.04168 | 87° | 44km/h | 4609m | 5.7m/s | 0°C | 0% | 0hPa | 0V | 00:00:00 | 00:00:00 | 00:00:00 | |
| MIELECB | 2026-09-01 23:29:23 | 50.01071 | 21.04134 | 82° | 46km/h | 4598m | 3.9m/s | 0°C | 0% | 0hPa | 0V | 00:00:00 | 00:00:00 | 00:00:00 | |
| AKAW68 | 2026-09-01 23:29:21 | 50.01069 | 21.04100 | 99° | 42km/h | 4587m | 5.8m/s | 0°C | 0% | 0hPa | 0V | 00:00:00 | 00:00:00 | 00:00:00 | |
| MIELECB | 2026-09-01 23:29:13 | 50.01069 | 21.03978 | 91° | 31km/h | 4540m | 4.1m/s | 0°C | 0% | 0hPa | 0V | 00:00:00 | 00:00:00 | 00:00:00 | |
| MIELECB | 2026-09-01 23:29:07 | 50.01069 | 21.03891 | 100° | 47km/h | 4509m | 2.3m/s | 0°C | 0% | 0hPa | 0V | 00:00:00 | 00:00:00 | 00:00:00 | |
| SQ9PSP-11 | 2026-09-01 23:29:05 | 50.01074 | 21.03856 | 94° | 35km/h | 4499m | 5.4m/s | 0°C | 0% | 0hPa | 0V | 00:00:00 | 00:00:00 | 00:00:00 | |
| MIELECB | 2026-09-01 23:29:01 | 50.01068 | 21.03812 | 86° | 29km/h | 4471m | 7.2m/s | 0°C | 0% | 0hPa | 0V | 00:00:00 | 00:00:00 | 00:00:00 | |
| SQ9EZE-12 | 2026-09-01 23:28:57 | 50.01063 | 21.03752 | 77° | 51km/h | 4445m | 4.5m/s | 0°C | 0% | 0hPa | 0V | 00:00:00 | 00:00:00 | 00:00:00 | |
| AKAW68 | 2026-09-01 23:28:54 | 50.01053 | 21.03691 | 85° | 58km/h | 4432m | 4.1m/s | 0°C | 0% | 0hPa | 0V | 00:00:00 | 00:00:00 | 00:00:00 | |
| SQ9PSP-11 | 2026-09-01 23:28:49 | 50.01051 | 21.03609 | 87° | 37km/h | 4403m | 6.4m/s | 0°C | 0% | 0hPa | 0V | 00:00:00 | 00:00:00 | 00:00:00 | |
| MIELECB | 2026-09-01 23:28:48 | 50.01050 | 21.03594 | 88° | 42km/h | 4396m | 8.1m/s | 0°C | 0% | 0hPa | 0V | 00:00:00 | 00:00:00 | 00:00:00 | |
| SQ9EZE-12 | 2026-09-01 23:28:42 | 50.01045 | 21.03482 | 84° | 51km/h | 4360m | 5.7m/s | 0°C | 0% | 0hPa | 0V | 00:00:00 | 00:00:00 | 00:00:00 | |
| SQ9PSP-11 | 2026-09-01 23:28:34 | 50.01055 | 21.03351 | 92° | 46km/h | 4319m | 6.4m/s | 0°C | 0% | 0hPa | 0V | 00:00:00 | 00:00:00 | 00:00:00 | |
| AKAW68 | 2026-09-01 23:28:33 | 50.01056 | 21.03333 | 99° | 49km/h | 4313m | 7.0m/s | 0°C | 0% | 0hPa | 0V | 00:00:00 | 00:00:00 | 00:00:00 | |
| SQ9EZE-12 | 2026-09-01 23:28:22 | 50.01050 | 21.03142 | 87° | 53km/h | 4249m | 1.9m/s | 0°C | 0% | 0hPa | 0V | 00:00:00 | 00:00:00 | 00:00:00 | |
| MIELECB | 2026-09-01 23:28:17 | 50.01044 | 21.03033 | 92° | 51km/h | 4221m | 4.5m/s | 0°C | 0% | 0hPa | 0V | 00:00:00 | 00:00:00 | 00:00:00 | |
| MIELECB | 2026-09-01 23:28:12 | 50.01039 | 21.02971 | 91° | 29km/h | 4198m | 3.5m/s | 0°C | 0% | 0hPa | 0V | 00:00:00 | 00:00:00 | 00:00:00 | |
| SQ9EZE-12 | 2026-09-01 23:28:07 | 50.01034 | 21.02904 | 61° | 38km/h | 4175m | 2.6m/s | 0°C | 0% | 0hPa | 0V | 00:00:00 | 00:00:00 | 00:00:00 | |
| AKAW68 | 2026-09-01 23:28:06 | 50.01030 | 21.02890 | 70° | 42km/h | 4172m | 4.4m/s | 0°C | 0% | 0hPa | 0V | 00:00:00 | 00:00:00 | 00:00:00 | |
| SQ9PSP-11 | 2026-09-01 23:28:02 | 50.01034 | 21.02823 | 103° | 53km/h | 4151m | 3.7m/s | 0°C | 0% | 0hPa | 0V | 00:00:00 | 00:00:00 | 00:00:00 | |
| MIELECB | 2026-09-01 23:28:00 | 50.01036 | 21.02784 | 91° | 49km/h | 4143m | 4.1m/s | 0°C | 0% | 0hPa | 0V | 00:00:00 | 00:00:00 | 00:00:00 | |
| MIELECB | 2026-09-01 23:27:54 | 50.01040 | 21.02671 | 103° | 53km/h | 4108m | 6.1m/s | 0°C | 0% | 0hPa | 0V | 00:00:00 | 00:00:00 | 00:00:00 | |
| SQ9EZE-12 | 2026-09-01 23:27:50 | 50.01036 | 21.02592 | 71° | 42km/h | 4086m | 3.7m/s | 0°C | 0% | 0hPa | 0V | 00:00:00 | 00:00:00 | 00:00:00 | |
| MIELECB | 2026-09-01 23:27:48 | 50.01031 | 21.02564 | 89° | 35km/h | 4078m | 4.8m/s | 0°C | 0% | 0hPa | 0V | 00:00:00 | 00:00:00 | 00:00:00 | |
| SQ9PSP-11 | 2026-09-01 23:27:46 | 50.01032 | 21.02531 | 97° | 55km/h | 4066m | 5.8m/s | 0°C | 0% | 0hPa | 0V | 00:00:00 | 00:00:00 | 00:00:00 | |
| AKAW68 | 2026-09-01 23:27:45 | 50.01033 | 21.02510 | 91° | 60km/h | 4061m | 5.0m/s | 0°C | 0% | 0hPa | 0V | 00:00:00 | 00:00:00 | 00:00:00 | |
| MIELECB | 2026-09-01 23:27:43 | 50.01030 | 21.02467 | 74° | 55km/h | 4054m | 4.4m/s | 0°C | 0% | 0hPa | 0V | 00:00:00 | 00:00:00 | 00:00:00 | |
| MIELECB | 2026-09-01 23:27:37 | 50.01033 | 21.02362 | 105° | 40km/h | 4024m | 4.9m/s | 0°C | 0% | 0hPa | 0V | 00:00:00 | 00:00:00 | 00:00:00 | |
| SQ9EZE-12 | 2026-09-01 23:27:34 | 50.01029 | 21.02323 | 71° | 38km/h | 4008m | 7.1m/s | 0°C | 0% | 0hPa | 0V | 00:00:00 | 00:00:00 | 00:00:00 | |
| SQ9PSP-11 | 2026-09-01 23:27:30 | 50.01032 | 21.02265 | 104° | 47km/h | 3978m | 5.8m/s | 0°C | 0% | 0hPa | 0V | 00:00:00 | 00:00:00 | 00:00:00 | |
| MIELECB | 2026-09-01 23:27:29 | 50.01032 | 21.02248 | 78° | 44km/h | 3972m | 5.7m/s | 0°C | 0% | 0hPa | 0V | 00:00:00 | 00:00:00 | 00:00:00 | |
| AKAW68 | 2026-09-01 23:27:24 | 50.01019 | 21.02169 | 96° | 31km/h | 3940m | 7.2m/s | 0°C | 0% | 0hPa | 0V | 00:00:00 | 00:00:00 | 00:00:00 | |
| MIELECB | 2026-09-01 23:27:23 | 50.01021 | 21.02156 | 113° | 33km/h | 3932m | 6.3m/s | 0°C | 0% | 0hPa | 0V | 00:00:00 | 00:00:00 | 00:00:00 | |
| SQ9PSP-11 | 2026-09-01 23:27:15 | 50.01007 | 21.02026 | 69° | 24km/h | 3890m | 5.6m/s | 0°C | 0% | 0hPa | 0V | 00:00:00 | 00:00:00 | 00:00:00 | |
| SQ9EZE-12 | 2026-09-01 23:27:14 | 50.01005 | 21.02018 | 68° | 16km/h | 3885m | 5.7m/s | 0°C | 0% | 0hPa | 0V | 00:00:00 | 00:00:00 | 00:00:00 | |
| MIELECB | 2026-09-01 23:27:10 | 50.01002 | 21.01958 | 93° | 58km/h | 3862m | 4.9m/s | 0°C | 0% | 0hPa | 0V | 00:00:00 | 00:00:00 | 00:00:00 | |
| AKAW68 | 2026-09-01 23:27:02 | 50.01001 | 21.01839 | 88° | 42km/h | 3824m | 4.9m/s | 0°C | 0% | 0hPa | 0V | 00:00:00 | 00:00:00 | 00:00:00 | |
| MIELECB | 2026-09-01 23:27:00 | 50.01003 | 21.01800 | 98° | 58km/h | 3812m | 7.3m/s | 0°C | 0% | 0hPa | 0V | 00:00:00 | 00:00:00 | 00:00:00 | |
| SQ9PSP-11 | 2026-09-01 23:26:59 | 50.01005 | 21.01778 | 102° | 51km/h | 3805m | 7.1m/s | 0°C | 0% | 0hPa | 0V | 00:00:00 | 00:00:00 | 00:00:00 | |
| SQ9EZE-12 | 2026-09-01 23:26:56 | 50.01009 | 21.01732 | 96° | 44km/h | 3788m | 4.8m/s | 0°C | 0% | 0hPa | 0V | 00:00:00 | 00:00:00 | 00:00:00 | |
| MIELECB | 2026-09-01 23:26:55 | 50.01011 | 21.01715 | 106° | 46km/h | 3784m | 4.6m/s | 0°C | 0% | 0hPa | 0V | 00:00:00 | 00:00:00 | 00:00:00 | |
| MIELECB | 2026-09-01 23:26:49 | 50.01020 | 21.01608 | 84° | 44km/h | 3755m | 4.9m/s | 0°C | 0% | 0hPa | 0V | 00:00:00 | 00:00:00 | 00:00:00 | |
| MIELECB | 2026-09-01 23:26:44 | 50.01020 | 21.01527 | 85° | 33km/h | 3735m | 4.6m/s | 0°C | 0% | 0hPa | 0V | 00:00:00 | 00:00:00 | 00:00:00 | |
| AKAW68 | 2026-09-01 23:26:42 | 50.01017 | 21.01503 | 77° | 35km/h | 3729m | 3.4m/s | 0°C | 0% | 0hPa | 0V | 00:00:00 | 00:00:00 | 00:00:00 | |
| MIELECB | 2026-09-01 23:26:39 | 50.01014 | 21.01450 | 93° | 55km/h | 3720m | 4.0m/s | 0°C | 0% | 0hPa | 0V | 00:00:00 | 00:00:00 | 00:00:00 | |
| SQ9PSP-11 | 2026-09-01 23:26:28 | 50.01009 | 21.01278 | 65° | 38km/h | 3667m | 2.8m/s | 0°C | 0% | 0hPa | 0V | 00:00:00 | 00:00:00 | 00:00:00 | |
| SQ9EZE-12 | 2026-09-01 23:26:24 | 50.01004 | 21.01228 | 92° | 38km/h | 3642m | 4.1m/s | 0°C | 0% | 0hPa | 0V | 00:00:00 | 00:00:00 | 00:00:00 | |
| AKAW68 | 2026-09-01 23:26:21 | 50.00997 | 21.01181 | 74° | 47km/h | 3622m | 4.6m/s | 0°C | 0% | 0hPa | 0V | 00:00:00 | 00:00:00 | 00:00:00 | |
| SQ9PSP-11 | 2026-09-01 23:26:12 | 50.00975 | 21.01023 | 78° | 44km/h | 3579m | 5.0m/s | 0°C | 0% | 0hPa | 0V | 00:00:00 | 00:00:00 | 00:00:00 | |
| SQ9EZE-12 | 2026-09-01 23:26:08 | 50.00978 | 21.00963 | 102° | 24km/h | 3560m | 3.8m/s | 0°C | 0% | 0hPa | 0V | 00:00:00 | 00:00:00 | 00:00:00 | |
| AKAW68 | 2026-09-01 23:26:01 | 50.00976 | 21.00884 | 76° | 22km/h | 3527m | 3.7m/s | 0°C | 0% | 0hPa | 0V | 00:00:00 | 00:00:00 | 00:00:00 | |
| SQ9PSP-11 | 2026-09-01 23:25:57 | 50.00957 | 21.00836 | 60° | 51km/h | 3509m | 5.0m/s | 0°C | 0% | 0hPa | 0V | 00:00:00 | 00:00:00 | 00:00:00 | |
| SQ9EZE-12 | 2026-09-01 23:25:53 | 50.00947 | 21.00774 | 99° | 29km/h | 3486m | 3.8m/s | 0°C | 0% | 0hPa | 0V | 00:00:00 | 00:00:00 | 00:00:00 | |
| MIELECB | 2026-09-01 23:25:47 | 50.00939 | 21.00698 | 100° | 46km/h | 3457m | 4.4m/s | 0°C | 0% | 0hPa | 0V | 00:00:00 | 00:00:00 | 00:00:00 | |
| SQ9PSP-11 | 2026-09-01 23:25:41 | 50.00943 | 21.00586 | 66° | 35km/h | 3428m | 6.6m/s | 0°C | 0% | 0hPa | 0V | 00:00:00 | 00:00:00 | 00:00:00 | |
| AKAW68 | 2026-09-01 23:25:40 | 50.00940 | 21.00575 | 68° | 26km/h | 3422m | 4.7m/s | 0°C | 0% | 0hPa | 0V | 00:00:00 | 00:00:00 | 00:00:00 | |
| MIELECB | 2026-09-01 23:25:39 | 50.00937 | 21.00566 | 68° | 24km/h | 3417m | 3.7m/s | 0°C | 0% | 0hPa | 0V | 00:00:00 | 00:00:00 | 00:00:00 | |
| SQ9EZE-12 | 2026-09-01 23:25:37 | 50.00934 | 21.00549 | 74° | 26km/h | 3409m | 3.7m/s | 0°C | 0% | 0hPa | 0V | 00:00:00 | 00:00:00 | 00:00:00 | |
| MIELECB | 2026-09-01 23:25:34 | 50.00925 | 21.00507 | 76° | 46km/h | 3394m | 5.9m/s | 0°C | 0% | 0hPa | 0V | 00:00:00 | 00:00:00 | 00:00:00 | |
| SQ9PSP-11 | 2026-09-01 23:25:27 | 50.00929 | 21.00386 | 88° | 53km/h | 3357m | 2.9m/s | 0°C | 0% | 0hPa | 0V | 00:00:00 | 00:00:00 | 00:00:00 | |
| AKAW68 | 2026-09-01 23:25:20 | 50.00911 | 21.00301 | 103° | 31km/h | 3320m | 5.2m/s | 0°C | 0% | 0hPa | 0V | 00:00:00 | 00:00:00 | 00:00:00 | |
| SQ9EZE-12 | 2026-09-01 23:25:13 | 50.00904 | 21.00201 | 61° | 47km/h | 3292m | 1.8m/s | 0°C | 0% | 0hPa | 0V | 00:00:00 | 00:00:00 | 00:00:00 | |
| SQ9PSP-11 | 2026-09-01 23:25:10 | 50.00895 | 21.00156 | 94° | 37km/h | 3279m | 5.1m/s | 0°C | 0% | 0hPa | 0V | 00:00:00 | 00:00:00 | 00:00:00 | |
| SQ9EZE-12 | 2026-09-01 23:24:56 | 50.00877 | 20.99927 | 84° | 37km/h | 3205m | 5.9m/s | 0°C | 0% | 0hPa | 0V | 00:00:00 | 00:00:00 | 00:00:00 | |
| SQ9PSP-11 | 2026-09-01 23:24:55 | 50.00875 | 20.99915 | 74° | 27km/h | 3198m | 7.2m/s | 0°C | 0% | 0hPa | 0V | 00:00:00 | 00:00:00 | 00:00:00 | |
| AKAW68 | 2026-09-01 23:24:54 | 50.00873 | 20.99906 | 64° | 22km/h | 3191m | 4.4m/s | 0°C | 0% | 0hPa | 0V | 00:00:00 | 00:00:00 | 00:00:00 | |
| SQ9PSP-11 | 2026-09-01 23:24:40 | 50.00853 | 20.99730 | 77° | 35km/h | 3114m | 2.9m/s | 0°C | 0% | 0hPa | 0V | 00:00:00 | 00:00:00 | 00:00:00 | |
| AKAW68 | 2026-09-01 23:24:33 | 50.00838 | 20.99606 | 73° | 29km/h | 3078m | 5.4m/s | 0°C | 0% | 0hPa | 0V | 00:00:00 | 00:00:00 | 00:00:00 | |
| SQ9PSP-11 | 2026-09-01 23:24:24 | 50.00825 | 20.99477 | 103° | 51km/h | 3034m | 3.7m/s | 0°C | 0% | 0hPa | 0V | 00:00:00 | 00:00:00 | 00:00:00 | |
| SQ9EZE-12 | 2026-09-01 23:24:21 | 50.00833 | 20.99433 | 80° | 29km/h | 3019m | 6.7m/s | 0°C | 0% | 0hPa | 0V | 00:00:00 | 00:00:00 | 00:00:00 | |
| AKAW68 | 2026-09-01 23:24:10 | 50.00819 | 20.99262 | 61° | 37km/h | 2967m | 5.0m/s | 0°C | 0% | 0hPa | 0V | 00:00:00 | 00:00:00 | 00:00:00 | |
| SQ9PSP-11 | 2026-09-01 23:24:08 | 50.00816 | 20.99238 | 99° | 35km/h | 2957m | 7.3m/s | 0°C | 0% | 0hPa | 0V | 00:00:00 | 00:00:00 | 00:00:00 | |
| SQ9EZE-12 | 2026-09-01 23:24:04 | 50.00829 | 20.99174 | 114° | 33km/h | 2933m | 4.0m/s | 0°C | 0% | 0hPa | 0V | 00:00:00 | 00:00:00 | 00:00:00 | |
| SQ9PSP-11 | 2026-09-01 23:23:52 | 50.00804 | 20.99012 | 58° | 29km/h | 2876m | 3.3m/s | 0°C | 0% | 0hPa | 0V | 00:00:00 | 00:00:00 | 00:00:00 | |
| AKAW68 | 2026-09-01 23:23:49 | 50.00797 | 20.98984 | 91° | 26km/h | 2866m | 3.9m/s | 0°C | 0% | 0hPa | 0V | 00:00:00 | 00:00:00 | 00:00:00 | |
| SQ9EZE-12 | 2026-09-01 23:23:40 | 50.00785 | 20.98894 | 111° | 27km/h | 2826m | 3.8m/s | 0°C | 0% | 0hPa | 0V | 00:00:00 | 00:00:00 | 00:00:00 | |
| SQ9PSP-11 | 2026-09-01 23:23:37 | 50.00795 | 20.98866 | 114° | 20km/h | 2811m | 2.6m/s | 0°C | 0% | 0hPa | 0V | 00:00:00 | 00:00:00 | 00:00:00 | |
| AKAW68 | 2026-09-01 23:23:25 | 50.00773 | 20.98733 | 115° | 31km/h | 2754m | 4.9m/s | 0°C | 0% | 0hPa | 0V | 00:00:00 | 00:00:00 | 00:00:00 | |
| SQ9EZE-12 | 2026-09-01 23:23:16 | 50.00805 | 20.98607 | 87° | 29km/h | 2704m | 5.6m/s | 0°C | 0% | 0hPa | 0V | 00:00:00 | 00:00:00 | 00:00:00 | |
| SQ9PSP-11 | 2026-09-01 23:23:06 | 50.00829 | 20.98459 | 103° | 49km/h | 2654m | 4.9m/s | 0°C | 0% | 0hPa | 0V | 00:00:00 | 00:00:00 | 00:00:00 | |
| AKAW68 | 2026-09-01 23:23:05 | 50.00830 | 20.98440 | 90° | 46km/h | 2649m | 4.8m/s | 0°C | 0% | 0hPa | 0V | 00:00:00 | 00:00:00 | 00:00:00 | |
| SQ9PSP-11 | 2026-09-01 23:22:51 | 50.00883 | 20.98268 | 117° | 29km/h | 2578m | 3.7m/s | 0°C | 0% | 0hPa | 0V | 00:00:00 | 00:00:00 | 00:00:00 | |
| SQ9EZE-12 | 2026-09-01 23:22:47 | 50.00899 | 20.98237 | 129° | 44km/h | 2556m | 5.6m/s | 0°C | 0% | 0hPa | 0V | 00:00:00 | 00:00:00 | 00:00:00 | |
| AKAW68 | 2026-09-01 23:22:45 | 50.00911 | 20.98202 | 116° | 57km/h | 2542m | 5.2m/s | 0°C | 0% | 0hPa | 0V | 00:00:00 | 00:00:00 | 00:00:00 | |
| SQ9PSP-11 | 2026-09-01 23:22:35 | 50.00974 | 20.98088 | 103° | 29km/h | 2487m | 3.5m/s | 0°C | 0% | 0hPa | 0V | 00:00:00 | 00:00:00 | 00:00:00 | |
| SQ9EZE-12 | 2026-09-01 23:22:30 | 50.00999 | 20.98049 | 136° | 42km/h | 2466m | 3.7m/s | 0°C | 0% | 0hPa | 0V | 00:00:00 | 00:00:00 | 00:00:00 | |
| AKAW68 | 2026-09-01 23:22:25 | 50.01015 | 20.97985 | 134° | 38km/h | 2438m | 5.1m/s | 0°C | 0% | 0hPa | 0V | 00:00:00 | 00:00:00 | 00:00:00 | |
| SQ9PSP-11 | 2026-09-01 23:22:19 | 50.01039 | 20.97887 | 110° | 35km/h | 2401m | 5.0m/s | 0°C | 0% | 0hPa | 0V | 00:00:00 | 00:00:00 | 00:00:00 | |
| SQ9EZE-12 | 2026-09-01 23:22:13 | 50.01067 | 20.97820 | 127° | 37km/h | 2362m | 7.0m/s | 0°C | 0% | 0hPa | 0V | 00:00:00 | 00:00:00 | 00:00:00 | |
| AKAW68 | 2026-09-01 23:22:05 | 50.01115 | 20.97686 | 132° | 49km/h | 2327m | 4.3m/s | 0°C | 0% | 0hPa | 0V | 00:00:00 | 00:00:00 | 00:00:00 | |
| SQ9PSP-11 | 2026-09-01 23:22:04 | 50.01123 | 20.97672 | 133° | 40km/h | 2323m | 4.4m/s | 0°C | 0% | 0hPa | 0V | 00:00:00 | 00:00:00 | 00:00:00 | |
| SQ9EZE-12 | 2026-09-01 23:21:56 | 50.01143 | 20.97573 | 97° | 46km/h | 2278m | 5.7m/s | 0°C | 0% | 0hPa | 0V | 00:00:00 | 00:00:00 | 00:00:00 | |
| SQ9PSP-11 | 2026-09-01 23:21:47 | 50.01180 | 20.97471 | 90° | 42km/h | 2221m | 5.3m/s | 0°C | 0% | 0hPa | 0V | 00:00:00 | 00:00:00 | 00:00:00 | |
| AKAW68 | 2026-09-01 23:21:42 | 50.01191 | 20.97384 | 116° | 31km/h | 2195m | 7.0m/s | 0°C | 0% | 0hPa | 0V | 00:00:00 | 00:00:00 | 00:00:00 | |
| SQ9PSP-11 | 2026-09-01 23:21:32 | 50.01245 | 20.97262 | 116° | 51km/h | 2148m | 5.0m/s | 0°C | 0% | 0hPa | 0V | 00:00:00 | 00:00:00 | 00:00:00 | |
| AKAW68 | 2026-09-01 23:21:21 | 50.01268 | 20.97089 | 110° | 51km/h | 2097m | 5.6m/s | 0°C | 0% | 0hPa | 0V | 00:00:00 | 00:00:00 | 00:00:00 | |
| SQ9PSP-11 | 2026-09-01 23:21:13 | 50.01293 | 20.96989 | 90° | 40km/h | 2043m | 6.2m/s | 0°C | 0% | 0hPa | 0V | 00:00:00 | 00:00:00 | 00:00:00 | |
| AKAW68 | 2026-09-01 23:21:01 | 50.01316 | 20.96830 | 100° | 40km/h | 1982m | 4.6m/s | 0°C | 0% | 0hPa | 0V | 00:00:00 | 00:00:00 | 00:00:00 | |
| SQ9EZE-12 | 2026-09-01 23:21:00 | 50.01319 | 20.96815 | 113° | 40km/h | 1976m | 5.8m/s | 0°C | 0% | 0hPa | 0V | 00:00:00 | 00:00:00 | 00:00:00 | |
| MIELECB | 2026-09-01 23:20:52 | 50.01368 | 20.96735 | 115° | 42km/h | 1938m | 6.1m/s | 0°C | 0% | 0hPa | 0V | 00:00:00 | 00:00:00 | 00:00:00 | |
| SQ9EZE-12 | 2026-09-01 23:20:45 | 50.01386 | 20.96648 | 143° | 27km/h | 1896m | 3.8m/s | 0°C | 0% | 0hPa | 0V | 00:00:00 | 00:00:00 | 00:00:00 | |
| SQ9PSP-11 | 2026-09-01 23:20:45 | 50.01386 | 20.96648 | 143° | 27km/h | 1896m | 3.8m/s | 0°C | 0% | 0hPa | 0V | 00:00:00 | 00:00:00 | 00:00:00 | |
| MIELECB | 2026-09-01 23:20:44 | 50.01389 | 20.96642 | 122° | 16km/h | 1891m | 5.3m/s | 0°C | 0% | 0hPa | 0V | 00:00:00 | 00:00:00 | 00:00:00 | |
| AKAW68 | 2026-09-01 23:20:40 | 50.01392 | 20.96599 | 98° | 44km/h | 1872m | 4.3m/s | 0°C | 0% | 0hPa | 0V | 00:00:00 | 00:00:00 | 00:00:00 | |
| SQ9PSP-11 | 2026-09-01 23:20:28 | 50.01452 | 20.96469 | 130° | 31km/h | 1812m | 4.8m/s | 0°C | 0% | 0hPa | 0V | 00:00:00 | 00:00:00 | 00:00:00 | |
| AKAW68 | 2026-09-01 23:20:18 | 50.01503 | 20.96370 | 146° | 40km/h | 1757m | 3.8m/s | 0°C | 0% | 0hPa | 0V | 00:00:00 | 00:00:00 | 00:00:00 | |
| SQ9PSP-11 | 2026-09-01 23:20:13 | 50.01531 | 20.96303 | 98° | 40km/h | 1737m | 3.1m/s | 0°C | 0% | 0hPa | 0V | 00:00:00 | 00:00:00 | 00:00:00 | |
| AKAW68 | 2026-09-01 23:19:57 | 50.01612 | 20.96098 | 129° | 47km/h | 1650m | 4.1m/s | 0°C | 0% | 0hPa | 0V | 00:00:00 | 00:00:00 | 00:00:00 | |
| SQ9PSP-11 | 2026-09-01 23:19:57 | 50.01612 | 20.96098 | 129° | 47km/h | 1650m | 4.1m/s | 0°C | 0% | 0hPa | 0V | 00:00:00 | 00:00:00 | 00:00:00 | |
| SQ9PSP-11 | 2026-09-01 23:19:41 | 50.01694 | 20.95958 | 124° | 44km/h | 1564m | 5.9m/s | 0°C | 0% | 0hPa | 0V | 00:00:00 | 00:00:00 | 00:00:00 | |
| AKAW68 | 2026-09-01 23:19:36 | 50.01726 | 20.95877 | 120° | 49km/h | 1540m | 2.7m/s | 0°C | 0% | 0hPa | 0V | 00:00:00 | 00:00:00 | 00:00:00 | |
| AKAW68 | 2026-09-01 23:19:16 | 50.01839 | 20.95673 | 103° | 38km/h | 1435m | 6.9m/s | 0°C | 0% | 0hPa | 0V | 00:00:00 | 00:00:00 | 00:00:00 | |
| AKAW68 | 2026-09-01 23:18:55 | 50.01949 | 20.95442 | 119° | 40km/h | 1321m | 0.9m/s | 0°C | 0% | 0hPa | 0V | 00:00:00 | 00:00:00 | 00:00:00 | |
| AKAW68 | 2026-09-01 23:18:35 | 50.02041 | 20.95217 | 152° | 29km/h | 1225m | 3.8m/s | 0°C | 0% | 0hPa | 0V | 00:00:00 | 00:00:00 | 00:00:00 | |
| AKAW68 | 2026-09-01 23:18:13 | 50.02145 | 20.94994 | 111° | 24km/h | 1102m | 6.3m/s | 0°C | 0% | 0hPa | 0V | 00:00:00 | 00:00:00 | 00:00:00 | |
| AKAW68 | 2026-09-01 23:17:34 | 50.02325 | 20.94633 | 114° | 37km/h | 910m | 6.0m/s | 0°C | 0% | 0hPa | 0V | 00:00:00 | 00:00:00 | 00:00:00 |